<?xml version="1.0" encoding="UTF-8" standalone="no" ?>
<gpx xmlns="http://www.topografix.com/GPX/1/1" xmlns:xsi="http://www.w3.org/2001/XMLSchema-instance" xsi:schemaLocation="http://www.topografix.com/GPX/1/1 http://www.topografix.com/GPX/1/1/gpx.xsd" version="1.1" creator="VisuGPX - https://www.visugpx.com">
  <metadata>
    <name>Tour Cardet avec Gilou</name>
    <desc><![CDATA[Tour Cardet avec Gilou]]></desc>
  </metadata>
  <trk>
    <name><![CDATA[Gilou]]></name>
    <trkseg>
      <trkpt lat="44.01557" lon="4.07598">
        <ele>195</ele>
        <time>2011-02-27T13:44:12Z</time>
      </trkpt>
      <trkpt lat="44.01557" lon="4.07598">
        <ele>195</ele>
        <time>2011-02-27T13:44:19Z</time>
      </trkpt>
      <trkpt lat="44.01557" lon="4.07588">
        <ele>194</ele>
        <time>2011-02-27T13:44:32Z</time>
      </trkpt>
      <trkpt lat="44.01557" lon="4.07588">
        <ele>193</ele>
        <time>2011-02-27T13:44:37Z</time>
      </trkpt>
      <trkpt lat="44.01555" lon="4.07591">
        <ele>188</ele>
        <time>2011-02-27T13:45:14Z</time>
      </trkpt>
      <trkpt lat="44.01552" lon="4.07586">
        <ele>197</ele>
        <time>2011-02-27T13:46:09Z</time>
      </trkpt>
      <trkpt lat="44.01548" lon="4.07581">
        <ele>198</ele>
        <time>2011-02-27T13:46:15Z</time>
      </trkpt>
      <trkpt lat="44.01546" lon="4.07579">
        <ele>202</ele>
        <time>2011-02-27T13:46:19Z</time>
      </trkpt>
      <trkpt lat="44.01546" lon="4.07571">
        <ele>203</ele>
        <time>2011-02-27T13:46:25Z</time>
      </trkpt>
      <trkpt lat="44.0155" lon="4.07568">
        <ele>203</ele>
        <time>2011-02-27T13:46:27Z</time>
      </trkpt>
      <trkpt lat="44.01556" lon="4.07568">
        <ele>203</ele>
        <time>2011-02-27T13:46:29Z</time>
      </trkpt>
      <trkpt lat="44.0156" lon="4.0757">
        <ele>202</ele>
        <time>2011-02-27T13:46:31Z</time>
      </trkpt>
      <trkpt lat="44.01562" lon="4.07571">
        <ele>202</ele>
        <time>2011-02-27T13:46:32Z</time>
      </trkpt>
      <trkpt lat="44.01566" lon="4.07572">
        <ele>200</ele>
        <time>2011-02-27T13:46:42Z</time>
      </trkpt>
      <trkpt lat="44.01561" lon="4.07575">
        <ele>200</ele>
        <time>2011-02-27T13:47:00Z</time>
      </trkpt>
      <trkpt lat="44.01556" lon="4.07578">
        <ele>200</ele>
        <time>2011-02-27T13:47:02Z</time>
      </trkpt>
      <trkpt lat="44.01554" lon="4.07582">
        <ele>200</ele>
        <time>2011-02-27T13:47:03Z</time>
      </trkpt>
      <trkpt lat="44.01553" lon="4.07585">
        <ele>200</ele>
        <time>2011-02-27T13:47:04Z</time>
      </trkpt>
      <trkpt lat="44.01552" lon="4.07593">
        <ele>200</ele>
        <time>2011-02-27T13:47:07Z</time>
      </trkpt>
      <trkpt lat="44.01555" lon="4.076">
        <ele>200</ele>
        <time>2011-02-27T13:47:09Z</time>
      </trkpt>
      <trkpt lat="44.01561" lon="4.07606">
        <ele>200</ele>
        <time>2011-02-27T13:47:11Z</time>
      </trkpt>
      <trkpt lat="44.0157" lon="4.07604">
        <ele>200</ele>
        <time>2011-02-27T13:47:13Z</time>
      </trkpt>
      <trkpt lat="44.01573" lon="4.07597">
        <ele>199</ele>
        <time>2011-02-27T13:47:14Z</time>
      </trkpt>
      <trkpt lat="44.01576" lon="4.07591">
        <ele>200</ele>
        <time>2011-02-27T13:47:15Z</time>
      </trkpt>
      <trkpt lat="44.01579" lon="4.07586">
        <ele>200</ele>
        <time>2011-02-27T13:47:16Z</time>
      </trkpt>
      <trkpt lat="44.01583" lon="4.07579">
        <ele>200</ele>
        <time>2011-02-27T13:47:18Z</time>
      </trkpt>
      <trkpt lat="44.01588" lon="4.07582">
        <ele>201</ele>
        <time>2011-02-27T13:47:21Z</time>
      </trkpt>
      <trkpt lat="44.01591" lon="4.07589">
        <ele>201</ele>
        <time>2011-02-27T13:47:24Z</time>
      </trkpt>
      <trkpt lat="44.01594" lon="4.07596">
        <ele>201</ele>
        <time>2011-02-27T13:47:26Z</time>
      </trkpt>
      <trkpt lat="44.01596" lon="4.07605">
        <ele>201</ele>
        <time>2011-02-27T13:47:28Z</time>
      </trkpt>
      <trkpt lat="44.01599" lon="4.07614">
        <ele>201</ele>
        <time>2011-02-27T13:47:30Z</time>
      </trkpt>
      <trkpt lat="44.01602" lon="4.07623">
        <ele>200</ele>
        <time>2011-02-27T13:47:32Z</time>
      </trkpt>
      <trkpt lat="44.01605" lon="4.07632">
        <ele>200</ele>
        <time>2011-02-27T13:47:34Z</time>
      </trkpt>
      <trkpt lat="44.01606" lon="4.07642">
        <ele>199</ele>
        <time>2011-02-27T13:47:36Z</time>
      </trkpt>
      <trkpt lat="44.01606" lon="4.07653">
        <ele>199</ele>
        <time>2011-02-27T13:47:38Z</time>
      </trkpt>
      <trkpt lat="44.01607" lon="4.07664">
        <ele>198</ele>
        <time>2011-02-27T13:47:40Z</time>
      </trkpt>
      <trkpt lat="44.01607" lon="4.0767">
        <ele>198</ele>
        <time>2011-02-27T13:47:41Z</time>
      </trkpt>
      <trkpt lat="44.01609" lon="4.07681">
        <ele>198</ele>
        <time>2011-02-27T13:47:43Z</time>
      </trkpt>
      <trkpt lat="44.01611" lon="4.07685">
        <ele>198</ele>
        <time>2011-02-27T13:47:44Z</time>
      </trkpt>
      <trkpt lat="44.01615" lon="4.07697">
        <ele>199</ele>
        <time>2011-02-27T13:47:46Z</time>
      </trkpt>
      <trkpt lat="44.01614" lon="4.07705">
        <ele>199</ele>
        <time>2011-02-27T13:47:47Z</time>
      </trkpt>
      <trkpt lat="44.01613" lon="4.07713">
        <ele>200</ele>
        <time>2011-02-27T13:47:48Z</time>
      </trkpt>
      <trkpt lat="44.0161" lon="4.0772">
        <ele>200</ele>
        <time>2011-02-27T13:47:49Z</time>
      </trkpt>
      <trkpt lat="44.01608" lon="4.07728">
        <ele>200</ele>
        <time>2011-02-27T13:47:50Z</time>
      </trkpt>
      <trkpt lat="44.01605" lon="4.07736">
        <ele>200</ele>
        <time>2011-02-27T13:47:51Z</time>
      </trkpt>
      <trkpt lat="44.01602" lon="4.07744">
        <ele>200</ele>
        <time>2011-02-27T13:47:52Z</time>
      </trkpt>
      <trkpt lat="44.01598" lon="4.07752">
        <ele>200</ele>
        <time>2011-02-27T13:47:53Z</time>
      </trkpt>
      <trkpt lat="44.01594" lon="4.0776">
        <ele>200</ele>
        <time>2011-02-27T13:47:54Z</time>
      </trkpt>
      <trkpt lat="44.01591" lon="4.07769">
        <ele>200</ele>
        <time>2011-02-27T13:47:55Z</time>
      </trkpt>
      <trkpt lat="44.0159" lon="4.07778">
        <ele>198</ele>
        <time>2011-02-27T13:47:56Z</time>
      </trkpt>
      <trkpt lat="44.01591" lon="4.07786">
        <ele>197</ele>
        <time>2011-02-27T13:47:57Z</time>
      </trkpt>
      <trkpt lat="44.01592" lon="4.07795">
        <ele>196</ele>
        <time>2011-02-27T13:47:58Z</time>
      </trkpt>
      <trkpt lat="44.01593" lon="4.07803">
        <ele>196</ele>
        <time>2011-02-27T13:47:59Z</time>
      </trkpt>
      <trkpt lat="44.01596" lon="4.07811">
        <ele>196</ele>
        <time>2011-02-27T13:48:00Z</time>
      </trkpt>
      <trkpt lat="44.016" lon="4.07818">
        <ele>196</ele>
        <time>2011-02-27T13:48:01Z</time>
      </trkpt>
      <trkpt lat="44.01603" lon="4.07825">
        <ele>196</ele>
        <time>2011-02-27T13:48:02Z</time>
      </trkpt>
      <trkpt lat="44.01605" lon="4.07832">
        <ele>196</ele>
        <time>2011-02-27T13:48:03Z</time>
      </trkpt>
      <trkpt lat="44.01607" lon="4.07839">
        <ele>195</ele>
        <time>2011-02-27T13:48:04Z</time>
      </trkpt>
      <trkpt lat="44.01608" lon="4.07846">
        <ele>195</ele>
        <time>2011-02-27T13:48:05Z</time>
      </trkpt>
      <trkpt lat="44.01608" lon="4.07852">
        <ele>195</ele>
        <time>2011-02-27T13:48:06Z</time>
      </trkpt>
      <trkpt lat="44.01608" lon="4.07859">
        <ele>194</ele>
        <time>2011-02-27T13:48:07Z</time>
      </trkpt>
      <trkpt lat="44.01606" lon="4.07865">
        <ele>193</ele>
        <time>2011-02-27T13:48:08Z</time>
      </trkpt>
      <trkpt lat="44.01603" lon="4.07872">
        <ele>192</ele>
        <time>2011-02-27T13:48:09Z</time>
      </trkpt>
      <trkpt lat="44.016" lon="4.07877">
        <ele>192</ele>
        <time>2011-02-27T13:48:10Z</time>
      </trkpt>
      <trkpt lat="44.01598" lon="4.07883">
        <ele>191</ele>
        <time>2011-02-27T13:48:11Z</time>
      </trkpt>
      <trkpt lat="44.01595" lon="4.07888">
        <ele>191</ele>
        <time>2011-02-27T13:48:12Z</time>
      </trkpt>
      <trkpt lat="44.01592" lon="4.07893">
        <ele>190</ele>
        <time>2011-02-27T13:48:13Z</time>
      </trkpt>
      <trkpt lat="44.01586" lon="4.07903">
        <ele>188</ele>
        <time>2011-02-27T13:48:15Z</time>
      </trkpt>
      <trkpt lat="44.01583" lon="4.07908">
        <ele>188</ele>
        <time>2011-02-27T13:48:16Z</time>
      </trkpt>
      <trkpt lat="44.0158" lon="4.07912">
        <ele>187</ele>
        <time>2011-02-27T13:48:17Z</time>
      </trkpt>
      <trkpt lat="44.01578" lon="4.07917">
        <ele>186</ele>
        <time>2011-02-27T13:48:18Z</time>
      </trkpt>
      <trkpt lat="44.01572" lon="4.07926">
        <ele>185</ele>
        <time>2011-02-27T13:48:20Z</time>
      </trkpt>
      <trkpt lat="44.01567" lon="4.07935">
        <ele>184</ele>
        <time>2011-02-27T13:48:22Z</time>
      </trkpt>
      <trkpt lat="44.0156" lon="4.07943">
        <ele>183</ele>
        <time>2011-02-27T13:48:24Z</time>
      </trkpt>
      <trkpt lat="44.01554" lon="4.07951">
        <ele>182</ele>
        <time>2011-02-27T13:48:26Z</time>
      </trkpt>
      <trkpt lat="44.0155" lon="4.07956">
        <ele>181</ele>
        <time>2011-02-27T13:48:27Z</time>
      </trkpt>
      <trkpt lat="44.01546" lon="4.07961">
        <ele>181</ele>
        <time>2011-02-27T13:48:28Z</time>
      </trkpt>
      <trkpt lat="44.01541" lon="4.07966">
        <ele>180</ele>
        <time>2011-02-27T13:48:29Z</time>
      </trkpt>
      <trkpt lat="44.01537" lon="4.07971">
        <ele>180</ele>
        <time>2011-02-27T13:48:30Z</time>
      </trkpt>
      <trkpt lat="44.01533" lon="4.07975">
        <ele>179</ele>
        <time>2011-02-27T13:48:31Z</time>
      </trkpt>
      <trkpt lat="44.01529" lon="4.07979">
        <ele>179</ele>
        <time>2011-02-27T13:48:32Z</time>
      </trkpt>
      <trkpt lat="44.01522" lon="4.07986">
        <ele>179</ele>
        <time>2011-02-27T13:48:34Z</time>
      </trkpt>
      <trkpt lat="44.01515" lon="4.07992">
        <ele>178</ele>
        <time>2011-02-27T13:48:36Z</time>
      </trkpt>
      <trkpt lat="44.01508" lon="4.07997">
        <ele>177</ele>
        <time>2011-02-27T13:48:38Z</time>
      </trkpt>
      <trkpt lat="44.01501" lon="4.08002">
        <ele>176</ele>
        <time>2011-02-27T13:48:40Z</time>
      </trkpt>
      <trkpt lat="44.01494" lon="4.08008">
        <ele>174</ele>
        <time>2011-02-27T13:48:42Z</time>
      </trkpt>
      <trkpt lat="44.01491" lon="4.08011">
        <ele>173</ele>
        <time>2011-02-27T13:48:43Z</time>
      </trkpt>
      <trkpt lat="44.01485" lon="4.08019">
        <ele>172</ele>
        <time>2011-02-27T13:48:45Z</time>
      </trkpt>
      <trkpt lat="44.0148" lon="4.08027">
        <ele>170</ele>
        <time>2011-02-27T13:48:47Z</time>
      </trkpt>
      <trkpt lat="44.01476" lon="4.08037">
        <ele>169</ele>
        <time>2011-02-27T13:48:49Z</time>
      </trkpt>
      <trkpt lat="44.01472" lon="4.08047">
        <ele>169</ele>
        <time>2011-02-27T13:48:51Z</time>
      </trkpt>
      <trkpt lat="44.01468" lon="4.08057">
        <ele>168</ele>
        <time>2011-02-27T13:48:53Z</time>
      </trkpt>
      <trkpt lat="44.01464" lon="4.08068">
        <ele>168</ele>
        <time>2011-02-27T13:48:55Z</time>
      </trkpt>
      <trkpt lat="44.01462" lon="4.08074">
        <ele>168</ele>
        <time>2011-02-27T13:48:56Z</time>
      </trkpt>
      <trkpt lat="44.0146" lon="4.0808">
        <ele>168</ele>
        <time>2011-02-27T13:48:57Z</time>
      </trkpt>
      <trkpt lat="44.01458" lon="4.08085">
        <ele>167</ele>
        <time>2011-02-27T13:48:58Z</time>
      </trkpt>
      <trkpt lat="44.01456" lon="4.08091">
        <ele>167</ele>
        <time>2011-02-27T13:48:59Z</time>
      </trkpt>
      <trkpt lat="44.01452" lon="4.08102">
        <ele>167</ele>
        <time>2011-02-27T13:49:01Z</time>
      </trkpt>
      <trkpt lat="44.0145" lon="4.08108">
        <ele>168</ele>
        <time>2011-02-27T13:49:02Z</time>
      </trkpt>
      <trkpt lat="44.01448" lon="4.08114">
        <ele>168</ele>
        <time>2011-02-27T13:49:03Z</time>
      </trkpt>
      <trkpt lat="44.01446" lon="4.08119">
        <ele>168</ele>
        <time>2011-02-27T13:49:04Z</time>
      </trkpt>
      <trkpt lat="44.01442" lon="4.0813">
        <ele>168</ele>
        <time>2011-02-27T13:49:06Z</time>
      </trkpt>
      <trkpt lat="44.01437" lon="4.0814">
        <ele>168</ele>
        <time>2011-02-27T13:49:08Z</time>
      </trkpt>
      <trkpt lat="44.01432" lon="4.0815">
        <ele>169</ele>
        <time>2011-02-27T13:49:10Z</time>
      </trkpt>
      <trkpt lat="44.01428" lon="4.08154">
        <ele>169</ele>
        <time>2011-02-27T13:49:11Z</time>
      </trkpt>
      <trkpt lat="44.01424" lon="4.08158">
        <ele>169</ele>
        <time>2011-02-27T13:49:12Z</time>
      </trkpt>
      <trkpt lat="44.0142" lon="4.08162">
        <ele>169</ele>
        <time>2011-02-27T13:49:13Z</time>
      </trkpt>
      <trkpt lat="44.01416" lon="4.08165">
        <ele>169</ele>
        <time>2011-02-27T13:49:14Z</time>
      </trkpt>
      <trkpt lat="44.01412" lon="4.08168">
        <ele>169</ele>
        <time>2011-02-27T13:49:15Z</time>
      </trkpt>
      <trkpt lat="44.01408" lon="4.08171">
        <ele>169</ele>
        <time>2011-02-27T13:49:16Z</time>
      </trkpt>
      <trkpt lat="44.01403" lon="4.08174">
        <ele>169</ele>
        <time>2011-02-27T13:49:17Z</time>
      </trkpt>
      <trkpt lat="44.01399" lon="4.08177">
        <ele>169</ele>
        <time>2011-02-27T13:49:18Z</time>
      </trkpt>
      <trkpt lat="44.01395" lon="4.0818">
        <ele>169</ele>
        <time>2011-02-27T13:49:19Z</time>
      </trkpt>
      <trkpt lat="44.01391" lon="4.08183">
        <ele>169</ele>
        <time>2011-02-27T13:49:20Z</time>
      </trkpt>
      <trkpt lat="44.01383" lon="4.08188">
        <ele>169</ele>
        <time>2011-02-27T13:49:22Z</time>
      </trkpt>
      <trkpt lat="44.0138" lon="4.0819">
        <ele>169</ele>
        <time>2011-02-27T13:49:23Z</time>
      </trkpt>
      <trkpt lat="44.01374" lon="4.08196">
        <ele>169</ele>
        <time>2011-02-27T13:49:25Z</time>
      </trkpt>
      <trkpt lat="44.01371" lon="4.08198">
        <ele>169</ele>
        <time>2011-02-27T13:49:26Z</time>
      </trkpt>
      <trkpt lat="44.01365" lon="4.08203">
        <ele>170</ele>
        <time>2011-02-27T13:49:28Z</time>
      </trkpt>
      <trkpt lat="44.01361" lon="4.08205">
        <ele>170</ele>
        <time>2011-02-27T13:49:29Z</time>
      </trkpt>
      <trkpt lat="44.01355" lon="4.08212">
        <ele>171</ele>
        <time>2011-02-27T13:49:31Z</time>
      </trkpt>
      <trkpt lat="44.0135" lon="4.0822">
        <ele>172</ele>
        <time>2011-02-27T13:49:33Z</time>
      </trkpt>
      <trkpt lat="44.01347" lon="4.08225">
        <ele>172</ele>
        <time>2011-02-27T13:49:34Z</time>
      </trkpt>
      <trkpt lat="44.01343" lon="4.08235">
        <ele>173</ele>
        <time>2011-02-27T13:49:36Z</time>
      </trkpt>
      <trkpt lat="44.0134" lon="4.08244">
        <ele>173</ele>
        <time>2011-02-27T13:49:38Z</time>
      </trkpt>
      <trkpt lat="44.01338" lon="4.08249">
        <ele>173</ele>
        <time>2011-02-27T13:49:39Z</time>
      </trkpt>
      <trkpt lat="44.01336" lon="4.08258">
        <ele>175</ele>
        <time>2011-02-27T13:49:41Z</time>
      </trkpt>
      <trkpt lat="44.01332" lon="4.08266">
        <ele>176</ele>
        <time>2011-02-27T13:49:43Z</time>
      </trkpt>
      <trkpt lat="44.01328" lon="4.08274">
        <ele>177</ele>
        <time>2011-02-27T13:49:45Z</time>
      </trkpt>
      <trkpt lat="44.01324" lon="4.08282">
        <ele>178</ele>
        <time>2011-02-27T13:49:47Z</time>
      </trkpt>
      <trkpt lat="44.01318" lon="4.0829">
        <ele>179</ele>
        <time>2011-02-27T13:49:49Z</time>
      </trkpt>
      <trkpt lat="44.01312" lon="4.08298">
        <ele>179</ele>
        <time>2011-02-27T13:49:51Z</time>
      </trkpt>
      <trkpt lat="44.01308" lon="4.08302">
        <ele>179</ele>
        <time>2011-02-27T13:49:52Z</time>
      </trkpt>
      <trkpt lat="44.01304" lon="4.08306">
        <ele>179</ele>
        <time>2011-02-27T13:49:53Z</time>
      </trkpt>
      <trkpt lat="44.013" lon="4.0831">
        <ele>179</ele>
        <time>2011-02-27T13:49:54Z</time>
      </trkpt>
      <trkpt lat="44.01296" lon="4.08314">
        <ele>179</ele>
        <time>2011-02-27T13:49:55Z</time>
      </trkpt>
      <trkpt lat="44.01291" lon="4.08317">
        <ele>179</ele>
        <time>2011-02-27T13:49:56Z</time>
      </trkpt>
      <trkpt lat="44.01286" lon="4.08321">
        <ele>179</ele>
        <time>2011-02-27T13:49:57Z</time>
      </trkpt>
      <trkpt lat="44.01281" lon="4.08324">
        <ele>178</ele>
        <time>2011-02-27T13:49:58Z</time>
      </trkpt>
      <trkpt lat="44.01276" lon="4.08327">
        <ele>178</ele>
        <time>2011-02-27T13:49:59Z</time>
      </trkpt>
      <trkpt lat="44.01272" lon="4.0833">
        <ele>178</ele>
        <time>2011-02-27T13:50:00Z</time>
      </trkpt>
      <trkpt lat="44.01267" lon="4.08333">
        <ele>178</ele>
        <time>2011-02-27T13:50:01Z</time>
      </trkpt>
      <trkpt lat="44.01262" lon="4.08336">
        <ele>178</ele>
        <time>2011-02-27T13:50:02Z</time>
      </trkpt>
      <trkpt lat="44.01258" lon="4.08339">
        <ele>178</ele>
        <time>2011-02-27T13:50:03Z</time>
      </trkpt>
      <trkpt lat="44.01253" lon="4.08342">
        <ele>178</ele>
        <time>2011-02-27T13:50:04Z</time>
      </trkpt>
      <trkpt lat="44.01249" lon="4.08345">
        <ele>178</ele>
        <time>2011-02-27T13:50:05Z</time>
      </trkpt>
      <trkpt lat="44.01245" lon="4.08348">
        <ele>178</ele>
        <time>2011-02-27T13:50:06Z</time>
      </trkpt>
      <trkpt lat="44.01241" lon="4.08352">
        <ele>178</ele>
        <time>2011-02-27T13:50:07Z</time>
      </trkpt>
      <trkpt lat="44.01237" lon="4.08355">
        <ele>178</ele>
        <time>2011-02-27T13:50:08Z</time>
      </trkpt>
      <trkpt lat="44.01233" lon="4.08358">
        <ele>178</ele>
        <time>2011-02-27T13:50:09Z</time>
      </trkpt>
      <trkpt lat="44.01229" lon="4.08362">
        <ele>178</ele>
        <time>2011-02-27T13:50:10Z</time>
      </trkpt>
      <trkpt lat="44.01225" lon="4.08365">
        <ele>178</ele>
        <time>2011-02-27T13:50:11Z</time>
      </trkpt>
      <trkpt lat="44.01221" lon="4.08369">
        <ele>178</ele>
        <time>2011-02-27T13:50:12Z</time>
      </trkpt>
      <trkpt lat="44.01217" lon="4.08372">
        <ele>178</ele>
        <time>2011-02-27T13:50:13Z</time>
      </trkpt>
      <trkpt lat="44.01209" lon="4.08379">
        <ele>178</ele>
        <time>2011-02-27T13:50:15Z</time>
      </trkpt>
      <trkpt lat="44.01206" lon="4.08382">
        <ele>178</ele>
        <time>2011-02-27T13:50:16Z</time>
      </trkpt>
      <trkpt lat="44.01202" lon="4.08386">
        <ele>178</ele>
        <time>2011-02-27T13:50:17Z</time>
      </trkpt>
      <trkpt lat="44.01198" lon="4.08389">
        <ele>178</ele>
        <time>2011-02-27T13:50:18Z</time>
      </trkpt>
      <trkpt lat="44.01194" lon="4.08393">
        <ele>178</ele>
        <time>2011-02-27T13:50:19Z</time>
      </trkpt>
      <trkpt lat="44.0119" lon="4.08396">
        <ele>178</ele>
        <time>2011-02-27T13:50:20Z</time>
      </trkpt>
      <trkpt lat="44.01186" lon="4.084">
        <ele>178</ele>
        <time>2011-02-27T13:50:21Z</time>
      </trkpt>
      <trkpt lat="44.01183" lon="4.08403">
        <ele>178</ele>
        <time>2011-02-27T13:50:22Z</time>
      </trkpt>
      <trkpt lat="44.01176" lon="4.0841">
        <ele>178</ele>
        <time>2011-02-27T13:50:24Z</time>
      </trkpt>
      <trkpt lat="44.01172" lon="4.08414">
        <ele>179</ele>
        <time>2011-02-27T13:50:25Z</time>
      </trkpt>
      <trkpt lat="44.01168" lon="4.08418">
        <ele>179</ele>
        <time>2011-02-27T13:50:26Z</time>
      </trkpt>
      <trkpt lat="44.01161" lon="4.08425">
        <ele>179</ele>
        <time>2011-02-27T13:50:28Z</time>
      </trkpt>
      <trkpt lat="44.01155" lon="4.08433">
        <ele>179</ele>
        <time>2011-02-27T13:50:30Z</time>
      </trkpt>
      <trkpt lat="44.01152" lon="4.08437">
        <ele>179</ele>
        <time>2011-02-27T13:50:31Z</time>
      </trkpt>
      <trkpt lat="44.01145" lon="4.08446">
        <ele>179</ele>
        <time>2011-02-27T13:50:33Z</time>
      </trkpt>
      <trkpt lat="44.01139" lon="4.08454">
        <ele>180</ele>
        <time>2011-02-27T13:50:35Z</time>
      </trkpt>
      <trkpt lat="44.01134" lon="4.08462">
        <ele>180</ele>
        <time>2011-02-27T13:50:37Z</time>
      </trkpt>
      <trkpt lat="44.01129" lon="4.0847">
        <ele>181</ele>
        <time>2011-02-27T13:50:39Z</time>
      </trkpt>
      <trkpt lat="44.01126" lon="4.08474">
        <ele>181</ele>
        <time>2011-02-27T13:50:40Z</time>
      </trkpt>
      <trkpt lat="44.0112" lon="4.08482">
        <ele>182</ele>
        <time>2011-02-27T13:50:42Z</time>
      </trkpt>
      <trkpt lat="44.01115" lon="4.0849">
        <ele>181</ele>
        <time>2011-02-27T13:50:44Z</time>
      </trkpt>
      <trkpt lat="44.0111" lon="4.08498">
        <ele>182</ele>
        <time>2011-02-27T13:50:46Z</time>
      </trkpt>
      <trkpt lat="44.01104" lon="4.08505">
        <ele>182</ele>
        <time>2011-02-27T13:50:48Z</time>
      </trkpt>
      <trkpt lat="44.011" lon="4.08512">
        <ele>183</ele>
        <time>2011-02-27T13:50:50Z</time>
      </trkpt>
      <trkpt lat="44.01098" lon="4.08516">
        <ele>183</ele>
        <time>2011-02-27T13:50:51Z</time>
      </trkpt>
      <trkpt lat="44.01094" lon="4.08522">
        <ele>184</ele>
        <time>2011-02-27T13:50:53Z</time>
      </trkpt>
      <trkpt lat="44.01091" lon="4.08528">
        <ele>184</ele>
        <time>2011-02-27T13:50:55Z</time>
      </trkpt>
      <trkpt lat="44.01087" lon="4.08534">
        <ele>185</ele>
        <time>2011-02-27T13:50:57Z</time>
      </trkpt>
      <trkpt lat="44.01084" lon="4.08538">
        <ele>186</ele>
        <time>2011-02-27T13:50:59Z</time>
      </trkpt>
      <trkpt lat="44.0108" lon="4.08543">
        <ele>187</ele>
        <time>2011-02-27T13:51:01Z</time>
      </trkpt>
      <trkpt lat="44.01076" lon="4.08548">
        <ele>187</ele>
        <time>2011-02-27T13:51:03Z</time>
      </trkpt>
      <trkpt lat="44.01071" lon="4.08553">
        <ele>188</ele>
        <time>2011-02-27T13:51:05Z</time>
      </trkpt>
      <trkpt lat="44.01065" lon="4.08557">
        <ele>189</ele>
        <time>2011-02-27T13:51:07Z</time>
      </trkpt>
      <trkpt lat="44.01058" lon="4.08562">
        <ele>189</ele>
        <time>2011-02-27T13:51:09Z</time>
      </trkpt>
      <trkpt lat="44.01053" lon="4.08564">
        <ele>189</ele>
        <time>2011-02-27T13:51:10Z</time>
      </trkpt>
      <trkpt lat="44.01048" lon="4.08566">
        <ele>190</ele>
        <time>2011-02-27T13:51:11Z</time>
      </trkpt>
      <trkpt lat="44.01043" lon="4.08569">
        <ele>190</ele>
        <time>2011-02-27T13:51:12Z</time>
      </trkpt>
      <trkpt lat="44.01037" lon="4.08572">
        <ele>191</ele>
        <time>2011-02-27T13:51:13Z</time>
      </trkpt>
      <trkpt lat="44.01031" lon="4.08574">
        <ele>191</ele>
        <time>2011-02-27T13:51:14Z</time>
      </trkpt>
      <trkpt lat="44.01025" lon="4.08576">
        <ele>191</ele>
        <time>2011-02-27T13:51:15Z</time>
      </trkpt>
      <trkpt lat="44.0102" lon="4.08578">
        <ele>191</ele>
        <time>2011-02-27T13:51:16Z</time>
      </trkpt>
      <trkpt lat="44.01015" lon="4.08581">
        <ele>191</ele>
        <time>2011-02-27T13:51:17Z</time>
      </trkpt>
      <trkpt lat="44.01009" lon="4.08583">
        <ele>191</ele>
        <time>2011-02-27T13:51:18Z</time>
      </trkpt>
      <trkpt lat="44.01005" lon="4.08585">
        <ele>191</ele>
        <time>2011-02-27T13:51:19Z</time>
      </trkpt>
      <trkpt lat="44.01" lon="4.08587">
        <ele>191</ele>
        <time>2011-02-27T13:51:20Z</time>
      </trkpt>
      <trkpt lat="44.00993" lon="4.0859">
        <ele>191</ele>
        <time>2011-02-27T13:51:22Z</time>
      </trkpt>
      <trkpt lat="44.00991" lon="4.0859">
        <ele>192</ele>
        <time>2011-02-27T13:51:23Z</time>
      </trkpt>
      <trkpt lat="44.00985" lon="4.08593">
        <ele>192</ele>
        <time>2011-02-27T13:51:25Z</time>
      </trkpt>
      <trkpt lat="44.00981" lon="4.08595">
        <ele>192</ele>
        <time>2011-02-27T13:51:26Z</time>
      </trkpt>
      <trkpt lat="44.00976" lon="4.08598">
        <ele>192</ele>
        <time>2011-02-27T13:51:27Z</time>
      </trkpt>
      <trkpt lat="44.0097" lon="4.086">
        <ele>192</ele>
        <time>2011-02-27T13:51:28Z</time>
      </trkpt>
      <trkpt lat="44.00965" lon="4.08603">
        <ele>192</ele>
        <time>2011-02-27T13:51:29Z</time>
      </trkpt>
      <trkpt lat="44.00958" lon="4.08606">
        <ele>192</ele>
        <time>2011-02-27T13:51:30Z</time>
      </trkpt>
      <trkpt lat="44.00952" lon="4.08609">
        <ele>191</ele>
        <time>2011-02-27T13:51:31Z</time>
      </trkpt>
      <trkpt lat="44.00946" lon="4.08611">
        <ele>190</ele>
        <time>2011-02-27T13:51:32Z</time>
      </trkpt>
      <trkpt lat="44.0094" lon="4.08613">
        <ele>190</ele>
        <time>2011-02-27T13:51:33Z</time>
      </trkpt>
      <trkpt lat="44.00934" lon="4.08615">
        <ele>190</ele>
        <time>2011-02-27T13:51:34Z</time>
      </trkpt>
      <trkpt lat="44.00929" lon="4.08617">
        <ele>190</ele>
        <time>2011-02-27T13:51:35Z</time>
      </trkpt>
      <trkpt lat="44.00923" lon="4.08619">
        <ele>190</ele>
        <time>2011-02-27T13:51:36Z</time>
      </trkpt>
      <trkpt lat="44.00918" lon="4.08621">
        <ele>190</ele>
        <time>2011-02-27T13:51:37Z</time>
      </trkpt>
      <trkpt lat="44.00912" lon="4.08623">
        <ele>190</ele>
        <time>2011-02-27T13:51:38Z</time>
      </trkpt>
      <trkpt lat="44.00907" lon="4.08625">
        <ele>190</ele>
        <time>2011-02-27T13:51:39Z</time>
      </trkpt>
      <trkpt lat="44.00901" lon="4.08628">
        <ele>190</ele>
        <time>2011-02-27T13:51:40Z</time>
      </trkpt>
      <trkpt lat="44.00896" lon="4.08629">
        <ele>191</ele>
        <time>2011-02-27T13:51:41Z</time>
      </trkpt>
      <trkpt lat="44.0089" lon="4.08631">
        <ele>191</ele>
        <time>2011-02-27T13:51:42Z</time>
      </trkpt>
      <trkpt lat="44.00885" lon="4.08632">
        <ele>191</ele>
        <time>2011-02-27T13:51:43Z</time>
      </trkpt>
      <trkpt lat="44.0088" lon="4.08633">
        <ele>191</ele>
        <time>2011-02-27T13:51:44Z</time>
      </trkpt>
      <trkpt lat="44.00875" lon="4.08634">
        <ele>191</ele>
        <time>2011-02-27T13:51:45Z</time>
      </trkpt>
      <trkpt lat="44.00871" lon="4.08635">
        <ele>191</ele>
        <time>2011-02-27T13:51:46Z</time>
      </trkpt>
      <trkpt lat="44.00866" lon="4.08636">
        <ele>191</ele>
        <time>2011-02-27T13:51:47Z</time>
      </trkpt>
      <trkpt lat="44.00857" lon="4.08638">
        <ele>192</ele>
        <time>2011-02-27T13:51:49Z</time>
      </trkpt>
      <trkpt lat="44.0085" lon="4.08642">
        <ele>192</ele>
        <time>2011-02-27T13:51:51Z</time>
      </trkpt>
      <trkpt lat="44.00846" lon="4.08648">
        <ele>193</ele>
        <time>2011-02-27T13:51:53Z</time>
      </trkpt>
      <trkpt lat="44.00841" lon="4.08657">
        <ele>193</ele>
        <time>2011-02-27T13:51:55Z</time>
      </trkpt>
      <trkpt lat="44.00839" lon="4.08668">
        <ele>194</ele>
        <time>2011-02-27T13:51:57Z</time>
      </trkpt>
      <trkpt lat="44.0084" lon="4.08678">
        <ele>194</ele>
        <time>2011-02-27T13:51:59Z</time>
      </trkpt>
      <trkpt lat="44.00842" lon="4.08687">
        <ele>195</ele>
        <time>2011-02-27T13:52:01Z</time>
      </trkpt>
      <trkpt lat="44.00835" lon="4.08688">
        <ele>196</ele>
        <time>2011-02-27T13:52:06Z</time>
      </trkpt>
      <trkpt lat="44.00829" lon="4.08691">
        <ele>197</ele>
        <time>2011-02-27T13:52:07Z</time>
      </trkpt>
      <trkpt lat="44.00824" lon="4.08696">
        <ele>197</ele>
        <time>2011-02-27T13:52:08Z</time>
      </trkpt>
      <trkpt lat="44.00819" lon="4.08702">
        <ele>198</ele>
        <time>2011-02-27T13:52:09Z</time>
      </trkpt>
      <trkpt lat="44.00814" lon="4.08707">
        <ele>198</ele>
        <time>2011-02-27T13:52:10Z</time>
      </trkpt>
      <trkpt lat="44.00809" lon="4.08712">
        <ele>198</ele>
        <time>2011-02-27T13:52:11Z</time>
      </trkpt>
      <trkpt lat="44.00804" lon="4.08716">
        <ele>198</ele>
        <time>2011-02-27T13:52:12Z</time>
      </trkpt>
      <trkpt lat="44.00798" lon="4.0872">
        <ele>198</ele>
        <time>2011-02-27T13:52:13Z</time>
      </trkpt>
      <trkpt lat="44.00792" lon="4.08723">
        <ele>198</ele>
        <time>2011-02-27T13:52:14Z</time>
      </trkpt>
      <trkpt lat="44.00786" lon="4.08725">
        <ele>198</ele>
        <time>2011-02-27T13:52:15Z</time>
      </trkpt>
      <trkpt lat="44.0078" lon="4.08728">
        <ele>198</ele>
        <time>2011-02-27T13:52:16Z</time>
      </trkpt>
      <trkpt lat="44.00775" lon="4.08732">
        <ele>198</ele>
        <time>2011-02-27T13:52:17Z</time>
      </trkpt>
      <trkpt lat="44.00769" lon="4.08737">
        <ele>198</ele>
        <time>2011-02-27T13:52:18Z</time>
      </trkpt>
      <trkpt lat="44.00763" lon="4.08743">
        <ele>198</ele>
        <time>2011-02-27T13:52:19Z</time>
      </trkpt>
      <trkpt lat="44.00758" lon="4.0875">
        <ele>198</ele>
        <time>2011-02-27T13:52:20Z</time>
      </trkpt>
      <trkpt lat="44.00753" lon="4.08757">
        <ele>197</ele>
        <time>2011-02-27T13:52:21Z</time>
      </trkpt>
      <trkpt lat="44.00748" lon="4.08764">
        <ele>197</ele>
        <time>2011-02-27T13:52:22Z</time>
      </trkpt>
      <trkpt lat="44.00744" lon="4.08771">
        <ele>197</ele>
        <time>2011-02-27T13:52:23Z</time>
      </trkpt>
      <trkpt lat="44.00741" lon="4.08778">
        <ele>197</ele>
        <time>2011-02-27T13:52:24Z</time>
      </trkpt>
      <trkpt lat="44.00737" lon="4.08785">
        <ele>197</ele>
        <time>2011-02-27T13:52:25Z</time>
      </trkpt>
      <trkpt lat="44.00732" lon="4.08792">
        <ele>197</ele>
        <time>2011-02-27T13:52:26Z</time>
      </trkpt>
      <trkpt lat="44.00726" lon="4.08799">
        <ele>196</ele>
        <time>2011-02-27T13:52:27Z</time>
      </trkpt>
      <trkpt lat="44.0072" lon="4.08806">
        <ele>196</ele>
        <time>2011-02-27T13:52:28Z</time>
      </trkpt>
      <trkpt lat="44.00715" lon="4.08814">
        <ele>196</ele>
        <time>2011-02-27T13:52:29Z</time>
      </trkpt>
      <trkpt lat="44.00709" lon="4.08821">
        <ele>195</ele>
        <time>2011-02-27T13:52:30Z</time>
      </trkpt>
      <trkpt lat="44.00704" lon="4.0883">
        <ele>195</ele>
        <time>2011-02-27T13:52:31Z</time>
      </trkpt>
      <trkpt lat="44.007" lon="4.08838">
        <ele>195</ele>
        <time>2011-02-27T13:52:32Z</time>
      </trkpt>
      <trkpt lat="44.00696" lon="4.08846">
        <ele>195</ele>
        <time>2011-02-27T13:52:33Z</time>
      </trkpt>
      <trkpt lat="44.00692" lon="4.08854">
        <ele>194</ele>
        <time>2011-02-27T13:52:34Z</time>
      </trkpt>
      <trkpt lat="44.00688" lon="4.08862">
        <ele>194</ele>
        <time>2011-02-27T13:52:35Z</time>
      </trkpt>
      <trkpt lat="44.00685" lon="4.0887">
        <ele>194</ele>
        <time>2011-02-27T13:52:36Z</time>
      </trkpt>
      <trkpt lat="44.00682" lon="4.08878">
        <ele>194</ele>
        <time>2011-02-27T13:52:37Z</time>
      </trkpt>
      <trkpt lat="44.00679" lon="4.08886">
        <ele>194</ele>
        <time>2011-02-27T13:52:38Z</time>
      </trkpt>
      <trkpt lat="44.00676" lon="4.08893">
        <ele>194</ele>
        <time>2011-02-27T13:52:39Z</time>
      </trkpt>
      <trkpt lat="44.00674" lon="4.08901">
        <ele>194</ele>
        <time>2011-02-27T13:52:40Z</time>
      </trkpt>
      <trkpt lat="44.00671" lon="4.08907">
        <ele>194</ele>
        <time>2011-02-27T13:52:41Z</time>
      </trkpt>
      <trkpt lat="44.00668" lon="4.08913">
        <ele>194</ele>
        <time>2011-02-27T13:52:42Z</time>
      </trkpt>
      <trkpt lat="44.00666" lon="4.08919">
        <ele>194</ele>
        <time>2011-02-27T13:52:43Z</time>
      </trkpt>
      <trkpt lat="44.00662" lon="4.08929">
        <ele>194</ele>
        <time>2011-02-27T13:52:45Z</time>
      </trkpt>
      <trkpt lat="44.00659" lon="4.0894">
        <ele>194</ele>
        <time>2011-02-27T13:52:47Z</time>
      </trkpt>
      <trkpt lat="44.00655" lon="4.08949">
        <ele>194</ele>
        <time>2011-02-27T13:52:49Z</time>
      </trkpt>
      <trkpt lat="44.00651" lon="4.08958">
        <ele>194</ele>
        <time>2011-02-27T13:52:51Z</time>
      </trkpt>
      <trkpt lat="44.00647" lon="4.08967">
        <ele>195</ele>
        <time>2011-02-27T13:52:53Z</time>
      </trkpt>
      <trkpt lat="44.00642" lon="4.08976">
        <ele>195</ele>
        <time>2011-02-27T13:52:55Z</time>
      </trkpt>
      <trkpt lat="44.00638" lon="4.08981">
        <ele>196</ele>
        <time>2011-02-27T13:52:56Z</time>
      </trkpt>
      <trkpt lat="44.00635" lon="4.08985">
        <ele>196</ele>
        <time>2011-02-27T13:52:57Z</time>
      </trkpt>
      <trkpt lat="44.00628" lon="4.08994">
        <ele>197</ele>
        <time>2011-02-27T13:52:59Z</time>
      </trkpt>
      <trkpt lat="44.00625" lon="4.08999">
        <ele>198</ele>
        <time>2011-02-27T13:53:00Z</time>
      </trkpt>
      <trkpt lat="44.00621" lon="4.09003">
        <ele>199</ele>
        <time>2011-02-27T13:53:01Z</time>
      </trkpt>
      <trkpt lat="44.00617" lon="4.09009">
        <ele>200</ele>
        <time>2011-02-27T13:53:02Z</time>
      </trkpt>
      <trkpt lat="44.00612" lon="4.09014">
        <ele>201</ele>
        <time>2011-02-27T13:53:03Z</time>
      </trkpt>
      <trkpt lat="44.00607" lon="4.09019">
        <ele>201</ele>
        <time>2011-02-27T13:53:04Z</time>
      </trkpt>
      <trkpt lat="44.00602" lon="4.09024">
        <ele>202</ele>
        <time>2011-02-27T13:53:05Z</time>
      </trkpt>
      <trkpt lat="44.00597" lon="4.09029">
        <ele>202</ele>
        <time>2011-02-27T13:53:06Z</time>
      </trkpt>
      <trkpt lat="44.00592" lon="4.09034">
        <ele>202</ele>
        <time>2011-02-27T13:53:07Z</time>
      </trkpt>
      <trkpt lat="44.00587" lon="4.0904">
        <ele>202</ele>
        <time>2011-02-27T13:53:08Z</time>
      </trkpt>
      <trkpt lat="44.00581" lon="4.09045">
        <ele>201</ele>
        <time>2011-02-27T13:53:09Z</time>
      </trkpt>
      <trkpt lat="44.00576" lon="4.0905">
        <ele>201</ele>
        <time>2011-02-27T13:53:10Z</time>
      </trkpt>
      <trkpt lat="44.00572" lon="4.09055">
        <ele>201</ele>
        <time>2011-02-27T13:53:11Z</time>
      </trkpt>
      <trkpt lat="44.00567" lon="4.09061">
        <ele>201</ele>
        <time>2011-02-27T13:53:12Z</time>
      </trkpt>
      <trkpt lat="44.00561" lon="4.09066">
        <ele>201</ele>
        <time>2011-02-27T13:53:13Z</time>
      </trkpt>
      <trkpt lat="44.00556" lon="4.09071">
        <ele>201</ele>
        <time>2011-02-27T13:53:14Z</time>
      </trkpt>
      <trkpt lat="44.0055" lon="4.09076">
        <ele>201</ele>
        <time>2011-02-27T13:53:15Z</time>
      </trkpt>
      <trkpt lat="44.00544" lon="4.09082">
        <ele>201</ele>
        <time>2011-02-27T13:53:16Z</time>
      </trkpt>
      <trkpt lat="44.00538" lon="4.09087">
        <ele>201</ele>
        <time>2011-02-27T13:53:17Z</time>
      </trkpt>
      <trkpt lat="44.00532" lon="4.09093">
        <ele>201</ele>
        <time>2011-02-27T13:53:18Z</time>
      </trkpt>
      <trkpt lat="44.00525" lon="4.09099">
        <ele>202</ele>
        <time>2011-02-27T13:53:19Z</time>
      </trkpt>
      <trkpt lat="44.00519" lon="4.09104">
        <ele>202</ele>
        <time>2011-02-27T13:53:20Z</time>
      </trkpt>
      <trkpt lat="44.00514" lon="4.0911">
        <ele>202</ele>
        <time>2011-02-27T13:53:21Z</time>
      </trkpt>
      <trkpt lat="44.00508" lon="4.09116">
        <ele>202</ele>
        <time>2011-02-27T13:53:22Z</time>
      </trkpt>
      <trkpt lat="44.00502" lon="4.09122">
        <ele>202</ele>
        <time>2011-02-27T13:53:23Z</time>
      </trkpt>
      <trkpt lat="44.00497" lon="4.09127">
        <ele>202</ele>
        <time>2011-02-27T13:53:24Z</time>
      </trkpt>
      <trkpt lat="44.00491" lon="4.09133">
        <ele>202</ele>
        <time>2011-02-27T13:53:25Z</time>
      </trkpt>
      <trkpt lat="44.00485" lon="4.09139">
        <ele>201</ele>
        <time>2011-02-27T13:53:26Z</time>
      </trkpt>
      <trkpt lat="44.0048" lon="4.09145">
        <ele>201</ele>
        <time>2011-02-27T13:53:27Z</time>
      </trkpt>
      <trkpt lat="44.00475" lon="4.0915">
        <ele>200</ele>
        <time>2011-02-27T13:53:28Z</time>
      </trkpt>
      <trkpt lat="44.00469" lon="4.09156">
        <ele>200</ele>
        <time>2011-02-27T13:53:29Z</time>
      </trkpt>
      <trkpt lat="44.00464" lon="4.09161">
        <ele>200</ele>
        <time>2011-02-27T13:53:30Z</time>
      </trkpt>
      <trkpt lat="44.00459" lon="4.09166">
        <ele>200</ele>
        <time>2011-02-27T13:53:31Z</time>
      </trkpt>
      <trkpt lat="44.00454" lon="4.09171">
        <ele>200</ele>
        <time>2011-02-27T13:53:32Z</time>
      </trkpt>
      <trkpt lat="44.00449" lon="4.09176">
        <ele>199</ele>
        <time>2011-02-27T13:53:33Z</time>
      </trkpt>
      <trkpt lat="44.00444" lon="4.09181">
        <ele>199</ele>
        <time>2011-02-27T13:53:34Z</time>
      </trkpt>
      <trkpt lat="44.00439" lon="4.09187">
        <ele>199</ele>
        <time>2011-02-27T13:53:35Z</time>
      </trkpt>
      <trkpt lat="44.00434" lon="4.09192">
        <ele>199</ele>
        <time>2011-02-27T13:53:36Z</time>
      </trkpt>
      <trkpt lat="44.00429" lon="4.09197">
        <ele>199</ele>
        <time>2011-02-27T13:53:37Z</time>
      </trkpt>
      <trkpt lat="44.00424" lon="4.09202">
        <ele>199</ele>
        <time>2011-02-27T13:53:38Z</time>
      </trkpt>
      <trkpt lat="44.00419" lon="4.09208">
        <ele>199</ele>
        <time>2011-02-27T13:53:39Z</time>
      </trkpt>
      <trkpt lat="44.00414" lon="4.09213">
        <ele>199</ele>
        <time>2011-02-27T13:53:40Z</time>
      </trkpt>
      <trkpt lat="44.00409" lon="4.09218">
        <ele>198</ele>
        <time>2011-02-27T13:53:41Z</time>
      </trkpt>
      <trkpt lat="44.00404" lon="4.09224">
        <ele>199</ele>
        <time>2011-02-27T13:53:42Z</time>
      </trkpt>
      <trkpt lat="44.00399" lon="4.0923">
        <ele>198</ele>
        <time>2011-02-27T13:53:43Z</time>
      </trkpt>
      <trkpt lat="44.00394" lon="4.09236">
        <ele>198</ele>
        <time>2011-02-27T13:53:44Z</time>
      </trkpt>
      <trkpt lat="44.00388" lon="4.09242">
        <ele>198</ele>
        <time>2011-02-27T13:53:45Z</time>
      </trkpt>
      <trkpt lat="44.00382" lon="4.09248">
        <ele>198</ele>
        <time>2011-02-27T13:53:46Z</time>
      </trkpt>
      <trkpt lat="44.00377" lon="4.09254">
        <ele>198</ele>
        <time>2011-02-27T13:53:47Z</time>
      </trkpt>
      <trkpt lat="44.00371" lon="4.09261">
        <ele>198</ele>
        <time>2011-02-27T13:53:48Z</time>
      </trkpt>
      <trkpt lat="44.00364" lon="4.09268">
        <ele>198</ele>
        <time>2011-02-27T13:53:49Z</time>
      </trkpt>
      <trkpt lat="44.00358" lon="4.09275">
        <ele>198</ele>
        <time>2011-02-27T13:53:50Z</time>
      </trkpt>
      <trkpt lat="44.00351" lon="4.09282">
        <ele>197</ele>
        <time>2011-02-27T13:53:51Z</time>
      </trkpt>
      <trkpt lat="44.00344" lon="4.09289">
        <ele>197</ele>
        <time>2011-02-27T13:53:52Z</time>
      </trkpt>
      <trkpt lat="44.00337" lon="4.09297">
        <ele>197</ele>
        <time>2011-02-27T13:53:53Z</time>
      </trkpt>
      <trkpt lat="44.0033" lon="4.09304">
        <ele>197</ele>
        <time>2011-02-27T13:53:54Z</time>
      </trkpt>
      <trkpt lat="44.00323" lon="4.09311">
        <ele>197</ele>
        <time>2011-02-27T13:53:55Z</time>
      </trkpt>
      <trkpt lat="44.00316" lon="4.09318">
        <ele>198</ele>
        <time>2011-02-27T13:53:56Z</time>
      </trkpt>
      <trkpt lat="44.00309" lon="4.09326">
        <ele>197</ele>
        <time>2011-02-27T13:53:57Z</time>
      </trkpt>
      <trkpt lat="44.00302" lon="4.09334">
        <ele>197</ele>
        <time>2011-02-27T13:53:58Z</time>
      </trkpt>
      <trkpt lat="44.00294" lon="4.09343">
        <ele>198</ele>
        <time>2011-02-27T13:53:59Z</time>
      </trkpt>
      <trkpt lat="44.00286" lon="4.09352">
        <ele>198</ele>
        <time>2011-02-27T13:54:00Z</time>
      </trkpt>
      <trkpt lat="44.00278" lon="4.09361">
        <ele>198</ele>
        <time>2011-02-27T13:54:01Z</time>
      </trkpt>
      <trkpt lat="44.00268" lon="4.09371">
        <ele>198</ele>
        <time>2011-02-27T13:54:02Z</time>
      </trkpt>
      <trkpt lat="44.00259" lon="4.09382">
        <ele>198</ele>
        <time>2011-02-27T13:54:03Z</time>
      </trkpt>
      <trkpt lat="44.0025" lon="4.09394">
        <ele>198</ele>
        <time>2011-02-27T13:54:04Z</time>
      </trkpt>
      <trkpt lat="44.0024" lon="4.09405">
        <ele>198</ele>
        <time>2011-02-27T13:54:05Z</time>
      </trkpt>
      <trkpt lat="44.0023" lon="4.09417">
        <ele>197</ele>
        <time>2011-02-27T13:54:06Z</time>
      </trkpt>
      <trkpt lat="44.00221" lon="4.09428">
        <ele>197</ele>
        <time>2011-02-27T13:54:07Z</time>
      </trkpt>
      <trkpt lat="44.00211" lon="4.09438">
        <ele>197</ele>
        <time>2011-02-27T13:54:08Z</time>
      </trkpt>
      <trkpt lat="44.00202" lon="4.09448">
        <ele>197</ele>
        <time>2011-02-27T13:54:09Z</time>
      </trkpt>
      <trkpt lat="44.00193" lon="4.09457">
        <ele>197</ele>
        <time>2011-02-27T13:54:10Z</time>
      </trkpt>
      <trkpt lat="44.00185" lon="4.09465">
        <ele>197</ele>
        <time>2011-02-27T13:54:11Z</time>
      </trkpt>
      <trkpt lat="44.00177" lon="4.09472">
        <ele>197</ele>
        <time>2011-02-27T13:54:12Z</time>
      </trkpt>
      <trkpt lat="44.00169" lon="4.09479">
        <ele>198</ele>
        <time>2011-02-27T13:54:13Z</time>
      </trkpt>
      <trkpt lat="44.00162" lon="4.09485">
        <ele>198</ele>
        <time>2011-02-27T13:54:14Z</time>
      </trkpt>
      <trkpt lat="44.00155" lon="4.09492">
        <ele>198</ele>
        <time>2011-02-27T13:54:15Z</time>
      </trkpt>
      <trkpt lat="44.00149" lon="4.09499">
        <ele>198</ele>
        <time>2011-02-27T13:54:16Z</time>
      </trkpt>
      <trkpt lat="44.00143" lon="4.09505">
        <ele>198</ele>
        <time>2011-02-27T13:54:17Z</time>
      </trkpt>
      <trkpt lat="44.00137" lon="4.09512">
        <ele>198</ele>
        <time>2011-02-27T13:54:18Z</time>
      </trkpt>
      <trkpt lat="44.0013" lon="4.09518">
        <ele>198</ele>
        <time>2011-02-27T13:54:19Z</time>
      </trkpt>
      <trkpt lat="44.00124" lon="4.09525">
        <ele>198</ele>
        <time>2011-02-27T13:54:20Z</time>
      </trkpt>
      <trkpt lat="44.00117" lon="4.09533">
        <ele>198</ele>
        <time>2011-02-27T13:54:21Z</time>
      </trkpt>
      <trkpt lat="44.0011" lon="4.09541">
        <ele>198</ele>
        <time>2011-02-27T13:54:22Z</time>
      </trkpt>
      <trkpt lat="44.00103" lon="4.09549">
        <ele>198</ele>
        <time>2011-02-27T13:54:23Z</time>
      </trkpt>
      <trkpt lat="44.00095" lon="4.09558">
        <ele>197</ele>
        <time>2011-02-27T13:54:24Z</time>
      </trkpt>
      <trkpt lat="44.00086" lon="4.09567">
        <ele>198</ele>
        <time>2011-02-27T13:54:25Z</time>
      </trkpt>
      <trkpt lat="44.00078" lon="4.09575">
        <ele>198</ele>
        <time>2011-02-27T13:54:26Z</time>
      </trkpt>
      <trkpt lat="44.0007" lon="4.09584">
        <ele>198</ele>
        <time>2011-02-27T13:54:27Z</time>
      </trkpt>
      <trkpt lat="44.00061" lon="4.09593">
        <ele>198</ele>
        <time>2011-02-27T13:54:28Z</time>
      </trkpt>
      <trkpt lat="44.00053" lon="4.09601">
        <ele>198</ele>
        <time>2011-02-27T13:54:29Z</time>
      </trkpt>
      <trkpt lat="44.00045" lon="4.09609">
        <ele>198</ele>
        <time>2011-02-27T13:54:30Z</time>
      </trkpt>
      <trkpt lat="44.00037" lon="4.09616">
        <ele>198</ele>
        <time>2011-02-27T13:54:31Z</time>
      </trkpt>
      <trkpt lat="44.0003" lon="4.09623">
        <ele>197</ele>
        <time>2011-02-27T13:54:32Z</time>
      </trkpt>
      <trkpt lat="44.00022" lon="4.09629">
        <ele>197</ele>
        <time>2011-02-27T13:54:33Z</time>
      </trkpt>
      <trkpt lat="44.00014" lon="4.09635">
        <ele>197</ele>
        <time>2011-02-27T13:54:34Z</time>
      </trkpt>
      <trkpt lat="44.00006" lon="4.09641">
        <ele>197</ele>
        <time>2011-02-27T13:54:35Z</time>
      </trkpt>
      <trkpt lat="43.99999" lon="4.09646">
        <ele>197</ele>
        <time>2011-02-27T13:54:36Z</time>
      </trkpt>
      <trkpt lat="43.99991" lon="4.09651">
        <ele>197</ele>
        <time>2011-02-27T13:54:37Z</time>
      </trkpt>
      <trkpt lat="43.99982" lon="4.09656">
        <ele>197</ele>
        <time>2011-02-27T13:54:38Z</time>
      </trkpt>
      <trkpt lat="43.99974" lon="4.0966">
        <ele>197</ele>
        <time>2011-02-27T13:54:39Z</time>
      </trkpt>
      <trkpt lat="43.99965" lon="4.09665">
        <ele>198</ele>
        <time>2011-02-27T13:54:40Z</time>
      </trkpt>
      <trkpt lat="43.99956" lon="4.09669">
        <ele>198</ele>
        <time>2011-02-27T13:54:41Z</time>
      </trkpt>
      <trkpt lat="43.99947" lon="4.09674">
        <ele>198</ele>
        <time>2011-02-27T13:54:42Z</time>
      </trkpt>
      <trkpt lat="43.99937" lon="4.09679">
        <ele>198</ele>
        <time>2011-02-27T13:54:43Z</time>
      </trkpt>
      <trkpt lat="43.99928" lon="4.09684">
        <ele>198</ele>
        <time>2011-02-27T13:54:44Z</time>
      </trkpt>
      <trkpt lat="43.99918" lon="4.09689">
        <ele>197</ele>
        <time>2011-02-27T13:54:45Z</time>
      </trkpt>
      <trkpt lat="43.99909" lon="4.09693">
        <ele>198</ele>
        <time>2011-02-27T13:54:46Z</time>
      </trkpt>
      <trkpt lat="43.999" lon="4.09697">
        <ele>197</ele>
        <time>2011-02-27T13:54:47Z</time>
      </trkpt>
      <trkpt lat="43.99891" lon="4.09701">
        <ele>198</ele>
        <time>2011-02-27T13:54:48Z</time>
      </trkpt>
      <trkpt lat="43.99883" lon="4.09705">
        <ele>198</ele>
        <time>2011-02-27T13:54:49Z</time>
      </trkpt>
      <trkpt lat="43.99874" lon="4.09708">
        <ele>198</ele>
        <time>2011-02-27T13:54:50Z</time>
      </trkpt>
      <trkpt lat="43.99866" lon="4.09712">
        <ele>198</ele>
        <time>2011-02-27T13:54:51Z</time>
      </trkpt>
      <trkpt lat="43.99857" lon="4.09714">
        <ele>198</ele>
        <time>2011-02-27T13:54:52Z</time>
      </trkpt>
      <trkpt lat="43.9985" lon="4.09718">
        <ele>198</ele>
        <time>2011-02-27T13:54:53Z</time>
      </trkpt>
      <trkpt lat="43.99843" lon="4.09721">
        <ele>198</ele>
        <time>2011-02-27T13:54:54Z</time>
      </trkpt>
      <trkpt lat="43.99836" lon="4.09725">
        <ele>198</ele>
        <time>2011-02-27T13:54:55Z</time>
      </trkpt>
      <trkpt lat="43.99829" lon="4.09729">
        <ele>198</ele>
        <time>2011-02-27T13:54:56Z</time>
      </trkpt>
      <trkpt lat="43.99823" lon="4.09733">
        <ele>198</ele>
        <time>2011-02-27T13:54:57Z</time>
      </trkpt>
      <trkpt lat="43.99817" lon="4.09738">
        <ele>199</ele>
        <time>2011-02-27T13:54:58Z</time>
      </trkpt>
      <trkpt lat="43.99811" lon="4.09742">
        <ele>198</ele>
        <time>2011-02-27T13:54:59Z</time>
      </trkpt>
      <trkpt lat="43.99805" lon="4.09747">
        <ele>198</ele>
        <time>2011-02-27T13:55:00Z</time>
      </trkpt>
      <trkpt lat="43.99799" lon="4.09752">
        <ele>198</ele>
        <time>2011-02-27T13:55:01Z</time>
      </trkpt>
      <trkpt lat="43.99793" lon="4.09756">
        <ele>198</ele>
        <time>2011-02-27T13:55:02Z</time>
      </trkpt>
      <trkpt lat="43.99787" lon="4.0976">
        <ele>198</ele>
        <time>2011-02-27T13:55:03Z</time>
      </trkpt>
      <trkpt lat="43.99781" lon="4.09765">
        <ele>198</ele>
        <time>2011-02-27T13:55:04Z</time>
      </trkpt>
      <trkpt lat="43.99775" lon="4.09768">
        <ele>198</ele>
        <time>2011-02-27T13:55:05Z</time>
      </trkpt>
      <trkpt lat="43.9977" lon="4.09772">
        <ele>198</ele>
        <time>2011-02-27T13:55:06Z</time>
      </trkpt>
      <trkpt lat="43.99764" lon="4.09776">
        <ele>198</ele>
        <time>2011-02-27T13:55:07Z</time>
      </trkpt>
      <trkpt lat="43.99759" lon="4.0978">
        <ele>198</ele>
        <time>2011-02-27T13:55:08Z</time>
      </trkpt>
      <trkpt lat="43.99753" lon="4.09784">
        <ele>198</ele>
        <time>2011-02-27T13:55:09Z</time>
      </trkpt>
      <trkpt lat="43.99748" lon="4.09788">
        <ele>198</ele>
        <time>2011-02-27T13:55:10Z</time>
      </trkpt>
      <trkpt lat="43.99742" lon="4.09792">
        <ele>198</ele>
        <time>2011-02-27T13:55:11Z</time>
      </trkpt>
      <trkpt lat="43.99737" lon="4.09796">
        <ele>198</ele>
        <time>2011-02-27T13:55:12Z</time>
      </trkpt>
      <trkpt lat="43.99731" lon="4.098">
        <ele>198</ele>
        <time>2011-02-27T13:55:13Z</time>
      </trkpt>
      <trkpt lat="43.99725" lon="4.09804">
        <ele>198</ele>
        <time>2011-02-27T13:55:14Z</time>
      </trkpt>
      <trkpt lat="43.9972" lon="4.09809">
        <ele>198</ele>
        <time>2011-02-27T13:55:15Z</time>
      </trkpt>
      <trkpt lat="43.99714" lon="4.09813">
        <ele>198</ele>
        <time>2011-02-27T13:55:16Z</time>
      </trkpt>
      <trkpt lat="43.99708" lon="4.09817">
        <ele>198</ele>
        <time>2011-02-27T13:55:17Z</time>
      </trkpt>
      <trkpt lat="43.99702" lon="4.09821">
        <ele>198</ele>
        <time>2011-02-27T13:55:18Z</time>
      </trkpt>
      <trkpt lat="43.99697" lon="4.09825">
        <ele>198</ele>
        <time>2011-02-27T13:55:19Z</time>
      </trkpt>
      <trkpt lat="43.99691" lon="4.09829">
        <ele>199</ele>
        <time>2011-02-27T13:55:20Z</time>
      </trkpt>
      <trkpt lat="43.99685" lon="4.09833">
        <ele>199</ele>
        <time>2011-02-27T13:55:21Z</time>
      </trkpt>
      <trkpt lat="43.99679" lon="4.09838">
        <ele>199</ele>
        <time>2011-02-27T13:55:22Z</time>
      </trkpt>
      <trkpt lat="43.99674" lon="4.09842">
        <ele>199</ele>
        <time>2011-02-27T13:55:23Z</time>
      </trkpt>
      <trkpt lat="43.99668" lon="4.09847">
        <ele>199</ele>
        <time>2011-02-27T13:55:24Z</time>
      </trkpt>
      <trkpt lat="43.99662" lon="4.09851">
        <ele>199</ele>
        <time>2011-02-27T13:55:25Z</time>
      </trkpt>
      <trkpt lat="43.99656" lon="4.09855">
        <ele>199</ele>
        <time>2011-02-27T13:55:26Z</time>
      </trkpt>
      <trkpt lat="43.9965" lon="4.09858">
        <ele>199</ele>
        <time>2011-02-27T13:55:27Z</time>
      </trkpt>
      <trkpt lat="43.99644" lon="4.09862">
        <ele>199</ele>
        <time>2011-02-27T13:55:28Z</time>
      </trkpt>
      <trkpt lat="43.99638" lon="4.09865">
        <ele>199</ele>
        <time>2011-02-27T13:55:29Z</time>
      </trkpt>
      <trkpt lat="43.99632" lon="4.09868">
        <ele>199</ele>
        <time>2011-02-27T13:55:30Z</time>
      </trkpt>
      <trkpt lat="43.99626" lon="4.09871">
        <ele>199</ele>
        <time>2011-02-27T13:55:31Z</time>
      </trkpt>
      <trkpt lat="43.9962" lon="4.09874">
        <ele>199</ele>
        <time>2011-02-27T13:55:32Z</time>
      </trkpt>
      <trkpt lat="43.99614" lon="4.09877">
        <ele>199</ele>
        <time>2011-02-27T13:55:33Z</time>
      </trkpt>
      <trkpt lat="43.99608" lon="4.0988">
        <ele>199</ele>
        <time>2011-02-27T13:55:34Z</time>
      </trkpt>
      <trkpt lat="43.99602" lon="4.09883">
        <ele>199</ele>
        <time>2011-02-27T13:55:35Z</time>
      </trkpt>
      <trkpt lat="43.99596" lon="4.09887">
        <ele>199</ele>
        <time>2011-02-27T13:55:36Z</time>
      </trkpt>
      <trkpt lat="43.99591" lon="4.0989">
        <ele>200</ele>
        <time>2011-02-27T13:55:37Z</time>
      </trkpt>
      <trkpt lat="43.99585" lon="4.09893">
        <ele>200</ele>
        <time>2011-02-27T13:55:38Z</time>
      </trkpt>
      <trkpt lat="43.99579" lon="4.09897">
        <ele>200</ele>
        <time>2011-02-27T13:55:39Z</time>
      </trkpt>
      <trkpt lat="43.99574" lon="4.09901">
        <ele>200</ele>
        <time>2011-02-27T13:55:40Z</time>
      </trkpt>
      <trkpt lat="43.99569" lon="4.09905">
        <ele>200</ele>
        <time>2011-02-27T13:55:41Z</time>
      </trkpt>
      <trkpt lat="43.99564" lon="4.09909">
        <ele>200</ele>
        <time>2011-02-27T13:55:42Z</time>
      </trkpt>
      <trkpt lat="43.99558" lon="4.09912">
        <ele>200</ele>
        <time>2011-02-27T13:55:43Z</time>
      </trkpt>
      <trkpt lat="43.99553" lon="4.09917">
        <ele>200</ele>
        <time>2011-02-27T13:55:44Z</time>
      </trkpt>
      <trkpt lat="43.99548" lon="4.09921">
        <ele>201</ele>
        <time>2011-02-27T13:55:45Z</time>
      </trkpt>
      <trkpt lat="43.99543" lon="4.09925">
        <ele>201</ele>
        <time>2011-02-27T13:55:46Z</time>
      </trkpt>
      <trkpt lat="43.99538" lon="4.0993">
        <ele>201</ele>
        <time>2011-02-27T13:55:47Z</time>
      </trkpt>
      <trkpt lat="43.99533" lon="4.09935">
        <ele>201</ele>
        <time>2011-02-27T13:55:48Z</time>
      </trkpt>
      <trkpt lat="43.99528" lon="4.0994">
        <ele>201</ele>
        <time>2011-02-27T13:55:49Z</time>
      </trkpt>
      <trkpt lat="43.99522" lon="4.09945">
        <ele>202</ele>
        <time>2011-02-27T13:55:50Z</time>
      </trkpt>
      <trkpt lat="43.99517" lon="4.0995">
        <ele>202</ele>
        <time>2011-02-27T13:55:51Z</time>
      </trkpt>
      <trkpt lat="43.99512" lon="4.09956">
        <ele>202</ele>
        <time>2011-02-27T13:55:52Z</time>
      </trkpt>
      <trkpt lat="43.99506" lon="4.09962">
        <ele>202</ele>
        <time>2011-02-27T13:55:53Z</time>
      </trkpt>
      <trkpt lat="43.99501" lon="4.09968">
        <ele>202</ele>
        <time>2011-02-27T13:55:54Z</time>
      </trkpt>
      <trkpt lat="43.99495" lon="4.09974">
        <ele>202</ele>
        <time>2011-02-27T13:55:55Z</time>
      </trkpt>
      <trkpt lat="43.9949" lon="4.0998">
        <ele>202</ele>
        <time>2011-02-27T13:55:56Z</time>
      </trkpt>
      <trkpt lat="43.99485" lon="4.09986">
        <ele>202</ele>
        <time>2011-02-27T13:55:57Z</time>
      </trkpt>
      <trkpt lat="43.99479" lon="4.09992">
        <ele>201</ele>
        <time>2011-02-27T13:55:58Z</time>
      </trkpt>
      <trkpt lat="43.99474" lon="4.09998">
        <ele>201</ele>
        <time>2011-02-27T13:55:59Z</time>
      </trkpt>
      <trkpt lat="43.99468" lon="4.10005">
        <ele>201</ele>
        <time>2011-02-27T13:56:00Z</time>
      </trkpt>
      <trkpt lat="43.99462" lon="4.10011">
        <ele>201</ele>
        <time>2011-02-27T13:56:01Z</time>
      </trkpt>
      <trkpt lat="43.99456" lon="4.10018">
        <ele>201</ele>
        <time>2011-02-27T13:56:02Z</time>
      </trkpt>
      <trkpt lat="43.99449" lon="4.10025">
        <ele>201</ele>
        <time>2011-02-27T13:56:03Z</time>
      </trkpt>
      <trkpt lat="43.99441" lon="4.10033">
        <ele>201</ele>
        <time>2011-02-27T13:56:04Z</time>
      </trkpt>
      <trkpt lat="43.99434" lon="4.1004">
        <ele>201</ele>
        <time>2011-02-27T13:56:05Z</time>
      </trkpt>
      <trkpt lat="43.99427" lon="4.10048">
        <ele>201</ele>
        <time>2011-02-27T13:56:06Z</time>
      </trkpt>
      <trkpt lat="43.9942" lon="4.10055">
        <ele>201</ele>
        <time>2011-02-27T13:56:07Z</time>
      </trkpt>
      <trkpt lat="43.99412" lon="4.10063">
        <ele>201</ele>
        <time>2011-02-27T13:56:08Z</time>
      </trkpt>
      <trkpt lat="43.99406" lon="4.1007">
        <ele>201</ele>
        <time>2011-02-27T13:56:09Z</time>
      </trkpt>
      <trkpt lat="43.99399" lon="4.10077">
        <ele>201</ele>
        <time>2011-02-27T13:56:10Z</time>
      </trkpt>
      <trkpt lat="43.99392" lon="4.10084">
        <ele>201</ele>
        <time>2011-02-27T13:56:11Z</time>
      </trkpt>
      <trkpt lat="43.99386" lon="4.1009">
        <ele>201</ele>
        <time>2011-02-27T13:56:12Z</time>
      </trkpt>
      <trkpt lat="43.9938" lon="4.10096">
        <ele>201</ele>
        <time>2011-02-27T13:56:13Z</time>
      </trkpt>
      <trkpt lat="43.99375" lon="4.10101">
        <ele>201</ele>
        <time>2011-02-27T13:56:14Z</time>
      </trkpt>
      <trkpt lat="43.99369" lon="4.10102">
        <ele>202</ele>
        <time>2011-02-27T13:56:15Z</time>
      </trkpt>
      <trkpt lat="43.99364" lon="4.101">
        <ele>202</ele>
        <time>2011-02-27T13:56:16Z</time>
      </trkpt>
      <trkpt lat="43.99359" lon="4.10095">
        <ele>202</ele>
        <time>2011-02-27T13:56:17Z</time>
      </trkpt>
      <trkpt lat="43.99355" lon="4.1009">
        <ele>202</ele>
        <time>2011-02-27T13:56:18Z</time>
      </trkpt>
      <trkpt lat="43.99351" lon="4.10085">
        <ele>202</ele>
        <time>2011-02-27T13:56:19Z</time>
      </trkpt>
      <trkpt lat="43.99348" lon="4.10079">
        <ele>203</ele>
        <time>2011-02-27T13:56:20Z</time>
      </trkpt>
      <trkpt lat="43.99344" lon="4.10074">
        <ele>203</ele>
        <time>2011-02-27T13:56:21Z</time>
      </trkpt>
      <trkpt lat="43.9934" lon="4.10069">
        <ele>203</ele>
        <time>2011-02-27T13:56:22Z</time>
      </trkpt>
      <trkpt lat="43.99337" lon="4.10065">
        <ele>203</ele>
        <time>2011-02-27T13:56:23Z</time>
      </trkpt>
      <trkpt lat="43.99333" lon="4.10061">
        <ele>203</ele>
        <time>2011-02-27T13:56:24Z</time>
      </trkpt>
      <trkpt lat="43.99329" lon="4.10058">
        <ele>203</ele>
        <time>2011-02-27T13:56:25Z</time>
      </trkpt>
      <trkpt lat="43.99321" lon="4.10052">
        <ele>204</ele>
        <time>2011-02-27T13:56:27Z</time>
      </trkpt>
      <trkpt lat="43.99313" lon="4.10046">
        <ele>204</ele>
        <time>2011-02-27T13:56:29Z</time>
      </trkpt>
      <trkpt lat="43.99305" lon="4.10041">
        <ele>204</ele>
        <time>2011-02-27T13:56:31Z</time>
      </trkpt>
      <trkpt lat="43.99298" lon="4.10037">
        <ele>204</ele>
        <time>2011-02-27T13:56:33Z</time>
      </trkpt>
      <trkpt lat="43.9929" lon="4.10032">
        <ele>204</ele>
        <time>2011-02-27T13:56:35Z</time>
      </trkpt>
      <trkpt lat="43.99286" lon="4.10031">
        <ele>204</ele>
        <time>2011-02-27T13:56:36Z</time>
      </trkpt>
      <trkpt lat="43.99277" lon="4.10028">
        <ele>204</ele>
        <time>2011-02-27T13:56:38Z</time>
      </trkpt>
      <trkpt lat="43.99269" lon="4.10025">
        <ele>204</ele>
        <time>2011-02-27T13:56:40Z</time>
      </trkpt>
      <trkpt lat="43.99261" lon="4.10023">
        <ele>204</ele>
        <time>2011-02-27T13:56:42Z</time>
      </trkpt>
      <trkpt lat="43.99252" lon="4.10021">
        <ele>205</ele>
        <time>2011-02-27T13:56:44Z</time>
      </trkpt>
      <trkpt lat="43.99243" lon="4.1002">
        <ele>205</ele>
        <time>2011-02-27T13:56:46Z</time>
      </trkpt>
      <trkpt lat="43.99239" lon="4.10019">
        <ele>205</ele>
        <time>2011-02-27T13:56:47Z</time>
      </trkpt>
      <trkpt lat="43.9923" lon="4.10018">
        <ele>205</ele>
        <time>2011-02-27T13:56:49Z</time>
      </trkpt>
      <trkpt lat="43.99221" lon="4.10016">
        <ele>205</ele>
        <time>2011-02-27T13:56:51Z</time>
      </trkpt>
      <trkpt lat="43.99217" lon="4.10015">
        <ele>205</ele>
        <time>2011-02-27T13:56:52Z</time>
      </trkpt>
      <trkpt lat="43.99208" lon="4.10013">
        <ele>206</ele>
        <time>2011-02-27T13:56:54Z</time>
      </trkpt>
      <trkpt lat="43.99199" lon="4.10011">
        <ele>206</ele>
        <time>2011-02-27T13:56:56Z</time>
      </trkpt>
      <trkpt lat="43.99191" lon="4.10008">
        <ele>206</ele>
        <time>2011-02-27T13:56:58Z</time>
      </trkpt>
      <trkpt lat="43.99182" lon="4.10006">
        <ele>206</ele>
        <time>2011-02-27T13:57:00Z</time>
      </trkpt>
      <trkpt lat="43.99173" lon="4.10003">
        <ele>206</ele>
        <time>2011-02-27T13:57:02Z</time>
      </trkpt>
      <trkpt lat="43.99165" lon="4.1">
        <ele>206</ele>
        <time>2011-02-27T13:57:04Z</time>
      </trkpt>
      <trkpt lat="43.99156" lon="4.09997">
        <ele>206</ele>
        <time>2011-02-27T13:57:06Z</time>
      </trkpt>
      <trkpt lat="43.99152" lon="4.09996">
        <ele>207</ele>
        <time>2011-02-27T13:57:07Z</time>
      </trkpt>
      <trkpt lat="43.99143" lon="4.09993">
        <ele>207</ele>
        <time>2011-02-27T13:57:09Z</time>
      </trkpt>
      <trkpt lat="43.99138" lon="4.09992">
        <ele>208</ele>
        <time>2011-02-27T13:57:10Z</time>
      </trkpt>
      <trkpt lat="43.99134" lon="4.0999">
        <ele>208</ele>
        <time>2011-02-27T13:57:11Z</time>
      </trkpt>
      <trkpt lat="43.9913" lon="4.09989">
        <ele>208</ele>
        <time>2011-02-27T13:57:12Z</time>
      </trkpt>
      <trkpt lat="43.99125" lon="4.09987">
        <ele>208</ele>
        <time>2011-02-27T13:57:13Z</time>
      </trkpt>
      <trkpt lat="43.99121" lon="4.09985">
        <ele>208</ele>
        <time>2011-02-27T13:57:14Z</time>
      </trkpt>
      <trkpt lat="43.99113" lon="4.09982">
        <ele>208</ele>
        <time>2011-02-27T13:57:16Z</time>
      </trkpt>
      <trkpt lat="43.99105" lon="4.0998">
        <ele>209</ele>
        <time>2011-02-27T13:57:18Z</time>
      </trkpt>
      <trkpt lat="43.99097" lon="4.09977">
        <ele>209</ele>
        <time>2011-02-27T13:57:20Z</time>
      </trkpt>
      <trkpt lat="43.99089" lon="4.09975">
        <ele>209</ele>
        <time>2011-02-27T13:57:22Z</time>
      </trkpt>
      <trkpt lat="43.99081" lon="4.09973">
        <ele>209</ele>
        <time>2011-02-27T13:57:24Z</time>
      </trkpt>
      <trkpt lat="43.99073" lon="4.09972">
        <ele>209</ele>
        <time>2011-02-27T13:57:26Z</time>
      </trkpt>
      <trkpt lat="43.99065" lon="4.09971">
        <ele>209</ele>
        <time>2011-02-27T13:57:28Z</time>
      </trkpt>
      <trkpt lat="43.99057" lon="4.09971">
        <ele>209</ele>
        <time>2011-02-27T13:57:30Z</time>
      </trkpt>
      <trkpt lat="43.9905" lon="4.09971">
        <ele>209</ele>
        <time>2011-02-27T13:57:32Z</time>
      </trkpt>
      <trkpt lat="43.99046" lon="4.09972">
        <ele>209</ele>
        <time>2011-02-27T13:57:33Z</time>
      </trkpt>
      <trkpt lat="43.9904" lon="4.09973">
        <ele>209</ele>
        <time>2011-02-27T13:57:35Z</time>
      </trkpt>
      <trkpt lat="43.99036" lon="4.09975">
        <ele>210</ele>
        <time>2011-02-27T13:57:37Z</time>
      </trkpt>
      <trkpt lat="43.99033" lon="4.09975">
        <ele>210</ele>
        <time>2011-02-27T13:57:38Z</time>
      </trkpt>
      <trkpt lat="43.99026" lon="4.09976">
        <ele>211</ele>
        <time>2011-02-27T13:57:40Z</time>
      </trkpt>
      <trkpt lat="43.99018" lon="4.09977">
        <ele>212</ele>
        <time>2011-02-27T13:57:42Z</time>
      </trkpt>
      <trkpt lat="43.9901" lon="4.09977">
        <ele>212</ele>
        <time>2011-02-27T13:57:44Z</time>
      </trkpt>
      <trkpt lat="43.99002" lon="4.09979">
        <ele>213</ele>
        <time>2011-02-27T13:57:46Z</time>
      </trkpt>
      <trkpt lat="43.98999" lon="4.09979">
        <ele>213</ele>
        <time>2011-02-27T13:57:47Z</time>
      </trkpt>
      <trkpt lat="43.98992" lon="4.0998">
        <ele>214</ele>
        <time>2011-02-27T13:57:49Z</time>
      </trkpt>
      <trkpt lat="43.98986" lon="4.09982">
        <ele>214</ele>
        <time>2011-02-27T13:57:51Z</time>
      </trkpt>
      <trkpt lat="43.98979" lon="4.09983">
        <ele>215</ele>
        <time>2011-02-27T13:57:53Z</time>
      </trkpt>
      <trkpt lat="43.98975" lon="4.09983">
        <ele>216</ele>
        <time>2011-02-27T13:57:54Z</time>
      </trkpt>
      <trkpt lat="43.98969" lon="4.09984">
        <ele>216</ele>
        <time>2011-02-27T13:57:56Z</time>
      </trkpt>
      <trkpt lat="43.98963" lon="4.09984">
        <ele>216</ele>
        <time>2011-02-27T13:57:58Z</time>
      </trkpt>
      <trkpt lat="43.9895" lon="4.09985">
        <ele>216</ele>
        <time>2011-02-27T13:58:03Z</time>
      </trkpt>
      <trkpt lat="43.98945" lon="4.09985">
        <ele>217</ele>
        <time>2011-02-27T13:58:05Z</time>
      </trkpt>
      <trkpt lat="43.9894" lon="4.09986">
        <ele>218</ele>
        <time>2011-02-27T13:58:07Z</time>
      </trkpt>
      <trkpt lat="43.98935" lon="4.09992">
        <ele>218</ele>
        <time>2011-02-27T13:58:09Z</time>
      </trkpt>
      <trkpt lat="43.9893" lon="4.10002">
        <ele>219</ele>
        <time>2011-02-27T13:58:11Z</time>
      </trkpt>
      <trkpt lat="43.98928" lon="4.10008">
        <ele>219</ele>
        <time>2011-02-27T13:58:12Z</time>
      </trkpt>
      <trkpt lat="43.98924" lon="4.10019">
        <ele>219</ele>
        <time>2011-02-27T13:58:14Z</time>
      </trkpt>
      <trkpt lat="43.98921" lon="4.1003">
        <ele>219</ele>
        <time>2011-02-27T13:58:16Z</time>
      </trkpt>
      <trkpt lat="43.98919" lon="4.10043">
        <ele>219</ele>
        <time>2011-02-27T13:58:18Z</time>
      </trkpt>
      <trkpt lat="43.98917" lon="4.10049">
        <ele>220</ele>
        <time>2011-02-27T13:58:19Z</time>
      </trkpt>
      <trkpt lat="43.98916" lon="4.10055">
        <ele>220</ele>
        <time>2011-02-27T13:58:20Z</time>
      </trkpt>
      <trkpt lat="43.98915" lon="4.10062">
        <ele>220</ele>
        <time>2011-02-27T13:58:21Z</time>
      </trkpt>
      <trkpt lat="43.98914" lon="4.10069">
        <ele>220</ele>
        <time>2011-02-27T13:58:22Z</time>
      </trkpt>
      <trkpt lat="43.98912" lon="4.10075">
        <ele>220</ele>
        <time>2011-02-27T13:58:23Z</time>
      </trkpt>
      <trkpt lat="43.9891" lon="4.10082">
        <ele>221</ele>
        <time>2011-02-27T13:58:24Z</time>
      </trkpt>
      <trkpt lat="43.98908" lon="4.10089">
        <ele>221</ele>
        <time>2011-02-27T13:58:25Z</time>
      </trkpt>
      <trkpt lat="43.98906" lon="4.10096">
        <ele>221</ele>
        <time>2011-02-27T13:58:26Z</time>
      </trkpt>
      <trkpt lat="43.98904" lon="4.10103">
        <ele>221</ele>
        <time>2011-02-27T13:58:27Z</time>
      </trkpt>
      <trkpt lat="43.98901" lon="4.10111">
        <ele>221</ele>
        <time>2011-02-27T13:58:28Z</time>
      </trkpt>
      <trkpt lat="43.98899" lon="4.10118">
        <ele>222</ele>
        <time>2011-02-27T13:58:29Z</time>
      </trkpt>
      <trkpt lat="43.98896" lon="4.10125">
        <ele>222</ele>
        <time>2011-02-27T13:58:30Z</time>
      </trkpt>
      <trkpt lat="43.98894" lon="4.10132">
        <ele>222</ele>
        <time>2011-02-27T13:58:31Z</time>
      </trkpt>
      <trkpt lat="43.98892" lon="4.10138">
        <ele>222</ele>
        <time>2011-02-27T13:58:32Z</time>
      </trkpt>
      <trkpt lat="43.98888" lon="4.10142">
        <ele>221</ele>
        <time>2011-02-27T13:58:33Z</time>
      </trkpt>
      <trkpt lat="43.9888" lon="4.10145">
        <ele>221</ele>
        <time>2011-02-27T13:58:35Z</time>
      </trkpt>
      <trkpt lat="43.98875" lon="4.10144">
        <ele>221</ele>
        <time>2011-02-27T13:58:36Z</time>
      </trkpt>
      <trkpt lat="43.9887" lon="4.10143">
        <ele>221</ele>
        <time>2011-02-27T13:58:37Z</time>
      </trkpt>
      <trkpt lat="43.98864" lon="4.10141">
        <ele>221</ele>
        <time>2011-02-27T13:58:38Z</time>
      </trkpt>
      <trkpt lat="43.98857" lon="4.10139">
        <ele>220</ele>
        <time>2011-02-27T13:58:39Z</time>
      </trkpt>
      <trkpt lat="43.98849" lon="4.10136">
        <ele>220</ele>
        <time>2011-02-27T13:58:40Z</time>
      </trkpt>
      <trkpt lat="43.9884" lon="4.10134">
        <ele>220</ele>
        <time>2011-02-27T13:58:41Z</time>
      </trkpt>
      <trkpt lat="43.9883" lon="4.10131">
        <ele>219</ele>
        <time>2011-02-27T13:58:42Z</time>
      </trkpt>
      <trkpt lat="43.9882" lon="4.10128">
        <ele>219</ele>
        <time>2011-02-27T13:58:43Z</time>
      </trkpt>
      <trkpt lat="43.9881" lon="4.10126">
        <ele>219</ele>
        <time>2011-02-27T13:58:44Z</time>
      </trkpt>
      <trkpt lat="43.98797" lon="4.10122">
        <ele>219</ele>
        <time>2011-02-27T13:58:45Z</time>
      </trkpt>
      <trkpt lat="43.98784" lon="4.10119">
        <ele>219</ele>
        <time>2011-02-27T13:58:46Z</time>
      </trkpt>
      <trkpt lat="43.98771" lon="4.10117">
        <ele>219</ele>
        <time>2011-02-27T13:58:47Z</time>
      </trkpt>
      <trkpt lat="43.98757" lon="4.10115">
        <ele>219</ele>
        <time>2011-02-27T13:58:48Z</time>
      </trkpt>
      <trkpt lat="43.98744" lon="4.10113">
        <ele>218</ele>
        <time>2011-02-27T13:58:49Z</time>
      </trkpt>
      <trkpt lat="43.9873" lon="4.10111">
        <ele>218</ele>
        <time>2011-02-27T13:58:50Z</time>
      </trkpt>
      <trkpt lat="43.98717" lon="4.10109">
        <ele>217</ele>
        <time>2011-02-27T13:58:51Z</time>
      </trkpt>
      <trkpt lat="43.98705" lon="4.10107">
        <ele>217</ele>
        <time>2011-02-27T13:58:52Z</time>
      </trkpt>
      <trkpt lat="43.98692" lon="4.10106">
        <ele>216</ele>
        <time>2011-02-27T13:58:53Z</time>
      </trkpt>
      <trkpt lat="43.9868" lon="4.10105">
        <ele>215</ele>
        <time>2011-02-27T13:58:54Z</time>
      </trkpt>
      <trkpt lat="43.98669" lon="4.10106">
        <ele>214</ele>
        <time>2011-02-27T13:58:55Z</time>
      </trkpt>
      <trkpt lat="43.98658" lon="4.10108">
        <ele>214</ele>
        <time>2011-02-27T13:58:56Z</time>
      </trkpt>
      <trkpt lat="43.98648" lon="4.10111">
        <ele>213</ele>
        <time>2011-02-27T13:58:57Z</time>
      </trkpt>
      <trkpt lat="43.98638" lon="4.10114">
        <ele>213</ele>
        <time>2011-02-27T13:58:58Z</time>
      </trkpt>
      <trkpt lat="43.98628" lon="4.10118">
        <ele>212</ele>
        <time>2011-02-27T13:58:59Z</time>
      </trkpt>
      <trkpt lat="43.98619" lon="4.10122">
        <ele>212</ele>
        <time>2011-02-27T13:59:00Z</time>
      </trkpt>
      <trkpt lat="43.98609" lon="4.10126">
        <ele>211</ele>
        <time>2011-02-27T13:59:01Z</time>
      </trkpt>
      <trkpt lat="43.986" lon="4.10128">
        <ele>211</ele>
        <time>2011-02-27T13:59:02Z</time>
      </trkpt>
      <trkpt lat="43.9859" lon="4.10127">
        <ele>210</ele>
        <time>2011-02-27T13:59:03Z</time>
      </trkpt>
      <trkpt lat="43.98581" lon="4.10124">
        <ele>210</ele>
        <time>2011-02-27T13:59:04Z</time>
      </trkpt>
      <trkpt lat="43.98573" lon="4.10121">
        <ele>209</ele>
        <time>2011-02-27T13:59:05Z</time>
      </trkpt>
      <trkpt lat="43.98564" lon="4.10118">
        <ele>209</ele>
        <time>2011-02-27T13:59:06Z</time>
      </trkpt>
      <trkpt lat="43.98554" lon="4.10114">
        <ele>209</ele>
        <time>2011-02-27T13:59:07Z</time>
      </trkpt>
      <trkpt lat="43.98544" lon="4.10112">
        <ele>209</ele>
        <time>2011-02-27T13:59:08Z</time>
      </trkpt>
      <trkpt lat="43.98533" lon="4.1011">
        <ele>208</ele>
        <time>2011-02-27T13:59:09Z</time>
      </trkpt>
      <trkpt lat="43.9852" lon="4.10108">
        <ele>208</ele>
        <time>2011-02-27T13:59:10Z</time>
      </trkpt>
      <trkpt lat="43.98507" lon="4.10107">
        <ele>208</ele>
        <time>2011-02-27T13:59:11Z</time>
      </trkpt>
      <trkpt lat="43.98493" lon="4.10107">
        <ele>207</ele>
        <time>2011-02-27T13:59:12Z</time>
      </trkpt>
      <trkpt lat="43.98479" lon="4.10108">
        <ele>207</ele>
        <time>2011-02-27T13:59:13Z</time>
      </trkpt>
      <trkpt lat="43.98465" lon="4.10109">
        <ele>206</ele>
        <time>2011-02-27T13:59:14Z</time>
      </trkpt>
      <trkpt lat="43.9845" lon="4.10111">
        <ele>206</ele>
        <time>2011-02-27T13:59:15Z</time>
      </trkpt>
      <trkpt lat="43.98436" lon="4.10112">
        <ele>205</ele>
        <time>2011-02-27T13:59:16Z</time>
      </trkpt>
      <trkpt lat="43.98423" lon="4.10114">
        <ele>205</ele>
        <time>2011-02-27T13:59:17Z</time>
      </trkpt>
      <trkpt lat="43.98409" lon="4.10116">
        <ele>204</ele>
        <time>2011-02-27T13:59:18Z</time>
      </trkpt>
      <trkpt lat="43.98396" lon="4.10118">
        <ele>204</ele>
        <time>2011-02-27T13:59:19Z</time>
      </trkpt>
      <trkpt lat="43.98383" lon="4.1012">
        <ele>203</ele>
        <time>2011-02-27T13:59:20Z</time>
      </trkpt>
      <trkpt lat="43.9837" lon="4.10122">
        <ele>203</ele>
        <time>2011-02-27T13:59:21Z</time>
      </trkpt>
      <trkpt lat="43.98357" lon="4.10123">
        <ele>202</ele>
        <time>2011-02-27T13:59:22Z</time>
      </trkpt>
      <trkpt lat="43.98344" lon="4.10125">
        <ele>201</ele>
        <time>2011-02-27T13:59:23Z</time>
      </trkpt>
      <trkpt lat="43.98331" lon="4.10126">
        <ele>201</ele>
        <time>2011-02-27T13:59:24Z</time>
      </trkpt>
      <trkpt lat="43.98319" lon="4.10127">
        <ele>201</ele>
        <time>2011-02-27T13:59:25Z</time>
      </trkpt>
      <trkpt lat="43.98306" lon="4.10128">
        <ele>200</ele>
        <time>2011-02-27T13:59:26Z</time>
      </trkpt>
      <trkpt lat="43.98294" lon="4.10128">
        <ele>200</ele>
        <time>2011-02-27T13:59:27Z</time>
      </trkpt>
      <trkpt lat="43.98282" lon="4.10128">
        <ele>199</ele>
        <time>2011-02-27T13:59:28Z</time>
      </trkpt>
      <trkpt lat="43.9827" lon="4.10128">
        <ele>199</ele>
        <time>2011-02-27T13:59:29Z</time>
      </trkpt>
      <trkpt lat="43.98259" lon="4.10127">
        <ele>198</ele>
        <time>2011-02-27T13:59:30Z</time>
      </trkpt>
      <trkpt lat="43.98247" lon="4.10125">
        <ele>198</ele>
        <time>2011-02-27T13:59:31Z</time>
      </trkpt>
      <trkpt lat="43.98236" lon="4.10124">
        <ele>198</ele>
        <time>2011-02-27T13:59:32Z</time>
      </trkpt>
      <trkpt lat="43.98225" lon="4.10122">
        <ele>197</ele>
        <time>2011-02-27T13:59:33Z</time>
      </trkpt>
      <trkpt lat="43.98214" lon="4.1012">
        <ele>196</ele>
        <time>2011-02-27T13:59:34Z</time>
      </trkpt>
      <trkpt lat="43.98203" lon="4.10119">
        <ele>196</ele>
        <time>2011-02-27T13:59:35Z</time>
      </trkpt>
      <trkpt lat="43.98192" lon="4.10117">
        <ele>195</ele>
        <time>2011-02-27T13:59:36Z</time>
      </trkpt>
      <trkpt lat="43.98182" lon="4.10116">
        <ele>195</ele>
        <time>2011-02-27T13:59:37Z</time>
      </trkpt>
      <trkpt lat="43.98172" lon="4.10114">
        <ele>194</ele>
        <time>2011-02-27T13:59:38Z</time>
      </trkpt>
      <trkpt lat="43.98161" lon="4.10113">
        <ele>193</ele>
        <time>2011-02-27T13:59:39Z</time>
      </trkpt>
      <trkpt lat="43.9815" lon="4.10111">
        <ele>193</ele>
        <time>2011-02-27T13:59:40Z</time>
      </trkpt>
      <trkpt lat="43.98139" lon="4.10109">
        <ele>192</ele>
        <time>2011-02-27T13:59:41Z</time>
      </trkpt>
      <trkpt lat="43.98127" lon="4.10107">
        <ele>191</ele>
        <time>2011-02-27T13:59:42Z</time>
      </trkpt>
      <trkpt lat="43.98115" lon="4.10105">
        <ele>191</ele>
        <time>2011-02-27T13:59:43Z</time>
      </trkpt>
      <trkpt lat="43.98102" lon="4.10103">
        <ele>190</ele>
        <time>2011-02-27T13:59:44Z</time>
      </trkpt>
      <trkpt lat="43.9809" lon="4.101">
        <ele>189</ele>
        <time>2011-02-27T13:59:45Z</time>
      </trkpt>
      <trkpt lat="43.98079" lon="4.10097">
        <ele>189</ele>
        <time>2011-02-27T13:59:46Z</time>
      </trkpt>
      <trkpt lat="43.98067" lon="4.10093">
        <ele>188</ele>
        <time>2011-02-27T13:59:47Z</time>
      </trkpt>
      <trkpt lat="43.98055" lon="4.10088">
        <ele>187</ele>
        <time>2011-02-27T13:59:48Z</time>
      </trkpt>
      <trkpt lat="43.98044" lon="4.10083">
        <ele>187</ele>
        <time>2011-02-27T13:59:49Z</time>
      </trkpt>
      <trkpt lat="43.98032" lon="4.10078">
        <ele>186</ele>
        <time>2011-02-27T13:59:50Z</time>
      </trkpt>
      <trkpt lat="43.98021" lon="4.10073">
        <ele>186</ele>
        <time>2011-02-27T13:59:51Z</time>
      </trkpt>
      <trkpt lat="43.98009" lon="4.10068">
        <ele>186</ele>
        <time>2011-02-27T13:59:52Z</time>
      </trkpt>
      <trkpt lat="43.97998" lon="4.10064">
        <ele>185</ele>
        <time>2011-02-27T13:59:53Z</time>
      </trkpt>
      <trkpt lat="43.97987" lon="4.10059">
        <ele>185</ele>
        <time>2011-02-27T13:59:54Z</time>
      </trkpt>
      <trkpt lat="43.97976" lon="4.10055">
        <ele>184</ele>
        <time>2011-02-27T13:59:55Z</time>
      </trkpt>
      <trkpt lat="43.97965" lon="4.1005">
        <ele>184</ele>
        <time>2011-02-27T13:59:56Z</time>
      </trkpt>
      <trkpt lat="43.97954" lon="4.10045">
        <ele>183</ele>
        <time>2011-02-27T13:59:57Z</time>
      </trkpt>
      <trkpt lat="43.97944" lon="4.1004">
        <ele>183</ele>
        <time>2011-02-27T13:59:58Z</time>
      </trkpt>
      <trkpt lat="43.97933" lon="4.10036">
        <ele>182</ele>
        <time>2011-02-27T13:59:59Z</time>
      </trkpt>
      <trkpt lat="43.97923" lon="4.10031">
        <ele>182</ele>
        <time>2011-02-27T14:00:00Z</time>
      </trkpt>
      <trkpt lat="43.97914" lon="4.10025">
        <ele>182</ele>
        <time>2011-02-27T14:00:01Z</time>
      </trkpt>
      <trkpt lat="43.97905" lon="4.10017">
        <ele>181</ele>
        <time>2011-02-27T14:00:02Z</time>
      </trkpt>
      <trkpt lat="43.97897" lon="4.10007">
        <ele>181</ele>
        <time>2011-02-27T14:00:03Z</time>
      </trkpt>
      <trkpt lat="43.9789" lon="4.09997">
        <ele>181</ele>
        <time>2011-02-27T14:00:04Z</time>
      </trkpt>
      <trkpt lat="43.97882" lon="4.09986">
        <ele>181</ele>
        <time>2011-02-27T14:00:05Z</time>
      </trkpt>
      <trkpt lat="43.97875" lon="4.09975">
        <ele>181</ele>
        <time>2011-02-27T14:00:06Z</time>
      </trkpt>
      <trkpt lat="43.97867" lon="4.09965">
        <ele>181</ele>
        <time>2011-02-27T14:00:07Z</time>
      </trkpt>
      <trkpt lat="43.97858" lon="4.09955">
        <ele>181</ele>
        <time>2011-02-27T14:00:08Z</time>
      </trkpt>
      <trkpt lat="43.97849" lon="4.09948">
        <ele>181</ele>
        <time>2011-02-27T14:00:09Z</time>
      </trkpt>
      <trkpt lat="43.97839" lon="4.09942">
        <ele>180</ele>
        <time>2011-02-27T14:00:10Z</time>
      </trkpt>
      <trkpt lat="43.97829" lon="4.09936">
        <ele>180</ele>
        <time>2011-02-27T14:00:11Z</time>
      </trkpt>
      <trkpt lat="43.97819" lon="4.09929">
        <ele>180</ele>
        <time>2011-02-27T14:00:12Z</time>
      </trkpt>
      <trkpt lat="43.97813" lon="4.0992">
        <ele>180</ele>
        <time>2011-02-27T14:00:13Z</time>
      </trkpt>
      <trkpt lat="43.97808" lon="4.09908">
        <ele>180</ele>
        <time>2011-02-27T14:00:14Z</time>
      </trkpt>
      <trkpt lat="43.97805" lon="4.09896">
        <ele>180</ele>
        <time>2011-02-27T14:00:15Z</time>
      </trkpt>
      <trkpt lat="43.97801" lon="4.09885">
        <ele>179</ele>
        <time>2011-02-27T14:00:16Z</time>
      </trkpt>
      <trkpt lat="43.97798" lon="4.09873">
        <ele>179</ele>
        <time>2011-02-27T14:00:17Z</time>
      </trkpt>
      <trkpt lat="43.97794" lon="4.0986">
        <ele>179</ele>
        <time>2011-02-27T14:00:18Z</time>
      </trkpt>
      <trkpt lat="43.97789" lon="4.09848">
        <ele>179</ele>
        <time>2011-02-27T14:00:19Z</time>
      </trkpt>
      <trkpt lat="43.97783" lon="4.09836">
        <ele>179</ele>
        <time>2011-02-27T14:00:20Z</time>
      </trkpt>
      <trkpt lat="43.97777" lon="4.09824">
        <ele>179</ele>
        <time>2011-02-27T14:00:21Z</time>
      </trkpt>
      <trkpt lat="43.97771" lon="4.09811">
        <ele>178</ele>
        <time>2011-02-27T14:00:22Z</time>
      </trkpt>
      <trkpt lat="43.97765" lon="4.09799">
        <ele>178</ele>
        <time>2011-02-27T14:00:23Z</time>
      </trkpt>
      <trkpt lat="43.9776" lon="4.09787">
        <ele>178</ele>
        <time>2011-02-27T14:00:24Z</time>
      </trkpt>
      <trkpt lat="43.97754" lon="4.09774">
        <ele>178</ele>
        <time>2011-02-27T14:00:25Z</time>
      </trkpt>
      <trkpt lat="43.97748" lon="4.09762">
        <ele>178</ele>
        <time>2011-02-27T14:00:26Z</time>
      </trkpt>
      <trkpt lat="43.97743" lon="4.09749">
        <ele>178</ele>
        <time>2011-02-27T14:00:27Z</time>
      </trkpt>
      <trkpt lat="43.97737" lon="4.09737">
        <ele>178</ele>
        <time>2011-02-27T14:00:28Z</time>
      </trkpt>
      <trkpt lat="43.97729" lon="4.09728">
        <ele>178</ele>
        <time>2011-02-27T14:00:29Z</time>
      </trkpt>
      <trkpt lat="43.9772" lon="4.0972">
        <ele>178</ele>
        <time>2011-02-27T14:00:30Z</time>
      </trkpt>
      <trkpt lat="43.97711" lon="4.09714">
        <ele>178</ele>
        <time>2011-02-27T14:00:31Z</time>
      </trkpt>
      <trkpt lat="43.97702" lon="4.09708">
        <ele>178</ele>
        <time>2011-02-27T14:00:32Z</time>
      </trkpt>
      <trkpt lat="43.97692" lon="4.09703">
        <ele>178</ele>
        <time>2011-02-27T14:00:33Z</time>
      </trkpt>
      <trkpt lat="43.97684" lon="4.09696">
        <ele>177</ele>
        <time>2011-02-27T14:00:34Z</time>
      </trkpt>
      <trkpt lat="43.97675" lon="4.09689">
        <ele>177</ele>
        <time>2011-02-27T14:00:35Z</time>
      </trkpt>
      <trkpt lat="43.97667" lon="4.09681">
        <ele>177</ele>
        <time>2011-02-27T14:00:36Z</time>
      </trkpt>
      <trkpt lat="43.97659" lon="4.09672">
        <ele>177</ele>
        <time>2011-02-27T14:00:37Z</time>
      </trkpt>
      <trkpt lat="43.97651" lon="4.09664">
        <ele>176</ele>
        <time>2011-02-27T14:00:38Z</time>
      </trkpt>
      <trkpt lat="43.97643" lon="4.09655">
        <ele>176</ele>
        <time>2011-02-27T14:00:39Z</time>
      </trkpt>
      <trkpt lat="43.97635" lon="4.09647">
        <ele>176</ele>
        <time>2011-02-27T14:00:40Z</time>
      </trkpt>
      <trkpt lat="43.97626" lon="4.09639">
        <ele>176</ele>
        <time>2011-02-27T14:00:41Z</time>
      </trkpt>
      <trkpt lat="43.97618" lon="4.09631">
        <ele>175</ele>
        <time>2011-02-27T14:00:42Z</time>
      </trkpt>
      <trkpt lat="43.97609" lon="4.09624">
        <ele>175</ele>
        <time>2011-02-27T14:00:43Z</time>
      </trkpt>
      <trkpt lat="43.976" lon="4.09616">
        <ele>175</ele>
        <time>2011-02-27T14:00:44Z</time>
      </trkpt>
      <trkpt lat="43.97591" lon="4.09608">
        <ele>175</ele>
        <time>2011-02-27T14:00:45Z</time>
      </trkpt>
      <trkpt lat="43.97583" lon="4.09601">
        <ele>175</ele>
        <time>2011-02-27T14:00:46Z</time>
      </trkpt>
      <trkpt lat="43.97574" lon="4.09594">
        <ele>174</ele>
        <time>2011-02-27T14:00:47Z</time>
      </trkpt>
      <trkpt lat="43.97565" lon="4.09587">
        <ele>174</ele>
        <time>2011-02-27T14:00:48Z</time>
      </trkpt>
      <trkpt lat="43.97556" lon="4.0958">
        <ele>174</ele>
        <time>2011-02-27T14:00:49Z</time>
      </trkpt>
      <trkpt lat="43.97547" lon="4.09573">
        <ele>174</ele>
        <time>2011-02-27T14:00:50Z</time>
      </trkpt>
      <trkpt lat="43.97538" lon="4.09566">
        <ele>174</ele>
        <time>2011-02-27T14:00:51Z</time>
      </trkpt>
      <trkpt lat="43.97528" lon="4.09558">
        <ele>174</ele>
        <time>2011-02-27T14:00:52Z</time>
      </trkpt>
      <trkpt lat="43.97519" lon="4.0955">
        <ele>173</ele>
        <time>2011-02-27T14:00:53Z</time>
      </trkpt>
      <trkpt lat="43.9751" lon="4.09541">
        <ele>173</ele>
        <time>2011-02-27T14:00:54Z</time>
      </trkpt>
      <trkpt lat="43.97502" lon="4.09532">
        <ele>173</ele>
        <time>2011-02-27T14:00:55Z</time>
      </trkpt>
      <trkpt lat="43.97493" lon="4.09522">
        <ele>173</ele>
        <time>2011-02-27T14:00:56Z</time>
      </trkpt>
      <trkpt lat="43.97484" lon="4.09513">
        <ele>173</ele>
        <time>2011-02-27T14:00:57Z</time>
      </trkpt>
      <trkpt lat="43.97476" lon="4.09503">
        <ele>173</ele>
        <time>2011-02-27T14:00:58Z</time>
      </trkpt>
      <trkpt lat="43.97467" lon="4.09494">
        <ele>173</ele>
        <time>2011-02-27T14:00:59Z</time>
      </trkpt>
      <trkpt lat="43.97458" lon="4.09485">
        <ele>173</ele>
        <time>2011-02-27T14:01:00Z</time>
      </trkpt>
      <trkpt lat="43.97449" lon="4.09476">
        <ele>173</ele>
        <time>2011-02-27T14:01:01Z</time>
      </trkpt>
      <trkpt lat="43.9744" lon="4.09466">
        <ele>172</ele>
        <time>2011-02-27T14:01:02Z</time>
      </trkpt>
      <trkpt lat="43.97431" lon="4.09456">
        <ele>172</ele>
        <time>2011-02-27T14:01:03Z</time>
      </trkpt>
      <trkpt lat="43.97422" lon="4.09447">
        <ele>171</ele>
        <time>2011-02-27T14:01:04Z</time>
      </trkpt>
      <trkpt lat="43.97414" lon="4.09438">
        <ele>171</ele>
        <time>2011-02-27T14:01:05Z</time>
      </trkpt>
      <trkpt lat="43.97405" lon="4.09429">
        <ele>171</ele>
        <time>2011-02-27T14:01:06Z</time>
      </trkpt>
      <trkpt lat="43.97397" lon="4.0942">
        <ele>171</ele>
        <time>2011-02-27T14:01:07Z</time>
      </trkpt>
      <trkpt lat="43.97389" lon="4.09412">
        <ele>170</ele>
        <time>2011-02-27T14:01:08Z</time>
      </trkpt>
      <trkpt lat="43.97381" lon="4.09403">
        <ele>170</ele>
        <time>2011-02-27T14:01:09Z</time>
      </trkpt>
      <trkpt lat="43.97374" lon="4.09395">
        <ele>170</ele>
        <time>2011-02-27T14:01:10Z</time>
      </trkpt>
      <trkpt lat="43.97366" lon="4.09387">
        <ele>169</ele>
        <time>2011-02-27T14:01:11Z</time>
      </trkpt>
      <trkpt lat="43.97359" lon="4.0938">
        <ele>169</ele>
        <time>2011-02-27T14:01:12Z</time>
      </trkpt>
      <trkpt lat="43.97352" lon="4.09372">
        <ele>169</ele>
        <time>2011-02-27T14:01:13Z</time>
      </trkpt>
      <trkpt lat="43.97344" lon="4.09369">
        <ele>168</ele>
        <time>2011-02-27T14:01:14Z</time>
      </trkpt>
      <trkpt lat="43.97336" lon="4.09366">
        <ele>168</ele>
        <time>2011-02-27T14:01:15Z</time>
      </trkpt>
      <trkpt lat="43.97328" lon="4.09365">
        <ele>168</ele>
        <time>2011-02-27T14:01:16Z</time>
      </trkpt>
      <trkpt lat="43.97321" lon="4.09363">
        <ele>167</ele>
        <time>2011-02-27T14:01:17Z</time>
      </trkpt>
      <trkpt lat="43.97313" lon="4.09362">
        <ele>167</ele>
        <time>2011-02-27T14:01:18Z</time>
      </trkpt>
      <trkpt lat="43.97306" lon="4.09361">
        <ele>167</ele>
        <time>2011-02-27T14:01:19Z</time>
      </trkpt>
      <trkpt lat="43.973" lon="4.09361">
        <ele>166</ele>
        <time>2011-02-27T14:01:20Z</time>
      </trkpt>
      <trkpt lat="43.97293" lon="4.0936">
        <ele>166</ele>
        <time>2011-02-27T14:01:21Z</time>
      </trkpt>
      <trkpt lat="43.97288" lon="4.09359">
        <ele>166</ele>
        <time>2011-02-27T14:01:22Z</time>
      </trkpt>
      <trkpt lat="43.97282" lon="4.09358">
        <ele>167</ele>
        <time>2011-02-27T14:01:23Z</time>
      </trkpt>
      <trkpt lat="43.97277" lon="4.09358">
        <ele>167</ele>
        <time>2011-02-27T14:01:24Z</time>
      </trkpt>
      <trkpt lat="43.97273" lon="4.09357">
        <ele>167</ele>
        <time>2011-02-27T14:01:25Z</time>
      </trkpt>
      <trkpt lat="43.97268" lon="4.09356">
        <ele>167</ele>
        <time>2011-02-27T14:01:26Z</time>
      </trkpt>
      <trkpt lat="43.97263" lon="4.09356">
        <ele>167</ele>
        <time>2011-02-27T14:01:27Z</time>
      </trkpt>
      <trkpt lat="43.97258" lon="4.09355">
        <ele>167</ele>
        <time>2011-02-27T14:01:28Z</time>
      </trkpt>
      <trkpt lat="43.97253" lon="4.09354">
        <ele>167</ele>
        <time>2011-02-27T14:01:29Z</time>
      </trkpt>
      <trkpt lat="43.97248" lon="4.09353">
        <ele>167</ele>
        <time>2011-02-27T14:01:30Z</time>
      </trkpt>
      <trkpt lat="43.97243" lon="4.09353">
        <ele>167</ele>
        <time>2011-02-27T14:01:31Z</time>
      </trkpt>
      <trkpt lat="43.97238" lon="4.09352">
        <ele>168</ele>
        <time>2011-02-27T14:01:32Z</time>
      </trkpt>
      <trkpt lat="43.97232" lon="4.09351">
        <ele>168</ele>
        <time>2011-02-27T14:01:33Z</time>
      </trkpt>
      <trkpt lat="43.97226" lon="4.09349">
        <ele>168</ele>
        <time>2011-02-27T14:01:34Z</time>
      </trkpt>
      <trkpt lat="43.97221" lon="4.09348">
        <ele>168</ele>
        <time>2011-02-27T14:01:35Z</time>
      </trkpt>
      <trkpt lat="43.97215" lon="4.09346">
        <ele>169</ele>
        <time>2011-02-27T14:01:36Z</time>
      </trkpt>
      <trkpt lat="43.97209" lon="4.09345">
        <ele>169</ele>
        <time>2011-02-27T14:01:37Z</time>
      </trkpt>
      <trkpt lat="43.97204" lon="4.09343">
        <ele>169</ele>
        <time>2011-02-27T14:01:38Z</time>
      </trkpt>
      <trkpt lat="43.97198" lon="4.09342">
        <ele>169</ele>
        <time>2011-02-27T14:01:39Z</time>
      </trkpt>
      <trkpt lat="43.97192" lon="4.0934">
        <ele>169</ele>
        <time>2011-02-27T14:01:40Z</time>
      </trkpt>
      <trkpt lat="43.97186" lon="4.09338">
        <ele>169</ele>
        <time>2011-02-27T14:01:41Z</time>
      </trkpt>
      <trkpt lat="43.97181" lon="4.09336">
        <ele>169</ele>
        <time>2011-02-27T14:01:42Z</time>
      </trkpt>
      <trkpt lat="43.97175" lon="4.09333">
        <ele>169</ele>
        <time>2011-02-27T14:01:43Z</time>
      </trkpt>
      <trkpt lat="43.9717" lon="4.09331">
        <ele>169</ele>
        <time>2011-02-27T14:01:44Z</time>
      </trkpt>
      <trkpt lat="43.97164" lon="4.09329">
        <ele>169</ele>
        <time>2011-02-27T14:01:45Z</time>
      </trkpt>
      <trkpt lat="43.97159" lon="4.09328">
        <ele>169</ele>
        <time>2011-02-27T14:01:46Z</time>
      </trkpt>
      <trkpt lat="43.97154" lon="4.09327">
        <ele>169</ele>
        <time>2011-02-27T14:01:47Z</time>
      </trkpt>
      <trkpt lat="43.97148" lon="4.09326">
        <ele>169</ele>
        <time>2011-02-27T14:01:48Z</time>
      </trkpt>
      <trkpt lat="43.97143" lon="4.09325">
        <ele>169</ele>
        <time>2011-02-27T14:01:49Z</time>
      </trkpt>
      <trkpt lat="43.97138" lon="4.09325">
        <ele>169</ele>
        <time>2011-02-27T14:01:50Z</time>
      </trkpt>
      <trkpt lat="43.97133" lon="4.09324">
        <ele>169</ele>
        <time>2011-02-27T14:01:51Z</time>
      </trkpt>
      <trkpt lat="43.97128" lon="4.09323">
        <ele>169</ele>
        <time>2011-02-27T14:01:52Z</time>
      </trkpt>
      <trkpt lat="43.97123" lon="4.09322">
        <ele>169</ele>
        <time>2011-02-27T14:01:53Z</time>
      </trkpt>
      <trkpt lat="43.97118" lon="4.09321">
        <ele>169</ele>
        <time>2011-02-27T14:01:54Z</time>
      </trkpt>
      <trkpt lat="43.97113" lon="4.0932">
        <ele>169</ele>
        <time>2011-02-27T14:01:55Z</time>
      </trkpt>
      <trkpt lat="43.97108" lon="4.09318">
        <ele>169</ele>
        <time>2011-02-27T14:01:56Z</time>
      </trkpt>
      <trkpt lat="43.97103" lon="4.09317">
        <ele>169</ele>
        <time>2011-02-27T14:01:57Z</time>
      </trkpt>
      <trkpt lat="43.97098" lon="4.09315">
        <ele>169</ele>
        <time>2011-02-27T14:01:58Z</time>
      </trkpt>
      <trkpt lat="43.97093" lon="4.09314">
        <ele>169</ele>
        <time>2011-02-27T14:01:59Z</time>
      </trkpt>
      <trkpt lat="43.97088" lon="4.09313">
        <ele>169</ele>
        <time>2011-02-27T14:02:00Z</time>
      </trkpt>
      <trkpt lat="43.97083" lon="4.09312">
        <ele>169</ele>
        <time>2011-02-27T14:02:01Z</time>
      </trkpt>
      <trkpt lat="43.97078" lon="4.09311">
        <ele>169</ele>
        <time>2011-02-27T14:02:02Z</time>
      </trkpt>
      <trkpt lat="43.97073" lon="4.0931">
        <ele>169</ele>
        <time>2011-02-27T14:02:03Z</time>
      </trkpt>
      <trkpt lat="43.97068" lon="4.0931">
        <ele>169</ele>
        <time>2011-02-27T14:02:04Z</time>
      </trkpt>
      <trkpt lat="43.9706" lon="4.09308">
        <ele>170</ele>
        <time>2011-02-27T14:02:06Z</time>
      </trkpt>
      <trkpt lat="43.97053" lon="4.09306">
        <ele>170</ele>
        <time>2011-02-27T14:02:08Z</time>
      </trkpt>
      <trkpt lat="43.97045" lon="4.09305">
        <ele>172</ele>
        <time>2011-02-27T14:02:10Z</time>
      </trkpt>
      <trkpt lat="43.9704" lon="4.09304">
        <ele>172</ele>
        <time>2011-02-27T14:02:11Z</time>
      </trkpt>
      <trkpt lat="43.97035" lon="4.09303">
        <ele>173</ele>
        <time>2011-02-27T14:02:12Z</time>
      </trkpt>
      <trkpt lat="43.97029" lon="4.09302">
        <ele>173</ele>
        <time>2011-02-27T14:02:13Z</time>
      </trkpt>
      <trkpt lat="43.97024" lon="4.093">
        <ele>173</ele>
        <time>2011-02-27T14:02:14Z</time>
      </trkpt>
      <trkpt lat="43.97019" lon="4.09298">
        <ele>174</ele>
        <time>2011-02-27T14:02:15Z</time>
      </trkpt>
      <trkpt lat="43.97014" lon="4.09295">
        <ele>174</ele>
        <time>2011-02-27T14:02:16Z</time>
      </trkpt>
      <trkpt lat="43.97008" lon="4.09292">
        <ele>175</ele>
        <time>2011-02-27T14:02:17Z</time>
      </trkpt>
      <trkpt lat="43.97003" lon="4.0929">
        <ele>175</ele>
        <time>2011-02-27T14:02:18Z</time>
      </trkpt>
      <trkpt lat="43.96998" lon="4.09287">
        <ele>176</ele>
        <time>2011-02-27T14:02:19Z</time>
      </trkpt>
      <trkpt lat="43.96993" lon="4.09284">
        <ele>176</ele>
        <time>2011-02-27T14:02:20Z</time>
      </trkpt>
      <trkpt lat="43.96987" lon="4.09282">
        <ele>176</ele>
        <time>2011-02-27T14:02:21Z</time>
      </trkpt>
      <trkpt lat="43.96982" lon="4.09279">
        <ele>176</ele>
        <time>2011-02-27T14:02:22Z</time>
      </trkpt>
      <trkpt lat="43.96977" lon="4.09277">
        <ele>177</ele>
        <time>2011-02-27T14:02:23Z</time>
      </trkpt>
      <trkpt lat="43.96971" lon="4.09275">
        <ele>177</ele>
        <time>2011-02-27T14:02:24Z</time>
      </trkpt>
      <trkpt lat="43.96966" lon="4.09272">
        <ele>177</ele>
        <time>2011-02-27T14:02:25Z</time>
      </trkpt>
      <trkpt lat="43.9696" lon="4.0927">
        <ele>177</ele>
        <time>2011-02-27T14:02:26Z</time>
      </trkpt>
      <trkpt lat="43.96954" lon="4.09268">
        <ele>177</ele>
        <time>2011-02-27T14:02:27Z</time>
      </trkpt>
      <trkpt lat="43.96949" lon="4.09266">
        <ele>177</ele>
        <time>2011-02-27T14:02:28Z</time>
      </trkpt>
      <trkpt lat="43.96944" lon="4.09263">
        <ele>177</ele>
        <time>2011-02-27T14:02:29Z</time>
      </trkpt>
      <trkpt lat="43.96938" lon="4.09261">
        <ele>177</ele>
        <time>2011-02-27T14:02:30Z</time>
      </trkpt>
      <trkpt lat="43.96933" lon="4.09259">
        <ele>177</ele>
        <time>2011-02-27T14:02:31Z</time>
      </trkpt>
      <trkpt lat="43.96928" lon="4.09257">
        <ele>178</ele>
        <time>2011-02-27T14:02:32Z</time>
      </trkpt>
      <trkpt lat="43.96923" lon="4.09255">
        <ele>178</ele>
        <time>2011-02-27T14:02:33Z</time>
      </trkpt>
      <trkpt lat="43.96918" lon="4.09253">
        <ele>178</ele>
        <time>2011-02-27T14:02:34Z</time>
      </trkpt>
      <trkpt lat="43.96913" lon="4.09251">
        <ele>178</ele>
        <time>2011-02-27T14:02:35Z</time>
      </trkpt>
      <trkpt lat="43.96908" lon="4.09249">
        <ele>178</ele>
        <time>2011-02-27T14:02:36Z</time>
      </trkpt>
      <trkpt lat="43.96903" lon="4.09248">
        <ele>178</ele>
        <time>2011-02-27T14:02:37Z</time>
      </trkpt>
      <trkpt lat="43.96898" lon="4.09246">
        <ele>178</ele>
        <time>2011-02-27T14:02:38Z</time>
      </trkpt>
      <trkpt lat="43.96893" lon="4.09245">
        <ele>178</ele>
        <time>2011-02-27T14:02:39Z</time>
      </trkpt>
      <trkpt lat="43.96888" lon="4.09243">
        <ele>178</ele>
        <time>2011-02-27T14:02:40Z</time>
      </trkpt>
      <trkpt lat="43.96883" lon="4.09241">
        <ele>178</ele>
        <time>2011-02-27T14:02:41Z</time>
      </trkpt>
      <trkpt lat="43.96877" lon="4.09239">
        <ele>179</ele>
        <time>2011-02-27T14:02:42Z</time>
      </trkpt>
      <trkpt lat="43.96872" lon="4.09235">
        <ele>179</ele>
        <time>2011-02-27T14:02:43Z</time>
      </trkpt>
      <trkpt lat="43.96868" lon="4.09231">
        <ele>179</ele>
        <time>2011-02-27T14:02:44Z</time>
      </trkpt>
      <trkpt lat="43.96863" lon="4.09226">
        <ele>179</ele>
        <time>2011-02-27T14:02:45Z</time>
      </trkpt>
      <trkpt lat="43.96859" lon="4.09221">
        <ele>179</ele>
        <time>2011-02-27T14:02:46Z</time>
      </trkpt>
      <trkpt lat="43.96855" lon="4.09216">
        <ele>180</ele>
        <time>2011-02-27T14:02:47Z</time>
      </trkpt>
      <trkpt lat="43.96851" lon="4.09211">
        <ele>179</ele>
        <time>2011-02-27T14:02:48Z</time>
      </trkpt>
      <trkpt lat="43.96847" lon="4.09206">
        <ele>179</ele>
        <time>2011-02-27T14:02:49Z</time>
      </trkpt>
      <trkpt lat="43.96843" lon="4.09201">
        <ele>180</ele>
        <time>2011-02-27T14:02:50Z</time>
      </trkpt>
      <trkpt lat="43.9684" lon="4.09196">
        <ele>180</ele>
        <time>2011-02-27T14:02:51Z</time>
      </trkpt>
      <trkpt lat="43.96836" lon="4.0919">
        <ele>180</ele>
        <time>2011-02-27T14:02:52Z</time>
      </trkpt>
      <trkpt lat="43.96832" lon="4.09185">
        <ele>180</ele>
        <time>2011-02-27T14:02:53Z</time>
      </trkpt>
      <trkpt lat="43.96827" lon="4.09179">
        <ele>180</ele>
        <time>2011-02-27T14:02:54Z</time>
      </trkpt>
      <trkpt lat="43.96823" lon="4.09173">
        <ele>181</ele>
        <time>2011-02-27T14:02:55Z</time>
      </trkpt>
      <trkpt lat="43.96818" lon="4.09167">
        <ele>181</ele>
        <time>2011-02-27T14:02:56Z</time>
      </trkpt>
      <trkpt lat="43.96813" lon="4.09161">
        <ele>181</ele>
        <time>2011-02-27T14:02:57Z</time>
      </trkpt>
      <trkpt lat="43.96808" lon="4.09154">
        <ele>181</ele>
        <time>2011-02-27T14:02:58Z</time>
      </trkpt>
      <trkpt lat="43.96802" lon="4.09147">
        <ele>181</ele>
        <time>2011-02-27T14:02:59Z</time>
      </trkpt>
      <trkpt lat="43.96796" lon="4.0914">
        <ele>181</ele>
        <time>2011-02-27T14:03:00Z</time>
      </trkpt>
      <trkpt lat="43.9679" lon="4.09133">
        <ele>181</ele>
        <time>2011-02-27T14:03:01Z</time>
      </trkpt>
      <trkpt lat="43.96784" lon="4.09126">
        <ele>181</ele>
        <time>2011-02-27T14:03:02Z</time>
      </trkpt>
      <trkpt lat="43.96777" lon="4.09118">
        <ele>181</ele>
        <time>2011-02-27T14:03:03Z</time>
      </trkpt>
      <trkpt lat="43.96771" lon="4.0911">
        <ele>181</ele>
        <time>2011-02-27T14:03:04Z</time>
      </trkpt>
      <trkpt lat="43.96764" lon="4.09102">
        <ele>181</ele>
        <time>2011-02-27T14:03:05Z</time>
      </trkpt>
      <trkpt lat="43.96757" lon="4.09093">
        <ele>181</ele>
        <time>2011-02-27T14:03:06Z</time>
      </trkpt>
      <trkpt lat="43.96751" lon="4.09085">
        <ele>181</ele>
        <time>2011-02-27T14:03:07Z</time>
      </trkpt>
      <trkpt lat="43.96743" lon="4.09076">
        <ele>182</ele>
        <time>2011-02-27T14:03:08Z</time>
      </trkpt>
      <trkpt lat="43.96736" lon="4.09066">
        <ele>182</ele>
        <time>2011-02-27T14:03:09Z</time>
      </trkpt>
      <trkpt lat="43.96728" lon="4.09057">
        <ele>182</ele>
        <time>2011-02-27T14:03:10Z</time>
      </trkpt>
      <trkpt lat="43.96721" lon="4.09048">
        <ele>182</ele>
        <time>2011-02-27T14:03:11Z</time>
      </trkpt>
      <trkpt lat="43.96713" lon="4.09039">
        <ele>182</ele>
        <time>2011-02-27T14:03:12Z</time>
      </trkpt>
      <trkpt lat="43.96706" lon="4.09029">
        <ele>182</ele>
        <time>2011-02-27T14:03:13Z</time>
      </trkpt>
      <trkpt lat="43.96698" lon="4.0902">
        <ele>181</ele>
        <time>2011-02-27T14:03:14Z</time>
      </trkpt>
      <trkpt lat="43.96691" lon="4.0901">
        <ele>181</ele>
        <time>2011-02-27T14:03:15Z</time>
      </trkpt>
      <trkpt lat="43.96684" lon="4.09001">
        <ele>181</ele>
        <time>2011-02-27T14:03:16Z</time>
      </trkpt>
      <trkpt lat="43.96676" lon="4.08991">
        <ele>181</ele>
        <time>2011-02-27T14:03:17Z</time>
      </trkpt>
      <trkpt lat="43.96669" lon="4.08982">
        <ele>180</ele>
        <time>2011-02-27T14:03:18Z</time>
      </trkpt>
      <trkpt lat="43.96662" lon="4.08973">
        <ele>180</ele>
        <time>2011-02-27T14:03:19Z</time>
      </trkpt>
      <trkpt lat="43.96655" lon="4.08964">
        <ele>180</ele>
        <time>2011-02-27T14:03:20Z</time>
      </trkpt>
      <trkpt lat="43.96648" lon="4.08955">
        <ele>179</ele>
        <time>2011-02-27T14:03:21Z</time>
      </trkpt>
      <trkpt lat="43.96641" lon="4.08946">
        <ele>179</ele>
        <time>2011-02-27T14:03:22Z</time>
      </trkpt>
      <trkpt lat="43.96634" lon="4.08938">
        <ele>179</ele>
        <time>2011-02-27T14:03:23Z</time>
      </trkpt>
      <trkpt lat="43.96627" lon="4.0893">
        <ele>179</ele>
        <time>2011-02-27T14:03:24Z</time>
      </trkpt>
      <trkpt lat="43.96621" lon="4.08923">
        <ele>178</ele>
        <time>2011-02-27T14:03:25Z</time>
      </trkpt>
      <trkpt lat="43.96615" lon="4.08916">
        <ele>178</ele>
        <time>2011-02-27T14:03:26Z</time>
      </trkpt>
      <trkpt lat="43.96611" lon="4.08908">
        <ele>178</ele>
        <time>2011-02-27T14:03:27Z</time>
      </trkpt>
      <trkpt lat="43.96609" lon="4.089">
        <ele>178</ele>
        <time>2011-02-27T14:03:28Z</time>
      </trkpt>
      <trkpt lat="43.96607" lon="4.08894">
        <ele>178</ele>
        <time>2011-02-27T14:03:29Z</time>
      </trkpt>
      <trkpt lat="43.96604" lon="4.08885">
        <ele>179</ele>
        <time>2011-02-27T14:03:31Z</time>
      </trkpt>
      <trkpt lat="43.96599" lon="4.08877">
        <ele>180</ele>
        <time>2011-02-27T14:03:33Z</time>
      </trkpt>
      <trkpt lat="43.96593" lon="4.08869">
        <ele>180</ele>
        <time>2011-02-27T14:03:35Z</time>
      </trkpt>
      <trkpt lat="43.96586" lon="4.0886">
        <ele>182</ele>
        <time>2011-02-27T14:03:37Z</time>
      </trkpt>
      <trkpt lat="43.96583" lon="4.08856">
        <ele>183</ele>
        <time>2011-02-27T14:03:38Z</time>
      </trkpt>
      <trkpt lat="43.96578" lon="4.08853">
        <ele>184</ele>
        <time>2011-02-27T14:03:39Z</time>
      </trkpt>
      <trkpt lat="43.96572" lon="4.0885">
        <ele>185</ele>
        <time>2011-02-27T14:03:40Z</time>
      </trkpt>
      <trkpt lat="43.96568" lon="4.08844">
        <ele>186</ele>
        <time>2011-02-27T14:03:41Z</time>
      </trkpt>
      <trkpt lat="43.96563" lon="4.08836">
        <ele>187</ele>
        <time>2011-02-27T14:03:42Z</time>
      </trkpt>
      <trkpt lat="43.96558" lon="4.08828">
        <ele>187</ele>
        <time>2011-02-27T14:03:43Z</time>
      </trkpt>
      <trkpt lat="43.96554" lon="4.0882">
        <ele>188</ele>
        <time>2011-02-27T14:03:44Z</time>
      </trkpt>
      <trkpt lat="43.9655" lon="4.08812">
        <ele>188</ele>
        <time>2011-02-27T14:03:45Z</time>
      </trkpt>
      <trkpt lat="43.96545" lon="4.08803">
        <ele>189</ele>
        <time>2011-02-27T14:03:46Z</time>
      </trkpt>
      <trkpt lat="43.96541" lon="4.08795">
        <ele>189</ele>
        <time>2011-02-27T14:03:47Z</time>
      </trkpt>
      <trkpt lat="43.96537" lon="4.08787">
        <ele>189</ele>
        <time>2011-02-27T14:03:48Z</time>
      </trkpt>
      <trkpt lat="43.96532" lon="4.08779">
        <ele>190</ele>
        <time>2011-02-27T14:03:49Z</time>
      </trkpt>
      <trkpt lat="43.96528" lon="4.08771">
        <ele>190</ele>
        <time>2011-02-27T14:03:50Z</time>
      </trkpt>
      <trkpt lat="43.96525" lon="4.08762">
        <ele>190</ele>
        <time>2011-02-27T14:03:51Z</time>
      </trkpt>
      <trkpt lat="43.96521" lon="4.08754">
        <ele>190</ele>
        <time>2011-02-27T14:03:52Z</time>
      </trkpt>
      <trkpt lat="43.96517" lon="4.08745">
        <ele>189</ele>
        <time>2011-02-27T14:03:53Z</time>
      </trkpt>
      <trkpt lat="43.96513" lon="4.08736">
        <ele>189</ele>
        <time>2011-02-27T14:03:54Z</time>
      </trkpt>
      <trkpt lat="43.9651" lon="4.08728">
        <ele>189</ele>
        <time>2011-02-27T14:03:55Z</time>
      </trkpt>
      <trkpt lat="43.96506" lon="4.0872">
        <ele>189</ele>
        <time>2011-02-27T14:03:56Z</time>
      </trkpt>
      <trkpt lat="43.96502" lon="4.08712">
        <ele>189</ele>
        <time>2011-02-27T14:03:57Z</time>
      </trkpt>
      <trkpt lat="43.96498" lon="4.08705">
        <ele>188</ele>
        <time>2011-02-27T14:03:58Z</time>
      </trkpt>
      <trkpt lat="43.96494" lon="4.08697">
        <ele>188</ele>
        <time>2011-02-27T14:03:59Z</time>
      </trkpt>
      <trkpt lat="43.9649" lon="4.08689">
        <ele>187</ele>
        <time>2011-02-27T14:04:00Z</time>
      </trkpt>
      <trkpt lat="43.96486" lon="4.08682">
        <ele>187</ele>
        <time>2011-02-27T14:04:01Z</time>
      </trkpt>
      <trkpt lat="43.96482" lon="4.08675">
        <ele>186</ele>
        <time>2011-02-27T14:04:02Z</time>
      </trkpt>
      <trkpt lat="43.96478" lon="4.08667">
        <ele>186</ele>
        <time>2011-02-27T14:04:03Z</time>
      </trkpt>
      <trkpt lat="43.96474" lon="4.0866">
        <ele>186</ele>
        <time>2011-02-27T14:04:04Z</time>
      </trkpt>
      <trkpt lat="43.9647" lon="4.08653">
        <ele>186</ele>
        <time>2011-02-27T14:04:05Z</time>
      </trkpt>
      <trkpt lat="43.96466" lon="4.08646">
        <ele>186</ele>
        <time>2011-02-27T14:04:06Z</time>
      </trkpt>
      <trkpt lat="43.96462" lon="4.0864">
        <ele>186</ele>
        <time>2011-02-27T14:04:07Z</time>
      </trkpt>
      <trkpt lat="43.96458" lon="4.08633">
        <ele>186</ele>
        <time>2011-02-27T14:04:08Z</time>
      </trkpt>
      <trkpt lat="43.96454" lon="4.08626">
        <ele>186</ele>
        <time>2011-02-27T14:04:09Z</time>
      </trkpt>
      <trkpt lat="43.9645" lon="4.0862">
        <ele>185</ele>
        <time>2011-02-27T14:04:10Z</time>
      </trkpt>
      <trkpt lat="43.96446" lon="4.08613">
        <ele>185</ele>
        <time>2011-02-27T14:04:11Z</time>
      </trkpt>
      <trkpt lat="43.96443" lon="4.08607">
        <ele>185</ele>
        <time>2011-02-27T14:04:12Z</time>
      </trkpt>
      <trkpt lat="43.96439" lon="4.086">
        <ele>185</ele>
        <time>2011-02-27T14:04:13Z</time>
      </trkpt>
      <trkpt lat="43.96436" lon="4.08594">
        <ele>184</ele>
        <time>2011-02-27T14:04:14Z</time>
      </trkpt>
      <trkpt lat="43.96432" lon="4.08588">
        <ele>184</ele>
        <time>2011-02-27T14:04:15Z</time>
      </trkpt>
      <trkpt lat="43.96428" lon="4.08582">
        <ele>185</ele>
        <time>2011-02-27T14:04:16Z</time>
      </trkpt>
      <trkpt lat="43.96425" lon="4.08576">
        <ele>185</ele>
        <time>2011-02-27T14:04:17Z</time>
      </trkpt>
      <trkpt lat="43.96421" lon="4.08571">
        <ele>184</ele>
        <time>2011-02-27T14:04:18Z</time>
      </trkpt>
      <trkpt lat="43.96418" lon="4.08566">
        <ele>185</ele>
        <time>2011-02-27T14:04:19Z</time>
      </trkpt>
      <trkpt lat="43.96414" lon="4.08561">
        <ele>185</ele>
        <time>2011-02-27T14:04:20Z</time>
      </trkpt>
      <trkpt lat="43.96411" lon="4.08555">
        <ele>185</ele>
        <time>2011-02-27T14:04:21Z</time>
      </trkpt>
      <trkpt lat="43.96408" lon="4.08549">
        <ele>185</ele>
        <time>2011-02-27T14:04:22Z</time>
      </trkpt>
      <trkpt lat="43.96405" lon="4.08543">
        <ele>185</ele>
        <time>2011-02-27T14:04:23Z</time>
      </trkpt>
      <trkpt lat="43.96407" lon="4.08532">
        <ele>186</ele>
        <time>2011-02-27T14:04:25Z</time>
      </trkpt>
      <trkpt lat="43.96411" lon="4.08528">
        <ele>186</ele>
        <time>2011-02-27T14:04:26Z</time>
      </trkpt>
      <trkpt lat="43.96415" lon="4.08524">
        <ele>187</ele>
        <time>2011-02-27T14:04:27Z</time>
      </trkpt>
      <trkpt lat="43.96419" lon="4.0852">
        <ele>187</ele>
        <time>2011-02-27T14:04:28Z</time>
      </trkpt>
      <trkpt lat="43.96423" lon="4.08516">
        <ele>187</ele>
        <time>2011-02-27T14:04:29Z</time>
      </trkpt>
      <trkpt lat="43.96426" lon="4.08511">
        <ele>186</ele>
        <time>2011-02-27T14:04:30Z</time>
      </trkpt>
      <trkpt lat="43.96429" lon="4.08505">
        <ele>186</ele>
        <time>2011-02-27T14:04:31Z</time>
      </trkpt>
      <trkpt lat="43.96429" lon="4.08498">
        <ele>186</ele>
        <time>2011-02-27T14:04:32Z</time>
      </trkpt>
      <trkpt lat="43.96429" lon="4.08491">
        <ele>186</ele>
        <time>2011-02-27T14:04:33Z</time>
      </trkpt>
      <trkpt lat="43.96429" lon="4.08484">
        <ele>186</ele>
        <time>2011-02-27T14:04:34Z</time>
      </trkpt>
      <trkpt lat="43.96429" lon="4.08476">
        <ele>186</ele>
        <time>2011-02-27T14:04:35Z</time>
      </trkpt>
      <trkpt lat="43.96428" lon="4.08469">
        <ele>186</ele>
        <time>2011-02-27T14:04:36Z</time>
      </trkpt>
      <trkpt lat="43.96427" lon="4.08461">
        <ele>185</ele>
        <time>2011-02-27T14:04:37Z</time>
      </trkpt>
      <trkpt lat="43.96425" lon="4.08453">
        <ele>185</ele>
        <time>2011-02-27T14:04:38Z</time>
      </trkpt>
      <trkpt lat="43.96424" lon="4.08446">
        <ele>185</ele>
        <time>2011-02-27T14:04:39Z</time>
      </trkpt>
      <trkpt lat="43.96423" lon="4.08438">
        <ele>185</ele>
        <time>2011-02-27T14:04:40Z</time>
      </trkpt>
      <trkpt lat="43.96422" lon="4.08431">
        <ele>186</ele>
        <time>2011-02-27T14:04:41Z</time>
      </trkpt>
      <trkpt lat="43.96421" lon="4.08423">
        <ele>186</ele>
        <time>2011-02-27T14:04:42Z</time>
      </trkpt>
      <trkpt lat="43.96419" lon="4.08416">
        <ele>186</ele>
        <time>2011-02-27T14:04:43Z</time>
      </trkpt>
      <trkpt lat="43.96418" lon="4.08408">
        <ele>186</ele>
        <time>2011-02-27T14:04:44Z</time>
      </trkpt>
      <trkpt lat="43.96417" lon="4.08401">
        <ele>186</ele>
        <time>2011-02-27T14:04:45Z</time>
      </trkpt>
      <trkpt lat="43.96415" lon="4.08394">
        <ele>186</ele>
        <time>2011-02-27T14:04:46Z</time>
      </trkpt>
      <trkpt lat="43.96414" lon="4.08386">
        <ele>186</ele>
        <time>2011-02-27T14:04:47Z</time>
      </trkpt>
      <trkpt lat="43.96412" lon="4.08379">
        <ele>186</ele>
        <time>2011-02-27T14:04:48Z</time>
      </trkpt>
      <trkpt lat="43.96411" lon="4.08372">
        <ele>186</ele>
        <time>2011-02-27T14:04:49Z</time>
      </trkpt>
      <trkpt lat="43.9641" lon="4.08365">
        <ele>186</ele>
        <time>2011-02-27T14:04:50Z</time>
      </trkpt>
      <trkpt lat="43.96408" lon="4.08358">
        <ele>186</ele>
        <time>2011-02-27T14:04:51Z</time>
      </trkpt>
      <trkpt lat="43.96407" lon="4.0835">
        <ele>186</ele>
        <time>2011-02-27T14:04:52Z</time>
      </trkpt>
      <trkpt lat="43.96406" lon="4.08343">
        <ele>187</ele>
        <time>2011-02-27T14:04:53Z</time>
      </trkpt>
      <trkpt lat="43.96404" lon="4.08335">
        <ele>187</ele>
        <time>2011-02-27T14:04:54Z</time>
      </trkpt>
      <trkpt lat="43.96403" lon="4.08328">
        <ele>187</ele>
        <time>2011-02-27T14:04:55Z</time>
      </trkpt>
      <trkpt lat="43.96401" lon="4.0832">
        <ele>186</ele>
        <time>2011-02-27T14:04:56Z</time>
      </trkpt>
      <trkpt lat="43.96399" lon="4.08312">
        <ele>186</ele>
        <time>2011-02-27T14:04:57Z</time>
      </trkpt>
      <trkpt lat="43.96397" lon="4.08304">
        <ele>186</ele>
        <time>2011-02-27T14:04:58Z</time>
      </trkpt>
      <trkpt lat="43.96396" lon="4.08296">
        <ele>186</ele>
        <time>2011-02-27T14:04:59Z</time>
      </trkpt>
      <trkpt lat="43.96394" lon="4.08288">
        <ele>186</ele>
        <time>2011-02-27T14:05:00Z</time>
      </trkpt>
      <trkpt lat="43.96392" lon="4.08281">
        <ele>186</ele>
        <time>2011-02-27T14:05:01Z</time>
      </trkpt>
      <trkpt lat="43.9639" lon="4.08273">
        <ele>187</ele>
        <time>2011-02-27T14:05:02Z</time>
      </trkpt>
      <trkpt lat="43.96388" lon="4.08265">
        <ele>187</ele>
        <time>2011-02-27T14:05:03Z</time>
      </trkpt>
      <trkpt lat="43.96386" lon="4.08257">
        <ele>187</ele>
        <time>2011-02-27T14:05:04Z</time>
      </trkpt>
      <trkpt lat="43.96385" lon="4.08249">
        <ele>187</ele>
        <time>2011-02-27T14:05:05Z</time>
      </trkpt>
      <trkpt lat="43.96383" lon="4.08242">
        <ele>187</ele>
        <time>2011-02-27T14:05:06Z</time>
      </trkpt>
      <trkpt lat="43.96381" lon="4.08234">
        <ele>188</ele>
        <time>2011-02-27T14:05:07Z</time>
      </trkpt>
      <trkpt lat="43.96379" lon="4.08226">
        <ele>188</ele>
        <time>2011-02-27T14:05:08Z</time>
      </trkpt>
      <trkpt lat="43.96377" lon="4.08218">
        <ele>188</ele>
        <time>2011-02-27T14:05:09Z</time>
      </trkpt>
      <trkpt lat="43.96376" lon="4.0821">
        <ele>189</ele>
        <time>2011-02-27T14:05:10Z</time>
      </trkpt>
      <trkpt lat="43.96373" lon="4.08202">
        <ele>189</ele>
        <time>2011-02-27T14:05:11Z</time>
      </trkpt>
      <trkpt lat="43.9637" lon="4.08196">
        <ele>189</ele>
        <time>2011-02-27T14:05:12Z</time>
      </trkpt>
      <trkpt lat="43.96368" lon="4.08189">
        <ele>189</ele>
        <time>2011-02-27T14:05:13Z</time>
      </trkpt>
      <trkpt lat="43.96368" lon="4.08182">
        <ele>190</ele>
        <time>2011-02-27T14:05:14Z</time>
      </trkpt>
      <trkpt lat="43.96367" lon="4.08175">
        <ele>190</ele>
        <time>2011-02-27T14:05:15Z</time>
      </trkpt>
      <trkpt lat="43.96366" lon="4.08168">
        <ele>190</ele>
        <time>2011-02-27T14:05:16Z</time>
      </trkpt>
      <trkpt lat="43.96364" lon="4.08162">
        <ele>190</ele>
        <time>2011-02-27T14:05:17Z</time>
      </trkpt>
      <trkpt lat="43.96361" lon="4.08156">
        <ele>191</ele>
        <time>2011-02-27T14:05:18Z</time>
      </trkpt>
      <trkpt lat="43.96359" lon="4.0815">
        <ele>191</ele>
        <time>2011-02-27T14:05:19Z</time>
      </trkpt>
      <trkpt lat="43.96357" lon="4.08143">
        <ele>191</ele>
        <time>2011-02-27T14:05:20Z</time>
      </trkpt>
      <trkpt lat="43.96356" lon="4.08136">
        <ele>191</ele>
        <time>2011-02-27T14:05:21Z</time>
      </trkpt>
      <trkpt lat="43.96354" lon="4.08129">
        <ele>191</ele>
        <time>2011-02-27T14:05:22Z</time>
      </trkpt>
      <trkpt lat="43.96351" lon="4.08122">
        <ele>192</ele>
        <time>2011-02-27T14:05:23Z</time>
      </trkpt>
      <trkpt lat="43.96349" lon="4.08116">
        <ele>192</ele>
        <time>2011-02-27T14:05:24Z</time>
      </trkpt>
      <trkpt lat="43.96347" lon="4.0811">
        <ele>192</ele>
        <time>2011-02-27T14:05:25Z</time>
      </trkpt>
      <trkpt lat="43.96345" lon="4.08103">
        <ele>192</ele>
        <time>2011-02-27T14:05:26Z</time>
      </trkpt>
      <trkpt lat="43.96343" lon="4.08096">
        <ele>192</ele>
        <time>2011-02-27T14:05:27Z</time>
      </trkpt>
      <trkpt lat="43.9634" lon="4.08088">
        <ele>192</ele>
        <time>2011-02-27T14:05:28Z</time>
      </trkpt>
      <trkpt lat="43.96338" lon="4.08079">
        <ele>192</ele>
        <time>2011-02-27T14:05:29Z</time>
      </trkpt>
      <trkpt lat="43.96336" lon="4.0807">
        <ele>192</ele>
        <time>2011-02-27T14:05:30Z</time>
      </trkpt>
      <trkpt lat="43.96334" lon="4.0806">
        <ele>192</ele>
        <time>2011-02-27T14:05:31Z</time>
      </trkpt>
      <trkpt lat="43.96332" lon="4.0805">
        <ele>192</ele>
        <time>2011-02-27T14:05:32Z</time>
      </trkpt>
      <trkpt lat="43.9633" lon="4.08041">
        <ele>192</ele>
        <time>2011-02-27T14:05:33Z</time>
      </trkpt>
      <trkpt lat="43.96328" lon="4.08031">
        <ele>192</ele>
        <time>2011-02-27T14:05:34Z</time>
      </trkpt>
      <trkpt lat="43.96326" lon="4.08022">
        <ele>193</ele>
        <time>2011-02-27T14:05:35Z</time>
      </trkpt>
      <trkpt lat="43.96324" lon="4.08013">
        <ele>193</ele>
        <time>2011-02-27T14:05:36Z</time>
      </trkpt>
      <trkpt lat="43.96322" lon="4.08005">
        <ele>193</ele>
        <time>2011-02-27T14:05:37Z</time>
      </trkpt>
      <trkpt lat="43.96319" lon="4.07997">
        <ele>193</ele>
        <time>2011-02-27T14:05:38Z</time>
      </trkpt>
      <trkpt lat="43.96317" lon="4.0799">
        <ele>193</ele>
        <time>2011-02-27T14:05:39Z</time>
      </trkpt>
      <trkpt lat="43.96314" lon="4.07983">
        <ele>194</ele>
        <time>2011-02-27T14:05:40Z</time>
      </trkpt>
      <trkpt lat="43.96312" lon="4.07977">
        <ele>194</ele>
        <time>2011-02-27T14:05:41Z</time>
      </trkpt>
      <trkpt lat="43.96309" lon="4.0797">
        <ele>194</ele>
        <time>2011-02-27T14:05:42Z</time>
      </trkpt>
      <trkpt lat="43.96306" lon="4.07965">
        <ele>195</ele>
        <time>2011-02-27T14:05:43Z</time>
      </trkpt>
      <trkpt lat="43.96304" lon="4.07959">
        <ele>195</ele>
        <time>2011-02-27T14:05:44Z</time>
      </trkpt>
      <trkpt lat="43.96301" lon="4.07953">
        <ele>196</ele>
        <time>2011-02-27T14:05:45Z</time>
      </trkpt>
      <trkpt lat="43.96298" lon="4.07947">
        <ele>196</ele>
        <time>2011-02-27T14:05:46Z</time>
      </trkpt>
      <trkpt lat="43.96294" lon="4.0794">
        <ele>197</ele>
        <time>2011-02-27T14:05:47Z</time>
      </trkpt>
      <trkpt lat="43.96291" lon="4.07933">
        <ele>197</ele>
        <time>2011-02-27T14:05:48Z</time>
      </trkpt>
      <trkpt lat="43.96287" lon="4.07926">
        <ele>197</ele>
        <time>2011-02-27T14:05:49Z</time>
      </trkpt>
      <trkpt lat="43.96284" lon="4.07918">
        <ele>198</ele>
        <time>2011-02-27T14:05:50Z</time>
      </trkpt>
      <trkpt lat="43.9628" lon="4.0791">
        <ele>198</ele>
        <time>2011-02-27T14:05:51Z</time>
      </trkpt>
      <trkpt lat="43.96277" lon="4.07901">
        <ele>198</ele>
        <time>2011-02-27T14:05:52Z</time>
      </trkpt>
      <trkpt lat="43.96273" lon="4.07893">
        <ele>198</ele>
        <time>2011-02-27T14:05:53Z</time>
      </trkpt>
      <trkpt lat="43.9627" lon="4.07884">
        <ele>198</ele>
        <time>2011-02-27T14:05:54Z</time>
      </trkpt>
      <trkpt lat="43.96267" lon="4.07876">
        <ele>198</ele>
        <time>2011-02-27T14:05:55Z</time>
      </trkpt>
      <trkpt lat="43.96264" lon="4.07869">
        <ele>198</ele>
        <time>2011-02-27T14:05:56Z</time>
      </trkpt>
      <trkpt lat="43.96262" lon="4.07863">
        <ele>197</ele>
        <time>2011-02-27T14:05:57Z</time>
      </trkpt>
      <trkpt lat="43.96257" lon="4.07854">
        <ele>196</ele>
        <time>2011-02-27T14:05:59Z</time>
      </trkpt>
      <trkpt lat="43.96253" lon="4.07842">
        <ele>194</ele>
        <time>2011-02-27T14:06:01Z</time>
      </trkpt>
      <trkpt lat="43.9625" lon="4.07837">
        <ele>192</ele>
        <time>2011-02-27T14:06:02Z</time>
      </trkpt>
      <trkpt lat="43.96246" lon="4.07831">
        <ele>191</ele>
        <time>2011-02-27T14:06:03Z</time>
      </trkpt>
      <trkpt lat="43.96243" lon="4.07825">
        <ele>190</ele>
        <time>2011-02-27T14:06:04Z</time>
      </trkpt>
      <trkpt lat="43.96239" lon="4.0782">
        <ele>188</ele>
        <time>2011-02-27T14:06:05Z</time>
      </trkpt>
      <trkpt lat="43.96235" lon="4.07816">
        <ele>187</ele>
        <time>2011-02-27T14:06:06Z</time>
      </trkpt>
      <trkpt lat="43.96231" lon="4.07812">
        <ele>185</ele>
        <time>2011-02-27T14:06:07Z</time>
      </trkpt>
      <trkpt lat="43.96226" lon="4.0781">
        <ele>184</ele>
        <time>2011-02-27T14:06:08Z</time>
      </trkpt>
      <trkpt lat="43.96222" lon="4.07808">
        <ele>183</ele>
        <time>2011-02-27T14:06:09Z</time>
      </trkpt>
      <trkpt lat="43.96217" lon="4.07807">
        <ele>182</ele>
        <time>2011-02-27T14:06:10Z</time>
      </trkpt>
      <trkpt lat="43.96213" lon="4.07807">
        <ele>181</ele>
        <time>2011-02-27T14:06:11Z</time>
      </trkpt>
      <trkpt lat="43.96207" lon="4.07807">
        <ele>180</ele>
        <time>2011-02-27T14:06:12Z</time>
      </trkpt>
      <trkpt lat="43.96202" lon="4.07808">
        <ele>179</ele>
        <time>2011-02-27T14:06:13Z</time>
      </trkpt>
      <trkpt lat="43.96196" lon="4.0781">
        <ele>178</ele>
        <time>2011-02-27T14:06:14Z</time>
      </trkpt>
      <trkpt lat="43.9619" lon="4.07811">
        <ele>177</ele>
        <time>2011-02-27T14:06:15Z</time>
      </trkpt>
      <trkpt lat="43.96184" lon="4.07812">
        <ele>177</ele>
        <time>2011-02-27T14:06:16Z</time>
      </trkpt>
      <trkpt lat="43.96178" lon="4.07814">
        <ele>177</ele>
        <time>2011-02-27T14:06:17Z</time>
      </trkpt>
      <trkpt lat="43.96173" lon="4.07814">
        <ele>176</ele>
        <time>2011-02-27T14:06:18Z</time>
      </trkpt>
      <trkpt lat="43.96166" lon="4.07814">
        <ele>176</ele>
        <time>2011-02-27T14:06:20Z</time>
      </trkpt>
      <trkpt lat="43.96163" lon="4.07813">
        <ele>176</ele>
        <time>2011-02-27T14:06:21Z</time>
      </trkpt>
      <trkpt lat="43.96159" lon="4.07811">
        <ele>176</ele>
        <time>2011-02-27T14:06:23Z</time>
      </trkpt>
      <trkpt lat="43.96151" lon="4.07808">
        <ele>176</ele>
        <time>2011-02-27T14:06:25Z</time>
      </trkpt>
      <trkpt lat="43.96147" lon="4.07806">
        <ele>176</ele>
        <time>2011-02-27T14:06:26Z</time>
      </trkpt>
      <trkpt lat="43.96142" lon="4.07804">
        <ele>175</ele>
        <time>2011-02-27T14:06:27Z</time>
      </trkpt>
      <trkpt lat="43.96136" lon="4.07802">
        <ele>175</ele>
        <time>2011-02-27T14:06:28Z</time>
      </trkpt>
      <trkpt lat="43.9613" lon="4.078">
        <ele>174</ele>
        <time>2011-02-27T14:06:29Z</time>
      </trkpt>
      <trkpt lat="43.96123" lon="4.07798">
        <ele>174</ele>
        <time>2011-02-27T14:06:30Z</time>
      </trkpt>
      <trkpt lat="43.96116" lon="4.07796">
        <ele>174</ele>
        <time>2011-02-27T14:06:31Z</time>
      </trkpt>
      <trkpt lat="43.96109" lon="4.07794">
        <ele>173</ele>
        <time>2011-02-27T14:06:32Z</time>
      </trkpt>
      <trkpt lat="43.96101" lon="4.07792">
        <ele>173</ele>
        <time>2011-02-27T14:06:33Z</time>
      </trkpt>
      <trkpt lat="43.96094" lon="4.0779">
        <ele>173</ele>
        <time>2011-02-27T14:06:34Z</time>
      </trkpt>
      <trkpt lat="43.96086" lon="4.07788">
        <ele>173</ele>
        <time>2011-02-27T14:06:35Z</time>
      </trkpt>
      <trkpt lat="43.96078" lon="4.07786">
        <ele>173</ele>
        <time>2011-02-27T14:06:36Z</time>
      </trkpt>
      <trkpt lat="43.9607" lon="4.07784">
        <ele>172</ele>
        <time>2011-02-27T14:06:37Z</time>
      </trkpt>
      <trkpt lat="43.96061" lon="4.07782">
        <ele>172</ele>
        <time>2011-02-27T14:06:38Z</time>
      </trkpt>
      <trkpt lat="43.96053" lon="4.07779">
        <ele>172</ele>
        <time>2011-02-27T14:06:39Z</time>
      </trkpt>
      <trkpt lat="43.96044" lon="4.07776">
        <ele>172</ele>
        <time>2011-02-27T14:06:40Z</time>
      </trkpt>
      <trkpt lat="43.96036" lon="4.07772">
        <ele>172</ele>
        <time>2011-02-27T14:06:41Z</time>
      </trkpt>
      <trkpt lat="43.96028" lon="4.07767">
        <ele>172</ele>
        <time>2011-02-27T14:06:42Z</time>
      </trkpt>
      <trkpt lat="43.96021" lon="4.07762">
        <ele>172</ele>
        <time>2011-02-27T14:06:43Z</time>
      </trkpt>
      <trkpt lat="43.96013" lon="4.07757">
        <ele>172</ele>
        <time>2011-02-27T14:06:44Z</time>
      </trkpt>
      <trkpt lat="43.96006" lon="4.07752">
        <ele>171</ele>
        <time>2011-02-27T14:06:45Z</time>
      </trkpt>
      <trkpt lat="43.95999" lon="4.07747">
        <ele>171</ele>
        <time>2011-02-27T14:06:46Z</time>
      </trkpt>
      <trkpt lat="43.95992" lon="4.07742">
        <ele>172</ele>
        <time>2011-02-27T14:06:47Z</time>
      </trkpt>
      <trkpt lat="43.95985" lon="4.07738">
        <ele>172</ele>
        <time>2011-02-27T14:06:48Z</time>
      </trkpt>
      <trkpt lat="43.95979" lon="4.07733">
        <ele>172</ele>
        <time>2011-02-27T14:06:49Z</time>
      </trkpt>
      <trkpt lat="43.95972" lon="4.07729">
        <ele>172</ele>
        <time>2011-02-27T14:06:50Z</time>
      </trkpt>
      <trkpt lat="43.95966" lon="4.07726">
        <ele>172</ele>
        <time>2011-02-27T14:06:51Z</time>
      </trkpt>
      <trkpt lat="43.9596" lon="4.07725">
        <ele>172</ele>
        <time>2011-02-27T14:06:52Z</time>
      </trkpt>
      <trkpt lat="43.95954" lon="4.07725">
        <ele>172</ele>
        <time>2011-02-27T14:06:53Z</time>
      </trkpt>
      <trkpt lat="43.95948" lon="4.07726">
        <ele>171</ele>
        <time>2011-02-27T14:06:54Z</time>
      </trkpt>
      <trkpt lat="43.95943" lon="4.07728">
        <ele>172</ele>
        <time>2011-02-27T14:06:55Z</time>
      </trkpt>
      <trkpt lat="43.95937" lon="4.07732">
        <ele>172</ele>
        <time>2011-02-27T14:06:56Z</time>
      </trkpt>
      <trkpt lat="43.95932" lon="4.07736">
        <ele>172</ele>
        <time>2011-02-27T14:06:57Z</time>
      </trkpt>
      <trkpt lat="43.95927" lon="4.07741">
        <ele>172</ele>
        <time>2011-02-27T14:06:58Z</time>
      </trkpt>
      <trkpt lat="43.95923" lon="4.07745">
        <ele>172</ele>
        <time>2011-02-27T14:06:59Z</time>
      </trkpt>
      <trkpt lat="43.9592" lon="4.07751">
        <ele>172</ele>
        <time>2011-02-27T14:07:00Z</time>
      </trkpt>
      <trkpt lat="43.95916" lon="4.07756">
        <ele>172</ele>
        <time>2011-02-27T14:07:01Z</time>
      </trkpt>
      <trkpt lat="43.95912" lon="4.07761">
        <ele>172</ele>
        <time>2011-02-27T14:07:02Z</time>
      </trkpt>
      <trkpt lat="43.95908" lon="4.07766">
        <ele>172</ele>
        <time>2011-02-27T14:07:03Z</time>
      </trkpt>
      <trkpt lat="43.95905" lon="4.07772">
        <ele>172</ele>
        <time>2011-02-27T14:07:04Z</time>
      </trkpt>
      <trkpt lat="43.95902" lon="4.07777">
        <ele>172</ele>
        <time>2011-02-27T14:07:05Z</time>
      </trkpt>
      <trkpt lat="43.95896" lon="4.07786">
        <ele>173</ele>
        <time>2011-02-27T14:07:07Z</time>
      </trkpt>
      <trkpt lat="43.95893" lon="4.07791">
        <ele>174</ele>
        <time>2011-02-27T14:07:08Z</time>
      </trkpt>
      <trkpt lat="43.9589" lon="4.07797">
        <ele>174</ele>
        <time>2011-02-27T14:07:09Z</time>
      </trkpt>
      <trkpt lat="43.95888" lon="4.07803">
        <ele>175</ele>
        <time>2011-02-27T14:07:10Z</time>
      </trkpt>
      <trkpt lat="43.95885" lon="4.07808">
        <ele>175</ele>
        <time>2011-02-27T14:07:11Z</time>
      </trkpt>
      <trkpt lat="43.95882" lon="4.07815">
        <ele>176</ele>
        <time>2011-02-27T14:07:12Z</time>
      </trkpt>
      <trkpt lat="43.9588" lon="4.07822">
        <ele>176</ele>
        <time>2011-02-27T14:07:13Z</time>
      </trkpt>
      <trkpt lat="43.95877" lon="4.07828">
        <ele>176</ele>
        <time>2011-02-27T14:07:14Z</time>
      </trkpt>
      <trkpt lat="43.95875" lon="4.07833">
        <ele>176</ele>
        <time>2011-02-27T14:07:15Z</time>
      </trkpt>
      <trkpt lat="43.9587" lon="4.07843">
        <ele>177</ele>
        <time>2011-02-27T14:07:17Z</time>
      </trkpt>
      <trkpt lat="43.95866" lon="4.07847">
        <ele>177</ele>
        <time>2011-02-27T14:07:18Z</time>
      </trkpt>
      <trkpt lat="43.95861" lon="4.07851">
        <ele>178</ele>
        <time>2011-02-27T14:07:19Z</time>
      </trkpt>
      <trkpt lat="43.95856" lon="4.07855">
        <ele>178</ele>
        <time>2011-02-27T14:07:20Z</time>
      </trkpt>
      <trkpt lat="43.95851" lon="4.07858">
        <ele>178</ele>
        <time>2011-02-27T14:07:21Z</time>
      </trkpt>
      <trkpt lat="43.95846" lon="4.07862">
        <ele>178</ele>
        <time>2011-02-27T14:07:22Z</time>
      </trkpt>
      <trkpt lat="43.95841" lon="4.07866">
        <ele>178</ele>
        <time>2011-02-27T14:07:23Z</time>
      </trkpt>
      <trkpt lat="43.95835" lon="4.07869">
        <ele>178</ele>
        <time>2011-02-27T14:07:24Z</time>
      </trkpt>
      <trkpt lat="43.9583" lon="4.07873">
        <ele>178</ele>
        <time>2011-02-27T14:07:25Z</time>
      </trkpt>
      <trkpt lat="43.95824" lon="4.07876">
        <ele>178</ele>
        <time>2011-02-27T14:07:26Z</time>
      </trkpt>
      <trkpt lat="43.95818" lon="4.07879">
        <ele>178</ele>
        <time>2011-02-27T14:07:27Z</time>
      </trkpt>
      <trkpt lat="43.95811" lon="4.07882">
        <ele>178</ele>
        <time>2011-02-27T14:07:28Z</time>
      </trkpt>
      <trkpt lat="43.95803" lon="4.07884">
        <ele>178</ele>
        <time>2011-02-27T14:07:29Z</time>
      </trkpt>
      <trkpt lat="43.95795" lon="4.07885">
        <ele>177</ele>
        <time>2011-02-27T14:07:30Z</time>
      </trkpt>
      <trkpt lat="43.95787" lon="4.07887">
        <ele>177</ele>
        <time>2011-02-27T14:07:31Z</time>
      </trkpt>
      <trkpt lat="43.95779" lon="4.07888">
        <ele>177</ele>
        <time>2011-02-27T14:07:32Z</time>
      </trkpt>
      <trkpt lat="43.95771" lon="4.07888">
        <ele>177</ele>
        <time>2011-02-27T14:07:33Z</time>
      </trkpt>
      <trkpt lat="43.95763" lon="4.07889">
        <ele>177</ele>
        <time>2011-02-27T14:07:34Z</time>
      </trkpt>
      <trkpt lat="43.95755" lon="4.07889">
        <ele>177</ele>
        <time>2011-02-27T14:07:35Z</time>
      </trkpt>
      <trkpt lat="43.95747" lon="4.07889">
        <ele>178</ele>
        <time>2011-02-27T14:07:36Z</time>
      </trkpt>
      <trkpt lat="43.95739" lon="4.07889">
        <ele>177</ele>
        <time>2011-02-27T14:07:37Z</time>
      </trkpt>
      <trkpt lat="43.95732" lon="4.07889">
        <ele>178</ele>
        <time>2011-02-27T14:07:38Z</time>
      </trkpt>
      <trkpt lat="43.95725" lon="4.07888">
        <ele>178</ele>
        <time>2011-02-27T14:07:39Z</time>
      </trkpt>
      <trkpt lat="43.95717" lon="4.07887">
        <ele>178</ele>
        <time>2011-02-27T14:07:40Z</time>
      </trkpt>
      <trkpt lat="43.9571" lon="4.07886">
        <ele>178</ele>
        <time>2011-02-27T14:07:41Z</time>
      </trkpt>
      <trkpt lat="43.95703" lon="4.07884">
        <ele>178</ele>
        <time>2011-02-27T14:07:42Z</time>
      </trkpt>
      <trkpt lat="43.95696" lon="4.07881">
        <ele>179</ele>
        <time>2011-02-27T14:07:43Z</time>
      </trkpt>
      <trkpt lat="43.9569" lon="4.07878">
        <ele>179</ele>
        <time>2011-02-27T14:07:44Z</time>
      </trkpt>
      <trkpt lat="43.95683" lon="4.07875">
        <ele>178</ele>
        <time>2011-02-27T14:07:45Z</time>
      </trkpt>
      <trkpt lat="43.95676" lon="4.07872">
        <ele>178</ele>
        <time>2011-02-27T14:07:46Z</time>
      </trkpt>
      <trkpt lat="43.95669" lon="4.07871">
        <ele>178</ele>
        <time>2011-02-27T14:07:47Z</time>
      </trkpt>
      <trkpt lat="43.95662" lon="4.0787">
        <ele>178</ele>
        <time>2011-02-27T14:07:48Z</time>
      </trkpt>
      <trkpt lat="43.95655" lon="4.07871">
        <ele>178</ele>
        <time>2011-02-27T14:07:49Z</time>
      </trkpt>
      <trkpt lat="43.95648" lon="4.07874">
        <ele>178</ele>
        <time>2011-02-27T14:07:50Z</time>
      </trkpt>
      <trkpt lat="43.95641" lon="4.07877">
        <ele>178</ele>
        <time>2011-02-27T14:07:51Z</time>
      </trkpt>
      <trkpt lat="43.95635" lon="4.07882">
        <ele>178</ele>
        <time>2011-02-27T14:07:52Z</time>
      </trkpt>
      <trkpt lat="43.95629" lon="4.07886">
        <ele>178</ele>
        <time>2011-02-27T14:07:53Z</time>
      </trkpt>
      <trkpt lat="43.95623" lon="4.07892">
        <ele>178</ele>
        <time>2011-02-27T14:07:54Z</time>
      </trkpt>
      <trkpt lat="43.95617" lon="4.07898">
        <ele>177</ele>
        <time>2011-02-27T14:07:55Z</time>
      </trkpt>
      <trkpt lat="43.95611" lon="4.07904">
        <ele>177</ele>
        <time>2011-02-27T14:07:56Z</time>
      </trkpt>
      <trkpt lat="43.95604" lon="4.0791">
        <ele>177</ele>
        <time>2011-02-27T14:07:57Z</time>
      </trkpt>
      <trkpt lat="43.95597" lon="4.07915">
        <ele>177</ele>
        <time>2011-02-27T14:07:58Z</time>
      </trkpt>
      <trkpt lat="43.9559" lon="4.07919">
        <ele>177</ele>
        <time>2011-02-27T14:07:59Z</time>
      </trkpt>
      <trkpt lat="43.95582" lon="4.07922">
        <ele>177</ele>
        <time>2011-02-27T14:08:00Z</time>
      </trkpt>
      <trkpt lat="43.95574" lon="4.07924">
        <ele>177</ele>
        <time>2011-02-27T14:08:01Z</time>
      </trkpt>
      <trkpt lat="43.95565" lon="4.07924">
        <ele>177</ele>
        <time>2011-02-27T14:08:02Z</time>
      </trkpt>
      <trkpt lat="43.95556" lon="4.07924">
        <ele>177</ele>
        <time>2011-02-27T14:08:03Z</time>
      </trkpt>
      <trkpt lat="43.95547" lon="4.07924">
        <ele>177</ele>
        <time>2011-02-27T14:08:04Z</time>
      </trkpt>
      <trkpt lat="43.95538" lon="4.07924">
        <ele>176</ele>
        <time>2011-02-27T14:08:05Z</time>
      </trkpt>
      <trkpt lat="43.95529" lon="4.07924">
        <ele>176</ele>
        <time>2011-02-27T14:08:06Z</time>
      </trkpt>
      <trkpt lat="43.9552" lon="4.07924">
        <ele>176</ele>
        <time>2011-02-27T14:08:07Z</time>
      </trkpt>
      <trkpt lat="43.95511" lon="4.07923">
        <ele>176</ele>
        <time>2011-02-27T14:08:08Z</time>
      </trkpt>
      <trkpt lat="43.95501" lon="4.07923">
        <ele>176</ele>
        <time>2011-02-27T14:08:09Z</time>
      </trkpt>
      <trkpt lat="43.95492" lon="4.07923">
        <ele>176</ele>
        <time>2011-02-27T14:08:10Z</time>
      </trkpt>
      <trkpt lat="43.95482" lon="4.07923">
        <ele>176</ele>
        <time>2011-02-27T14:08:11Z</time>
      </trkpt>
      <trkpt lat="43.95473" lon="4.07924">
        <ele>175</ele>
        <time>2011-02-27T14:08:12Z</time>
      </trkpt>
      <trkpt lat="43.95464" lon="4.07928">
        <ele>175</ele>
        <time>2011-02-27T14:08:13Z</time>
      </trkpt>
      <trkpt lat="43.95455" lon="4.07934">
        <ele>175</ele>
        <time>2011-02-27T14:08:14Z</time>
      </trkpt>
      <trkpt lat="43.95448" lon="4.07942">
        <ele>174</ele>
        <time>2011-02-27T14:08:15Z</time>
      </trkpt>
      <trkpt lat="43.95441" lon="4.07951">
        <ele>174</ele>
        <time>2011-02-27T14:08:16Z</time>
      </trkpt>
      <trkpt lat="43.95434" lon="4.07961">
        <ele>174</ele>
        <time>2011-02-27T14:08:17Z</time>
      </trkpt>
      <trkpt lat="43.95428" lon="4.07971">
        <ele>174</ele>
        <time>2011-02-27T14:08:18Z</time>
      </trkpt>
      <trkpt lat="43.95422" lon="4.07982">
        <ele>174</ele>
        <time>2011-02-27T14:08:19Z</time>
      </trkpt>
      <trkpt lat="43.95417" lon="4.07992">
        <ele>174</ele>
        <time>2011-02-27T14:08:20Z</time>
      </trkpt>
      <trkpt lat="43.95411" lon="4.08002">
        <ele>174</ele>
        <time>2011-02-27T14:08:21Z</time>
      </trkpt>
      <trkpt lat="43.95404" lon="4.08011">
        <ele>174</ele>
        <time>2011-02-27T14:08:22Z</time>
      </trkpt>
      <trkpt lat="43.95397" lon="4.0802">
        <ele>173</ele>
        <time>2011-02-27T14:08:23Z</time>
      </trkpt>
      <trkpt lat="43.9539" lon="4.08028">
        <ele>173</ele>
        <time>2011-02-27T14:08:24Z</time>
      </trkpt>
      <trkpt lat="43.95383" lon="4.08036">
        <ele>173</ele>
        <time>2011-02-27T14:08:25Z</time>
      </trkpt>
      <trkpt lat="43.95375" lon="4.08044">
        <ele>173</ele>
        <time>2011-02-27T14:08:26Z</time>
      </trkpt>
      <trkpt lat="43.95368" lon="4.08052">
        <ele>173</ele>
        <time>2011-02-27T14:08:27Z</time>
      </trkpt>
      <trkpt lat="43.9536" lon="4.0806">
        <ele>173</ele>
        <time>2011-02-27T14:08:28Z</time>
      </trkpt>
      <trkpt lat="43.95353" lon="4.08068">
        <ele>173</ele>
        <time>2011-02-27T14:08:29Z</time>
      </trkpt>
      <trkpt lat="43.95345" lon="4.08076">
        <ele>173</ele>
        <time>2011-02-27T14:08:30Z</time>
      </trkpt>
      <trkpt lat="43.95337" lon="4.08083">
        <ele>172</ele>
        <time>2011-02-27T14:08:31Z</time>
      </trkpt>
      <trkpt lat="43.95329" lon="4.08091">
        <ele>173</ele>
        <time>2011-02-27T14:08:32Z</time>
      </trkpt>
      <trkpt lat="43.9532" lon="4.08098">
        <ele>173</ele>
        <time>2011-02-27T14:08:33Z</time>
      </trkpt>
      <trkpt lat="43.95311" lon="4.08104">
        <ele>173</ele>
        <time>2011-02-27T14:08:34Z</time>
      </trkpt>
      <trkpt lat="43.95302" lon="4.0811">
        <ele>173</ele>
        <time>2011-02-27T14:08:35Z</time>
      </trkpt>
      <trkpt lat="43.95292" lon="4.08115">
        <ele>173</ele>
        <time>2011-02-27T14:08:36Z</time>
      </trkpt>
      <trkpt lat="43.95281" lon="4.08119">
        <ele>173</ele>
        <time>2011-02-27T14:08:37Z</time>
      </trkpt>
      <trkpt lat="43.95271" lon="4.08124">
        <ele>173</ele>
        <time>2011-02-27T14:08:38Z</time>
      </trkpt>
      <trkpt lat="43.95261" lon="4.08128">
        <ele>173</ele>
        <time>2011-02-27T14:08:39Z</time>
      </trkpt>
      <trkpt lat="43.95251" lon="4.08134">
        <ele>173</ele>
        <time>2011-02-27T14:08:40Z</time>
      </trkpt>
      <trkpt lat="43.95242" lon="4.0814">
        <ele>173</ele>
        <time>2011-02-27T14:08:41Z</time>
      </trkpt>
      <trkpt lat="43.95232" lon="4.08147">
        <ele>173</ele>
        <time>2011-02-27T14:08:42Z</time>
      </trkpt>
      <trkpt lat="43.95223" lon="4.08153">
        <ele>173</ele>
        <time>2011-02-27T14:08:43Z</time>
      </trkpt>
      <trkpt lat="43.95215" lon="4.08159">
        <ele>174</ele>
        <time>2011-02-27T14:08:44Z</time>
      </trkpt>
      <trkpt lat="43.95206" lon="4.08165">
        <ele>174</ele>
        <time>2011-02-27T14:08:45Z</time>
      </trkpt>
      <trkpt lat="43.95197" lon="4.08172">
        <ele>174</ele>
        <time>2011-02-27T14:08:46Z</time>
      </trkpt>
      <trkpt lat="43.95189" lon="4.08178">
        <ele>173</ele>
        <time>2011-02-27T14:08:47Z</time>
      </trkpt>
      <trkpt lat="43.9518" lon="4.08184">
        <ele>173</ele>
        <time>2011-02-27T14:08:48Z</time>
      </trkpt>
      <trkpt lat="43.95171" lon="4.0819">
        <ele>173</ele>
        <time>2011-02-27T14:08:49Z</time>
      </trkpt>
      <trkpt lat="43.95162" lon="4.08196">
        <ele>173</ele>
        <time>2011-02-27T14:08:50Z</time>
      </trkpt>
      <trkpt lat="43.95152" lon="4.082">
        <ele>173</ele>
        <time>2011-02-27T14:08:51Z</time>
      </trkpt>
      <trkpt lat="43.95142" lon="4.08204">
        <ele>173</ele>
        <time>2011-02-27T14:08:52Z</time>
      </trkpt>
      <trkpt lat="43.95132" lon="4.08206">
        <ele>174</ele>
        <time>2011-02-27T14:08:53Z</time>
      </trkpt>
      <trkpt lat="43.95123" lon="4.08207">
        <ele>174</ele>
        <time>2011-02-27T14:08:54Z</time>
      </trkpt>
      <trkpt lat="43.95114" lon="4.08209">
        <ele>174</ele>
        <time>2011-02-27T14:08:55Z</time>
      </trkpt>
      <trkpt lat="43.95104" lon="4.08211">
        <ele>174</ele>
        <time>2011-02-27T14:08:56Z</time>
      </trkpt>
      <trkpt lat="43.95095" lon="4.08213">
        <ele>174</ele>
        <time>2011-02-27T14:08:57Z</time>
      </trkpt>
      <trkpt lat="43.95086" lon="4.08215">
        <ele>173</ele>
        <time>2011-02-27T14:08:58Z</time>
      </trkpt>
      <trkpt lat="43.95077" lon="4.08218">
        <ele>174</ele>
        <time>2011-02-27T14:08:59Z</time>
      </trkpt>
      <trkpt lat="43.95068" lon="4.0822">
        <ele>174</ele>
        <time>2011-02-27T14:09:00Z</time>
      </trkpt>
      <trkpt lat="43.95059" lon="4.08222">
        <ele>174</ele>
        <time>2011-02-27T14:09:01Z</time>
      </trkpt>
      <trkpt lat="43.9505" lon="4.08224">
        <ele>174</ele>
        <time>2011-02-27T14:09:02Z</time>
      </trkpt>
      <trkpt lat="43.95042" lon="4.08226">
        <ele>174</ele>
        <time>2011-02-27T14:09:03Z</time>
      </trkpt>
      <trkpt lat="43.95033" lon="4.08228">
        <ele>174</ele>
        <time>2011-02-27T14:09:04Z</time>
      </trkpt>
      <trkpt lat="43.95024" lon="4.0823">
        <ele>174</ele>
        <time>2011-02-27T14:09:05Z</time>
      </trkpt>
      <trkpt lat="43.95016" lon="4.08231">
        <ele>174</ele>
        <time>2011-02-27T14:09:06Z</time>
      </trkpt>
      <trkpt lat="43.95008" lon="4.08233">
        <ele>174</ele>
        <time>2011-02-27T14:09:07Z</time>
      </trkpt>
      <trkpt lat="43.95" lon="4.08235">
        <ele>174</ele>
        <time>2011-02-27T14:09:08Z</time>
      </trkpt>
      <trkpt lat="43.94992" lon="4.08237">
        <ele>174</ele>
        <time>2011-02-27T14:09:09Z</time>
      </trkpt>
      <trkpt lat="43.94984" lon="4.08238">
        <ele>175</ele>
        <time>2011-02-27T14:09:10Z</time>
      </trkpt>
      <trkpt lat="43.94977" lon="4.0824">
        <ele>174</ele>
        <time>2011-02-27T14:09:11Z</time>
      </trkpt>
      <trkpt lat="43.9497" lon="4.08242">
        <ele>175</ele>
        <time>2011-02-27T14:09:12Z</time>
      </trkpt>
      <trkpt lat="43.94962" lon="4.08243">
        <ele>174</ele>
        <time>2011-02-27T14:09:13Z</time>
      </trkpt>
      <trkpt lat="43.94955" lon="4.08245">
        <ele>174</ele>
        <time>2011-02-27T14:09:14Z</time>
      </trkpt>
      <trkpt lat="43.94948" lon="4.08246">
        <ele>175</ele>
        <time>2011-02-27T14:09:15Z</time>
      </trkpt>
      <trkpt lat="43.94941" lon="4.08248">
        <ele>175</ele>
        <time>2011-02-27T14:09:16Z</time>
      </trkpt>
      <trkpt lat="43.94934" lon="4.0825">
        <ele>175</ele>
        <time>2011-02-27T14:09:17Z</time>
      </trkpt>
      <trkpt lat="43.94927" lon="4.08251">
        <ele>175</ele>
        <time>2011-02-27T14:09:18Z</time>
      </trkpt>
      <trkpt lat="43.94921" lon="4.08253">
        <ele>176</ele>
        <time>2011-02-27T14:09:19Z</time>
      </trkpt>
      <trkpt lat="43.94914" lon="4.08254">
        <ele>176</ele>
        <time>2011-02-27T14:09:20Z</time>
      </trkpt>
      <trkpt lat="43.94908" lon="4.08256">
        <ele>176</ele>
        <time>2011-02-27T14:09:21Z</time>
      </trkpt>
      <trkpt lat="43.94902" lon="4.08256">
        <ele>176</ele>
        <time>2011-02-27T14:09:22Z</time>
      </trkpt>
      <trkpt lat="43.94896" lon="4.08257">
        <ele>176</ele>
        <time>2011-02-27T14:09:23Z</time>
      </trkpt>
      <trkpt lat="43.9489" lon="4.08258">
        <ele>176</ele>
        <time>2011-02-27T14:09:24Z</time>
      </trkpt>
      <trkpt lat="43.94884" lon="4.08258">
        <ele>176</ele>
        <time>2011-02-27T14:09:25Z</time>
      </trkpt>
      <trkpt lat="43.94878" lon="4.08259">
        <ele>177</ele>
        <time>2011-02-27T14:09:26Z</time>
      </trkpt>
      <trkpt lat="43.94872" lon="4.08259">
        <ele>177</ele>
        <time>2011-02-27T14:09:27Z</time>
      </trkpt>
      <trkpt lat="43.94866" lon="4.0826">
        <ele>177</ele>
        <time>2011-02-27T14:09:28Z</time>
      </trkpt>
      <trkpt lat="43.9486" lon="4.0826">
        <ele>177</ele>
        <time>2011-02-27T14:09:29Z</time>
      </trkpt>
      <trkpt lat="43.94854" lon="4.08261">
        <ele>177</ele>
        <time>2011-02-27T14:09:30Z</time>
      </trkpt>
      <trkpt lat="43.94847" lon="4.08261">
        <ele>177</ele>
        <time>2011-02-27T14:09:31Z</time>
      </trkpt>
      <trkpt lat="43.94841" lon="4.08262">
        <ele>177</ele>
        <time>2011-02-27T14:09:32Z</time>
      </trkpt>
      <trkpt lat="43.94835" lon="4.08262">
        <ele>177</ele>
        <time>2011-02-27T14:09:33Z</time>
      </trkpt>
      <trkpt lat="43.94829" lon="4.08263">
        <ele>177</ele>
        <time>2011-02-27T14:09:34Z</time>
      </trkpt>
      <trkpt lat="43.94823" lon="4.08265">
        <ele>177</ele>
        <time>2011-02-27T14:09:35Z</time>
      </trkpt>
      <trkpt lat="43.94818" lon="4.08267">
        <ele>177</ele>
        <time>2011-02-27T14:09:36Z</time>
      </trkpt>
      <trkpt lat="43.94812" lon="4.08269">
        <ele>178</ele>
        <time>2011-02-27T14:09:37Z</time>
      </trkpt>
      <trkpt lat="43.94806" lon="4.08272">
        <ele>178</ele>
        <time>2011-02-27T14:09:38Z</time>
      </trkpt>
      <trkpt lat="43.94801" lon="4.08276">
        <ele>178</ele>
        <time>2011-02-27T14:09:39Z</time>
      </trkpt>
      <trkpt lat="43.94796" lon="4.08279">
        <ele>179</ele>
        <time>2011-02-27T14:09:40Z</time>
      </trkpt>
      <trkpt lat="43.9479" lon="4.08282">
        <ele>179</ele>
        <time>2011-02-27T14:09:41Z</time>
      </trkpt>
      <trkpt lat="43.94785" lon="4.08286">
        <ele>179</ele>
        <time>2011-02-27T14:09:42Z</time>
      </trkpt>
      <trkpt lat="43.94779" lon="4.0829">
        <ele>179</ele>
        <time>2011-02-27T14:09:43Z</time>
      </trkpt>
      <trkpt lat="43.94774" lon="4.08293">
        <ele>179</ele>
        <time>2011-02-27T14:09:44Z</time>
      </trkpt>
      <trkpt lat="43.94768" lon="4.08297">
        <ele>179</ele>
        <time>2011-02-27T14:09:45Z</time>
      </trkpt>
      <trkpt lat="43.94763" lon="4.08301">
        <ele>179</ele>
        <time>2011-02-27T14:09:46Z</time>
      </trkpt>
      <trkpt lat="43.94757" lon="4.08304">
        <ele>178</ele>
        <time>2011-02-27T14:09:47Z</time>
      </trkpt>
      <trkpt lat="43.94752" lon="4.08308">
        <ele>179</ele>
        <time>2011-02-27T14:09:48Z</time>
      </trkpt>
      <trkpt lat="43.94746" lon="4.08312">
        <ele>178</ele>
        <time>2011-02-27T14:09:49Z</time>
      </trkpt>
      <trkpt lat="43.9474" lon="4.08316">
        <ele>178</ele>
        <time>2011-02-27T14:09:50Z</time>
      </trkpt>
      <trkpt lat="43.94735" lon="4.08319">
        <ele>178</ele>
        <time>2011-02-27T14:09:51Z</time>
      </trkpt>
      <trkpt lat="43.94729" lon="4.08323">
        <ele>178</ele>
        <time>2011-02-27T14:09:52Z</time>
      </trkpt>
      <trkpt lat="43.94723" lon="4.08326">
        <ele>178</ele>
        <time>2011-02-27T14:09:53Z</time>
      </trkpt>
      <trkpt lat="43.94717" lon="4.08328">
        <ele>178</ele>
        <time>2011-02-27T14:09:54Z</time>
      </trkpt>
      <trkpt lat="43.94711" lon="4.0833">
        <ele>178</ele>
        <time>2011-02-27T14:09:55Z</time>
      </trkpt>
      <trkpt lat="43.94705" lon="4.08331">
        <ele>179</ele>
        <time>2011-02-27T14:09:56Z</time>
      </trkpt>
      <trkpt lat="43.94699" lon="4.08331">
        <ele>179</ele>
        <time>2011-02-27T14:09:57Z</time>
      </trkpt>
      <trkpt lat="43.94693" lon="4.08331">
        <ele>179</ele>
        <time>2011-02-27T14:09:58Z</time>
      </trkpt>
      <trkpt lat="43.94686" lon="4.0833">
        <ele>179</ele>
        <time>2011-02-27T14:09:59Z</time>
      </trkpt>
      <trkpt lat="43.9468" lon="4.08329">
        <ele>179</ele>
        <time>2011-02-27T14:10:00Z</time>
      </trkpt>
      <trkpt lat="43.94674" lon="4.08327">
        <ele>179</ele>
        <time>2011-02-27T14:10:01Z</time>
      </trkpt>
      <trkpt lat="43.94668" lon="4.08325">
        <ele>180</ele>
        <time>2011-02-27T14:10:02Z</time>
      </trkpt>
      <trkpt lat="43.94662" lon="4.08322">
        <ele>180</ele>
        <time>2011-02-27T14:10:03Z</time>
      </trkpt>
      <trkpt lat="43.94657" lon="4.0832">
        <ele>180</ele>
        <time>2011-02-27T14:10:04Z</time>
      </trkpt>
      <trkpt lat="43.94651" lon="4.08317">
        <ele>180</ele>
        <time>2011-02-27T14:10:05Z</time>
      </trkpt>
      <trkpt lat="43.94645" lon="4.08314">
        <ele>180</ele>
        <time>2011-02-27T14:10:06Z</time>
      </trkpt>
      <trkpt lat="43.9464" lon="4.08311">
        <ele>180</ele>
        <time>2011-02-27T14:10:07Z</time>
      </trkpt>
      <trkpt lat="43.94634" lon="4.08308">
        <ele>181</ele>
        <time>2011-02-27T14:10:08Z</time>
      </trkpt>
      <trkpt lat="43.94629" lon="4.08305">
        <ele>181</ele>
        <time>2011-02-27T14:10:09Z</time>
      </trkpt>
      <trkpt lat="43.94623" lon="4.08302">
        <ele>181</ele>
        <time>2011-02-27T14:10:10Z</time>
      </trkpt>
      <trkpt lat="43.94618" lon="4.08299">
        <ele>181</ele>
        <time>2011-02-27T14:10:11Z</time>
      </trkpt>
      <trkpt lat="43.94612" lon="4.08296">
        <ele>181</ele>
        <time>2011-02-27T14:10:12Z</time>
      </trkpt>
      <trkpt lat="43.94607" lon="4.08292">
        <ele>181</ele>
        <time>2011-02-27T14:10:13Z</time>
      </trkpt>
      <trkpt lat="43.94601" lon="4.08289">
        <ele>181</ele>
        <time>2011-02-27T14:10:14Z</time>
      </trkpt>
      <trkpt lat="43.94596" lon="4.08286">
        <ele>181</ele>
        <time>2011-02-27T14:10:15Z</time>
      </trkpt>
      <trkpt lat="43.94591" lon="4.08283">
        <ele>181</ele>
        <time>2011-02-27T14:10:16Z</time>
      </trkpt>
      <trkpt lat="43.94585" lon="4.0828">
        <ele>181</ele>
        <time>2011-02-27T14:10:17Z</time>
      </trkpt>
      <trkpt lat="43.9458" lon="4.08277">
        <ele>181</ele>
        <time>2011-02-27T14:10:18Z</time>
      </trkpt>
      <trkpt lat="43.94575" lon="4.08273">
        <ele>181</ele>
        <time>2011-02-27T14:10:19Z</time>
      </trkpt>
      <trkpt lat="43.9457" lon="4.0827">
        <ele>182</ele>
        <time>2011-02-27T14:10:20Z</time>
      </trkpt>
      <trkpt lat="43.94565" lon="4.08266">
        <ele>182</ele>
        <time>2011-02-27T14:10:21Z</time>
      </trkpt>
      <trkpt lat="43.9456" lon="4.08263">
        <ele>182</ele>
        <time>2011-02-27T14:10:22Z</time>
      </trkpt>
      <trkpt lat="43.94555" lon="4.0826">
        <ele>182</ele>
        <time>2011-02-27T14:10:23Z</time>
      </trkpt>
      <trkpt lat="43.94551" lon="4.08257">
        <ele>182</ele>
        <time>2011-02-27T14:10:24Z</time>
      </trkpt>
      <trkpt lat="43.94546" lon="4.08254">
        <ele>182</ele>
        <time>2011-02-27T14:10:25Z</time>
      </trkpt>
      <trkpt lat="43.94541" lon="4.08252">
        <ele>182</ele>
        <time>2011-02-27T14:10:26Z</time>
      </trkpt>
      <trkpt lat="43.94537" lon="4.08249">
        <ele>182</ele>
        <time>2011-02-27T14:10:27Z</time>
      </trkpt>
      <trkpt lat="43.94533" lon="4.08247">
        <ele>182</ele>
        <time>2011-02-27T14:10:28Z</time>
      </trkpt>
      <trkpt lat="43.94529" lon="4.08244">
        <ele>182</ele>
        <time>2011-02-27T14:10:29Z</time>
      </trkpt>
      <trkpt lat="43.94524" lon="4.08243">
        <ele>182</ele>
        <time>2011-02-27T14:10:30Z</time>
      </trkpt>
      <trkpt lat="43.9452" lon="4.08242">
        <ele>182</ele>
        <time>2011-02-27T14:10:31Z</time>
      </trkpt>
      <trkpt lat="43.94515" lon="4.08242">
        <ele>182</ele>
        <time>2011-02-27T14:10:32Z</time>
      </trkpt>
      <trkpt lat="43.9451" lon="4.08241">
        <ele>183</ele>
        <time>2011-02-27T14:10:33Z</time>
      </trkpt>
      <trkpt lat="43.94506" lon="4.08243">
        <ele>183</ele>
        <time>2011-02-27T14:10:34Z</time>
      </trkpt>
      <trkpt lat="43.94501" lon="4.08244">
        <ele>183</ele>
        <time>2011-02-27T14:10:35Z</time>
      </trkpt>
      <trkpt lat="43.94497" lon="4.08245">
        <ele>183</ele>
        <time>2011-02-27T14:10:36Z</time>
      </trkpt>
      <trkpt lat="43.94492" lon="4.08246">
        <ele>184</ele>
        <time>2011-02-27T14:10:37Z</time>
      </trkpt>
      <trkpt lat="43.94487" lon="4.08247">
        <ele>184</ele>
        <time>2011-02-27T14:10:38Z</time>
      </trkpt>
      <trkpt lat="43.94483" lon="4.08248">
        <ele>184</ele>
        <time>2011-02-27T14:10:39Z</time>
      </trkpt>
      <trkpt lat="43.94478" lon="4.08249">
        <ele>184</ele>
        <time>2011-02-27T14:10:40Z</time>
      </trkpt>
      <trkpt lat="43.94473" lon="4.0825">
        <ele>184</ele>
        <time>2011-02-27T14:10:41Z</time>
      </trkpt>
      <trkpt lat="43.94468" lon="4.08251">
        <ele>184</ele>
        <time>2011-02-27T14:10:42Z</time>
      </trkpt>
      <trkpt lat="43.94462" lon="4.08252">
        <ele>184</ele>
        <time>2011-02-27T14:10:43Z</time>
      </trkpt>
      <trkpt lat="43.94456" lon="4.08253">
        <ele>184</ele>
        <time>2011-02-27T14:10:44Z</time>
      </trkpt>
      <trkpt lat="43.9445" lon="4.08253">
        <ele>184</ele>
        <time>2011-02-27T14:10:45Z</time>
      </trkpt>
      <trkpt lat="43.94444" lon="4.08254">
        <ele>184</ele>
        <time>2011-02-27T14:10:46Z</time>
      </trkpt>
      <trkpt lat="43.94437" lon="4.08255">
        <ele>184</ele>
        <time>2011-02-27T14:10:47Z</time>
      </trkpt>
      <trkpt lat="43.94431" lon="4.08256">
        <ele>184</ele>
        <time>2011-02-27T14:10:48Z</time>
      </trkpt>
      <trkpt lat="43.94425" lon="4.08257">
        <ele>184</ele>
        <time>2011-02-27T14:10:49Z</time>
      </trkpt>
      <trkpt lat="43.94419" lon="4.08258">
        <ele>184</ele>
        <time>2011-02-27T14:10:50Z</time>
      </trkpt>
      <trkpt lat="43.94413" lon="4.08258">
        <ele>184</ele>
        <time>2011-02-27T14:10:51Z</time>
      </trkpt>
      <trkpt lat="43.94407" lon="4.08259">
        <ele>184</ele>
        <time>2011-02-27T14:10:52Z</time>
      </trkpt>
      <trkpt lat="43.944" lon="4.08259">
        <ele>185</ele>
        <time>2011-02-27T14:10:53Z</time>
      </trkpt>
      <trkpt lat="43.94394" lon="4.0826">
        <ele>185</ele>
        <time>2011-02-27T14:10:54Z</time>
      </trkpt>
      <trkpt lat="43.94388" lon="4.08261">
        <ele>185</ele>
        <time>2011-02-27T14:10:55Z</time>
      </trkpt>
      <trkpt lat="43.94382" lon="4.08262">
        <ele>185</ele>
        <time>2011-02-27T14:10:56Z</time>
      </trkpt>
      <trkpt lat="43.94376" lon="4.08262">
        <ele>184</ele>
        <time>2011-02-27T14:10:57Z</time>
      </trkpt>
      <trkpt lat="43.94371" lon="4.08263">
        <ele>185</ele>
        <time>2011-02-27T14:10:58Z</time>
      </trkpt>
      <trkpt lat="43.94365" lon="4.08263">
        <ele>185</ele>
        <time>2011-02-27T14:10:59Z</time>
      </trkpt>
      <trkpt lat="43.9436" lon="4.08264">
        <ele>185</ele>
        <time>2011-02-27T14:11:00Z</time>
      </trkpt>
      <trkpt lat="43.94354" lon="4.08265">
        <ele>185</ele>
        <time>2011-02-27T14:11:01Z</time>
      </trkpt>
      <trkpt lat="43.94349" lon="4.08265">
        <ele>185</ele>
        <time>2011-02-27T14:11:02Z</time>
      </trkpt>
      <trkpt lat="43.94344" lon="4.08266">
        <ele>185</ele>
        <time>2011-02-27T14:11:03Z</time>
      </trkpt>
      <trkpt lat="43.94339" lon="4.08267">
        <ele>186</ele>
        <time>2011-02-27T14:11:04Z</time>
      </trkpt>
      <trkpt lat="43.94334" lon="4.08267">
        <ele>185</ele>
        <time>2011-02-27T14:11:05Z</time>
      </trkpt>
      <trkpt lat="43.94329" lon="4.08268">
        <ele>185</ele>
        <time>2011-02-27T14:11:06Z</time>
      </trkpt>
      <trkpt lat="43.94324" lon="4.08268">
        <ele>185</ele>
        <time>2011-02-27T14:11:07Z</time>
      </trkpt>
      <trkpt lat="43.9432" lon="4.08269">
        <ele>185</ele>
        <time>2011-02-27T14:11:08Z</time>
      </trkpt>
      <trkpt lat="43.94315" lon="4.0827">
        <ele>186</ele>
        <time>2011-02-27T14:11:09Z</time>
      </trkpt>
      <trkpt lat="43.9431" lon="4.0827">
        <ele>186</ele>
        <time>2011-02-27T14:11:10Z</time>
      </trkpt>
      <trkpt lat="43.94305" lon="4.08271">
        <ele>186</ele>
        <time>2011-02-27T14:11:11Z</time>
      </trkpt>
      <trkpt lat="43.94301" lon="4.08272">
        <ele>186</ele>
        <time>2011-02-27T14:11:12Z</time>
      </trkpt>
      <trkpt lat="43.94296" lon="4.08273">
        <ele>186</ele>
        <time>2011-02-27T14:11:13Z</time>
      </trkpt>
      <trkpt lat="43.94292" lon="4.08273">
        <ele>187</ele>
        <time>2011-02-27T14:11:14Z</time>
      </trkpt>
      <trkpt lat="43.94287" lon="4.08274">
        <ele>187</ele>
        <time>2011-02-27T14:11:15Z</time>
      </trkpt>
      <trkpt lat="43.94279" lon="4.08271">
        <ele>188</ele>
        <time>2011-02-27T14:11:17Z</time>
      </trkpt>
      <trkpt lat="43.9427" lon="4.08266">
        <ele>188</ele>
        <time>2011-02-27T14:11:19Z</time>
      </trkpt>
      <trkpt lat="43.94266" lon="4.08264">
        <ele>189</ele>
        <time>2011-02-27T14:11:20Z</time>
      </trkpt>
      <trkpt lat="43.94262" lon="4.08262">
        <ele>189</ele>
        <time>2011-02-27T14:11:21Z</time>
      </trkpt>
      <trkpt lat="43.94257" lon="4.0826">
        <ele>189</ele>
        <time>2011-02-27T14:11:22Z</time>
      </trkpt>
      <trkpt lat="43.94249" lon="4.0826">
        <ele>189</ele>
        <time>2011-02-27T14:11:24Z</time>
      </trkpt>
      <trkpt lat="43.94241" lon="4.08266">
        <ele>189</ele>
        <time>2011-02-27T14:11:26Z</time>
      </trkpt>
      <trkpt lat="43.94237" lon="4.0827">
        <ele>190</ele>
        <time>2011-02-27T14:11:27Z</time>
      </trkpt>
      <trkpt lat="43.94233" lon="4.08273">
        <ele>190</ele>
        <time>2011-02-27T14:11:28Z</time>
      </trkpt>
      <trkpt lat="43.94226" lon="4.08281">
        <ele>190</ele>
        <time>2011-02-27T14:11:30Z</time>
      </trkpt>
      <trkpt lat="43.94223" lon="4.08284">
        <ele>190</ele>
        <time>2011-02-27T14:11:31Z</time>
      </trkpt>
      <trkpt lat="43.94216" lon="4.0829">
        <ele>191</ele>
        <time>2011-02-27T14:11:33Z</time>
      </trkpt>
      <trkpt lat="43.94214" lon="4.08293">
        <ele>191</ele>
        <time>2011-02-27T14:11:34Z</time>
      </trkpt>
      <trkpt lat="43.9421" lon="4.083">
        <ele>192</ele>
        <time>2011-02-27T14:11:36Z</time>
      </trkpt>
      <trkpt lat="43.94207" lon="4.08308">
        <ele>192</ele>
        <time>2011-02-27T14:11:38Z</time>
      </trkpt>
      <trkpt lat="43.94203" lon="4.08315">
        <ele>192</ele>
        <time>2011-02-27T14:11:40Z</time>
      </trkpt>
      <trkpt lat="43.94196" lon="4.08321">
        <ele>193</ele>
        <time>2011-02-27T14:11:42Z</time>
      </trkpt>
      <trkpt lat="43.94188" lon="4.08328">
        <ele>195</ele>
        <time>2011-02-27T14:11:44Z</time>
      </trkpt>
      <trkpt lat="43.94182" lon="4.08331">
        <ele>195</ele>
        <time>2011-02-27T14:11:45Z</time>
      </trkpt>
      <trkpt lat="43.94176" lon="4.08335">
        <ele>195</ele>
        <time>2011-02-27T14:11:46Z</time>
      </trkpt>
      <trkpt lat="43.9417" lon="4.08338">
        <ele>196</ele>
        <time>2011-02-27T14:11:47Z</time>
      </trkpt>
      <trkpt lat="43.94164" lon="4.08342">
        <ele>196</ele>
        <time>2011-02-27T14:11:48Z</time>
      </trkpt>
      <trkpt lat="43.94158" lon="4.08346">
        <ele>196</ele>
        <time>2011-02-27T14:11:49Z</time>
      </trkpt>
      <trkpt lat="43.94152" lon="4.0835">
        <ele>195</ele>
        <time>2011-02-27T14:11:50Z</time>
      </trkpt>
      <trkpt lat="43.94146" lon="4.08353">
        <ele>196</ele>
        <time>2011-02-27T14:11:51Z</time>
      </trkpt>
      <trkpt lat="43.9414" lon="4.08356">
        <ele>195</ele>
        <time>2011-02-27T14:11:52Z</time>
      </trkpt>
      <trkpt lat="43.94134" lon="4.08359">
        <ele>196</ele>
        <time>2011-02-27T14:11:53Z</time>
      </trkpt>
      <trkpt lat="43.94127" lon="4.08361">
        <ele>196</ele>
        <time>2011-02-27T14:11:54Z</time>
      </trkpt>
      <trkpt lat="43.94118" lon="4.08361">
        <ele>197</ele>
        <time>2011-02-27T14:11:55Z</time>
      </trkpt>
      <trkpt lat="43.94109" lon="4.0836">
        <ele>197</ele>
        <time>2011-02-27T14:11:56Z</time>
      </trkpt>
      <trkpt lat="43.941" lon="4.0836">
        <ele>197</ele>
        <time>2011-02-27T14:11:57Z</time>
      </trkpt>
      <trkpt lat="43.94091" lon="4.08359">
        <ele>198</ele>
        <time>2011-02-27T14:11:58Z</time>
      </trkpt>
      <trkpt lat="43.94081" lon="4.08359">
        <ele>198</ele>
        <time>2011-02-27T14:11:59Z</time>
      </trkpt>
      <trkpt lat="43.94072" lon="4.08359">
        <ele>198</ele>
        <time>2011-02-27T14:12:00Z</time>
      </trkpt>
      <trkpt lat="43.94062" lon="4.08358">
        <ele>198</ele>
        <time>2011-02-27T14:12:01Z</time>
      </trkpt>
      <trkpt lat="43.94053" lon="4.08357">
        <ele>198</ele>
        <time>2011-02-27T14:12:02Z</time>
      </trkpt>
      <trkpt lat="43.94044" lon="4.08353">
        <ele>198</ele>
        <time>2011-02-27T14:12:03Z</time>
      </trkpt>
      <trkpt lat="43.94035" lon="4.08348">
        <ele>198</ele>
        <time>2011-02-27T14:12:04Z</time>
      </trkpt>
      <trkpt lat="43.94028" lon="4.0834">
        <ele>198</ele>
        <time>2011-02-27T14:12:05Z</time>
      </trkpt>
      <trkpt lat="43.9402" lon="4.08332">
        <ele>198</ele>
        <time>2011-02-27T14:12:06Z</time>
      </trkpt>
      <trkpt lat="43.94013" lon="4.08323">
        <ele>198</ele>
        <time>2011-02-27T14:12:07Z</time>
      </trkpt>
      <trkpt lat="43.94006" lon="4.08314">
        <ele>198</ele>
        <time>2011-02-27T14:12:08Z</time>
      </trkpt>
      <trkpt lat="43.93998" lon="4.08307">
        <ele>198</ele>
        <time>2011-02-27T14:12:09Z</time>
      </trkpt>
      <trkpt lat="43.93989" lon="4.08302">
        <ele>198</ele>
        <time>2011-02-27T14:12:10Z</time>
      </trkpt>
      <trkpt lat="43.93981" lon="4.08297">
        <ele>198</ele>
        <time>2011-02-27T14:12:11Z</time>
      </trkpt>
      <trkpt lat="43.93972" lon="4.08294">
        <ele>197</ele>
        <time>2011-02-27T14:12:12Z</time>
      </trkpt>
      <trkpt lat="43.93963" lon="4.08291">
        <ele>197</ele>
        <time>2011-02-27T14:12:13Z</time>
      </trkpt>
      <trkpt lat="43.93955" lon="4.08293">
        <ele>197</ele>
        <time>2011-02-27T14:12:14Z</time>
      </trkpt>
      <trkpt lat="43.93947" lon="4.08298">
        <ele>196</ele>
        <time>2011-02-27T14:12:15Z</time>
      </trkpt>
      <trkpt lat="43.93941" lon="4.08306">
        <ele>196</ele>
        <time>2011-02-27T14:12:16Z</time>
      </trkpt>
      <trkpt lat="43.93937" lon="4.08316">
        <ele>196</ele>
        <time>2011-02-27T14:12:17Z</time>
      </trkpt>
      <trkpt lat="43.93933" lon="4.08325">
        <ele>196</ele>
        <time>2011-02-27T14:12:18Z</time>
      </trkpt>
      <trkpt lat="43.93929" lon="4.08334">
        <ele>195</ele>
        <time>2011-02-27T14:12:19Z</time>
      </trkpt>
      <trkpt lat="43.93927" lon="4.08343">
        <ele>195</ele>
        <time>2011-02-27T14:12:20Z</time>
      </trkpt>
      <trkpt lat="43.93926" lon="4.08351">
        <ele>195</ele>
        <time>2011-02-27T14:12:21Z</time>
      </trkpt>
      <trkpt lat="43.93925" lon="4.08358">
        <ele>195</ele>
        <time>2011-02-27T14:12:22Z</time>
      </trkpt>
      <trkpt lat="43.93923" lon="4.08366">
        <ele>195</ele>
        <time>2011-02-27T14:12:23Z</time>
      </trkpt>
      <trkpt lat="43.93922" lon="4.08374">
        <ele>194</ele>
        <time>2011-02-27T14:12:24Z</time>
      </trkpt>
      <trkpt lat="43.9392" lon="4.08381">
        <ele>194</ele>
        <time>2011-02-27T14:12:25Z</time>
      </trkpt>
      <trkpt lat="43.93918" lon="4.08388">
        <ele>194</ele>
        <time>2011-02-27T14:12:26Z</time>
      </trkpt>
      <trkpt lat="43.93916" lon="4.08395">
        <ele>194</ele>
        <time>2011-02-27T14:12:27Z</time>
      </trkpt>
      <trkpt lat="43.93913" lon="4.08401">
        <ele>195</ele>
        <time>2011-02-27T14:12:28Z</time>
      </trkpt>
      <trkpt lat="43.93911" lon="4.08407">
        <ele>195</ele>
        <time>2011-02-27T14:12:29Z</time>
      </trkpt>
      <trkpt lat="43.93908" lon="4.08412">
        <ele>195</ele>
        <time>2011-02-27T14:12:30Z</time>
      </trkpt>
      <trkpt lat="43.93903" lon="4.08422">
        <ele>195</ele>
        <time>2011-02-27T14:12:32Z</time>
      </trkpt>
      <trkpt lat="43.939" lon="4.08428">
        <ele>194</ele>
        <time>2011-02-27T14:12:33Z</time>
      </trkpt>
      <trkpt lat="43.93897" lon="4.08433">
        <ele>194</ele>
        <time>2011-02-27T14:12:34Z</time>
      </trkpt>
      <trkpt lat="43.93893" lon="4.08439">
        <ele>195</ele>
        <time>2011-02-27T14:12:35Z</time>
      </trkpt>
      <trkpt lat="43.93889" lon="4.08445">
        <ele>195</ele>
        <time>2011-02-27T14:12:36Z</time>
      </trkpt>
      <trkpt lat="43.93885" lon="4.08451">
        <ele>195</ele>
        <time>2011-02-27T14:12:37Z</time>
      </trkpt>
      <trkpt lat="43.9388" lon="4.08457">
        <ele>195</ele>
        <time>2011-02-27T14:12:38Z</time>
      </trkpt>
      <trkpt lat="43.93875" lon="4.08463">
        <ele>196</ele>
        <time>2011-02-27T14:12:39Z</time>
      </trkpt>
      <trkpt lat="43.9387" lon="4.08469">
        <ele>196</ele>
        <time>2011-02-27T14:12:40Z</time>
      </trkpt>
      <trkpt lat="43.93864" lon="4.08475">
        <ele>196</ele>
        <time>2011-02-27T14:12:41Z</time>
      </trkpt>
      <trkpt lat="43.93859" lon="4.0848">
        <ele>196</ele>
        <time>2011-02-27T14:12:42Z</time>
      </trkpt>
      <trkpt lat="43.93855" lon="4.08485">
        <ele>196</ele>
        <time>2011-02-27T14:12:43Z</time>
      </trkpt>
      <trkpt lat="43.9385" lon="4.0849">
        <ele>195</ele>
        <time>2011-02-27T14:12:44Z</time>
      </trkpt>
      <trkpt lat="43.93844" lon="4.08495">
        <ele>195</ele>
        <time>2011-02-27T14:12:45Z</time>
      </trkpt>
      <trkpt lat="43.93839" lon="4.085">
        <ele>195</ele>
        <time>2011-02-27T14:12:46Z</time>
      </trkpt>
      <trkpt lat="43.93833" lon="4.08503">
        <ele>195</ele>
        <time>2011-02-27T14:12:47Z</time>
      </trkpt>
      <trkpt lat="43.93827" lon="4.08507">
        <ele>195</ele>
        <time>2011-02-27T14:12:48Z</time>
      </trkpt>
      <trkpt lat="43.93822" lon="4.08511">
        <ele>195</ele>
        <time>2011-02-27T14:12:49Z</time>
      </trkpt>
      <trkpt lat="43.93817" lon="4.08515">
        <ele>195</ele>
        <time>2011-02-27T14:12:50Z</time>
      </trkpt>
      <trkpt lat="43.93813" lon="4.0852">
        <ele>195</ele>
        <time>2011-02-27T14:12:51Z</time>
      </trkpt>
      <trkpt lat="43.93808" lon="4.08524">
        <ele>195</ele>
        <time>2011-02-27T14:12:52Z</time>
      </trkpt>
      <trkpt lat="43.93804" lon="4.08529">
        <ele>195</ele>
        <time>2011-02-27T14:12:53Z</time>
      </trkpt>
      <trkpt lat="43.93799" lon="4.08535">
        <ele>195</ele>
        <time>2011-02-27T14:12:54Z</time>
      </trkpt>
      <trkpt lat="43.93795" lon="4.0854">
        <ele>196</ele>
        <time>2011-02-27T14:12:55Z</time>
      </trkpt>
      <trkpt lat="43.93791" lon="4.08546">
        <ele>196</ele>
        <time>2011-02-27T14:12:56Z</time>
      </trkpt>
      <trkpt lat="43.93787" lon="4.08552">
        <ele>196</ele>
        <time>2011-02-27T14:12:57Z</time>
      </trkpt>
      <trkpt lat="43.93783" lon="4.08558">
        <ele>196</ele>
        <time>2011-02-27T14:12:58Z</time>
      </trkpt>
      <trkpt lat="43.93779" lon="4.08563">
        <ele>196</ele>
        <time>2011-02-27T14:12:59Z</time>
      </trkpt>
      <trkpt lat="43.93776" lon="4.08569">
        <ele>197</ele>
        <time>2011-02-27T14:13:00Z</time>
      </trkpt>
      <trkpt lat="43.93772" lon="4.08574">
        <ele>197</ele>
        <time>2011-02-27T14:13:01Z</time>
      </trkpt>
      <trkpt lat="43.93769" lon="4.08579">
        <ele>197</ele>
        <time>2011-02-27T14:13:02Z</time>
      </trkpt>
      <trkpt lat="43.93766" lon="4.08585">
        <ele>197</ele>
        <time>2011-02-27T14:13:03Z</time>
      </trkpt>
      <trkpt lat="43.93763" lon="4.08589">
        <ele>198</ele>
        <time>2011-02-27T14:13:04Z</time>
      </trkpt>
      <trkpt lat="43.93757" lon="4.08598">
        <ele>199</ele>
        <time>2011-02-27T14:13:06Z</time>
      </trkpt>
      <trkpt lat="43.93753" lon="4.08606">
        <ele>199</ele>
        <time>2011-02-27T14:13:08Z</time>
      </trkpt>
      <trkpt lat="43.93751" lon="4.0861">
        <ele>199</ele>
        <time>2011-02-27T14:13:09Z</time>
      </trkpt>
      <trkpt lat="43.93746" lon="4.08619">
        <ele>200</ele>
        <time>2011-02-27T14:13:11Z</time>
      </trkpt>
      <trkpt lat="43.93739" lon="4.08626">
        <ele>201</ele>
        <time>2011-02-27T14:13:13Z</time>
      </trkpt>
      <trkpt lat="43.93733" lon="4.08635">
        <ele>201</ele>
        <time>2011-02-27T14:13:15Z</time>
      </trkpt>
      <trkpt lat="43.93731" lon="4.08641">
        <ele>201</ele>
        <time>2011-02-27T14:13:16Z</time>
      </trkpt>
      <trkpt lat="43.93729" lon="4.08646">
        <ele>201</ele>
        <time>2011-02-27T14:13:17Z</time>
      </trkpt>
      <trkpt lat="43.93727" lon="4.08653">
        <ele>201</ele>
        <time>2011-02-27T14:13:18Z</time>
      </trkpt>
      <trkpt lat="43.93726" lon="4.08659">
        <ele>201</ele>
        <time>2011-02-27T14:13:19Z</time>
      </trkpt>
      <trkpt lat="43.93725" lon="4.08666">
        <ele>202</ele>
        <time>2011-02-27T14:13:20Z</time>
      </trkpt>
      <trkpt lat="43.93725" lon="4.08673">
        <ele>203</ele>
        <time>2011-02-27T14:13:21Z</time>
      </trkpt>
      <trkpt lat="43.93725" lon="4.08679">
        <ele>203</ele>
        <time>2011-02-27T14:13:22Z</time>
      </trkpt>
      <trkpt lat="43.93724" lon="4.08685">
        <ele>204</ele>
        <time>2011-02-27T14:13:23Z</time>
      </trkpt>
      <trkpt lat="43.93723" lon="4.08692">
        <ele>204</ele>
        <time>2011-02-27T14:13:24Z</time>
      </trkpt>
      <trkpt lat="43.93722" lon="4.08698">
        <ele>205</ele>
        <time>2011-02-27T14:13:25Z</time>
      </trkpt>
      <trkpt lat="43.93721" lon="4.08704">
        <ele>206</ele>
        <time>2011-02-27T14:13:26Z</time>
      </trkpt>
      <trkpt lat="43.93719" lon="4.0871">
        <ele>206</ele>
        <time>2011-02-27T14:13:27Z</time>
      </trkpt>
      <trkpt lat="43.93717" lon="4.08716">
        <ele>206</ele>
        <time>2011-02-27T14:13:28Z</time>
      </trkpt>
      <trkpt lat="43.93715" lon="4.08722">
        <ele>207</ele>
        <time>2011-02-27T14:13:29Z</time>
      </trkpt>
      <trkpt lat="43.93713" lon="4.08728">
        <ele>208</ele>
        <time>2011-02-27T14:13:30Z</time>
      </trkpt>
      <trkpt lat="43.93708" lon="4.08739">
        <ele>210</ele>
        <time>2011-02-27T14:13:32Z</time>
      </trkpt>
      <trkpt lat="43.93703" lon="4.08748">
        <ele>211</ele>
        <time>2011-02-27T14:13:34Z</time>
      </trkpt>
      <trkpt lat="43.937" lon="4.08753">
        <ele>211</ele>
        <time>2011-02-27T14:13:35Z</time>
      </trkpt>
      <trkpt lat="43.93697" lon="4.08758">
        <ele>211</ele>
        <time>2011-02-27T14:13:36Z</time>
      </trkpt>
      <trkpt lat="43.93693" lon="4.08763">
        <ele>212</ele>
        <time>2011-02-27T14:13:37Z</time>
      </trkpt>
      <trkpt lat="43.9369" lon="4.08768">
        <ele>212</ele>
        <time>2011-02-27T14:13:38Z</time>
      </trkpt>
      <trkpt lat="43.93686" lon="4.08773">
        <ele>212</ele>
        <time>2011-02-27T14:13:39Z</time>
      </trkpt>
      <trkpt lat="43.93682" lon="4.08778">
        <ele>212</ele>
        <time>2011-02-27T14:13:40Z</time>
      </trkpt>
      <trkpt lat="43.93678" lon="4.08782">
        <ele>212</ele>
        <time>2011-02-27T14:13:41Z</time>
      </trkpt>
      <trkpt lat="43.93674" lon="4.08788">
        <ele>212</ele>
        <time>2011-02-27T14:13:42Z</time>
      </trkpt>
      <trkpt lat="43.93669" lon="4.08793">
        <ele>212</ele>
        <time>2011-02-27T14:13:43Z</time>
      </trkpt>
      <trkpt lat="43.93664" lon="4.08799">
        <ele>211</ele>
        <time>2011-02-27T14:13:44Z</time>
      </trkpt>
      <trkpt lat="43.9366" lon="4.08804">
        <ele>211</ele>
        <time>2011-02-27T14:13:45Z</time>
      </trkpt>
      <trkpt lat="43.93656" lon="4.0881">
        <ele>211</ele>
        <time>2011-02-27T14:13:46Z</time>
      </trkpt>
      <trkpt lat="43.93652" lon="4.08815">
        <ele>210</ele>
        <time>2011-02-27T14:13:47Z</time>
      </trkpt>
      <trkpt lat="43.93648" lon="4.08821">
        <ele>210</ele>
        <time>2011-02-27T14:13:48Z</time>
      </trkpt>
      <trkpt lat="43.93644" lon="4.08827">
        <ele>210</ele>
        <time>2011-02-27T14:13:49Z</time>
      </trkpt>
      <trkpt lat="43.9364" lon="4.08832">
        <ele>210</ele>
        <time>2011-02-27T14:13:50Z</time>
      </trkpt>
      <trkpt lat="43.93636" lon="4.08838">
        <ele>209</ele>
        <time>2011-02-27T14:13:51Z</time>
      </trkpt>
      <trkpt lat="43.93633" lon="4.08844">
        <ele>209</ele>
        <time>2011-02-27T14:13:52Z</time>
      </trkpt>
      <trkpt lat="43.93629" lon="4.0885">
        <ele>209</ele>
        <time>2011-02-27T14:13:53Z</time>
      </trkpt>
      <trkpt lat="43.93625" lon="4.08856">
        <ele>208</ele>
        <time>2011-02-27T14:13:54Z</time>
      </trkpt>
      <trkpt lat="43.93621" lon="4.08862">
        <ele>208</ele>
        <time>2011-02-27T14:13:55Z</time>
      </trkpt>
      <trkpt lat="43.93616" lon="4.08867">
        <ele>207</ele>
        <time>2011-02-27T14:13:56Z</time>
      </trkpt>
      <trkpt lat="43.93611" lon="4.08872">
        <ele>207</ele>
        <time>2011-02-27T14:13:57Z</time>
      </trkpt>
      <trkpt lat="43.93605" lon="4.08876">
        <ele>206</ele>
        <time>2011-02-27T14:13:58Z</time>
      </trkpt>
      <trkpt lat="43.93598" lon="4.0888">
        <ele>206</ele>
        <time>2011-02-27T14:13:59Z</time>
      </trkpt>
      <trkpt lat="43.93588" lon="4.08884">
        <ele>206</ele>
        <time>2011-02-27T14:14:00Z</time>
      </trkpt>
      <trkpt lat="43.93578" lon="4.08886">
        <ele>206</ele>
        <time>2011-02-27T14:14:01Z</time>
      </trkpt>
      <trkpt lat="43.93567" lon="4.08887">
        <ele>206</ele>
        <time>2011-02-27T14:14:02Z</time>
      </trkpt>
      <trkpt lat="43.93557" lon="4.08888">
        <ele>206</ele>
        <time>2011-02-27T14:14:03Z</time>
      </trkpt>
      <trkpt lat="43.93547" lon="4.08888">
        <ele>207</ele>
        <time>2011-02-27T14:14:04Z</time>
      </trkpt>
      <trkpt lat="43.93537" lon="4.08887">
        <ele>207</ele>
        <time>2011-02-27T14:14:05Z</time>
      </trkpt>
      <trkpt lat="43.93528" lon="4.08885">
        <ele>207</ele>
        <time>2011-02-27T14:14:06Z</time>
      </trkpt>
      <trkpt lat="43.93519" lon="4.08883">
        <ele>207</ele>
        <time>2011-02-27T14:14:07Z</time>
      </trkpt>
      <trkpt lat="43.9351" lon="4.08881">
        <ele>207</ele>
        <time>2011-02-27T14:14:08Z</time>
      </trkpt>
      <trkpt lat="43.93501" lon="4.08878">
        <ele>207</ele>
        <time>2011-02-27T14:14:09Z</time>
      </trkpt>
      <trkpt lat="43.93493" lon="4.08876">
        <ele>207</ele>
        <time>2011-02-27T14:14:10Z</time>
      </trkpt>
      <trkpt lat="43.93485" lon="4.08872">
        <ele>207</ele>
        <time>2011-02-27T14:14:11Z</time>
      </trkpt>
      <trkpt lat="43.93477" lon="4.08869">
        <ele>207</ele>
        <time>2011-02-27T14:14:12Z</time>
      </trkpt>
      <trkpt lat="43.93469" lon="4.08865">
        <ele>207</ele>
        <time>2011-02-27T14:14:13Z</time>
      </trkpt>
      <trkpt lat="43.93461" lon="4.08861">
        <ele>207</ele>
        <time>2011-02-27T14:14:14Z</time>
      </trkpt>
      <trkpt lat="43.93453" lon="4.08857">
        <ele>207</ele>
        <time>2011-02-27T14:14:15Z</time>
      </trkpt>
      <trkpt lat="43.93445" lon="4.08853">
        <ele>206</ele>
        <time>2011-02-27T14:14:16Z</time>
      </trkpt>
      <trkpt lat="43.93437" lon="4.08849">
        <ele>206</ele>
        <time>2011-02-27T14:14:17Z</time>
      </trkpt>
      <trkpt lat="43.93429" lon="4.08845">
        <ele>206</ele>
        <time>2011-02-27T14:14:18Z</time>
      </trkpt>
      <trkpt lat="43.93421" lon="4.08839">
        <ele>206</ele>
        <time>2011-02-27T14:14:19Z</time>
      </trkpt>
      <trkpt lat="43.93414" lon="4.08833">
        <ele>206</ele>
        <time>2011-02-27T14:14:20Z</time>
      </trkpt>
      <trkpt lat="43.93408" lon="4.08823">
        <ele>205</ele>
        <time>2011-02-27T14:14:21Z</time>
      </trkpt>
      <trkpt lat="43.93403" lon="4.08813">
        <ele>205</ele>
        <time>2011-02-27T14:14:22Z</time>
      </trkpt>
      <trkpt lat="43.93399" lon="4.08803">
        <ele>205</ele>
        <time>2011-02-27T14:14:23Z</time>
      </trkpt>
      <trkpt lat="43.93396" lon="4.08792">
        <ele>204</ele>
        <time>2011-02-27T14:14:24Z</time>
      </trkpt>
      <trkpt lat="43.93392" lon="4.08782">
        <ele>204</ele>
        <time>2011-02-27T14:14:25Z</time>
      </trkpt>
      <trkpt lat="43.93389" lon="4.08771">
        <ele>204</ele>
        <time>2011-02-27T14:14:26Z</time>
      </trkpt>
      <trkpt lat="43.93386" lon="4.0876">
        <ele>204</ele>
        <time>2011-02-27T14:14:27Z</time>
      </trkpt>
      <trkpt lat="43.93383" lon="4.08748">
        <ele>203</ele>
        <time>2011-02-27T14:14:28Z</time>
      </trkpt>
      <trkpt lat="43.93381" lon="4.08735">
        <ele>202</ele>
        <time>2011-02-27T14:14:29Z</time>
      </trkpt>
      <trkpt lat="43.93379" lon="4.08722">
        <ele>202</ele>
        <time>2011-02-27T14:14:30Z</time>
      </trkpt>
      <trkpt lat="43.93376" lon="4.0871">
        <ele>202</ele>
        <time>2011-02-27T14:14:31Z</time>
      </trkpt>
      <trkpt lat="43.93372" lon="4.08699">
        <ele>202</ele>
        <time>2011-02-27T14:14:32Z</time>
      </trkpt>
      <trkpt lat="43.93367" lon="4.08689">
        <ele>201</ele>
        <time>2011-02-27T14:14:33Z</time>
      </trkpt>
      <trkpt lat="43.93362" lon="4.0868">
        <ele>201</ele>
        <time>2011-02-27T14:14:34Z</time>
      </trkpt>
      <trkpt lat="43.93356" lon="4.08672">
        <ele>200</ele>
        <time>2011-02-27T14:14:35Z</time>
      </trkpt>
      <trkpt lat="43.9335" lon="4.08664">
        <ele>199</ele>
        <time>2011-02-27T14:14:36Z</time>
      </trkpt>
      <trkpt lat="43.93344" lon="4.08658">
        <ele>199</ele>
        <time>2011-02-27T14:14:37Z</time>
      </trkpt>
      <trkpt lat="43.93338" lon="4.08653">
        <ele>199</ele>
        <time>2011-02-27T14:14:38Z</time>
      </trkpt>
      <trkpt lat="43.93332" lon="4.08649">
        <ele>198</ele>
        <time>2011-02-27T14:14:39Z</time>
      </trkpt>
      <trkpt lat="43.93326" lon="4.08645">
        <ele>198</ele>
        <time>2011-02-27T14:14:40Z</time>
      </trkpt>
      <trkpt lat="43.9332" lon="4.0864">
        <ele>198</ele>
        <time>2011-02-27T14:14:41Z</time>
      </trkpt>
      <trkpt lat="43.93313" lon="4.08636">
        <ele>198</ele>
        <time>2011-02-27T14:14:42Z</time>
      </trkpt>
      <trkpt lat="43.93307" lon="4.08633">
        <ele>198</ele>
        <time>2011-02-27T14:14:43Z</time>
      </trkpt>
      <trkpt lat="43.93301" lon="4.08629">
        <ele>198</ele>
        <time>2011-02-27T14:14:44Z</time>
      </trkpt>
      <trkpt lat="43.93295" lon="4.08625">
        <ele>199</ele>
        <time>2011-02-27T14:14:45Z</time>
      </trkpt>
      <trkpt lat="43.93289" lon="4.0862">
        <ele>199</ele>
        <time>2011-02-27T14:14:46Z</time>
      </trkpt>
      <trkpt lat="43.93283" lon="4.08614">
        <ele>199</ele>
        <time>2011-02-27T14:14:47Z</time>
      </trkpt>
      <trkpt lat="43.93279" lon="4.08606">
        <ele>200</ele>
        <time>2011-02-27T14:14:48Z</time>
      </trkpt>
      <trkpt lat="43.93275" lon="4.08596">
        <ele>200</ele>
        <time>2011-02-27T14:14:49Z</time>
      </trkpt>
      <trkpt lat="43.93271" lon="4.08586">
        <ele>200</ele>
        <time>2011-02-27T14:14:50Z</time>
      </trkpt>
      <trkpt lat="43.93268" lon="4.08576">
        <ele>201</ele>
        <time>2011-02-27T14:14:51Z</time>
      </trkpt>
      <trkpt lat="43.93265" lon="4.08566">
        <ele>202</ele>
        <time>2011-02-27T14:14:52Z</time>
      </trkpt>
      <trkpt lat="43.93262" lon="4.08555">
        <ele>202</ele>
        <time>2011-02-27T14:14:53Z</time>
      </trkpt>
      <trkpt lat="43.93261" lon="4.08543">
        <ele>203</ele>
        <time>2011-02-27T14:14:54Z</time>
      </trkpt>
      <trkpt lat="43.93261" lon="4.08532">
        <ele>203</ele>
        <time>2011-02-27T14:14:55Z</time>
      </trkpt>
      <trkpt lat="43.93262" lon="4.08521">
        <ele>204</ele>
        <time>2011-02-27T14:14:56Z</time>
      </trkpt>
      <trkpt lat="43.93263" lon="4.08509">
        <ele>204</ele>
        <time>2011-02-27T14:14:57Z</time>
      </trkpt>
      <trkpt lat="43.93264" lon="4.08498">
        <ele>203</ele>
        <time>2011-02-27T14:14:58Z</time>
      </trkpt>
      <trkpt lat="43.93265" lon="4.08487">
        <ele>203</ele>
        <time>2011-02-27T14:14:59Z</time>
      </trkpt>
      <trkpt lat="43.93265" lon="4.08475">
        <ele>203</ele>
        <time>2011-02-27T14:15:00Z</time>
      </trkpt>
      <trkpt lat="43.93262" lon="4.08465">
        <ele>203</ele>
        <time>2011-02-27T14:15:01Z</time>
      </trkpt>
      <trkpt lat="43.93258" lon="4.08456">
        <ele>203</ele>
        <time>2011-02-27T14:15:02Z</time>
      </trkpt>
      <trkpt lat="43.93252" lon="4.08448">
        <ele>203</ele>
        <time>2011-02-27T14:15:03Z</time>
      </trkpt>
      <trkpt lat="43.93246" lon="4.08443">
        <ele>203</ele>
        <time>2011-02-27T14:15:04Z</time>
      </trkpt>
      <trkpt lat="43.9324" lon="4.08438">
        <ele>202</ele>
        <time>2011-02-27T14:15:05Z</time>
      </trkpt>
      <trkpt lat="43.93233" lon="4.08434">
        <ele>202</ele>
        <time>2011-02-27T14:15:06Z</time>
      </trkpt>
      <trkpt lat="43.93228" lon="4.08429">
        <ele>201</ele>
        <time>2011-02-27T14:15:07Z</time>
      </trkpt>
      <trkpt lat="43.93222" lon="4.08424">
        <ele>201</ele>
        <time>2011-02-27T14:15:08Z</time>
      </trkpt>
      <trkpt lat="43.93216" lon="4.0842">
        <ele>200</ele>
        <time>2011-02-27T14:15:09Z</time>
      </trkpt>
      <trkpt lat="43.93211" lon="4.08416">
        <ele>199</ele>
        <time>2011-02-27T14:15:10Z</time>
      </trkpt>
      <trkpt lat="43.93206" lon="4.08412">
        <ele>198</ele>
        <time>2011-02-27T14:15:11Z</time>
      </trkpt>
      <trkpt lat="43.93202" lon="4.08408">
        <ele>198</ele>
        <time>2011-02-27T14:15:12Z</time>
      </trkpt>
      <trkpt lat="43.93198" lon="4.08404">
        <ele>197</ele>
        <time>2011-02-27T14:15:13Z</time>
      </trkpt>
      <trkpt lat="43.93194" lon="4.08398">
        <ele>197</ele>
        <time>2011-02-27T14:15:14Z</time>
      </trkpt>
      <trkpt lat="43.93191" lon="4.08389">
        <ele>197</ele>
        <time>2011-02-27T14:15:15Z</time>
      </trkpt>
      <trkpt lat="43.93189" lon="4.08379">
        <ele>197</ele>
        <time>2011-02-27T14:15:16Z</time>
      </trkpt>
      <trkpt lat="43.93187" lon="4.08369">
        <ele>197</ele>
        <time>2011-02-27T14:15:17Z</time>
      </trkpt>
      <trkpt lat="43.93185" lon="4.08359">
        <ele>198</ele>
        <time>2011-02-27T14:15:18Z</time>
      </trkpt>
      <trkpt lat="43.93183" lon="4.08349">
        <ele>198</ele>
        <time>2011-02-27T14:15:19Z</time>
      </trkpt>
      <trkpt lat="43.9318" lon="4.0834">
        <ele>198</ele>
        <time>2011-02-27T14:15:20Z</time>
      </trkpt>
      <trkpt lat="43.93175" lon="4.08332">
        <ele>198</ele>
        <time>2011-02-27T14:15:21Z</time>
      </trkpt>
      <trkpt lat="43.9317" lon="4.08325">
        <ele>198</ele>
        <time>2011-02-27T14:15:22Z</time>
      </trkpt>
      <trkpt lat="43.93164" lon="4.08319">
        <ele>198</ele>
        <time>2011-02-27T14:15:23Z</time>
      </trkpt>
      <trkpt lat="43.93158" lon="4.08315">
        <ele>199</ele>
        <time>2011-02-27T14:15:24Z</time>
      </trkpt>
      <trkpt lat="43.93152" lon="4.08311">
        <ele>199</ele>
        <time>2011-02-27T14:15:25Z</time>
      </trkpt>
      <trkpt lat="43.93146" lon="4.08307">
        <ele>199</ele>
        <time>2011-02-27T14:15:26Z</time>
      </trkpt>
      <trkpt lat="43.9314" lon="4.08304">
        <ele>200</ele>
        <time>2011-02-27T14:15:27Z</time>
      </trkpt>
      <trkpt lat="43.93134" lon="4.083">
        <ele>200</ele>
        <time>2011-02-27T14:15:28Z</time>
      </trkpt>
      <trkpt lat="43.93129" lon="4.08296">
        <ele>200</ele>
        <time>2011-02-27T14:15:29Z</time>
      </trkpt>
      <trkpt lat="43.93123" lon="4.08292">
        <ele>200</ele>
        <time>2011-02-27T14:15:30Z</time>
      </trkpt>
      <trkpt lat="43.93118" lon="4.08288">
        <ele>199</ele>
        <time>2011-02-27T14:15:31Z</time>
      </trkpt>
      <trkpt lat="43.93114" lon="4.08283">
        <ele>199</ele>
        <time>2011-02-27T14:15:32Z</time>
      </trkpt>
      <trkpt lat="43.93109" lon="4.08279">
        <ele>198</ele>
        <time>2011-02-27T14:15:33Z</time>
      </trkpt>
      <trkpt lat="43.93104" lon="4.08275">
        <ele>198</ele>
        <time>2011-02-27T14:15:34Z</time>
      </trkpt>
      <trkpt lat="43.931" lon="4.08271">
        <ele>197</ele>
        <time>2011-02-27T14:15:35Z</time>
      </trkpt>
      <trkpt lat="43.93095" lon="4.08267">
        <ele>197</ele>
        <time>2011-02-27T14:15:36Z</time>
      </trkpt>
      <trkpt lat="43.9309" lon="4.08264">
        <ele>196</ele>
        <time>2011-02-27T14:15:37Z</time>
      </trkpt>
      <trkpt lat="43.93085" lon="4.0826">
        <ele>196</ele>
        <time>2011-02-27T14:15:38Z</time>
      </trkpt>
      <trkpt lat="43.9308" lon="4.08256">
        <ele>196</ele>
        <time>2011-02-27T14:15:39Z</time>
      </trkpt>
      <trkpt lat="43.93075" lon="4.08252">
        <ele>196</ele>
        <time>2011-02-27T14:15:40Z</time>
      </trkpt>
      <trkpt lat="43.93069" lon="4.08248">
        <ele>195</ele>
        <time>2011-02-27T14:15:41Z</time>
      </trkpt>
      <trkpt lat="43.93064" lon="4.08244">
        <ele>195</ele>
        <time>2011-02-27T14:15:42Z</time>
      </trkpt>
      <trkpt lat="43.93058" lon="4.08241">
        <ele>195</ele>
        <time>2011-02-27T14:15:43Z</time>
      </trkpt>
      <trkpt lat="43.93052" lon="4.08237">
        <ele>195</ele>
        <time>2011-02-27T14:15:44Z</time>
      </trkpt>
      <trkpt lat="43.93046" lon="4.08233">
        <ele>194</ele>
        <time>2011-02-27T14:15:45Z</time>
      </trkpt>
      <trkpt lat="43.93039" lon="4.08229">
        <ele>194</ele>
        <time>2011-02-27T14:15:46Z</time>
      </trkpt>
      <trkpt lat="43.93033" lon="4.08225">
        <ele>194</ele>
        <time>2011-02-27T14:15:47Z</time>
      </trkpt>
      <trkpt lat="43.93026" lon="4.08222">
        <ele>193</ele>
        <time>2011-02-27T14:15:48Z</time>
      </trkpt>
      <trkpt lat="43.9302" lon="4.0822">
        <ele>193</ele>
        <time>2011-02-27T14:15:49Z</time>
      </trkpt>
      <trkpt lat="43.93013" lon="4.08218">
        <ele>192</ele>
        <time>2011-02-27T14:15:50Z</time>
      </trkpt>
      <trkpt lat="43.93007" lon="4.08219">
        <ele>192</ele>
        <time>2011-02-27T14:15:51Z</time>
      </trkpt>
      <trkpt lat="43.93002" lon="4.08219">
        <ele>192</ele>
        <time>2011-02-27T14:15:52Z</time>
      </trkpt>
      <trkpt lat="43.92996" lon="4.08221">
        <ele>191</ele>
        <time>2011-02-27T14:15:53Z</time>
      </trkpt>
      <trkpt lat="43.92991" lon="4.08223">
        <ele>191</ele>
        <time>2011-02-27T14:15:54Z</time>
      </trkpt>
      <trkpt lat="43.92985" lon="4.08226">
        <ele>190</ele>
        <time>2011-02-27T14:15:55Z</time>
      </trkpt>
      <trkpt lat="43.9298" lon="4.0823">
        <ele>190</ele>
        <time>2011-02-27T14:15:56Z</time>
      </trkpt>
      <trkpt lat="43.92976" lon="4.08234">
        <ele>190</ele>
        <time>2011-02-27T14:15:57Z</time>
      </trkpt>
      <trkpt lat="43.92972" lon="4.08238">
        <ele>190</ele>
        <time>2011-02-27T14:15:58Z</time>
      </trkpt>
      <trkpt lat="43.92968" lon="4.08243">
        <ele>190</ele>
        <time>2011-02-27T14:15:59Z</time>
      </trkpt>
      <trkpt lat="43.92964" lon="4.08248">
        <ele>190</ele>
        <time>2011-02-27T14:16:00Z</time>
      </trkpt>
      <trkpt lat="43.9296" lon="4.08252">
        <ele>190</ele>
        <time>2011-02-27T14:16:01Z</time>
      </trkpt>
      <trkpt lat="43.92956" lon="4.08257">
        <ele>190</ele>
        <time>2011-02-27T14:16:02Z</time>
      </trkpt>
      <trkpt lat="43.92952" lon="4.08262">
        <ele>190</ele>
        <time>2011-02-27T14:16:03Z</time>
      </trkpt>
      <trkpt lat="43.92948" lon="4.08266">
        <ele>190</ele>
        <time>2011-02-27T14:16:04Z</time>
      </trkpt>
      <trkpt lat="43.92944" lon="4.0827">
        <ele>190</ele>
        <time>2011-02-27T14:16:05Z</time>
      </trkpt>
      <trkpt lat="43.92941" lon="4.08275">
        <ele>191</ele>
        <time>2011-02-27T14:16:06Z</time>
      </trkpt>
      <trkpt lat="43.92938" lon="4.08279">
        <ele>191</ele>
        <time>2011-02-27T14:16:07Z</time>
      </trkpt>
      <trkpt lat="43.92934" lon="4.08284">
        <ele>191</ele>
        <time>2011-02-27T14:16:08Z</time>
      </trkpt>
      <trkpt lat="43.92931" lon="4.08289">
        <ele>191</ele>
        <time>2011-02-27T14:16:09Z</time>
      </trkpt>
      <trkpt lat="43.92927" lon="4.08294">
        <ele>191</ele>
        <time>2011-02-27T14:16:10Z</time>
      </trkpt>
      <trkpt lat="43.92924" lon="4.08299">
        <ele>192</ele>
        <time>2011-02-27T14:16:11Z</time>
      </trkpt>
      <trkpt lat="43.9292" lon="4.08304">
        <ele>192</ele>
        <time>2011-02-27T14:16:12Z</time>
      </trkpt>
      <trkpt lat="43.92917" lon="4.08308">
        <ele>192</ele>
        <time>2011-02-27T14:16:13Z</time>
      </trkpt>
      <trkpt lat="43.92913" lon="4.08313">
        <ele>193</ele>
        <time>2011-02-27T14:16:14Z</time>
      </trkpt>
      <trkpt lat="43.9291" lon="4.08317">
        <ele>193</ele>
        <time>2011-02-27T14:16:15Z</time>
      </trkpt>
      <trkpt lat="43.92906" lon="4.08321">
        <ele>193</ele>
        <time>2011-02-27T14:16:16Z</time>
      </trkpt>
      <trkpt lat="43.92902" lon="4.08325">
        <ele>193</ele>
        <time>2011-02-27T14:16:17Z</time>
      </trkpt>
      <trkpt lat="43.92897" lon="4.08328">
        <ele>193</ele>
        <time>2011-02-27T14:16:18Z</time>
      </trkpt>
      <trkpt lat="43.92892" lon="4.08331">
        <ele>193</ele>
        <time>2011-02-27T14:16:19Z</time>
      </trkpt>
      <trkpt lat="43.92888" lon="4.08334">
        <ele>193</ele>
        <time>2011-02-27T14:16:20Z</time>
      </trkpt>
      <trkpt lat="43.92884" lon="4.08337">
        <ele>193</ele>
        <time>2011-02-27T14:16:21Z</time>
      </trkpt>
      <trkpt lat="43.92879" lon="4.08339">
        <ele>193</ele>
        <time>2011-02-27T14:16:22Z</time>
      </trkpt>
      <trkpt lat="43.92871" lon="4.08344">
        <ele>193</ele>
        <time>2011-02-27T14:16:24Z</time>
      </trkpt>
      <trkpt lat="43.92863" lon="4.08348">
        <ele>194</ele>
        <time>2011-02-27T14:16:26Z</time>
      </trkpt>
      <trkpt lat="43.92857" lon="4.0835">
        <ele>194</ele>
        <time>2011-02-27T14:16:27Z</time>
      </trkpt>
      <trkpt lat="43.92851" lon="4.08352">
        <ele>195</ele>
        <time>2011-02-27T14:16:28Z</time>
      </trkpt>
      <trkpt lat="43.92845" lon="4.08353">
        <ele>195</ele>
        <time>2011-02-27T14:16:29Z</time>
      </trkpt>
      <trkpt lat="43.92839" lon="4.08354">
        <ele>195</ele>
        <time>2011-02-27T14:16:30Z</time>
      </trkpt>
      <trkpt lat="43.92832" lon="4.08353">
        <ele>195</ele>
        <time>2011-02-27T14:16:31Z</time>
      </trkpt>
      <trkpt lat="43.92825" lon="4.0835">
        <ele>195</ele>
        <time>2011-02-27T14:16:32Z</time>
      </trkpt>
      <trkpt lat="43.92818" lon="4.08348">
        <ele>195</ele>
        <time>2011-02-27T14:16:33Z</time>
      </trkpt>
      <trkpt lat="43.92809" lon="4.08345">
        <ele>195</ele>
        <time>2011-02-27T14:16:34Z</time>
      </trkpt>
      <trkpt lat="43.92801" lon="4.08343">
        <ele>195</ele>
        <time>2011-02-27T14:16:35Z</time>
      </trkpt>
      <trkpt lat="43.92792" lon="4.08341">
        <ele>195</ele>
        <time>2011-02-27T14:16:36Z</time>
      </trkpt>
      <trkpt lat="43.92784" lon="4.08339">
        <ele>195</ele>
        <time>2011-02-27T14:16:37Z</time>
      </trkpt>
      <trkpt lat="43.92775" lon="4.08336">
        <ele>196</ele>
        <time>2011-02-27T14:16:38Z</time>
      </trkpt>
      <trkpt lat="43.92766" lon="4.08333">
        <ele>196</ele>
        <time>2011-02-27T14:16:39Z</time>
      </trkpt>
      <trkpt lat="43.92756" lon="4.08329">
        <ele>196</ele>
        <time>2011-02-27T14:16:40Z</time>
      </trkpt>
      <trkpt lat="43.92747" lon="4.08325">
        <ele>196</ele>
        <time>2011-02-27T14:16:41Z</time>
      </trkpt>
      <trkpt lat="43.92737" lon="4.08321">
        <ele>196</ele>
        <time>2011-02-27T14:16:42Z</time>
      </trkpt>
      <trkpt lat="43.92727" lon="4.08318">
        <ele>195</ele>
        <time>2011-02-27T14:16:43Z</time>
      </trkpt>
      <trkpt lat="43.92717" lon="4.08317">
        <ele>195</ele>
        <time>2011-02-27T14:16:44Z</time>
      </trkpt>
      <trkpt lat="43.92707" lon="4.08318">
        <ele>194</ele>
        <time>2011-02-27T14:16:45Z</time>
      </trkpt>
      <trkpt lat="43.92697" lon="4.0832">
        <ele>194</ele>
        <time>2011-02-27T14:16:46Z</time>
      </trkpt>
      <trkpt lat="43.92689" lon="4.08325">
        <ele>194</ele>
        <time>2011-02-27T14:16:47Z</time>
      </trkpt>
      <trkpt lat="43.9268" lon="4.08332">
        <ele>193</ele>
        <time>2011-02-27T14:16:48Z</time>
      </trkpt>
      <trkpt lat="43.92672" lon="4.08341">
        <ele>193</ele>
        <time>2011-02-27T14:16:49Z</time>
      </trkpt>
      <trkpt lat="43.92664" lon="4.0835">
        <ele>193</ele>
        <time>2011-02-27T14:16:50Z</time>
      </trkpt>
      <trkpt lat="43.92656" lon="4.08358">
        <ele>192</ele>
        <time>2011-02-27T14:16:51Z</time>
      </trkpt>
      <trkpt lat="43.92648" lon="4.08366">
        <ele>192</ele>
        <time>2011-02-27T14:16:52Z</time>
      </trkpt>
      <trkpt lat="43.9264" lon="4.08374">
        <ele>192</ele>
        <time>2011-02-27T14:16:53Z</time>
      </trkpt>
      <trkpt lat="43.92631" lon="4.08381">
        <ele>191</ele>
        <time>2011-02-27T14:16:54Z</time>
      </trkpt>
      <trkpt lat="43.92624" lon="4.08391">
        <ele>191</ele>
        <time>2011-02-27T14:16:55Z</time>
      </trkpt>
      <trkpt lat="43.92619" lon="4.08403">
        <ele>190</ele>
        <time>2011-02-27T14:16:56Z</time>
      </trkpt>
      <trkpt lat="43.92614" lon="4.08415">
        <ele>190</ele>
        <time>2011-02-27T14:16:57Z</time>
      </trkpt>
      <trkpt lat="43.92608" lon="4.08426">
        <ele>190</ele>
        <time>2011-02-27T14:16:58Z</time>
      </trkpt>
      <trkpt lat="43.92599" lon="4.08435">
        <ele>189</ele>
        <time>2011-02-27T14:16:59Z</time>
      </trkpt>
      <trkpt lat="43.92591" lon="4.08443">
        <ele>189</ele>
        <time>2011-02-27T14:17:00Z</time>
      </trkpt>
      <trkpt lat="43.92585" lon="4.0845">
        <ele>188</ele>
        <time>2011-02-27T14:17:01Z</time>
      </trkpt>
      <trkpt lat="43.92579" lon="4.08458">
        <ele>188</ele>
        <time>2011-02-27T14:17:02Z</time>
      </trkpt>
      <trkpt lat="43.92575" lon="4.08468">
        <ele>188</ele>
        <time>2011-02-27T14:17:03Z</time>
      </trkpt>
      <trkpt lat="43.92573" lon="4.08477">
        <ele>187</ele>
        <time>2011-02-27T14:17:04Z</time>
      </trkpt>
      <trkpt lat="43.92573" lon="4.08486">
        <ele>187</ele>
        <time>2011-02-27T14:17:05Z</time>
      </trkpt>
      <trkpt lat="43.92574" lon="4.08496">
        <ele>187</ele>
        <time>2011-02-27T14:17:06Z</time>
      </trkpt>
      <trkpt lat="43.92574" lon="4.08504">
        <ele>187</ele>
        <time>2011-02-27T14:17:07Z</time>
      </trkpt>
      <trkpt lat="43.92573" lon="4.08512">
        <ele>187</ele>
        <time>2011-02-27T14:17:08Z</time>
      </trkpt>
      <trkpt lat="43.92572" lon="4.08519">
        <ele>186</ele>
        <time>2011-02-27T14:17:09Z</time>
      </trkpt>
      <trkpt lat="43.92569" lon="4.08528">
        <ele>186</ele>
        <time>2011-02-27T14:17:11Z</time>
      </trkpt>
      <trkpt lat="43.92565" lon="4.08535">
        <ele>186</ele>
        <time>2011-02-27T14:17:13Z</time>
      </trkpt>
      <trkpt lat="43.92558" lon="4.08539">
        <ele>186</ele>
        <time>2011-02-27T14:17:15Z</time>
      </trkpt>
      <trkpt lat="43.92553" lon="4.0854">
        <ele>186</ele>
        <time>2011-02-27T14:17:16Z</time>
      </trkpt>
      <trkpt lat="43.92547" lon="4.08539">
        <ele>186</ele>
        <time>2011-02-27T14:17:17Z</time>
      </trkpt>
      <trkpt lat="43.92541" lon="4.08538">
        <ele>186</ele>
        <time>2011-02-27T14:17:18Z</time>
      </trkpt>
      <trkpt lat="43.92534" lon="4.08538">
        <ele>187</ele>
        <time>2011-02-27T14:17:19Z</time>
      </trkpt>
      <trkpt lat="43.92527" lon="4.08536">
        <ele>187</ele>
        <time>2011-02-27T14:17:20Z</time>
      </trkpt>
      <trkpt lat="43.92521" lon="4.08535">
        <ele>187</ele>
        <time>2011-02-27T14:17:21Z</time>
      </trkpt>
      <trkpt lat="43.92515" lon="4.08533">
        <ele>186</ele>
        <time>2011-02-27T14:17:22Z</time>
      </trkpt>
      <trkpt lat="43.92508" lon="4.08531">
        <ele>186</ele>
        <time>2011-02-27T14:17:23Z</time>
      </trkpt>
      <trkpt lat="43.92503" lon="4.08529">
        <ele>186</ele>
        <time>2011-02-27T14:17:24Z</time>
      </trkpt>
      <trkpt lat="43.92496" lon="4.08527">
        <ele>186</ele>
        <time>2011-02-27T14:17:25Z</time>
      </trkpt>
      <trkpt lat="43.92491" lon="4.08526">
        <ele>186</ele>
        <time>2011-02-27T14:17:26Z</time>
      </trkpt>
      <trkpt lat="43.92485" lon="4.08525">
        <ele>185</ele>
        <time>2011-02-27T14:17:27Z</time>
      </trkpt>
      <trkpt lat="43.92479" lon="4.08524">
        <ele>185</ele>
        <time>2011-02-27T14:17:28Z</time>
      </trkpt>
      <trkpt lat="43.92474" lon="4.08524">
        <ele>185</ele>
        <time>2011-02-27T14:17:29Z</time>
      </trkpt>
      <trkpt lat="43.92469" lon="4.08524">
        <ele>184</ele>
        <time>2011-02-27T14:17:30Z</time>
      </trkpt>
      <trkpt lat="43.92464" lon="4.08524">
        <ele>184</ele>
        <time>2011-02-27T14:17:31Z</time>
      </trkpt>
      <trkpt lat="43.92459" lon="4.08524">
        <ele>184</ele>
        <time>2011-02-27T14:17:32Z</time>
      </trkpt>
      <trkpt lat="43.92454" lon="4.08524">
        <ele>183</ele>
        <time>2011-02-27T14:17:33Z</time>
      </trkpt>
      <trkpt lat="43.92449" lon="4.08524">
        <ele>183</ele>
        <time>2011-02-27T14:17:34Z</time>
      </trkpt>
      <trkpt lat="43.92444" lon="4.08525">
        <ele>183</ele>
        <time>2011-02-27T14:17:35Z</time>
      </trkpt>
      <trkpt lat="43.92439" lon="4.08525">
        <ele>182</ele>
        <time>2011-02-27T14:17:36Z</time>
      </trkpt>
      <trkpt lat="43.92434" lon="4.08526">
        <ele>182</ele>
        <time>2011-02-27T14:17:37Z</time>
      </trkpt>
      <trkpt lat="43.92429" lon="4.08526">
        <ele>182</ele>
        <time>2011-02-27T14:17:38Z</time>
      </trkpt>
      <trkpt lat="43.92424" lon="4.08527">
        <ele>182</ele>
        <time>2011-02-27T14:17:39Z</time>
      </trkpt>
      <trkpt lat="43.9242" lon="4.08528">
        <ele>182</ele>
        <time>2011-02-27T14:17:40Z</time>
      </trkpt>
      <trkpt lat="43.92415" lon="4.08529">
        <ele>181</ele>
        <time>2011-02-27T14:17:41Z</time>
      </trkpt>
      <trkpt lat="43.9241" lon="4.0853">
        <ele>181</ele>
        <time>2011-02-27T14:17:42Z</time>
      </trkpt>
      <trkpt lat="43.92406" lon="4.08531">
        <ele>180</ele>
        <time>2011-02-27T14:17:43Z</time>
      </trkpt>
      <trkpt lat="43.92401" lon="4.08533">
        <ele>180</ele>
        <time>2011-02-27T14:17:44Z</time>
      </trkpt>
      <trkpt lat="43.92397" lon="4.08536">
        <ele>180</ele>
        <time>2011-02-27T14:17:45Z</time>
      </trkpt>
      <trkpt lat="43.92393" lon="4.08538">
        <ele>179</ele>
        <time>2011-02-27T14:17:46Z</time>
      </trkpt>
      <trkpt lat="43.92387" lon="4.08547">
        <ele>179</ele>
        <time>2011-02-27T14:17:48Z</time>
      </trkpt>
      <trkpt lat="43.92382" lon="4.08557">
        <ele>179</ele>
        <time>2011-02-27T14:17:50Z</time>
      </trkpt>
      <trkpt lat="43.92379" lon="4.08568">
        <ele>179</ele>
        <time>2011-02-27T14:17:52Z</time>
      </trkpt>
      <trkpt lat="43.92378" lon="4.08575">
        <ele>179</ele>
        <time>2011-02-27T14:17:53Z</time>
      </trkpt>
      <trkpt lat="43.92378" lon="4.08581">
        <ele>179</ele>
        <time>2011-02-27T14:17:54Z</time>
      </trkpt>
      <trkpt lat="43.92378" lon="4.08588">
        <ele>179</ele>
        <time>2011-02-27T14:17:55Z</time>
      </trkpt>
      <trkpt lat="43.92379" lon="4.08597">
        <ele>179</ele>
        <time>2011-02-27T14:17:56Z</time>
      </trkpt>
      <trkpt lat="43.9238" lon="4.08607">
        <ele>179</ele>
        <time>2011-02-27T14:17:57Z</time>
      </trkpt>
      <trkpt lat="43.9238" lon="4.08617">
        <ele>179</ele>
        <time>2011-02-27T14:17:58Z</time>
      </trkpt>
      <trkpt lat="43.9238" lon="4.08627">
        <ele>179</ele>
        <time>2011-02-27T14:17:59Z</time>
      </trkpt>
      <trkpt lat="43.92379" lon="4.08637">
        <ele>179</ele>
        <time>2011-02-27T14:18:00Z</time>
      </trkpt>
      <trkpt lat="43.92377" lon="4.08647">
        <ele>179</ele>
        <time>2011-02-27T14:18:01Z</time>
      </trkpt>
      <trkpt lat="43.92376" lon="4.08657">
        <ele>179</ele>
        <time>2011-02-27T14:18:02Z</time>
      </trkpt>
      <trkpt lat="43.92373" lon="4.08666">
        <ele>179</ele>
        <time>2011-02-27T14:18:03Z</time>
      </trkpt>
      <trkpt lat="43.92372" lon="4.08676">
        <ele>179</ele>
        <time>2011-02-27T14:18:04Z</time>
      </trkpt>
      <trkpt lat="43.9237" lon="4.08686">
        <ele>179</ele>
        <time>2011-02-27T14:18:05Z</time>
      </trkpt>
      <trkpt lat="43.92369" lon="4.08697">
        <ele>180</ele>
        <time>2011-02-27T14:18:06Z</time>
      </trkpt>
      <trkpt lat="43.92367" lon="4.08709">
        <ele>180</ele>
        <time>2011-02-27T14:18:07Z</time>
      </trkpt>
      <trkpt lat="43.92366" lon="4.08721">
        <ele>180</ele>
        <time>2011-02-27T14:18:08Z</time>
      </trkpt>
      <trkpt lat="43.92365" lon="4.08733">
        <ele>180</ele>
        <time>2011-02-27T14:18:09Z</time>
      </trkpt>
      <trkpt lat="43.92364" lon="4.08746">
        <ele>179</ele>
        <time>2011-02-27T14:18:10Z</time>
      </trkpt>
      <trkpt lat="43.92363" lon="4.08758">
        <ele>179</ele>
        <time>2011-02-27T14:18:11Z</time>
      </trkpt>
      <trkpt lat="43.92361" lon="4.08771">
        <ele>177</ele>
        <time>2011-02-27T14:18:12Z</time>
      </trkpt>
      <trkpt lat="43.92359" lon="4.08784">
        <ele>177</ele>
        <time>2011-02-27T14:18:13Z</time>
      </trkpt>
      <trkpt lat="43.92357" lon="4.08796">
        <ele>176</ele>
        <time>2011-02-27T14:18:14Z</time>
      </trkpt>
      <trkpt lat="43.92353" lon="4.08809">
        <ele>175</ele>
        <time>2011-02-27T14:18:15Z</time>
      </trkpt>
      <trkpt lat="43.9235" lon="4.08822">
        <ele>175</ele>
        <time>2011-02-27T14:18:16Z</time>
      </trkpt>
      <trkpt lat="43.92345" lon="4.08834">
        <ele>174</ele>
        <time>2011-02-27T14:18:17Z</time>
      </trkpt>
      <trkpt lat="43.9234" lon="4.08845">
        <ele>173</ele>
        <time>2011-02-27T14:18:18Z</time>
      </trkpt>
      <trkpt lat="43.92334" lon="4.08856">
        <ele>173</ele>
        <time>2011-02-27T14:18:19Z</time>
      </trkpt>
      <trkpt lat="43.92327" lon="4.08866">
        <ele>172</ele>
        <time>2011-02-27T14:18:20Z</time>
      </trkpt>
      <trkpt lat="43.92321" lon="4.08877">
        <ele>172</ele>
        <time>2011-02-27T14:18:21Z</time>
      </trkpt>
      <trkpt lat="43.92316" lon="4.08887">
        <ele>171</ele>
        <time>2011-02-27T14:18:22Z</time>
      </trkpt>
      <trkpt lat="43.92311" lon="4.08897">
        <ele>171</ele>
        <time>2011-02-27T14:18:23Z</time>
      </trkpt>
      <trkpt lat="43.92306" lon="4.08907">
        <ele>171</ele>
        <time>2011-02-27T14:18:24Z</time>
      </trkpt>
      <trkpt lat="43.923" lon="4.08917">
        <ele>170</ele>
        <time>2011-02-27T14:18:25Z</time>
      </trkpt>
      <trkpt lat="43.92296" lon="4.08926">
        <ele>170</ele>
        <time>2011-02-27T14:18:26Z</time>
      </trkpt>
      <trkpt lat="43.92291" lon="4.08936">
        <ele>170</ele>
        <time>2011-02-27T14:18:27Z</time>
      </trkpt>
      <trkpt lat="43.92287" lon="4.08946">
        <ele>170</ele>
        <time>2011-02-27T14:18:28Z</time>
      </trkpt>
      <trkpt lat="43.92282" lon="4.08955">
        <ele>170</ele>
        <time>2011-02-27T14:18:29Z</time>
      </trkpt>
      <trkpt lat="43.92277" lon="4.08965">
        <ele>170</ele>
        <time>2011-02-27T14:18:30Z</time>
      </trkpt>
      <trkpt lat="43.92273" lon="4.08974">
        <ele>169</ele>
        <time>2011-02-27T14:18:31Z</time>
      </trkpt>
      <trkpt lat="43.92269" lon="4.08983">
        <ele>169</ele>
        <time>2011-02-27T14:18:32Z</time>
      </trkpt>
      <trkpt lat="43.92265" lon="4.08992">
        <ele>169</ele>
        <time>2011-02-27T14:18:33Z</time>
      </trkpt>
      <trkpt lat="43.9226" lon="4.08999">
        <ele>169</ele>
        <time>2011-02-27T14:18:34Z</time>
      </trkpt>
      <trkpt lat="43.92255" lon="4.09006">
        <ele>168</ele>
        <time>2011-02-27T14:18:35Z</time>
      </trkpt>
      <trkpt lat="43.92249" lon="4.09011">
        <ele>169</ele>
        <time>2011-02-27T14:18:36Z</time>
      </trkpt>
      <trkpt lat="43.92241" lon="4.09013">
        <ele>169</ele>
        <time>2011-02-27T14:18:37Z</time>
      </trkpt>
      <trkpt lat="43.92234" lon="4.09014">
        <ele>169</ele>
        <time>2011-02-27T14:18:38Z</time>
      </trkpt>
      <trkpt lat="43.92226" lon="4.09014">
        <ele>169</ele>
        <time>2011-02-27T14:18:39Z</time>
      </trkpt>
      <trkpt lat="43.92218" lon="4.09014">
        <ele>169</ele>
        <time>2011-02-27T14:18:40Z</time>
      </trkpt>
      <trkpt lat="43.9221" lon="4.09013">
        <ele>170</ele>
        <time>2011-02-27T14:18:41Z</time>
      </trkpt>
      <trkpt lat="43.92202" lon="4.09012">
        <ele>170</ele>
        <time>2011-02-27T14:18:42Z</time>
      </trkpt>
      <trkpt lat="43.92193" lon="4.09011">
        <ele>170</ele>
        <time>2011-02-27T14:18:43Z</time>
      </trkpt>
      <trkpt lat="43.92185" lon="4.0901">
        <ele>170</ele>
        <time>2011-02-27T14:18:44Z</time>
      </trkpt>
      <trkpt lat="43.92177" lon="4.09009">
        <ele>170</ele>
        <time>2011-02-27T14:18:45Z</time>
      </trkpt>
      <trkpt lat="43.92169" lon="4.09009">
        <ele>170</ele>
        <time>2011-02-27T14:18:46Z</time>
      </trkpt>
      <trkpt lat="43.92161" lon="4.09008">
        <ele>169</ele>
        <time>2011-02-27T14:18:47Z</time>
      </trkpt>
      <trkpt lat="43.92153" lon="4.09008">
        <ele>169</ele>
        <time>2011-02-27T14:18:48Z</time>
      </trkpt>
      <trkpt lat="43.92144" lon="4.09007">
        <ele>169</ele>
        <time>2011-02-27T14:18:49Z</time>
      </trkpt>
      <trkpt lat="43.92136" lon="4.09007">
        <ele>168</ele>
        <time>2011-02-27T14:18:50Z</time>
      </trkpt>
      <trkpt lat="43.92127" lon="4.09006">
        <ele>168</ele>
        <time>2011-02-27T14:18:51Z</time>
      </trkpt>
      <trkpt lat="43.92119" lon="4.09005">
        <ele>168</ele>
        <time>2011-02-27T14:18:52Z</time>
      </trkpt>
      <trkpt lat="43.92111" lon="4.09005">
        <ele>167</ele>
        <time>2011-02-27T14:18:53Z</time>
      </trkpt>
      <trkpt lat="43.92102" lon="4.09004">
        <ele>167</ele>
        <time>2011-02-27T14:18:54Z</time>
      </trkpt>
      <trkpt lat="43.92093" lon="4.09004">
        <ele>168</ele>
        <time>2011-02-27T14:18:55Z</time>
      </trkpt>
      <trkpt lat="43.92084" lon="4.09003">
        <ele>167</ele>
        <time>2011-02-27T14:18:56Z</time>
      </trkpt>
      <trkpt lat="43.92076" lon="4.09003">
        <ele>167</ele>
        <time>2011-02-27T14:18:57Z</time>
      </trkpt>
      <trkpt lat="43.92067" lon="4.09002">
        <ele>167</ele>
        <time>2011-02-27T14:18:58Z</time>
      </trkpt>
      <trkpt lat="43.92058" lon="4.09001">
        <ele>166</ele>
        <time>2011-02-27T14:18:59Z</time>
      </trkpt>
      <trkpt lat="43.92049" lon="4.09">
        <ele>166</ele>
        <time>2011-02-27T14:19:00Z</time>
      </trkpt>
      <trkpt lat="43.92041" lon="4.08999">
        <ele>166</ele>
        <time>2011-02-27T14:19:01Z</time>
      </trkpt>
      <trkpt lat="43.92032" lon="4.08998">
        <ele>166</ele>
        <time>2011-02-27T14:19:02Z</time>
      </trkpt>
      <trkpt lat="43.92023" lon="4.08998">
        <ele>166</ele>
        <time>2011-02-27T14:19:03Z</time>
      </trkpt>
      <trkpt lat="43.92015" lon="4.08997">
        <ele>166</ele>
        <time>2011-02-27T14:19:04Z</time>
      </trkpt>
      <trkpt lat="43.92006" lon="4.08997">
        <ele>166</ele>
        <time>2011-02-27T14:19:05Z</time>
      </trkpt>
      <trkpt lat="43.91997" lon="4.08998">
        <ele>165</ele>
        <time>2011-02-27T14:19:06Z</time>
      </trkpt>
      <trkpt lat="43.91989" lon="4.08999">
        <ele>165</ele>
        <time>2011-02-27T14:19:07Z</time>
      </trkpt>
      <trkpt lat="43.91981" lon="4.09001">
        <ele>165</ele>
        <time>2011-02-27T14:19:08Z</time>
      </trkpt>
      <trkpt lat="43.91973" lon="4.09004">
        <ele>165</ele>
        <time>2011-02-27T14:19:09Z</time>
      </trkpt>
      <trkpt lat="43.91965" lon="4.09006">
        <ele>165</ele>
        <time>2011-02-27T14:19:10Z</time>
      </trkpt>
      <trkpt lat="43.91957" lon="4.09009">
        <ele>165</ele>
        <time>2011-02-27T14:19:11Z</time>
      </trkpt>
      <trkpt lat="43.91949" lon="4.09012">
        <ele>164</ele>
        <time>2011-02-27T14:19:12Z</time>
      </trkpt>
      <trkpt lat="43.91942" lon="4.09015">
        <ele>164</ele>
        <time>2011-02-27T14:19:13Z</time>
      </trkpt>
      <trkpt lat="43.91934" lon="4.09018">
        <ele>164</ele>
        <time>2011-02-27T14:19:14Z</time>
      </trkpt>
      <trkpt lat="43.91926" lon="4.09021">
        <ele>164</ele>
        <time>2011-02-27T14:19:15Z</time>
      </trkpt>
      <trkpt lat="43.91918" lon="4.09025">
        <ele>164</ele>
        <time>2011-02-27T14:19:16Z</time>
      </trkpt>
      <trkpt lat="43.9191" lon="4.09028">
        <ele>164</ele>
        <time>2011-02-27T14:19:17Z</time>
      </trkpt>
      <trkpt lat="43.91902" lon="4.09031">
        <ele>164</ele>
        <time>2011-02-27T14:19:18Z</time>
      </trkpt>
      <trkpt lat="43.91893" lon="4.09034">
        <ele>164</ele>
        <time>2011-02-27T14:19:19Z</time>
      </trkpt>
      <trkpt lat="43.91885" lon="4.09036">
        <ele>164</ele>
        <time>2011-02-27T14:19:20Z</time>
      </trkpt>
      <trkpt lat="43.91877" lon="4.09038">
        <ele>164</ele>
        <time>2011-02-27T14:19:21Z</time>
      </trkpt>
      <trkpt lat="43.91868" lon="4.09039">
        <ele>164</ele>
        <time>2011-02-27T14:19:22Z</time>
      </trkpt>
      <trkpt lat="43.9186" lon="4.09039">
        <ele>164</ele>
        <time>2011-02-27T14:19:23Z</time>
      </trkpt>
      <trkpt lat="43.91851" lon="4.09039">
        <ele>164</ele>
        <time>2011-02-27T14:19:24Z</time>
      </trkpt>
      <trkpt lat="43.91843" lon="4.09039">
        <ele>164</ele>
        <time>2011-02-27T14:19:25Z</time>
      </trkpt>
      <trkpt lat="43.91834" lon="4.09039">
        <ele>164</ele>
        <time>2011-02-27T14:19:26Z</time>
      </trkpt>
      <trkpt lat="43.91826" lon="4.09039">
        <ele>164</ele>
        <time>2011-02-27T14:19:27Z</time>
      </trkpt>
      <trkpt lat="43.91818" lon="4.09038">
        <ele>164</ele>
        <time>2011-02-27T14:19:28Z</time>
      </trkpt>
      <trkpt lat="43.9181" lon="4.09037">
        <ele>164</ele>
        <time>2011-02-27T14:19:29Z</time>
      </trkpt>
      <trkpt lat="43.91803" lon="4.09036">
        <ele>163</ele>
        <time>2011-02-27T14:19:30Z</time>
      </trkpt>
      <trkpt lat="43.91795" lon="4.09034">
        <ele>163</ele>
        <time>2011-02-27T14:19:31Z</time>
      </trkpt>
      <trkpt lat="43.91788" lon="4.09033">
        <ele>163</ele>
        <time>2011-02-27T14:19:32Z</time>
      </trkpt>
      <trkpt lat="43.91781" lon="4.09031">
        <ele>163</ele>
        <time>2011-02-27T14:19:33Z</time>
      </trkpt>
      <trkpt lat="43.91775" lon="4.09029">
        <ele>163</ele>
        <time>2011-02-27T14:19:34Z</time>
      </trkpt>
      <trkpt lat="43.91768" lon="4.09028">
        <ele>163</ele>
        <time>2011-02-27T14:19:35Z</time>
      </trkpt>
      <trkpt lat="43.91761" lon="4.09026">
        <ele>163</ele>
        <time>2011-02-27T14:19:36Z</time>
      </trkpt>
      <trkpt lat="43.91754" lon="4.09025">
        <ele>163</ele>
        <time>2011-02-27T14:19:37Z</time>
      </trkpt>
      <trkpt lat="43.91747" lon="4.09024">
        <ele>163</ele>
        <time>2011-02-27T14:19:38Z</time>
      </trkpt>
      <trkpt lat="43.9174" lon="4.09023">
        <ele>163</ele>
        <time>2011-02-27T14:19:39Z</time>
      </trkpt>
      <trkpt lat="43.91733" lon="4.09022">
        <ele>163</ele>
        <time>2011-02-27T14:19:40Z</time>
      </trkpt>
      <trkpt lat="43.91725" lon="4.09022">
        <ele>162</ele>
        <time>2011-02-27T14:19:41Z</time>
      </trkpt>
      <trkpt lat="43.91718" lon="4.09021">
        <ele>162</ele>
        <time>2011-02-27T14:19:42Z</time>
      </trkpt>
      <trkpt lat="43.91711" lon="4.0902">
        <ele>162</ele>
        <time>2011-02-27T14:19:43Z</time>
      </trkpt>
      <trkpt lat="43.91704" lon="4.09019">
        <ele>162</ele>
        <time>2011-02-27T14:19:44Z</time>
      </trkpt>
      <trkpt lat="43.91696" lon="4.09018">
        <ele>163</ele>
        <time>2011-02-27T14:19:45Z</time>
      </trkpt>
      <trkpt lat="43.91689" lon="4.09017">
        <ele>163</ele>
        <time>2011-02-27T14:19:46Z</time>
      </trkpt>
      <trkpt lat="43.91681" lon="4.09016">
        <ele>163</ele>
        <time>2011-02-27T14:19:47Z</time>
      </trkpt>
      <trkpt lat="43.91674" lon="4.09015">
        <ele>163</ele>
        <time>2011-02-27T14:19:48Z</time>
      </trkpt>
      <trkpt lat="43.91666" lon="4.09014">
        <ele>163</ele>
        <time>2011-02-27T14:19:49Z</time>
      </trkpt>
      <trkpt lat="43.91658" lon="4.09013">
        <ele>163</ele>
        <time>2011-02-27T14:19:50Z</time>
      </trkpt>
      <trkpt lat="43.91651" lon="4.09012">
        <ele>162</ele>
        <time>2011-02-27T14:19:51Z</time>
      </trkpt>
      <trkpt lat="43.91643" lon="4.09011">
        <ele>162</ele>
        <time>2011-02-27T14:19:52Z</time>
      </trkpt>
      <trkpt lat="43.91634" lon="4.0901">
        <ele>162</ele>
        <time>2011-02-27T14:19:53Z</time>
      </trkpt>
      <trkpt lat="43.91624" lon="4.0901">
        <ele>161</ele>
        <time>2011-02-27T14:19:54Z</time>
      </trkpt>
      <trkpt lat="43.91615" lon="4.0901">
        <ele>161</ele>
        <time>2011-02-27T14:19:55Z</time>
      </trkpt>
      <trkpt lat="43.91605" lon="4.09009">
        <ele>161</ele>
        <time>2011-02-27T14:19:56Z</time>
      </trkpt>
      <trkpt lat="43.91595" lon="4.09009">
        <ele>161</ele>
        <time>2011-02-27T14:19:57Z</time>
      </trkpt>
      <trkpt lat="43.91585" lon="4.09009">
        <ele>161</ele>
        <time>2011-02-27T14:19:58Z</time>
      </trkpt>
      <trkpt lat="43.91575" lon="4.09009">
        <ele>161</ele>
        <time>2011-02-27T14:19:59Z</time>
      </trkpt>
      <trkpt lat="43.91566" lon="4.09009">
        <ele>162</ele>
        <time>2011-02-27T14:20:00Z</time>
      </trkpt>
      <trkpt lat="43.91557" lon="4.09009">
        <ele>162</ele>
        <time>2011-02-27T14:20:01Z</time>
      </trkpt>
      <trkpt lat="43.91549" lon="4.09009">
        <ele>162</ele>
        <time>2011-02-27T14:20:02Z</time>
      </trkpt>
      <trkpt lat="43.91541" lon="4.09008">
        <ele>162</ele>
        <time>2011-02-27T14:20:03Z</time>
      </trkpt>
      <trkpt lat="43.91533" lon="4.09008">
        <ele>162</ele>
        <time>2011-02-27T14:20:04Z</time>
      </trkpt>
      <trkpt lat="43.91526" lon="4.09007">
        <ele>162</ele>
        <time>2011-02-27T14:20:05Z</time>
      </trkpt>
      <trkpt lat="43.91519" lon="4.09007">
        <ele>162</ele>
        <time>2011-02-27T14:20:06Z</time>
      </trkpt>
      <trkpt lat="43.91512" lon="4.09006">
        <ele>163</ele>
        <time>2011-02-27T14:20:07Z</time>
      </trkpt>
      <trkpt lat="43.91505" lon="4.09005">
        <ele>163</ele>
        <time>2011-02-27T14:20:08Z</time>
      </trkpt>
      <trkpt lat="43.91499" lon="4.09004">
        <ele>163</ele>
        <time>2011-02-27T14:20:09Z</time>
      </trkpt>
      <trkpt lat="43.91492" lon="4.09003">
        <ele>163</ele>
        <time>2011-02-27T14:20:10Z</time>
      </trkpt>
      <trkpt lat="43.91485" lon="4.09002">
        <ele>163</ele>
        <time>2011-02-27T14:20:11Z</time>
      </trkpt>
      <trkpt lat="43.91478" lon="4.09">
        <ele>163</ele>
        <time>2011-02-27T14:20:12Z</time>
      </trkpt>
      <trkpt lat="43.91471" lon="4.08998">
        <ele>163</ele>
        <time>2011-02-27T14:20:13Z</time>
      </trkpt>
      <trkpt lat="43.91464" lon="4.08996">
        <ele>163</ele>
        <time>2011-02-27T14:20:14Z</time>
      </trkpt>
      <trkpt lat="43.91458" lon="4.08992">
        <ele>163</ele>
        <time>2011-02-27T14:20:15Z</time>
      </trkpt>
      <trkpt lat="43.91451" lon="4.08988">
        <ele>163</ele>
        <time>2011-02-27T14:20:16Z</time>
      </trkpt>
      <trkpt lat="43.91445" lon="4.08984">
        <ele>164</ele>
        <time>2011-02-27T14:20:17Z</time>
      </trkpt>
      <trkpt lat="43.91438" lon="4.08979">
        <ele>164</ele>
        <time>2011-02-27T14:20:18Z</time>
      </trkpt>
      <trkpt lat="43.91432" lon="4.08974">
        <ele>164</ele>
        <time>2011-02-27T14:20:19Z</time>
      </trkpt>
      <trkpt lat="43.91425" lon="4.0897">
        <ele>165</ele>
        <time>2011-02-27T14:20:20Z</time>
      </trkpt>
      <trkpt lat="43.91419" lon="4.08965">
        <ele>165</ele>
        <time>2011-02-27T14:20:21Z</time>
      </trkpt>
      <trkpt lat="43.91412" lon="4.0896">
        <ele>165</ele>
        <time>2011-02-27T14:20:22Z</time>
      </trkpt>
      <trkpt lat="43.91406" lon="4.08956">
        <ele>166</ele>
        <time>2011-02-27T14:20:23Z</time>
      </trkpt>
      <trkpt lat="43.91399" lon="4.08952">
        <ele>166</ele>
        <time>2011-02-27T14:20:24Z</time>
      </trkpt>
      <trkpt lat="43.91392" lon="4.08949">
        <ele>166</ele>
        <time>2011-02-27T14:20:25Z</time>
      </trkpt>
      <trkpt lat="43.91385" lon="4.08947">
        <ele>166</ele>
        <time>2011-02-27T14:20:26Z</time>
      </trkpt>
      <trkpt lat="43.91377" lon="4.08944">
        <ele>167</ele>
        <time>2011-02-27T14:20:27Z</time>
      </trkpt>
      <trkpt lat="43.91369" lon="4.08942">
        <ele>167</ele>
        <time>2011-02-27T14:20:28Z</time>
      </trkpt>
      <trkpt lat="43.91362" lon="4.08939">
        <ele>167</ele>
        <time>2011-02-27T14:20:29Z</time>
      </trkpt>
      <trkpt lat="43.91354" lon="4.08936">
        <ele>167</ele>
        <time>2011-02-27T14:20:30Z</time>
      </trkpt>
      <trkpt lat="43.91345" lon="4.08933">
        <ele>167</ele>
        <time>2011-02-27T14:20:31Z</time>
      </trkpt>
      <trkpt lat="43.91337" lon="4.0893">
        <ele>167</ele>
        <time>2011-02-27T14:20:32Z</time>
      </trkpt>
      <trkpt lat="43.91329" lon="4.08928">
        <ele>167</ele>
        <time>2011-02-27T14:20:33Z</time>
      </trkpt>
      <trkpt lat="43.9132" lon="4.08925">
        <ele>167</ele>
        <time>2011-02-27T14:20:34Z</time>
      </trkpt>
      <trkpt lat="43.91312" lon="4.08922">
        <ele>167</ele>
        <time>2011-02-27T14:20:35Z</time>
      </trkpt>
      <trkpt lat="43.91303" lon="4.0892">
        <ele>167</ele>
        <time>2011-02-27T14:20:36Z</time>
      </trkpt>
      <trkpt lat="43.91295" lon="4.08917">
        <ele>167</ele>
        <time>2011-02-27T14:20:37Z</time>
      </trkpt>
      <trkpt lat="43.91286" lon="4.08913">
        <ele>167</ele>
        <time>2011-02-27T14:20:38Z</time>
      </trkpt>
      <trkpt lat="43.91277" lon="4.08909">
        <ele>166</ele>
        <time>2011-02-27T14:20:39Z</time>
      </trkpt>
      <trkpt lat="43.91268" lon="4.08906">
        <ele>166</ele>
        <time>2011-02-27T14:20:40Z</time>
      </trkpt>
      <trkpt lat="43.91259" lon="4.08903">
        <ele>166</ele>
        <time>2011-02-27T14:20:41Z</time>
      </trkpt>
      <trkpt lat="43.9125" lon="4.08901">
        <ele>167</ele>
        <time>2011-02-27T14:20:42Z</time>
      </trkpt>
      <trkpt lat="43.91241" lon="4.08897">
        <ele>167</ele>
        <time>2011-02-27T14:20:43Z</time>
      </trkpt>
      <trkpt lat="43.91232" lon="4.08894">
        <ele>167</ele>
        <time>2011-02-27T14:20:44Z</time>
      </trkpt>
      <trkpt lat="43.91222" lon="4.08889">
        <ele>167</ele>
        <time>2011-02-27T14:20:45Z</time>
      </trkpt>
      <trkpt lat="43.91213" lon="4.08885">
        <ele>167</ele>
        <time>2011-02-27T14:20:46Z</time>
      </trkpt>
      <trkpt lat="43.91203" lon="4.08881">
        <ele>167</ele>
        <time>2011-02-27T14:20:47Z</time>
      </trkpt>
      <trkpt lat="43.91194" lon="4.08876">
        <ele>167</ele>
        <time>2011-02-27T14:20:48Z</time>
      </trkpt>
      <trkpt lat="43.91184" lon="4.0887">
        <ele>167</ele>
        <time>2011-02-27T14:20:49Z</time>
      </trkpt>
      <trkpt lat="43.91175" lon="4.08865">
        <ele>166</ele>
        <time>2011-02-27T14:20:50Z</time>
      </trkpt>
      <trkpt lat="43.91165" lon="4.0886">
        <ele>166</ele>
        <time>2011-02-27T14:20:51Z</time>
      </trkpt>
      <trkpt lat="43.91156" lon="4.08855">
        <ele>166</ele>
        <time>2011-02-27T14:20:52Z</time>
      </trkpt>
      <trkpt lat="43.91146" lon="4.0885">
        <ele>166</ele>
        <time>2011-02-27T14:20:53Z</time>
      </trkpt>
      <trkpt lat="43.91137" lon="4.08844">
        <ele>166</ele>
        <time>2011-02-27T14:20:54Z</time>
      </trkpt>
      <trkpt lat="43.91128" lon="4.08839">
        <ele>166</ele>
        <time>2011-02-27T14:20:55Z</time>
      </trkpt>
      <trkpt lat="43.91118" lon="4.08834">
        <ele>165</ele>
        <time>2011-02-27T14:20:56Z</time>
      </trkpt>
      <trkpt lat="43.91109" lon="4.08829">
        <ele>165</ele>
        <time>2011-02-27T14:20:57Z</time>
      </trkpt>
      <trkpt lat="43.911" lon="4.08824">
        <ele>165</ele>
        <time>2011-02-27T14:20:58Z</time>
      </trkpt>
      <trkpt lat="43.91091" lon="4.0882">
        <ele>164</ele>
        <time>2011-02-27T14:20:59Z</time>
      </trkpt>
      <trkpt lat="43.91081" lon="4.08815">
        <ele>164</ele>
        <time>2011-02-27T14:21:00Z</time>
      </trkpt>
      <trkpt lat="43.91072" lon="4.08812">
        <ele>164</ele>
        <time>2011-02-27T14:21:01Z</time>
      </trkpt>
      <trkpt lat="43.91062" lon="4.08808">
        <ele>163</ele>
        <time>2011-02-27T14:21:02Z</time>
      </trkpt>
      <trkpt lat="43.91053" lon="4.08805">
        <ele>163</ele>
        <time>2011-02-27T14:21:03Z</time>
      </trkpt>
      <trkpt lat="43.91043" lon="4.08801">
        <ele>163</ele>
        <time>2011-02-27T14:21:04Z</time>
      </trkpt>
      <trkpt lat="43.91034" lon="4.08798">
        <ele>163</ele>
        <time>2011-02-27T14:21:05Z</time>
      </trkpt>
      <trkpt lat="43.91024" lon="4.08795">
        <ele>163</ele>
        <time>2011-02-27T14:21:06Z</time>
      </trkpt>
      <trkpt lat="43.91014" lon="4.08792">
        <ele>162</ele>
        <time>2011-02-27T14:21:07Z</time>
      </trkpt>
      <trkpt lat="43.91005" lon="4.08789">
        <ele>162</ele>
        <time>2011-02-27T14:21:08Z</time>
      </trkpt>
      <trkpt lat="43.90995" lon="4.08785">
        <ele>162</ele>
        <time>2011-02-27T14:21:09Z</time>
      </trkpt>
      <trkpt lat="43.90986" lon="4.08782">
        <ele>162</ele>
        <time>2011-02-27T14:21:10Z</time>
      </trkpt>
      <trkpt lat="43.90977" lon="4.08779">
        <ele>161</ele>
        <time>2011-02-27T14:21:11Z</time>
      </trkpt>
      <trkpt lat="43.90968" lon="4.08776">
        <ele>161</ele>
        <time>2011-02-27T14:21:12Z</time>
      </trkpt>
      <trkpt lat="43.90958" lon="4.08773">
        <ele>160</ele>
        <time>2011-02-27T14:21:13Z</time>
      </trkpt>
      <trkpt lat="43.90949" lon="4.0877">
        <ele>160</ele>
        <time>2011-02-27T14:21:14Z</time>
      </trkpt>
      <trkpt lat="43.90939" lon="4.08768">
        <ele>160</ele>
        <time>2011-02-27T14:21:15Z</time>
      </trkpt>
      <trkpt lat="43.90929" lon="4.08765">
        <ele>160</ele>
        <time>2011-02-27T14:21:16Z</time>
      </trkpt>
      <trkpt lat="43.90919" lon="4.08762">
        <ele>160</ele>
        <time>2011-02-27T14:21:17Z</time>
      </trkpt>
      <trkpt lat="43.90909" lon="4.08759">
        <ele>159</ele>
        <time>2011-02-27T14:21:18Z</time>
      </trkpt>
      <trkpt lat="43.90899" lon="4.08756">
        <ele>159</ele>
        <time>2011-02-27T14:21:19Z</time>
      </trkpt>
      <trkpt lat="43.90889" lon="4.08753">
        <ele>159</ele>
        <time>2011-02-27T14:21:20Z</time>
      </trkpt>
      <trkpt lat="43.9088" lon="4.08751">
        <ele>159</ele>
        <time>2011-02-27T14:21:21Z</time>
      </trkpt>
      <trkpt lat="43.90872" lon="4.08749">
        <ele>159</ele>
        <time>2011-02-27T14:21:22Z</time>
      </trkpt>
      <trkpt lat="43.90866" lon="4.08748">
        <ele>158</ele>
        <time>2011-02-27T14:21:23Z</time>
      </trkpt>
      <trkpt lat="43.90861" lon="4.08747">
        <ele>158</ele>
        <time>2011-02-27T14:21:24Z</time>
      </trkpt>
      <trkpt lat="43.90854" lon="4.08746">
        <ele>159</ele>
        <time>2011-02-27T14:21:26Z</time>
      </trkpt>
      <trkpt lat="43.9085" lon="4.0875">
        <ele>159</ele>
        <time>2011-02-27T14:21:29Z</time>
      </trkpt>
      <trkpt lat="43.90855" lon="4.08751">
        <ele>159</ele>
        <time>2011-02-27T14:21:32Z</time>
      </trkpt>
      <trkpt lat="43.90861" lon="4.0875">
        <ele>160</ele>
        <time>2011-02-27T14:21:34Z</time>
      </trkpt>
      <trkpt lat="43.90866" lon="4.08748">
        <ele>160</ele>
        <time>2011-02-27T14:21:36Z</time>
      </trkpt>
      <trkpt lat="43.90873" lon="4.08746">
        <ele>160</ele>
        <time>2011-02-27T14:21:38Z</time>
      </trkpt>
      <trkpt lat="43.90879" lon="4.08745">
        <ele>160</ele>
        <time>2011-02-27T14:21:40Z</time>
      </trkpt>
      <trkpt lat="43.90885" lon="4.08745">
        <ele>159</ele>
        <time>2011-02-27T14:21:42Z</time>
      </trkpt>
      <trkpt lat="43.90892" lon="4.08745">
        <ele>160</ele>
        <time>2011-02-27T14:21:44Z</time>
      </trkpt>
      <trkpt lat="43.90898" lon="4.08745">
        <ele>159</ele>
        <time>2011-02-27T14:21:46Z</time>
      </trkpt>
      <trkpt lat="43.90904" lon="4.08745">
        <ele>159</ele>
        <time>2011-02-27T14:21:48Z</time>
      </trkpt>
      <trkpt lat="43.9091" lon="4.08744">
        <ele>159</ele>
        <time>2011-02-27T14:21:50Z</time>
      </trkpt>
      <trkpt lat="43.90915" lon="4.08745">
        <ele>160</ele>
        <time>2011-02-27T14:21:52Z</time>
      </trkpt>
      <trkpt lat="43.9092" lon="4.08746">
        <ele>160</ele>
        <time>2011-02-27T14:21:54Z</time>
      </trkpt>
      <trkpt lat="43.90925" lon="4.08747">
        <ele>161</ele>
        <time>2011-02-27T14:21:56Z</time>
      </trkpt>
      <trkpt lat="43.90931" lon="4.08747">
        <ele>161</ele>
        <time>2011-02-27T14:21:59Z</time>
      </trkpt>
      <trkpt lat="43.90938" lon="4.08748">
        <ele>163</ele>
        <time>2011-02-27T14:22:02Z</time>
      </trkpt>
      <trkpt lat="43.90944" lon="4.08749">
        <ele>163</ele>
        <time>2011-02-27T14:22:05Z</time>
      </trkpt>
      <trkpt lat="43.90948" lon="4.08752">
        <ele>165</ele>
        <time>2011-02-27T14:22:09Z</time>
      </trkpt>
      <trkpt lat="43.90949" lon="4.08753">
        <ele>166</ele>
        <time>2011-02-27T14:22:13Z</time>
      </trkpt>
      <trkpt lat="43.90953" lon="4.08768">
        <ele>166</ele>
        <time>2011-02-27T14:22:18Z</time>
      </trkpt>
      <trkpt lat="43.90955" lon="4.0878">
        <ele>164</ele>
        <time>2011-02-27T14:22:28Z</time>
      </trkpt>
      <trkpt lat="43.9096" lon="4.08791">
        <ele>164</ele>
        <time>2011-02-27T14:22:46Z</time>
      </trkpt>
      <trkpt lat="43.9096" lon="4.08791">
        <ele>164</ele>
        <time>2011-02-27T14:22:52Z</time>
      </trkpt>
      <trkpt lat="43.90957" lon="4.08783">
        <ele>158</ele>
        <time>2011-02-27T14:23:55Z</time>
      </trkpt>
      <trkpt lat="43.90953" lon="4.08782">
        <ele>158</ele>
        <time>2011-02-27T14:23:57Z</time>
      </trkpt>
      <trkpt lat="43.90946" lon="4.08781">
        <ele>157</ele>
        <time>2011-02-27T14:23:59Z</time>
      </trkpt>
      <trkpt lat="43.90943" lon="4.08781">
        <ele>157</ele>
        <time>2011-02-27T14:24:00Z</time>
      </trkpt>
      <trkpt lat="43.90937" lon="4.08781">
        <ele>156</ele>
        <time>2011-02-27T14:24:03Z</time>
      </trkpt>
      <trkpt lat="43.90933" lon="4.08778">
        <ele>156</ele>
        <time>2011-02-27T14:24:06Z</time>
      </trkpt>
      <trkpt lat="43.90928" lon="4.08774">
        <ele>155</ele>
        <time>2011-02-27T14:24:09Z</time>
      </trkpt>
      <trkpt lat="43.90925" lon="4.0877">
        <ele>155</ele>
        <time>2011-02-27T14:24:11Z</time>
      </trkpt>
      <trkpt lat="43.90921" lon="4.08765">
        <ele>154</ele>
        <time>2011-02-27T14:24:13Z</time>
      </trkpt>
      <trkpt lat="43.9092" lon="4.08764">
        <ele>154</ele>
        <time>2011-02-27T14:24:14Z</time>
      </trkpt>
      <trkpt lat="43.90915" lon="4.08761">
        <ele>154</ele>
        <time>2011-02-27T14:24:16Z</time>
      </trkpt>
      <trkpt lat="43.9091" lon="4.08758">
        <ele>154</ele>
        <time>2011-02-27T14:24:18Z</time>
      </trkpt>
      <trkpt lat="43.90907" lon="4.08756">
        <ele>154</ele>
        <time>2011-02-27T14:24:19Z</time>
      </trkpt>
      <trkpt lat="43.909" lon="4.08753">
        <ele>153</ele>
        <time>2011-02-27T14:24:21Z</time>
      </trkpt>
      <trkpt lat="43.90893" lon="4.08752">
        <ele>154</ele>
        <time>2011-02-27T14:24:23Z</time>
      </trkpt>
      <trkpt lat="43.90884" lon="4.0875">
        <ele>154</ele>
        <time>2011-02-27T14:24:25Z</time>
      </trkpt>
      <trkpt lat="43.90876" lon="4.0875">
        <ele>154</ele>
        <time>2011-02-27T14:24:27Z</time>
      </trkpt>
      <trkpt lat="43.90871" lon="4.08749">
        <ele>154</ele>
        <time>2011-02-27T14:24:28Z</time>
      </trkpt>
      <trkpt lat="43.90862" lon="4.08749">
        <ele>154</ele>
        <time>2011-02-27T14:24:30Z</time>
      </trkpt>
      <trkpt lat="43.90858" lon="4.0875">
        <ele>154</ele>
        <time>2011-02-27T14:24:31Z</time>
      </trkpt>
      <trkpt lat="43.90853" lon="4.08751">
        <ele>154</ele>
        <time>2011-02-27T14:24:32Z</time>
      </trkpt>
      <trkpt lat="43.90849" lon="4.08752">
        <ele>155</ele>
        <time>2011-02-27T14:24:33Z</time>
      </trkpt>
      <trkpt lat="43.90844" lon="4.08753">
        <ele>155</ele>
        <time>2011-02-27T14:24:34Z</time>
      </trkpt>
      <trkpt lat="43.90839" lon="4.08754">
        <ele>155</ele>
        <time>2011-02-27T14:24:35Z</time>
      </trkpt>
      <trkpt lat="43.90835" lon="4.08756">
        <ele>155</ele>
        <time>2011-02-27T14:24:36Z</time>
      </trkpt>
      <trkpt lat="43.9083" lon="4.08758">
        <ele>155</ele>
        <time>2011-02-27T14:24:37Z</time>
      </trkpt>
      <trkpt lat="43.90825" lon="4.08759">
        <ele>156</ele>
        <time>2011-02-27T14:24:38Z</time>
      </trkpt>
      <trkpt lat="43.9082" lon="4.08761">
        <ele>156</ele>
        <time>2011-02-27T14:24:39Z</time>
      </trkpt>
      <trkpt lat="43.90815" lon="4.08762">
        <ele>156</ele>
        <time>2011-02-27T14:24:40Z</time>
      </trkpt>
      <trkpt lat="43.9081" lon="4.08762">
        <ele>156</ele>
        <time>2011-02-27T14:24:41Z</time>
      </trkpt>
      <trkpt lat="43.90804" lon="4.08761">
        <ele>157</ele>
        <time>2011-02-27T14:24:42Z</time>
      </trkpt>
      <trkpt lat="43.90798" lon="4.08759">
        <ele>157</ele>
        <time>2011-02-27T14:24:43Z</time>
      </trkpt>
      <trkpt lat="43.90792" lon="4.08757">
        <ele>157</ele>
        <time>2011-02-27T14:24:44Z</time>
      </trkpt>
      <trkpt lat="43.90786" lon="4.08755">
        <ele>157</ele>
        <time>2011-02-27T14:24:45Z</time>
      </trkpt>
      <trkpt lat="43.9078" lon="4.08753">
        <ele>157</ele>
        <time>2011-02-27T14:24:46Z</time>
      </trkpt>
      <trkpt lat="43.90774" lon="4.0875">
        <ele>157</ele>
        <time>2011-02-27T14:24:47Z</time>
      </trkpt>
      <trkpt lat="43.90768" lon="4.08747">
        <ele>158</ele>
        <time>2011-02-27T14:24:48Z</time>
      </trkpt>
      <trkpt lat="43.90761" lon="4.08745">
        <ele>158</ele>
        <time>2011-02-27T14:24:49Z</time>
      </trkpt>
      <trkpt lat="43.90754" lon="4.08743">
        <ele>157</ele>
        <time>2011-02-27T14:24:50Z</time>
      </trkpt>
      <trkpt lat="43.90747" lon="4.08741">
        <ele>157</ele>
        <time>2011-02-27T14:24:51Z</time>
      </trkpt>
      <trkpt lat="43.9074" lon="4.0874">
        <ele>157</ele>
        <time>2011-02-27T14:24:52Z</time>
      </trkpt>
      <trkpt lat="43.90732" lon="4.08738">
        <ele>158</ele>
        <time>2011-02-27T14:24:53Z</time>
      </trkpt>
      <trkpt lat="43.90724" lon="4.08737">
        <ele>158</ele>
        <time>2011-02-27T14:24:54Z</time>
      </trkpt>
      <trkpt lat="43.90717" lon="4.08735">
        <ele>158</ele>
        <time>2011-02-27T14:24:55Z</time>
      </trkpt>
      <trkpt lat="43.9071" lon="4.08733">
        <ele>158</ele>
        <time>2011-02-27T14:24:56Z</time>
      </trkpt>
      <trkpt lat="43.90702" lon="4.08731">
        <ele>157</ele>
        <time>2011-02-27T14:24:57Z</time>
      </trkpt>
      <trkpt lat="43.90694" lon="4.08729">
        <ele>157</ele>
        <time>2011-02-27T14:24:58Z</time>
      </trkpt>
      <trkpt lat="43.90687" lon="4.08727">
        <ele>157</ele>
        <time>2011-02-27T14:24:59Z</time>
      </trkpt>
      <trkpt lat="43.90679" lon="4.08724">
        <ele>157</ele>
        <time>2011-02-27T14:25:00Z</time>
      </trkpt>
      <trkpt lat="43.90671" lon="4.08722">
        <ele>156</ele>
        <time>2011-02-27T14:25:01Z</time>
      </trkpt>
      <trkpt lat="43.90662" lon="4.0872">
        <ele>156</ele>
        <time>2011-02-27T14:25:02Z</time>
      </trkpt>
      <trkpt lat="43.90653" lon="4.08718">
        <ele>156</ele>
        <time>2011-02-27T14:25:03Z</time>
      </trkpt>
      <trkpt lat="43.90644" lon="4.08717">
        <ele>155</ele>
        <time>2011-02-27T14:25:04Z</time>
      </trkpt>
      <trkpt lat="43.90635" lon="4.08717">
        <ele>154</ele>
        <time>2011-02-27T14:25:05Z</time>
      </trkpt>
      <trkpt lat="43.90626" lon="4.08718">
        <ele>154</ele>
        <time>2011-02-27T14:25:06Z</time>
      </trkpt>
      <trkpt lat="43.90617" lon="4.08721">
        <ele>153</ele>
        <time>2011-02-27T14:25:07Z</time>
      </trkpt>
      <trkpt lat="43.90608" lon="4.08723">
        <ele>153</ele>
        <time>2011-02-27T14:25:08Z</time>
      </trkpt>
      <trkpt lat="43.90598" lon="4.08726">
        <ele>153</ele>
        <time>2011-02-27T14:25:09Z</time>
      </trkpt>
      <trkpt lat="43.90589" lon="4.08728">
        <ele>153</ele>
        <time>2011-02-27T14:25:10Z</time>
      </trkpt>
      <trkpt lat="43.90579" lon="4.08729">
        <ele>152</ele>
        <time>2011-02-27T14:25:11Z</time>
      </trkpt>
      <trkpt lat="43.90569" lon="4.08729">
        <ele>152</ele>
        <time>2011-02-27T14:25:12Z</time>
      </trkpt>
      <trkpt lat="43.90559" lon="4.08727">
        <ele>151</ele>
        <time>2011-02-27T14:25:13Z</time>
      </trkpt>
      <trkpt lat="43.90549" lon="4.08725">
        <ele>151</ele>
        <time>2011-02-27T14:25:14Z</time>
      </trkpt>
      <trkpt lat="43.90539" lon="4.08723">
        <ele>150</ele>
        <time>2011-02-27T14:25:15Z</time>
      </trkpt>
      <trkpt lat="43.90529" lon="4.08721">
        <ele>149</ele>
        <time>2011-02-27T14:25:16Z</time>
      </trkpt>
      <trkpt lat="43.90519" lon="4.08718">
        <ele>149</ele>
        <time>2011-02-27T14:25:17Z</time>
      </trkpt>
      <trkpt lat="43.90509" lon="4.08716">
        <ele>148</ele>
        <time>2011-02-27T14:25:18Z</time>
      </trkpt>
      <trkpt lat="43.90499" lon="4.08714">
        <ele>148</ele>
        <time>2011-02-27T14:25:19Z</time>
      </trkpt>
      <trkpt lat="43.9049" lon="4.08712">
        <ele>148</ele>
        <time>2011-02-27T14:25:20Z</time>
      </trkpt>
      <trkpt lat="43.90481" lon="4.08709">
        <ele>147</ele>
        <time>2011-02-27T14:25:21Z</time>
      </trkpt>
      <trkpt lat="43.90472" lon="4.08707">
        <ele>146</ele>
        <time>2011-02-27T14:25:22Z</time>
      </trkpt>
      <trkpt lat="43.90463" lon="4.08705">
        <ele>146</ele>
        <time>2011-02-27T14:25:23Z</time>
      </trkpt>
      <trkpt lat="43.90455" lon="4.08703">
        <ele>145</ele>
        <time>2011-02-27T14:25:24Z</time>
      </trkpt>
      <trkpt lat="43.90446" lon="4.08701">
        <ele>144</ele>
        <time>2011-02-27T14:25:25Z</time>
      </trkpt>
      <trkpt lat="43.90437" lon="4.08701">
        <ele>144</ele>
        <time>2011-02-27T14:25:26Z</time>
      </trkpt>
      <trkpt lat="43.90429" lon="4.087">
        <ele>143</ele>
        <time>2011-02-27T14:25:27Z</time>
      </trkpt>
      <trkpt lat="43.9042" lon="4.087">
        <ele>142</ele>
        <time>2011-02-27T14:25:28Z</time>
      </trkpt>
      <trkpt lat="43.90412" lon="4.087">
        <ele>141</ele>
        <time>2011-02-27T14:25:29Z</time>
      </trkpt>
      <trkpt lat="43.90404" lon="4.087">
        <ele>140</ele>
        <time>2011-02-27T14:25:30Z</time>
      </trkpt>
      <trkpt lat="43.90396" lon="4.08701">
        <ele>140</ele>
        <time>2011-02-27T14:25:31Z</time>
      </trkpt>
      <trkpt lat="43.90388" lon="4.08701">
        <ele>139</ele>
        <time>2011-02-27T14:25:32Z</time>
      </trkpt>
      <trkpt lat="43.9038" lon="4.08702">
        <ele>139</ele>
        <time>2011-02-27T14:25:33Z</time>
      </trkpt>
      <trkpt lat="43.90372" lon="4.08702">
        <ele>138</ele>
        <time>2011-02-27T14:25:34Z</time>
      </trkpt>
      <trkpt lat="43.90365" lon="4.08703">
        <ele>138</ele>
        <time>2011-02-27T14:25:35Z</time>
      </trkpt>
      <trkpt lat="43.90357" lon="4.08703">
        <ele>137</ele>
        <time>2011-02-27T14:25:36Z</time>
      </trkpt>
      <trkpt lat="43.9035" lon="4.08704">
        <ele>137</ele>
        <time>2011-02-27T14:25:37Z</time>
      </trkpt>
      <trkpt lat="43.90342" lon="4.08705">
        <ele>137</ele>
        <time>2011-02-27T14:25:38Z</time>
      </trkpt>
      <trkpt lat="43.90335" lon="4.08705">
        <ele>136</ele>
        <time>2011-02-27T14:25:39Z</time>
      </trkpt>
      <trkpt lat="43.90327" lon="4.08706">
        <ele>136</ele>
        <time>2011-02-27T14:25:40Z</time>
      </trkpt>
      <trkpt lat="43.90319" lon="4.08707">
        <ele>136</ele>
        <time>2011-02-27T14:25:41Z</time>
      </trkpt>
      <trkpt lat="43.90311" lon="4.08707">
        <ele>135</ele>
        <time>2011-02-27T14:25:42Z</time>
      </trkpt>
      <trkpt lat="43.90302" lon="4.08708">
        <ele>135</ele>
        <time>2011-02-27T14:25:43Z</time>
      </trkpt>
      <trkpt lat="43.90294" lon="4.08709">
        <ele>134</ele>
        <time>2011-02-27T14:25:44Z</time>
      </trkpt>
      <trkpt lat="43.90285" lon="4.0871">
        <ele>134</ele>
        <time>2011-02-27T14:25:45Z</time>
      </trkpt>
      <trkpt lat="43.90277" lon="4.0871">
        <ele>134</ele>
        <time>2011-02-27T14:25:46Z</time>
      </trkpt>
      <trkpt lat="43.90268" lon="4.08711">
        <ele>133</ele>
        <time>2011-02-27T14:25:47Z</time>
      </trkpt>
      <trkpt lat="43.90258" lon="4.08712">
        <ele>133</ele>
        <time>2011-02-27T14:25:48Z</time>
      </trkpt>
      <trkpt lat="43.90249" lon="4.08713">
        <ele>133</ele>
        <time>2011-02-27T14:25:49Z</time>
      </trkpt>
      <trkpt lat="43.9024" lon="4.08714">
        <ele>133</ele>
        <time>2011-02-27T14:25:50Z</time>
      </trkpt>
      <trkpt lat="43.9023" lon="4.08715">
        <ele>133</ele>
        <time>2011-02-27T14:25:51Z</time>
      </trkpt>
      <trkpt lat="43.90221" lon="4.08716">
        <ele>133</ele>
        <time>2011-02-27T14:25:52Z</time>
      </trkpt>
      <trkpt lat="43.90211" lon="4.08717">
        <ele>133</ele>
        <time>2011-02-27T14:25:53Z</time>
      </trkpt>
      <trkpt lat="43.90202" lon="4.08718">
        <ele>133</ele>
        <time>2011-02-27T14:25:54Z</time>
      </trkpt>
      <trkpt lat="43.90192" lon="4.08718">
        <ele>132</ele>
        <time>2011-02-27T14:25:55Z</time>
      </trkpt>
      <trkpt lat="43.90183" lon="4.08719">
        <ele>132</ele>
        <time>2011-02-27T14:25:56Z</time>
      </trkpt>
      <trkpt lat="43.90173" lon="4.0872">
        <ele>132</ele>
        <time>2011-02-27T14:25:57Z</time>
      </trkpt>
      <trkpt lat="43.90163" lon="4.0872">
        <ele>132</ele>
        <time>2011-02-27T14:25:58Z</time>
      </trkpt>
      <trkpt lat="43.90153" lon="4.08721">
        <ele>132</ele>
        <time>2011-02-27T14:25:59Z</time>
      </trkpt>
      <trkpt lat="43.90143" lon="4.08722">
        <ele>132</ele>
        <time>2011-02-27T14:26:00Z</time>
      </trkpt>
      <trkpt lat="43.90134" lon="4.08723">
        <ele>132</ele>
        <time>2011-02-27T14:26:01Z</time>
      </trkpt>
      <trkpt lat="43.90124" lon="4.08723">
        <ele>132</ele>
        <time>2011-02-27T14:26:02Z</time>
      </trkpt>
      <trkpt lat="43.90115" lon="4.08724">
        <ele>132</ele>
        <time>2011-02-27T14:26:03Z</time>
      </trkpt>
      <trkpt lat="43.90106" lon="4.08724">
        <ele>132</ele>
        <time>2011-02-27T14:26:04Z</time>
      </trkpt>
      <trkpt lat="43.90098" lon="4.08724">
        <ele>132</ele>
        <time>2011-02-27T14:26:05Z</time>
      </trkpt>
      <trkpt lat="43.9009" lon="4.08725">
        <ele>132</ele>
        <time>2011-02-27T14:26:06Z</time>
      </trkpt>
      <trkpt lat="43.90083" lon="4.08725">
        <ele>131</ele>
        <time>2011-02-27T14:26:07Z</time>
      </trkpt>
      <trkpt lat="43.90076" lon="4.08725">
        <ele>131</ele>
        <time>2011-02-27T14:26:08Z</time>
      </trkpt>
      <trkpt lat="43.90069" lon="4.08725">
        <ele>131</ele>
        <time>2011-02-27T14:26:09Z</time>
      </trkpt>
      <trkpt lat="43.90064" lon="4.08723">
        <ele>131</ele>
        <time>2011-02-27T14:26:10Z</time>
      </trkpt>
      <trkpt lat="43.90059" lon="4.08719">
        <ele>130</ele>
        <time>2011-02-27T14:26:11Z</time>
      </trkpt>
      <trkpt lat="43.90056" lon="4.08712">
        <ele>130</ele>
        <time>2011-02-27T14:26:12Z</time>
      </trkpt>
      <trkpt lat="43.90054" lon="4.08706">
        <ele>130</ele>
        <time>2011-02-27T14:26:13Z</time>
      </trkpt>
      <trkpt lat="43.90052" lon="4.087">
        <ele>130</ele>
        <time>2011-02-27T14:26:14Z</time>
      </trkpt>
      <trkpt lat="43.90051" lon="4.08688">
        <ele>130</ele>
        <time>2011-02-27T14:26:16Z</time>
      </trkpt>
      <trkpt lat="43.9005" lon="4.08681">
        <ele>129</ele>
        <time>2011-02-27T14:26:17Z</time>
      </trkpt>
      <trkpt lat="43.9005" lon="4.08673">
        <ele>129</ele>
        <time>2011-02-27T14:26:18Z</time>
      </trkpt>
      <trkpt lat="43.90051" lon="4.08665">
        <ele>129</ele>
        <time>2011-02-27T14:26:19Z</time>
      </trkpt>
      <trkpt lat="43.90051" lon="4.08657">
        <ele>129</ele>
        <time>2011-02-27T14:26:20Z</time>
      </trkpt>
      <trkpt lat="43.90052" lon="4.08649">
        <ele>129</ele>
        <time>2011-02-27T14:26:21Z</time>
      </trkpt>
      <trkpt lat="43.90053" lon="4.08641">
        <ele>129</ele>
        <time>2011-02-27T14:26:22Z</time>
      </trkpt>
      <trkpt lat="43.90055" lon="4.08633">
        <ele>129</ele>
        <time>2011-02-27T14:26:23Z</time>
      </trkpt>
      <trkpt lat="43.90055" lon="4.08625">
        <ele>128</ele>
        <time>2011-02-27T14:26:24Z</time>
      </trkpt>
      <trkpt lat="43.90055" lon="4.08617">
        <ele>128</ele>
        <time>2011-02-27T14:26:25Z</time>
      </trkpt>
      <trkpt lat="43.90054" lon="4.08609">
        <ele>128</ele>
        <time>2011-02-27T14:26:26Z</time>
      </trkpt>
      <trkpt lat="43.90052" lon="4.08603">
        <ele>127</ele>
        <time>2011-02-27T14:26:27Z</time>
      </trkpt>
      <trkpt lat="43.9005" lon="4.08597">
        <ele>127</ele>
        <time>2011-02-27T14:26:28Z</time>
      </trkpt>
      <trkpt lat="43.90047" lon="4.08593">
        <ele>127</ele>
        <time>2011-02-27T14:26:29Z</time>
      </trkpt>
      <trkpt lat="43.90041" lon="4.08584">
        <ele>127</ele>
        <time>2011-02-27T14:26:31Z</time>
      </trkpt>
      <trkpt lat="43.90034" lon="4.08577">
        <ele>128</ele>
        <time>2011-02-27T14:26:33Z</time>
      </trkpt>
      <trkpt lat="43.90026" lon="4.08571">
        <ele>128</ele>
        <time>2011-02-27T14:26:35Z</time>
      </trkpt>
      <trkpt lat="43.90019" lon="4.08565">
        <ele>129</ele>
        <time>2011-02-27T14:26:37Z</time>
      </trkpt>
      <trkpt lat="43.90011" lon="4.0856">
        <ele>129</ele>
        <time>2011-02-27T14:26:39Z</time>
      </trkpt>
      <trkpt lat="43.90003" lon="4.08554">
        <ele>129</ele>
        <time>2011-02-27T14:26:41Z</time>
      </trkpt>
      <trkpt lat="43.89996" lon="4.08549">
        <ele>129</ele>
        <time>2011-02-27T14:26:43Z</time>
      </trkpt>
      <trkpt lat="43.89988" lon="4.08544">
        <ele>129</ele>
        <time>2011-02-27T14:26:45Z</time>
      </trkpt>
      <trkpt lat="43.8998" lon="4.08539">
        <ele>129</ele>
        <time>2011-02-27T14:26:47Z</time>
      </trkpt>
      <trkpt lat="43.89976" lon="4.08537">
        <ele>129</ele>
        <time>2011-02-27T14:26:48Z</time>
      </trkpt>
      <trkpt lat="43.89972" lon="4.08527">
        <ele>130</ele>
        <time>2011-02-27T14:26:50Z</time>
      </trkpt>
      <trkpt lat="43.89969" lon="4.08517">
        <ele>131</ele>
        <time>2011-02-27T14:26:52Z</time>
      </trkpt>
      <trkpt lat="43.89967" lon="4.08511">
        <ele>132</ele>
        <time>2011-02-27T14:26:53Z</time>
      </trkpt>
      <trkpt lat="43.89965" lon="4.08505">
        <ele>132</ele>
        <time>2011-02-27T14:26:54Z</time>
      </trkpt>
      <trkpt lat="43.89964" lon="4.08499">
        <ele>133</ele>
        <time>2011-02-27T14:26:55Z</time>
      </trkpt>
      <trkpt lat="43.89962" lon="4.08493">
        <ele>133</ele>
        <time>2011-02-27T14:26:56Z</time>
      </trkpt>
      <trkpt lat="43.8996" lon="4.08487">
        <ele>134</ele>
        <time>2011-02-27T14:26:57Z</time>
      </trkpt>
      <trkpt lat="43.89958" lon="4.08482">
        <ele>134</ele>
        <time>2011-02-27T14:26:58Z</time>
      </trkpt>
      <trkpt lat="43.89956" lon="4.08476">
        <ele>135</ele>
        <time>2011-02-27T14:26:59Z</time>
      </trkpt>
      <trkpt lat="43.89954" lon="4.0847">
        <ele>135</ele>
        <time>2011-02-27T14:27:00Z</time>
      </trkpt>
      <trkpt lat="43.89952" lon="4.08464">
        <ele>136</ele>
        <time>2011-02-27T14:27:01Z</time>
      </trkpt>
      <trkpt lat="43.89949" lon="4.08459">
        <ele>136</ele>
        <time>2011-02-27T14:27:02Z</time>
      </trkpt>
      <trkpt lat="43.89946" lon="4.08454">
        <ele>136</ele>
        <time>2011-02-27T14:27:03Z</time>
      </trkpt>
      <trkpt lat="43.89943" lon="4.08449">
        <ele>137</ele>
        <time>2011-02-27T14:27:04Z</time>
      </trkpt>
      <trkpt lat="43.8994" lon="4.08444">
        <ele>137</ele>
        <time>2011-02-27T14:27:05Z</time>
      </trkpt>
      <trkpt lat="43.89937" lon="4.08438">
        <ele>137</ele>
        <time>2011-02-27T14:27:06Z</time>
      </trkpt>
      <trkpt lat="43.89935" lon="4.08433">
        <ele>138</ele>
        <time>2011-02-27T14:27:07Z</time>
      </trkpt>
      <trkpt lat="43.89933" lon="4.08427">
        <ele>138</ele>
        <time>2011-02-27T14:27:08Z</time>
      </trkpt>
      <trkpt lat="43.8993" lon="4.08422">
        <ele>138</ele>
        <time>2011-02-27T14:27:09Z</time>
      </trkpt>
      <trkpt lat="43.89925" lon="4.08411">
        <ele>138</ele>
        <time>2011-02-27T14:27:11Z</time>
      </trkpt>
      <trkpt lat="43.89921" lon="4.08402">
        <ele>139</ele>
        <time>2011-02-27T14:27:13Z</time>
      </trkpt>
      <trkpt lat="43.89917" lon="4.08394">
        <ele>139</ele>
        <time>2011-02-27T14:27:15Z</time>
      </trkpt>
      <trkpt lat="43.89913" lon="4.08385">
        <ele>139</ele>
        <time>2011-02-27T14:27:17Z</time>
      </trkpt>
      <trkpt lat="43.89908" lon="4.08376">
        <ele>140</ele>
        <time>2011-02-27T14:27:19Z</time>
      </trkpt>
      <trkpt lat="43.89905" lon="4.08368">
        <ele>140</ele>
        <time>2011-02-27T14:27:21Z</time>
      </trkpt>
      <trkpt lat="43.89904" lon="4.08366">
        <ele>140</ele>
        <time>2011-02-27T14:27:22Z</time>
      </trkpt>
      <trkpt lat="43.899" lon="4.08361">
        <ele>139</ele>
        <time>2011-02-27T14:27:24Z</time>
      </trkpt>
      <trkpt lat="43.89896" lon="4.08357">
        <ele>139</ele>
        <time>2011-02-27T14:27:26Z</time>
      </trkpt>
      <trkpt lat="43.89891" lon="4.08353">
        <ele>140</ele>
        <time>2011-02-27T14:27:28Z</time>
      </trkpt>
      <trkpt lat="43.89889" lon="4.08351">
        <ele>140</ele>
        <time>2011-02-27T14:27:29Z</time>
      </trkpt>
      <trkpt lat="43.89886" lon="4.08347">
        <ele>139</ele>
        <time>2011-02-27T14:27:31Z</time>
      </trkpt>
      <trkpt lat="43.8988" lon="4.08343">
        <ele>138</ele>
        <time>2011-02-27T14:27:34Z</time>
      </trkpt>
      <trkpt lat="43.89877" lon="4.08329">
        <ele>121</ele>
        <time>2011-02-27T14:28:08Z</time>
      </trkpt>
      <trkpt lat="43.89874" lon="4.08324">
        <ele>124</ele>
        <time>2011-02-27T14:28:36Z</time>
      </trkpt>
      <trkpt lat="43.89869" lon="4.08323">
        <ele>125</ele>
        <time>2011-02-27T14:28:38Z</time>
      </trkpt>
      <trkpt lat="43.8987" lon="4.08317">
        <ele>130</ele>
        <time>2011-02-27T14:28:42Z</time>
      </trkpt>
      <trkpt lat="43.89874" lon="4.08314">
        <ele>132</ele>
        <time>2011-02-27T14:28:44Z</time>
      </trkpt>
      <trkpt lat="43.8988" lon="4.08311">
        <ele>134</ele>
        <time>2011-02-27T14:28:46Z</time>
      </trkpt>
      <trkpt lat="43.89885" lon="4.08307">
        <ele>135</ele>
        <time>2011-02-27T14:28:48Z</time>
      </trkpt>
      <trkpt lat="43.89888" lon="4.08304">
        <ele>136</ele>
        <time>2011-02-27T14:28:49Z</time>
      </trkpt>
      <trkpt lat="43.89893" lon="4.08299">
        <ele>137</ele>
        <time>2011-02-27T14:28:51Z</time>
      </trkpt>
      <trkpt lat="43.89897" lon="4.08292">
        <ele>137</ele>
        <time>2011-02-27T14:28:53Z</time>
      </trkpt>
      <trkpt lat="43.899" lon="4.08284">
        <ele>138</ele>
        <time>2011-02-27T14:28:55Z</time>
      </trkpt>
      <trkpt lat="43.89901" lon="4.0828">
        <ele>138</ele>
        <time>2011-02-27T14:28:56Z</time>
      </trkpt>
      <trkpt lat="43.899" lon="4.0827">
        <ele>138</ele>
        <time>2011-02-27T14:28:58Z</time>
      </trkpt>
      <trkpt lat="43.89899" lon="4.08266">
        <ele>138</ele>
        <time>2011-02-27T14:28:59Z</time>
      </trkpt>
      <trkpt lat="43.89896" lon="4.08258">
        <ele>139</ele>
        <time>2011-02-27T14:29:01Z</time>
      </trkpt>
      <trkpt lat="43.89894" lon="4.08249">
        <ele>141</ele>
        <time>2011-02-27T14:29:03Z</time>
      </trkpt>
      <trkpt lat="43.89892" lon="4.0824">
        <ele>142</ele>
        <time>2011-02-27T14:29:05Z</time>
      </trkpt>
      <trkpt lat="43.89891" lon="4.0823">
        <ele>143</ele>
        <time>2011-02-27T14:29:07Z</time>
      </trkpt>
      <trkpt lat="43.8989" lon="4.08225">
        <ele>143</ele>
        <time>2011-02-27T14:29:08Z</time>
      </trkpt>
      <trkpt lat="43.89889" lon="4.08215">
        <ele>142</ele>
        <time>2011-02-27T14:29:10Z</time>
      </trkpt>
      <trkpt lat="43.89888" lon="4.08204">
        <ele>142</ele>
        <time>2011-02-27T14:29:12Z</time>
      </trkpt>
      <trkpt lat="43.89888" lon="4.08193">
        <ele>141</ele>
        <time>2011-02-27T14:29:14Z</time>
      </trkpt>
      <trkpt lat="43.89887" lon="4.08182">
        <ele>141</ele>
        <time>2011-02-27T14:29:16Z</time>
      </trkpt>
      <trkpt lat="43.89887" lon="4.0817">
        <ele>140</ele>
        <time>2011-02-27T14:29:18Z</time>
      </trkpt>
      <trkpt lat="43.89886" lon="4.08164">
        <ele>140</ele>
        <time>2011-02-27T14:29:19Z</time>
      </trkpt>
      <trkpt lat="43.89885" lon="4.08151">
        <ele>140</ele>
        <time>2011-02-27T14:29:21Z</time>
      </trkpt>
      <trkpt lat="43.89884" lon="4.08139">
        <ele>140</ele>
        <time>2011-02-27T14:29:23Z</time>
      </trkpt>
      <trkpt lat="43.89882" lon="4.08127">
        <ele>140</ele>
        <time>2011-02-27T14:29:25Z</time>
      </trkpt>
      <trkpt lat="43.89881" lon="4.08122">
        <ele>140</ele>
        <time>2011-02-27T14:29:26Z</time>
      </trkpt>
      <trkpt lat="43.89878" lon="4.0811">
        <ele>140</ele>
        <time>2011-02-27T14:29:28Z</time>
      </trkpt>
      <trkpt lat="43.89875" lon="4.08099">
        <ele>140</ele>
        <time>2011-02-27T14:29:30Z</time>
      </trkpt>
      <trkpt lat="43.89872" lon="4.08087">
        <ele>140</ele>
        <time>2011-02-27T14:29:32Z</time>
      </trkpt>
      <trkpt lat="43.89869" lon="4.08075">
        <ele>141</ele>
        <time>2011-02-27T14:29:34Z</time>
      </trkpt>
      <trkpt lat="43.89866" lon="4.08064">
        <ele>142</ele>
        <time>2011-02-27T14:29:36Z</time>
      </trkpt>
      <trkpt lat="43.89865" lon="4.08058">
        <ele>142</ele>
        <time>2011-02-27T14:29:37Z</time>
      </trkpt>
      <trkpt lat="43.89863" lon="4.08052">
        <ele>142</ele>
        <time>2011-02-27T14:29:38Z</time>
      </trkpt>
      <trkpt lat="43.89862" lon="4.08046">
        <ele>143</ele>
        <time>2011-02-27T14:29:39Z</time>
      </trkpt>
      <trkpt lat="43.8986" lon="4.0804">
        <ele>143</ele>
        <time>2011-02-27T14:29:40Z</time>
      </trkpt>
      <trkpt lat="43.89858" lon="4.08034">
        <ele>143</ele>
        <time>2011-02-27T14:29:41Z</time>
      </trkpt>
      <trkpt lat="43.89856" lon="4.08029">
        <ele>143</ele>
        <time>2011-02-27T14:29:42Z</time>
      </trkpt>
      <trkpt lat="43.89854" lon="4.08023">
        <ele>144</ele>
        <time>2011-02-27T14:29:43Z</time>
      </trkpt>
      <trkpt lat="43.8985" lon="4.08012">
        <ele>144</ele>
        <time>2011-02-27T14:29:45Z</time>
      </trkpt>
      <trkpt lat="43.89845" lon="4.08002">
        <ele>144</ele>
        <time>2011-02-27T14:29:47Z</time>
      </trkpt>
      <trkpt lat="43.8984" lon="4.07992">
        <ele>145</ele>
        <time>2011-02-27T14:29:49Z</time>
      </trkpt>
      <trkpt lat="43.89835" lon="4.07982">
        <ele>145</ele>
        <time>2011-02-27T14:29:51Z</time>
      </trkpt>
      <trkpt lat="43.8983" lon="4.07972">
        <ele>145</ele>
        <time>2011-02-27T14:29:53Z</time>
      </trkpt>
      <trkpt lat="43.89826" lon="4.07963">
        <ele>146</ele>
        <time>2011-02-27T14:29:55Z</time>
      </trkpt>
      <trkpt lat="43.89821" lon="4.07953">
        <ele>146</ele>
        <time>2011-02-27T14:29:57Z</time>
      </trkpt>
      <trkpt lat="43.89818" lon="4.07942">
        <ele>147</ele>
        <time>2011-02-27T14:29:59Z</time>
      </trkpt>
      <trkpt lat="43.89815" lon="4.0793">
        <ele>147</ele>
        <time>2011-02-27T14:30:01Z</time>
      </trkpt>
      <trkpt lat="43.89813" lon="4.07918">
        <ele>147</ele>
        <time>2011-02-27T14:30:03Z</time>
      </trkpt>
      <trkpt lat="43.89812" lon="4.07912">
        <ele>147</ele>
        <time>2011-02-27T14:30:04Z</time>
      </trkpt>
      <trkpt lat="43.89812" lon="4.07905">
        <ele>147</ele>
        <time>2011-02-27T14:30:05Z</time>
      </trkpt>
      <trkpt lat="43.89811" lon="4.07899">
        <ele>147</ele>
        <time>2011-02-27T14:30:06Z</time>
      </trkpt>
      <trkpt lat="43.8981" lon="4.07892">
        <ele>147</ele>
        <time>2011-02-27T14:30:07Z</time>
      </trkpt>
      <trkpt lat="43.8981" lon="4.07886">
        <ele>147</ele>
        <time>2011-02-27T14:30:08Z</time>
      </trkpt>
      <trkpt lat="43.89809" lon="4.07879">
        <ele>147</ele>
        <time>2011-02-27T14:30:09Z</time>
      </trkpt>
      <trkpt lat="43.89809" lon="4.07872">
        <ele>147</ele>
        <time>2011-02-27T14:30:10Z</time>
      </trkpt>
      <trkpt lat="43.89808" lon="4.07865">
        <ele>147</ele>
        <time>2011-02-27T14:30:11Z</time>
      </trkpt>
      <trkpt lat="43.89808" lon="4.07859">
        <ele>147</ele>
        <time>2011-02-27T14:30:12Z</time>
      </trkpt>
      <trkpt lat="43.89807" lon="4.07852">
        <ele>147</ele>
        <time>2011-02-27T14:30:13Z</time>
      </trkpt>
      <trkpt lat="43.89806" lon="4.07845">
        <ele>147</ele>
        <time>2011-02-27T14:30:14Z</time>
      </trkpt>
      <trkpt lat="43.89806" lon="4.07839">
        <ele>147</ele>
        <time>2011-02-27T14:30:15Z</time>
      </trkpt>
      <trkpt lat="43.89805" lon="4.07832">
        <ele>147</ele>
        <time>2011-02-27T14:30:16Z</time>
      </trkpt>
      <trkpt lat="43.89805" lon="4.07825">
        <ele>146</ele>
        <time>2011-02-27T14:30:17Z</time>
      </trkpt>
      <trkpt lat="43.89804" lon="4.07818">
        <ele>146</ele>
        <time>2011-02-27T14:30:18Z</time>
      </trkpt>
      <trkpt lat="43.89804" lon="4.07812">
        <ele>145</ele>
        <time>2011-02-27T14:30:19Z</time>
      </trkpt>
      <trkpt lat="43.89804" lon="4.07805">
        <ele>145</ele>
        <time>2011-02-27T14:30:20Z</time>
      </trkpt>
      <trkpt lat="43.89805" lon="4.07799">
        <ele>145</ele>
        <time>2011-02-27T14:30:21Z</time>
      </trkpt>
      <trkpt lat="43.89806" lon="4.07792">
        <ele>145</ele>
        <time>2011-02-27T14:30:22Z</time>
      </trkpt>
      <trkpt lat="43.89807" lon="4.07786">
        <ele>145</ele>
        <time>2011-02-27T14:30:23Z</time>
      </trkpt>
      <trkpt lat="43.89809" lon="4.07779">
        <ele>145</ele>
        <time>2011-02-27T14:30:24Z</time>
      </trkpt>
      <trkpt lat="43.89811" lon="4.07774">
        <ele>146</ele>
        <time>2011-02-27T14:30:25Z</time>
      </trkpt>
      <trkpt lat="43.89814" lon="4.07768">
        <ele>146</ele>
        <time>2011-02-27T14:30:26Z</time>
      </trkpt>
      <trkpt lat="43.89817" lon="4.07762">
        <ele>146</ele>
        <time>2011-02-27T14:30:27Z</time>
      </trkpt>
      <trkpt lat="43.89821" lon="4.07757">
        <ele>146</ele>
        <time>2011-02-27T14:30:28Z</time>
      </trkpt>
      <trkpt lat="43.89824" lon="4.07752">
        <ele>146</ele>
        <time>2011-02-27T14:30:29Z</time>
      </trkpt>
      <trkpt lat="43.89828" lon="4.07747">
        <ele>146</ele>
        <time>2011-02-27T14:30:30Z</time>
      </trkpt>
      <trkpt lat="43.89832" lon="4.07742">
        <ele>146</ele>
        <time>2011-02-27T14:30:31Z</time>
      </trkpt>
      <trkpt lat="43.89835" lon="4.07738">
        <ele>146</ele>
        <time>2011-02-27T14:30:32Z</time>
      </trkpt>
      <trkpt lat="43.89839" lon="4.07733">
        <ele>145</ele>
        <time>2011-02-27T14:30:33Z</time>
      </trkpt>
      <trkpt lat="43.89842" lon="4.07728">
        <ele>145</ele>
        <time>2011-02-27T14:30:34Z</time>
      </trkpt>
      <trkpt lat="43.89846" lon="4.07723">
        <ele>146</ele>
        <time>2011-02-27T14:30:35Z</time>
      </trkpt>
      <trkpt lat="43.89849" lon="4.07718">
        <ele>146</ele>
        <time>2011-02-27T14:30:36Z</time>
      </trkpt>
      <trkpt lat="43.89852" lon="4.07713">
        <ele>146</ele>
        <time>2011-02-27T14:30:37Z</time>
      </trkpt>
      <trkpt lat="43.89854" lon="4.07708">
        <ele>146</ele>
        <time>2011-02-27T14:30:38Z</time>
      </trkpt>
      <trkpt lat="43.89859" lon="4.07698">
        <ele>145</ele>
        <time>2011-02-27T14:30:40Z</time>
      </trkpt>
      <trkpt lat="43.89862" lon="4.07687">
        <ele>146</ele>
        <time>2011-02-27T14:30:42Z</time>
      </trkpt>
      <trkpt lat="43.89864" lon="4.07681">
        <ele>146</ele>
        <time>2011-02-27T14:30:43Z</time>
      </trkpt>
      <trkpt lat="43.89867" lon="4.0767">
        <ele>146</ele>
        <time>2011-02-27T14:30:45Z</time>
      </trkpt>
      <trkpt lat="43.89869" lon="4.07658">
        <ele>146</ele>
        <time>2011-02-27T14:30:47Z</time>
      </trkpt>
      <trkpt lat="43.89871" lon="4.07652">
        <ele>146</ele>
        <time>2011-02-27T14:30:48Z</time>
      </trkpt>
      <trkpt lat="43.89872" lon="4.07646">
        <ele>146</ele>
        <time>2011-02-27T14:30:49Z</time>
      </trkpt>
      <trkpt lat="43.89874" lon="4.0764">
        <ele>146</ele>
        <time>2011-02-27T14:30:50Z</time>
      </trkpt>
      <trkpt lat="43.89876" lon="4.07634">
        <ele>146</ele>
        <time>2011-02-27T14:30:51Z</time>
      </trkpt>
      <trkpt lat="43.89877" lon="4.07627">
        <ele>146</ele>
        <time>2011-02-27T14:30:52Z</time>
      </trkpt>
      <trkpt lat="43.89878" lon="4.07621">
        <ele>146</ele>
        <time>2011-02-27T14:30:53Z</time>
      </trkpt>
      <trkpt lat="43.89879" lon="4.07614">
        <ele>146</ele>
        <time>2011-02-27T14:30:54Z</time>
      </trkpt>
      <trkpt lat="43.89879" lon="4.07608">
        <ele>146</ele>
        <time>2011-02-27T14:30:55Z</time>
      </trkpt>
      <trkpt lat="43.89879" lon="4.07601">
        <ele>146</ele>
        <time>2011-02-27T14:30:56Z</time>
      </trkpt>
      <trkpt lat="43.89879" lon="4.07594">
        <ele>146</ele>
        <time>2011-02-27T14:30:57Z</time>
      </trkpt>
      <trkpt lat="43.89878" lon="4.07588">
        <ele>146</ele>
        <time>2011-02-27T14:30:58Z</time>
      </trkpt>
      <trkpt lat="43.89876" lon="4.07581">
        <ele>146</ele>
        <time>2011-02-27T14:30:59Z</time>
      </trkpt>
      <trkpt lat="43.89875" lon="4.07575">
        <ele>146</ele>
        <time>2011-02-27T14:31:00Z</time>
      </trkpt>
      <trkpt lat="43.89873" lon="4.07569">
        <ele>146</ele>
        <time>2011-02-27T14:31:01Z</time>
      </trkpt>
      <trkpt lat="43.8987" lon="4.07563">
        <ele>146</ele>
        <time>2011-02-27T14:31:02Z</time>
      </trkpt>
      <trkpt lat="43.89868" lon="4.07558">
        <ele>147</ele>
        <time>2011-02-27T14:31:03Z</time>
      </trkpt>
      <trkpt lat="43.89865" lon="4.07553">
        <ele>147</ele>
        <time>2011-02-27T14:31:04Z</time>
      </trkpt>
      <trkpt lat="43.8986" lon="4.07545">
        <ele>148</ele>
        <time>2011-02-27T14:31:06Z</time>
      </trkpt>
      <trkpt lat="43.89854" lon="4.07538">
        <ele>149</ele>
        <time>2011-02-27T14:31:08Z</time>
      </trkpt>
      <trkpt lat="43.89851" lon="4.07535">
        <ele>150</ele>
        <time>2011-02-27T14:31:09Z</time>
      </trkpt>
      <trkpt lat="43.89845" lon="4.07528">
        <ele>151</ele>
        <time>2011-02-27T14:31:11Z</time>
      </trkpt>
      <trkpt lat="43.89839" lon="4.0752">
        <ele>152</ele>
        <time>2011-02-27T14:31:13Z</time>
      </trkpt>
      <trkpt lat="43.89834" lon="4.07512">
        <ele>153</ele>
        <time>2011-02-27T14:31:15Z</time>
      </trkpt>
      <trkpt lat="43.89829" lon="4.07503">
        <ele>154</ele>
        <time>2011-02-27T14:31:17Z</time>
      </trkpt>
      <trkpt lat="43.89825" lon="4.07493">
        <ele>156</ele>
        <time>2011-02-27T14:31:19Z</time>
      </trkpt>
      <trkpt lat="43.89823" lon="4.07487">
        <ele>157</ele>
        <time>2011-02-27T14:31:20Z</time>
      </trkpt>
      <trkpt lat="43.8982" lon="4.07476">
        <ele>158</ele>
        <time>2011-02-27T14:31:22Z</time>
      </trkpt>
      <trkpt lat="43.89818" lon="4.07464">
        <ele>159</ele>
        <time>2011-02-27T14:31:24Z</time>
      </trkpt>
      <trkpt lat="43.89817" lon="4.07452">
        <ele>159</ele>
        <time>2011-02-27T14:31:26Z</time>
      </trkpt>
      <trkpt lat="43.89816" lon="4.0744">
        <ele>160</ele>
        <time>2011-02-27T14:31:28Z</time>
      </trkpt>
      <trkpt lat="43.89813" lon="4.07428">
        <ele>160</ele>
        <time>2011-02-27T14:31:30Z</time>
      </trkpt>
      <trkpt lat="43.89813" lon="4.07421">
        <ele>161</ele>
        <time>2011-02-27T14:31:31Z</time>
      </trkpt>
      <trkpt lat="43.89812" lon="4.07415">
        <ele>161</ele>
        <time>2011-02-27T14:31:32Z</time>
      </trkpt>
      <trkpt lat="43.89811" lon="4.07408">
        <ele>162</ele>
        <time>2011-02-27T14:31:33Z</time>
      </trkpt>
      <trkpt lat="43.89812" lon="4.07401">
        <ele>162</ele>
        <time>2011-02-27T14:31:34Z</time>
      </trkpt>
      <trkpt lat="43.89812" lon="4.07395">
        <ele>163</ele>
        <time>2011-02-27T14:31:35Z</time>
      </trkpt>
      <trkpt lat="43.89813" lon="4.07387">
        <ele>164</ele>
        <time>2011-02-27T14:31:36Z</time>
      </trkpt>
      <trkpt lat="43.89816" lon="4.0738">
        <ele>164</ele>
        <time>2011-02-27T14:31:37Z</time>
      </trkpt>
      <trkpt lat="43.89819" lon="4.07373">
        <ele>165</ele>
        <time>2011-02-27T14:31:38Z</time>
      </trkpt>
      <trkpt lat="43.89822" lon="4.07366">
        <ele>165</ele>
        <time>2011-02-27T14:31:39Z</time>
      </trkpt>
      <trkpt lat="43.89827" lon="4.07359">
        <ele>166</ele>
        <time>2011-02-27T14:31:40Z</time>
      </trkpt>
      <trkpt lat="43.89831" lon="4.07353">
        <ele>166</ele>
        <time>2011-02-27T14:31:41Z</time>
      </trkpt>
      <trkpt lat="43.89836" lon="4.07346">
        <ele>167</ele>
        <time>2011-02-27T14:31:42Z</time>
      </trkpt>
      <trkpt lat="43.8984" lon="4.0734">
        <ele>167</ele>
        <time>2011-02-27T14:31:43Z</time>
      </trkpt>
      <trkpt lat="43.89845" lon="4.07334">
        <ele>167</ele>
        <time>2011-02-27T14:31:44Z</time>
      </trkpt>
      <trkpt lat="43.8985" lon="4.07329">
        <ele>167</ele>
        <time>2011-02-27T14:31:45Z</time>
      </trkpt>
      <trkpt lat="43.89854" lon="4.07324">
        <ele>167</ele>
        <time>2011-02-27T14:31:46Z</time>
      </trkpt>
      <trkpt lat="43.89859" lon="4.07318">
        <ele>167</ele>
        <time>2011-02-27T14:31:47Z</time>
      </trkpt>
      <trkpt lat="43.89863" lon="4.07313">
        <ele>167</ele>
        <time>2011-02-27T14:31:48Z</time>
      </trkpt>
      <trkpt lat="43.89867" lon="4.07309">
        <ele>167</ele>
        <time>2011-02-27T14:31:49Z</time>
      </trkpt>
      <trkpt lat="43.89872" lon="4.07304">
        <ele>166</ele>
        <time>2011-02-27T14:31:50Z</time>
      </trkpt>
      <trkpt lat="43.89876" lon="4.073">
        <ele>166</ele>
        <time>2011-02-27T14:31:51Z</time>
      </trkpt>
      <trkpt lat="43.89881" lon="4.07296">
        <ele>166</ele>
        <time>2011-02-27T14:31:52Z</time>
      </trkpt>
      <trkpt lat="43.89885" lon="4.07293">
        <ele>167</ele>
        <time>2011-02-27T14:31:53Z</time>
      </trkpt>
      <trkpt lat="43.8989" lon="4.0729">
        <ele>167</ele>
        <time>2011-02-27T14:31:54Z</time>
      </trkpt>
      <trkpt lat="43.89895" lon="4.07287">
        <ele>167</ele>
        <time>2011-02-27T14:31:55Z</time>
      </trkpt>
      <trkpt lat="43.89899" lon="4.07284">
        <ele>167</ele>
        <time>2011-02-27T14:31:56Z</time>
      </trkpt>
      <trkpt lat="43.89904" lon="4.07282">
        <ele>167</ele>
        <time>2011-02-27T14:31:57Z</time>
      </trkpt>
      <trkpt lat="43.89909" lon="4.07281">
        <ele>167</ele>
        <time>2011-02-27T14:31:58Z</time>
      </trkpt>
      <trkpt lat="43.89913" lon="4.07279">
        <ele>167</ele>
        <time>2011-02-27T14:31:59Z</time>
      </trkpt>
      <trkpt lat="43.89918" lon="4.07278">
        <ele>167</ele>
        <time>2011-02-27T14:32:00Z</time>
      </trkpt>
      <trkpt lat="43.89923" lon="4.07276">
        <ele>167</ele>
        <time>2011-02-27T14:32:01Z</time>
      </trkpt>
      <trkpt lat="43.89927" lon="4.07275">
        <ele>167</ele>
        <time>2011-02-27T14:32:02Z</time>
      </trkpt>
      <trkpt lat="43.89932" lon="4.07273">
        <ele>167</ele>
        <time>2011-02-27T14:32:03Z</time>
      </trkpt>
      <trkpt lat="43.89936" lon="4.07272">
        <ele>168</ele>
        <time>2011-02-27T14:32:04Z</time>
      </trkpt>
      <trkpt lat="43.89941" lon="4.0727">
        <ele>168</ele>
        <time>2011-02-27T14:32:05Z</time>
      </trkpt>
      <trkpt lat="43.89945" lon="4.07269">
        <ele>169</ele>
        <time>2011-02-27T14:32:06Z</time>
      </trkpt>
      <trkpt lat="43.8995" lon="4.07266">
        <ele>169</ele>
        <time>2011-02-27T14:32:07Z</time>
      </trkpt>
      <trkpt lat="43.89954" lon="4.07263">
        <ele>170</ele>
        <time>2011-02-27T14:32:08Z</time>
      </trkpt>
      <trkpt lat="43.89958" lon="4.07258">
        <ele>170</ele>
        <time>2011-02-27T14:32:09Z</time>
      </trkpt>
      <trkpt lat="43.89961" lon="4.07253">
        <ele>171</ele>
        <time>2011-02-27T14:32:10Z</time>
      </trkpt>
      <trkpt lat="43.89963" lon="4.07247">
        <ele>172</ele>
        <time>2011-02-27T14:32:11Z</time>
      </trkpt>
      <trkpt lat="43.89965" lon="4.07241">
        <ele>172</ele>
        <time>2011-02-27T14:32:12Z</time>
      </trkpt>
      <trkpt lat="43.89966" lon="4.07235">
        <ele>173</ele>
        <time>2011-02-27T14:32:13Z</time>
      </trkpt>
      <trkpt lat="43.89966" lon="4.07224">
        <ele>174</ele>
        <time>2011-02-27T14:32:15Z</time>
      </trkpt>
      <trkpt lat="43.89961" lon="4.07216">
        <ele>175</ele>
        <time>2011-02-27T14:32:17Z</time>
      </trkpt>
      <trkpt lat="43.89954" lon="4.07211">
        <ele>176</ele>
        <time>2011-02-27T14:32:19Z</time>
      </trkpt>
      <trkpt lat="43.89946" lon="4.0721">
        <ele>176</ele>
        <time>2011-02-27T14:32:21Z</time>
      </trkpt>
      <trkpt lat="43.89938" lon="4.07211">
        <ele>175</ele>
        <time>2011-02-27T14:32:23Z</time>
      </trkpt>
      <trkpt lat="43.89929" lon="4.07212">
        <ele>175</ele>
        <time>2011-02-27T14:32:25Z</time>
      </trkpt>
      <trkpt lat="43.89924" lon="4.07213">
        <ele>175</ele>
        <time>2011-02-27T14:32:26Z</time>
      </trkpt>
      <trkpt lat="43.8992" lon="4.07213">
        <ele>175</ele>
        <time>2011-02-27T14:32:27Z</time>
      </trkpt>
      <trkpt lat="43.89915" lon="4.07214">
        <ele>175</ele>
        <time>2011-02-27T14:32:28Z</time>
      </trkpt>
      <trkpt lat="43.89911" lon="4.07215">
        <ele>174</ele>
        <time>2011-02-27T14:32:29Z</time>
      </trkpt>
      <trkpt lat="43.89906" lon="4.07215">
        <ele>174</ele>
        <time>2011-02-27T14:32:30Z</time>
      </trkpt>
      <trkpt lat="43.89901" lon="4.07215">
        <ele>174</ele>
        <time>2011-02-27T14:32:31Z</time>
      </trkpt>
      <trkpt lat="43.89897" lon="4.07215">
        <ele>174</ele>
        <time>2011-02-27T14:32:32Z</time>
      </trkpt>
      <trkpt lat="43.89892" lon="4.07215">
        <ele>174</ele>
        <time>2011-02-27T14:32:33Z</time>
      </trkpt>
      <trkpt lat="43.89887" lon="4.07216">
        <ele>173</ele>
        <time>2011-02-27T14:32:34Z</time>
      </trkpt>
      <trkpt lat="43.89883" lon="4.07216">
        <ele>173</ele>
        <time>2011-02-27T14:32:35Z</time>
      </trkpt>
      <trkpt lat="43.89878" lon="4.07215">
        <ele>173</ele>
        <time>2011-02-27T14:32:36Z</time>
      </trkpt>
      <trkpt lat="43.89874" lon="4.07215">
        <ele>172</ele>
        <time>2011-02-27T14:32:37Z</time>
      </trkpt>
      <trkpt lat="43.89869" lon="4.07215">
        <ele>172</ele>
        <time>2011-02-27T14:32:38Z</time>
      </trkpt>
      <trkpt lat="43.89864" lon="4.07215">
        <ele>172</ele>
        <time>2011-02-27T14:32:39Z</time>
      </trkpt>
      <trkpt lat="43.89859" lon="4.07214">
        <ele>171</ele>
        <time>2011-02-27T14:32:40Z</time>
      </trkpt>
      <trkpt lat="43.89855" lon="4.07214">
        <ele>171</ele>
        <time>2011-02-27T14:32:41Z</time>
      </trkpt>
      <trkpt lat="43.8985" lon="4.07214">
        <ele>171</ele>
        <time>2011-02-27T14:32:42Z</time>
      </trkpt>
      <trkpt lat="43.89845" lon="4.07214">
        <ele>171</ele>
        <time>2011-02-27T14:32:43Z</time>
      </trkpt>
      <trkpt lat="43.8984" lon="4.07213">
        <ele>171</ele>
        <time>2011-02-27T14:32:44Z</time>
      </trkpt>
      <trkpt lat="43.89835" lon="4.07213">
        <ele>170</ele>
        <time>2011-02-27T14:32:45Z</time>
      </trkpt>
      <trkpt lat="43.8983" lon="4.07213">
        <ele>170</ele>
        <time>2011-02-27T14:32:46Z</time>
      </trkpt>
      <trkpt lat="43.89825" lon="4.07212">
        <ele>171</ele>
        <time>2011-02-27T14:32:47Z</time>
      </trkpt>
      <trkpt lat="43.8982" lon="4.07212">
        <ele>171</ele>
        <time>2011-02-27T14:32:48Z</time>
      </trkpt>
      <trkpt lat="43.89815" lon="4.07211">
        <ele>171</ele>
        <time>2011-02-27T14:32:49Z</time>
      </trkpt>
      <trkpt lat="43.89811" lon="4.07211">
        <ele>171</ele>
        <time>2011-02-27T14:32:50Z</time>
      </trkpt>
      <trkpt lat="43.89806" lon="4.0721">
        <ele>171</ele>
        <time>2011-02-27T14:32:51Z</time>
      </trkpt>
      <trkpt lat="43.89801" lon="4.07209">
        <ele>171</ele>
        <time>2011-02-27T14:32:52Z</time>
      </trkpt>
      <trkpt lat="43.89796" lon="4.07208">
        <ele>171</ele>
        <time>2011-02-27T14:32:53Z</time>
      </trkpt>
      <trkpt lat="43.89791" lon="4.07207">
        <ele>171</ele>
        <time>2011-02-27T14:32:54Z</time>
      </trkpt>
      <trkpt lat="43.89786" lon="4.07205">
        <ele>171</ele>
        <time>2011-02-27T14:32:55Z</time>
      </trkpt>
      <trkpt lat="43.89781" lon="4.07204">
        <ele>171</ele>
        <time>2011-02-27T14:32:56Z</time>
      </trkpt>
      <trkpt lat="43.89776" lon="4.07201">
        <ele>170</ele>
        <time>2011-02-27T14:32:57Z</time>
      </trkpt>
      <trkpt lat="43.89771" lon="4.07199">
        <ele>170</ele>
        <time>2011-02-27T14:32:58Z</time>
      </trkpt>
      <trkpt lat="43.89766" lon="4.07196">
        <ele>170</ele>
        <time>2011-02-27T14:32:59Z</time>
      </trkpt>
      <trkpt lat="43.89762" lon="4.07193">
        <ele>171</ele>
        <time>2011-02-27T14:33:00Z</time>
      </trkpt>
      <trkpt lat="43.89757" lon="4.0719">
        <ele>171</ele>
        <time>2011-02-27T14:33:01Z</time>
      </trkpt>
      <trkpt lat="43.89752" lon="4.07186">
        <ele>171</ele>
        <time>2011-02-27T14:33:02Z</time>
      </trkpt>
      <trkpt lat="43.89747" lon="4.07183">
        <ele>171</ele>
        <time>2011-02-27T14:33:03Z</time>
      </trkpt>
      <trkpt lat="43.89743" lon="4.07179">
        <ele>172</ele>
        <time>2011-02-27T14:33:04Z</time>
      </trkpt>
      <trkpt lat="43.89738" lon="4.07176">
        <ele>172</ele>
        <time>2011-02-27T14:33:05Z</time>
      </trkpt>
      <trkpt lat="43.89733" lon="4.07172">
        <ele>172</ele>
        <time>2011-02-27T14:33:06Z</time>
      </trkpt>
      <trkpt lat="43.89728" lon="4.07168">
        <ele>172</ele>
        <time>2011-02-27T14:33:07Z</time>
      </trkpt>
      <trkpt lat="43.89724" lon="4.07165">
        <ele>172</ele>
        <time>2011-02-27T14:33:08Z</time>
      </trkpt>
      <trkpt lat="43.89719" lon="4.07161">
        <ele>172</ele>
        <time>2011-02-27T14:33:09Z</time>
      </trkpt>
      <trkpt lat="43.89714" lon="4.07157">
        <ele>172</ele>
        <time>2011-02-27T14:33:10Z</time>
      </trkpt>
      <trkpt lat="43.89709" lon="4.07153">
        <ele>172</ele>
        <time>2011-02-27T14:33:11Z</time>
      </trkpt>
      <trkpt lat="43.89705" lon="4.07149">
        <ele>172</ele>
        <time>2011-02-27T14:33:12Z</time>
      </trkpt>
      <trkpt lat="43.897" lon="4.07145">
        <ele>173</ele>
        <time>2011-02-27T14:33:13Z</time>
      </trkpt>
      <trkpt lat="43.89695" lon="4.07141">
        <ele>173</ele>
        <time>2011-02-27T14:33:14Z</time>
      </trkpt>
      <trkpt lat="43.89691" lon="4.07137">
        <ele>173</ele>
        <time>2011-02-27T14:33:15Z</time>
      </trkpt>
      <trkpt lat="43.89687" lon="4.07132">
        <ele>173</ele>
        <time>2011-02-27T14:33:16Z</time>
      </trkpt>
      <trkpt lat="43.89683" lon="4.07127">
        <ele>174</ele>
        <time>2011-02-27T14:33:17Z</time>
      </trkpt>
      <trkpt lat="43.89679" lon="4.07121">
        <ele>174</ele>
        <time>2011-02-27T14:33:18Z</time>
      </trkpt>
      <trkpt lat="43.89675" lon="4.07116">
        <ele>174</ele>
        <time>2011-02-27T14:33:19Z</time>
      </trkpt>
      <trkpt lat="43.89672" lon="4.0711">
        <ele>175</ele>
        <time>2011-02-27T14:33:20Z</time>
      </trkpt>
      <trkpt lat="43.89668" lon="4.07105">
        <ele>175</ele>
        <time>2011-02-27T14:33:21Z</time>
      </trkpt>
      <trkpt lat="43.89665" lon="4.07099">
        <ele>176</ele>
        <time>2011-02-27T14:33:22Z</time>
      </trkpt>
      <trkpt lat="43.89661" lon="4.07094">
        <ele>176</ele>
        <time>2011-02-27T14:33:23Z</time>
      </trkpt>
      <trkpt lat="43.89657" lon="4.07089">
        <ele>177</ele>
        <time>2011-02-27T14:33:24Z</time>
      </trkpt>
      <trkpt lat="43.89654" lon="4.07084">
        <ele>178</ele>
        <time>2011-02-27T14:33:25Z</time>
      </trkpt>
      <trkpt lat="43.89651" lon="4.07078">
        <ele>179</ele>
        <time>2011-02-27T14:33:26Z</time>
      </trkpt>
      <trkpt lat="43.89648" lon="4.07072">
        <ele>180</ele>
        <time>2011-02-27T14:33:27Z</time>
      </trkpt>
      <trkpt lat="43.89646" lon="4.07065">
        <ele>180</ele>
        <time>2011-02-27T14:33:28Z</time>
      </trkpt>
      <trkpt lat="43.89644" lon="4.07058">
        <ele>181</ele>
        <time>2011-02-27T14:33:29Z</time>
      </trkpt>
      <trkpt lat="43.89642" lon="4.07051">
        <ele>181</ele>
        <time>2011-02-27T14:33:30Z</time>
      </trkpt>
      <trkpt lat="43.89641" lon="4.07043">
        <ele>181</ele>
        <time>2011-02-27T14:33:31Z</time>
      </trkpt>
      <trkpt lat="43.89641" lon="4.07035">
        <ele>182</ele>
        <time>2011-02-27T14:33:32Z</time>
      </trkpt>
      <trkpt lat="43.89641" lon="4.07027">
        <ele>182</ele>
        <time>2011-02-27T14:33:33Z</time>
      </trkpt>
      <trkpt lat="43.89641" lon="4.07018">
        <ele>183</ele>
        <time>2011-02-27T14:33:34Z</time>
      </trkpt>
      <trkpt lat="43.89641" lon="4.0701">
        <ele>183</ele>
        <time>2011-02-27T14:33:35Z</time>
      </trkpt>
      <trkpt lat="43.89641" lon="4.07001">
        <ele>183</ele>
        <time>2011-02-27T14:33:36Z</time>
      </trkpt>
      <trkpt lat="43.89642" lon="4.06993">
        <ele>183</ele>
        <time>2011-02-27T14:33:37Z</time>
      </trkpt>
      <trkpt lat="43.89643" lon="4.06984">
        <ele>183</ele>
        <time>2011-02-27T14:33:38Z</time>
      </trkpt>
      <trkpt lat="43.89643" lon="4.06975">
        <ele>183</ele>
        <time>2011-02-27T14:33:39Z</time>
      </trkpt>
      <trkpt lat="43.89644" lon="4.06966">
        <ele>182</ele>
        <time>2011-02-27T14:33:40Z</time>
      </trkpt>
      <trkpt lat="43.89644" lon="4.06957">
        <ele>182</ele>
        <time>2011-02-27T14:33:41Z</time>
      </trkpt>
      <trkpt lat="43.89645" lon="4.06947">
        <ele>181</ele>
        <time>2011-02-27T14:33:42Z</time>
      </trkpt>
      <trkpt lat="43.89645" lon="4.06937">
        <ele>181</ele>
        <time>2011-02-27T14:33:43Z</time>
      </trkpt>
      <trkpt lat="43.89645" lon="4.06928">
        <ele>180</ele>
        <time>2011-02-27T14:33:44Z</time>
      </trkpt>
      <trkpt lat="43.89646" lon="4.06918">
        <ele>180</ele>
        <time>2011-02-27T14:33:45Z</time>
      </trkpt>
      <trkpt lat="43.89646" lon="4.06908">
        <ele>179</ele>
        <time>2011-02-27T14:33:46Z</time>
      </trkpt>
      <trkpt lat="43.89646" lon="4.06898">
        <ele>178</ele>
        <time>2011-02-27T14:33:47Z</time>
      </trkpt>
      <trkpt lat="43.89647" lon="4.06888">
        <ele>178</ele>
        <time>2011-02-27T14:33:48Z</time>
      </trkpt>
      <trkpt lat="43.89647" lon="4.06878">
        <ele>177</ele>
        <time>2011-02-27T14:33:49Z</time>
      </trkpt>
      <trkpt lat="43.89647" lon="4.06869">
        <ele>177</ele>
        <time>2011-02-27T14:33:50Z</time>
      </trkpt>
      <trkpt lat="43.89648" lon="4.0686">
        <ele>176</ele>
        <time>2011-02-27T14:33:51Z</time>
      </trkpt>
      <trkpt lat="43.89648" lon="4.06851">
        <ele>176</ele>
        <time>2011-02-27T14:33:52Z</time>
      </trkpt>
      <trkpt lat="43.89648" lon="4.06842">
        <ele>175</ele>
        <time>2011-02-27T14:33:53Z</time>
      </trkpt>
      <trkpt lat="43.89648" lon="4.06833">
        <ele>175</ele>
        <time>2011-02-27T14:33:54Z</time>
      </trkpt>
      <trkpt lat="43.89648" lon="4.06824">
        <ele>175</ele>
        <time>2011-02-27T14:33:55Z</time>
      </trkpt>
      <trkpt lat="43.89647" lon="4.06815">
        <ele>175</ele>
        <time>2011-02-27T14:33:56Z</time>
      </trkpt>
      <trkpt lat="43.89645" lon="4.06806">
        <ele>174</ele>
        <time>2011-02-27T14:33:57Z</time>
      </trkpt>
      <trkpt lat="43.89643" lon="4.06797">
        <ele>174</ele>
        <time>2011-02-27T14:33:58Z</time>
      </trkpt>
      <trkpt lat="43.8964" lon="4.06788">
        <ele>174</ele>
        <time>2011-02-27T14:33:59Z</time>
      </trkpt>
      <trkpt lat="43.89636" lon="4.0678">
        <ele>174</ele>
        <time>2011-02-27T14:34:00Z</time>
      </trkpt>
      <trkpt lat="43.89632" lon="4.06772">
        <ele>174</ele>
        <time>2011-02-27T14:34:01Z</time>
      </trkpt>
      <trkpt lat="43.89628" lon="4.06765">
        <ele>173</ele>
        <time>2011-02-27T14:34:02Z</time>
      </trkpt>
      <trkpt lat="43.89623" lon="4.06758">
        <ele>173</ele>
        <time>2011-02-27T14:34:03Z</time>
      </trkpt>
      <trkpt lat="43.89617" lon="4.06752">
        <ele>173</ele>
        <time>2011-02-27T14:34:04Z</time>
      </trkpt>
      <trkpt lat="43.89612" lon="4.06745">
        <ele>173</ele>
        <time>2011-02-27T14:34:05Z</time>
      </trkpt>
      <trkpt lat="43.89607" lon="4.06738">
        <ele>173</ele>
        <time>2011-02-27T14:34:06Z</time>
      </trkpt>
      <trkpt lat="43.89602" lon="4.06731">
        <ele>173</ele>
        <time>2011-02-27T14:34:07Z</time>
      </trkpt>
      <trkpt lat="43.89596" lon="4.06723">
        <ele>173</ele>
        <time>2011-02-27T14:34:08Z</time>
      </trkpt>
      <trkpt lat="43.89591" lon="4.06716">
        <ele>173</ele>
        <time>2011-02-27T14:34:09Z</time>
      </trkpt>
      <trkpt lat="43.89586" lon="4.06709">
        <ele>173</ele>
        <time>2011-02-27T14:34:10Z</time>
      </trkpt>
      <trkpt lat="43.89582" lon="4.06701">
        <ele>173</ele>
        <time>2011-02-27T14:34:11Z</time>
      </trkpt>
      <trkpt lat="43.89577" lon="4.06694">
        <ele>173</ele>
        <time>2011-02-27T14:34:12Z</time>
      </trkpt>
      <trkpt lat="43.89571" lon="4.06686">
        <ele>173</ele>
        <time>2011-02-27T14:34:13Z</time>
      </trkpt>
      <trkpt lat="43.89566" lon="4.06679">
        <ele>173</ele>
        <time>2011-02-27T14:34:14Z</time>
      </trkpt>
      <trkpt lat="43.8956" lon="4.06672">
        <ele>174</ele>
        <time>2011-02-27T14:34:15Z</time>
      </trkpt>
      <trkpt lat="43.89554" lon="4.06665">
        <ele>174</ele>
        <time>2011-02-27T14:34:16Z</time>
      </trkpt>
      <trkpt lat="43.89549" lon="4.06657">
        <ele>174</ele>
        <time>2011-02-27T14:34:17Z</time>
      </trkpt>
      <trkpt lat="43.89543" lon="4.06649">
        <ele>174</ele>
        <time>2011-02-27T14:34:18Z</time>
      </trkpt>
      <trkpt lat="43.89537" lon="4.06642">
        <ele>174</ele>
        <time>2011-02-27T14:34:19Z</time>
      </trkpt>
      <trkpt lat="43.89531" lon="4.06634">
        <ele>174</ele>
        <time>2011-02-27T14:34:20Z</time>
      </trkpt>
      <trkpt lat="43.89525" lon="4.06626">
        <ele>174</ele>
        <time>2011-02-27T14:34:21Z</time>
      </trkpt>
      <trkpt lat="43.8952" lon="4.06619">
        <ele>174</ele>
        <time>2011-02-27T14:34:22Z</time>
      </trkpt>
      <trkpt lat="43.89514" lon="4.0661">
        <ele>175</ele>
        <time>2011-02-27T14:34:23Z</time>
      </trkpt>
      <trkpt lat="43.89508" lon="4.06601">
        <ele>175</ele>
        <time>2011-02-27T14:34:24Z</time>
      </trkpt>
      <trkpt lat="43.89503" lon="4.06592">
        <ele>175</ele>
        <time>2011-02-27T14:34:25Z</time>
      </trkpt>
      <trkpt lat="43.89497" lon="4.06583">
        <ele>175</ele>
        <time>2011-02-27T14:34:26Z</time>
      </trkpt>
      <trkpt lat="43.89491" lon="4.06574">
        <ele>175</ele>
        <time>2011-02-27T14:34:27Z</time>
      </trkpt>
      <trkpt lat="43.89485" lon="4.06564">
        <ele>175</ele>
        <time>2011-02-27T14:34:28Z</time>
      </trkpt>
      <trkpt lat="43.89479" lon="4.06555">
        <ele>174</ele>
        <time>2011-02-27T14:34:29Z</time>
      </trkpt>
      <trkpt lat="43.89474" lon="4.06545">
        <ele>174</ele>
        <time>2011-02-27T14:34:30Z</time>
      </trkpt>
      <trkpt lat="43.89468" lon="4.06536">
        <ele>174</ele>
        <time>2011-02-27T14:34:31Z</time>
      </trkpt>
      <trkpt lat="43.89462" lon="4.06527">
        <ele>174</ele>
        <time>2011-02-27T14:34:32Z</time>
      </trkpt>
      <trkpt lat="43.89456" lon="4.06517">
        <ele>174</ele>
        <time>2011-02-27T14:34:33Z</time>
      </trkpt>
      <trkpt lat="43.8945" lon="4.06508">
        <ele>174</ele>
        <time>2011-02-27T14:34:34Z</time>
      </trkpt>
      <trkpt lat="43.89444" lon="4.06498">
        <ele>173</ele>
        <time>2011-02-27T14:34:35Z</time>
      </trkpt>
      <trkpt lat="43.89438" lon="4.06488">
        <ele>173</ele>
        <time>2011-02-27T14:34:36Z</time>
      </trkpt>
      <trkpt lat="43.89431" lon="4.06477">
        <ele>172</ele>
        <time>2011-02-27T14:34:37Z</time>
      </trkpt>
      <trkpt lat="43.89425" lon="4.06467">
        <ele>172</ele>
        <time>2011-02-27T14:34:38Z</time>
      </trkpt>
      <trkpt lat="43.89419" lon="4.06455">
        <ele>172</ele>
        <time>2011-02-27T14:34:39Z</time>
      </trkpt>
      <trkpt lat="43.89414" lon="4.06443">
        <ele>172</ele>
        <time>2011-02-27T14:34:40Z</time>
      </trkpt>
      <trkpt lat="43.8941" lon="4.06431">
        <ele>172</ele>
        <time>2011-02-27T14:34:41Z</time>
      </trkpt>
      <trkpt lat="43.89406" lon="4.06417">
        <ele>172</ele>
        <time>2011-02-27T14:34:42Z</time>
      </trkpt>
      <trkpt lat="43.89402" lon="4.06403">
        <ele>172</ele>
        <time>2011-02-27T14:34:43Z</time>
      </trkpt>
      <trkpt lat="43.89399" lon="4.0639">
        <ele>171</ele>
        <time>2011-02-27T14:34:44Z</time>
      </trkpt>
      <trkpt lat="43.89397" lon="4.06376">
        <ele>171</ele>
        <time>2011-02-27T14:34:45Z</time>
      </trkpt>
      <trkpt lat="43.89395" lon="4.06361">
        <ele>170</ele>
        <time>2011-02-27T14:34:46Z</time>
      </trkpt>
      <trkpt lat="43.89393" lon="4.06346">
        <ele>170</ele>
        <time>2011-02-27T14:34:47Z</time>
      </trkpt>
      <trkpt lat="43.89392" lon="4.06331">
        <ele>170</ele>
        <time>2011-02-27T14:34:48Z</time>
      </trkpt>
      <trkpt lat="43.89391" lon="4.06315">
        <ele>169</ele>
        <time>2011-02-27T14:34:49Z</time>
      </trkpt>
      <trkpt lat="43.89389" lon="4.063">
        <ele>169</ele>
        <time>2011-02-27T14:34:50Z</time>
      </trkpt>
      <trkpt lat="43.89387" lon="4.06285">
        <ele>169</ele>
        <time>2011-02-27T14:34:51Z</time>
      </trkpt>
      <trkpt lat="43.89386" lon="4.0627">
        <ele>169</ele>
        <time>2011-02-27T14:34:52Z</time>
      </trkpt>
      <trkpt lat="43.89385" lon="4.06255">
        <ele>169</ele>
        <time>2011-02-27T14:34:53Z</time>
      </trkpt>
      <trkpt lat="43.89383" lon="4.0624">
        <ele>169</ele>
        <time>2011-02-27T14:34:54Z</time>
      </trkpt>
      <trkpt lat="43.89382" lon="4.06225">
        <ele>169</ele>
        <time>2011-02-27T14:34:55Z</time>
      </trkpt>
      <trkpt lat="43.89381" lon="4.06211">
        <ele>169</ele>
        <time>2011-02-27T14:34:56Z</time>
      </trkpt>
      <trkpt lat="43.8938" lon="4.06196">
        <ele>169</ele>
        <time>2011-02-27T14:34:57Z</time>
      </trkpt>
      <trkpt lat="43.89378" lon="4.06181">
        <ele>169</ele>
        <time>2011-02-27T14:34:58Z</time>
      </trkpt>
      <trkpt lat="43.89377" lon="4.06166">
        <ele>169</ele>
        <time>2011-02-27T14:34:59Z</time>
      </trkpt>
      <trkpt lat="43.89375" lon="4.06152">
        <ele>168</ele>
        <time>2011-02-27T14:35:00Z</time>
      </trkpt>
      <trkpt lat="43.89374" lon="4.06137">
        <ele>168</ele>
        <time>2011-02-27T14:35:01Z</time>
      </trkpt>
      <trkpt lat="43.89371" lon="4.06123">
        <ele>168</ele>
        <time>2011-02-27T14:35:02Z</time>
      </trkpt>
      <trkpt lat="43.89369" lon="4.06108">
        <ele>168</ele>
        <time>2011-02-27T14:35:03Z</time>
      </trkpt>
      <trkpt lat="43.89363" lon="4.06095">
        <ele>168</ele>
        <time>2011-02-27T14:35:04Z</time>
      </trkpt>
      <trkpt lat="43.89358" lon="4.06083">
        <ele>168</ele>
        <time>2011-02-27T14:35:05Z</time>
      </trkpt>
      <trkpt lat="43.89351" lon="4.06072">
        <ele>168</ele>
        <time>2011-02-27T14:35:06Z</time>
      </trkpt>
      <trkpt lat="43.89344" lon="4.06062">
        <ele>168</ele>
        <time>2011-02-27T14:35:07Z</time>
      </trkpt>
      <trkpt lat="43.89336" lon="4.06053">
        <ele>167</ele>
        <time>2011-02-27T14:35:08Z</time>
      </trkpt>
      <trkpt lat="43.89328" lon="4.06045">
        <ele>167</ele>
        <time>2011-02-27T14:35:09Z</time>
      </trkpt>
      <trkpt lat="43.8932" lon="4.06037">
        <ele>167</ele>
        <time>2011-02-27T14:35:10Z</time>
      </trkpt>
      <trkpt lat="43.89312" lon="4.06029">
        <ele>166</ele>
        <time>2011-02-27T14:35:11Z</time>
      </trkpt>
      <trkpt lat="43.89305" lon="4.06022">
        <ele>166</ele>
        <time>2011-02-27T14:35:12Z</time>
      </trkpt>
      <trkpt lat="43.89297" lon="4.06016">
        <ele>165</ele>
        <time>2011-02-27T14:35:13Z</time>
      </trkpt>
      <trkpt lat="43.89289" lon="4.0601">
        <ele>165</ele>
        <time>2011-02-27T14:35:14Z</time>
      </trkpt>
      <trkpt lat="43.89282" lon="4.06003">
        <ele>165</ele>
        <time>2011-02-27T14:35:15Z</time>
      </trkpt>
      <trkpt lat="43.89275" lon="4.05996">
        <ele>165</ele>
        <time>2011-02-27T14:35:16Z</time>
      </trkpt>
      <trkpt lat="43.89268" lon="4.05989">
        <ele>165</ele>
        <time>2011-02-27T14:35:17Z</time>
      </trkpt>
      <trkpt lat="43.89261" lon="4.05981">
        <ele>165</ele>
        <time>2011-02-27T14:35:18Z</time>
      </trkpt>
      <trkpt lat="43.89254" lon="4.05974">
        <ele>165</ele>
        <time>2011-02-27T14:35:19Z</time>
      </trkpt>
      <trkpt lat="43.89246" lon="4.05967">
        <ele>165</ele>
        <time>2011-02-27T14:35:20Z</time>
      </trkpt>
      <trkpt lat="43.89238" lon="4.05961">
        <ele>165</ele>
        <time>2011-02-27T14:35:21Z</time>
      </trkpt>
      <trkpt lat="43.89231" lon="4.05954">
        <ele>165</ele>
        <time>2011-02-27T14:35:22Z</time>
      </trkpt>
      <trkpt lat="43.89223" lon="4.05947">
        <ele>166</ele>
        <time>2011-02-27T14:35:23Z</time>
      </trkpt>
      <trkpt lat="43.89216" lon="4.0594">
        <ele>165</ele>
        <time>2011-02-27T14:35:24Z</time>
      </trkpt>
      <trkpt lat="43.89208" lon="4.05934">
        <ele>165</ele>
        <time>2011-02-27T14:35:25Z</time>
      </trkpt>
      <trkpt lat="43.892" lon="4.05927">
        <ele>165</ele>
        <time>2011-02-27T14:35:26Z</time>
      </trkpt>
      <trkpt lat="43.89192" lon="4.05921">
        <ele>165</ele>
        <time>2011-02-27T14:35:27Z</time>
      </trkpt>
      <trkpt lat="43.89184" lon="4.05913">
        <ele>165</ele>
        <time>2011-02-27T14:35:28Z</time>
      </trkpt>
      <trkpt lat="43.89178" lon="4.05904">
        <ele>165</ele>
        <time>2011-02-27T14:35:29Z</time>
      </trkpt>
      <trkpt lat="43.89172" lon="4.05894">
        <ele>165</ele>
        <time>2011-02-27T14:35:30Z</time>
      </trkpt>
      <trkpt lat="43.89166" lon="4.05885">
        <ele>165</ele>
        <time>2011-02-27T14:35:31Z</time>
      </trkpt>
      <trkpt lat="43.8916" lon="4.05875">
        <ele>164</ele>
        <time>2011-02-27T14:35:32Z</time>
      </trkpt>
      <trkpt lat="43.89155" lon="4.05865">
        <ele>164</ele>
        <time>2011-02-27T14:35:33Z</time>
      </trkpt>
      <trkpt lat="43.8915" lon="4.05854">
        <ele>164</ele>
        <time>2011-02-27T14:35:34Z</time>
      </trkpt>
      <trkpt lat="43.89145" lon="4.05844">
        <ele>163</ele>
        <time>2011-02-27T14:35:35Z</time>
      </trkpt>
      <trkpt lat="43.8914" lon="4.05833">
        <ele>162</ele>
        <time>2011-02-27T14:35:36Z</time>
      </trkpt>
      <trkpt lat="43.89135" lon="4.05823">
        <ele>162</ele>
        <time>2011-02-27T14:35:37Z</time>
      </trkpt>
      <trkpt lat="43.8913" lon="4.05813">
        <ele>162</ele>
        <time>2011-02-27T14:35:38Z</time>
      </trkpt>
      <trkpt lat="43.89125" lon="4.05803">
        <ele>162</ele>
        <time>2011-02-27T14:35:39Z</time>
      </trkpt>
      <trkpt lat="43.89121" lon="4.05792">
        <ele>162</ele>
        <time>2011-02-27T14:35:40Z</time>
      </trkpt>
      <trkpt lat="43.89118" lon="4.05782">
        <ele>162</ele>
        <time>2011-02-27T14:35:41Z</time>
      </trkpt>
      <trkpt lat="43.89115" lon="4.05771">
        <ele>162</ele>
        <time>2011-02-27T14:35:42Z</time>
      </trkpt>
      <trkpt lat="43.89113" lon="4.05761">
        <ele>161</ele>
        <time>2011-02-27T14:35:43Z</time>
      </trkpt>
      <trkpt lat="43.89112" lon="4.0575">
        <ele>161</ele>
        <time>2011-02-27T14:35:44Z</time>
      </trkpt>
      <trkpt lat="43.89111" lon="4.05739">
        <ele>161</ele>
        <time>2011-02-27T14:35:45Z</time>
      </trkpt>
      <trkpt lat="43.89111" lon="4.05728">
        <ele>161</ele>
        <time>2011-02-27T14:35:46Z</time>
      </trkpt>
      <trkpt lat="43.8911" lon="4.05717">
        <ele>161</ele>
        <time>2011-02-27T14:35:47Z</time>
      </trkpt>
      <trkpt lat="43.8911" lon="4.05706">
        <ele>160</ele>
        <time>2011-02-27T14:35:48Z</time>
      </trkpt>
      <trkpt lat="43.8911" lon="4.05695">
        <ele>160</ele>
        <time>2011-02-27T14:35:49Z</time>
      </trkpt>
      <trkpt lat="43.8911" lon="4.05685">
        <ele>160</ele>
        <time>2011-02-27T14:35:50Z</time>
      </trkpt>
      <trkpt lat="43.8911" lon="4.05675">
        <ele>160</ele>
        <time>2011-02-27T14:35:51Z</time>
      </trkpt>
      <trkpt lat="43.89109" lon="4.05665">
        <ele>159</ele>
        <time>2011-02-27T14:35:52Z</time>
      </trkpt>
      <trkpt lat="43.89109" lon="4.05655">
        <ele>160</ele>
        <time>2011-02-27T14:35:53Z</time>
      </trkpt>
      <trkpt lat="43.89109" lon="4.05645">
        <ele>159</ele>
        <time>2011-02-27T14:35:54Z</time>
      </trkpt>
      <trkpt lat="43.89108" lon="4.05635">
        <ele>159</ele>
        <time>2011-02-27T14:35:55Z</time>
      </trkpt>
      <trkpt lat="43.89108" lon="4.05625">
        <ele>159</ele>
        <time>2011-02-27T14:35:56Z</time>
      </trkpt>
      <trkpt lat="43.89107" lon="4.05615">
        <ele>158</ele>
        <time>2011-02-27T14:35:57Z</time>
      </trkpt>
      <trkpt lat="43.89107" lon="4.05605">
        <ele>158</ele>
        <time>2011-02-27T14:35:58Z</time>
      </trkpt>
      <trkpt lat="43.89106" lon="4.05595">
        <ele>158</ele>
        <time>2011-02-27T14:35:59Z</time>
      </trkpt>
      <trkpt lat="43.89105" lon="4.05586">
        <ele>158</ele>
        <time>2011-02-27T14:36:00Z</time>
      </trkpt>
      <trkpt lat="43.89104" lon="4.05576">
        <ele>158</ele>
        <time>2011-02-27T14:36:01Z</time>
      </trkpt>
      <trkpt lat="43.89104" lon="4.05567">
        <ele>157</ele>
        <time>2011-02-27T14:36:02Z</time>
      </trkpt>
      <trkpt lat="43.89104" lon="4.05558">
        <ele>157</ele>
        <time>2011-02-27T14:36:03Z</time>
      </trkpt>
      <trkpt lat="43.89104" lon="4.05548">
        <ele>157</ele>
        <time>2011-02-27T14:36:04Z</time>
      </trkpt>
      <trkpt lat="43.89105" lon="4.05538">
        <ele>157</ele>
        <time>2011-02-27T14:36:05Z</time>
      </trkpt>
      <trkpt lat="43.89106" lon="4.05529">
        <ele>156</ele>
        <time>2011-02-27T14:36:06Z</time>
      </trkpt>
      <trkpt lat="43.89107" lon="4.05519">
        <ele>156</ele>
        <time>2011-02-27T14:36:07Z</time>
      </trkpt>
      <trkpt lat="43.89108" lon="4.0551">
        <ele>155</ele>
        <time>2011-02-27T14:36:08Z</time>
      </trkpt>
      <trkpt lat="43.8911" lon="4.055">
        <ele>155</ele>
        <time>2011-02-27T14:36:09Z</time>
      </trkpt>
      <trkpt lat="43.89113" lon="4.05491">
        <ele>155</ele>
        <time>2011-02-27T14:36:10Z</time>
      </trkpt>
      <trkpt lat="43.89115" lon="4.05482">
        <ele>155</ele>
        <time>2011-02-27T14:36:11Z</time>
      </trkpt>
      <trkpt lat="43.89117" lon="4.05473">
        <ele>154</ele>
        <time>2011-02-27T14:36:12Z</time>
      </trkpt>
      <trkpt lat="43.8912" lon="4.05464">
        <ele>154</ele>
        <time>2011-02-27T14:36:13Z</time>
      </trkpt>
      <trkpt lat="43.89122" lon="4.05455">
        <ele>154</ele>
        <time>2011-02-27T14:36:14Z</time>
      </trkpt>
      <trkpt lat="43.89125" lon="4.05447">
        <ele>153</ele>
        <time>2011-02-27T14:36:15Z</time>
      </trkpt>
      <trkpt lat="43.89127" lon="4.05438">
        <ele>152</ele>
        <time>2011-02-27T14:36:16Z</time>
      </trkpt>
      <trkpt lat="43.89129" lon="4.05429">
        <ele>151</ele>
        <time>2011-02-27T14:36:17Z</time>
      </trkpt>
      <trkpt lat="43.89131" lon="4.05421">
        <ele>150</ele>
        <time>2011-02-27T14:36:18Z</time>
      </trkpt>
      <trkpt lat="43.89132" lon="4.05412">
        <ele>150</ele>
        <time>2011-02-27T14:36:19Z</time>
      </trkpt>
      <trkpt lat="43.89132" lon="4.05403">
        <ele>149</ele>
        <time>2011-02-27T14:36:20Z</time>
      </trkpt>
      <trkpt lat="43.89132" lon="4.05395">
        <ele>149</ele>
        <time>2011-02-27T14:36:21Z</time>
      </trkpt>
      <trkpt lat="43.89132" lon="4.05386">
        <ele>148</ele>
        <time>2011-02-27T14:36:22Z</time>
      </trkpt>
      <trkpt lat="43.89131" lon="4.05378">
        <ele>148</ele>
        <time>2011-02-27T14:36:23Z</time>
      </trkpt>
      <trkpt lat="43.89131" lon="4.05369">
        <ele>147</ele>
        <time>2011-02-27T14:36:24Z</time>
      </trkpt>
      <trkpt lat="43.89131" lon="4.05361">
        <ele>147</ele>
        <time>2011-02-27T14:36:25Z</time>
      </trkpt>
      <trkpt lat="43.8913" lon="4.05353">
        <ele>146</ele>
        <time>2011-02-27T14:36:26Z</time>
      </trkpt>
      <trkpt lat="43.8913" lon="4.05345">
        <ele>146</ele>
        <time>2011-02-27T14:36:27Z</time>
      </trkpt>
      <trkpt lat="43.89129" lon="4.05337">
        <ele>145</ele>
        <time>2011-02-27T14:36:28Z</time>
      </trkpt>
      <trkpt lat="43.89129" lon="4.0533">
        <ele>145</ele>
        <time>2011-02-27T14:36:29Z</time>
      </trkpt>
      <trkpt lat="43.89128" lon="4.05323">
        <ele>145</ele>
        <time>2011-02-27T14:36:30Z</time>
      </trkpt>
      <trkpt lat="43.89128" lon="4.05317">
        <ele>144</ele>
        <time>2011-02-27T14:36:31Z</time>
      </trkpt>
      <trkpt lat="43.89127" lon="4.0531">
        <ele>144</ele>
        <time>2011-02-27T14:36:32Z</time>
      </trkpt>
      <trkpt lat="43.89126" lon="4.05303">
        <ele>144</ele>
        <time>2011-02-27T14:36:33Z</time>
      </trkpt>
      <trkpt lat="43.89124" lon="4.05296">
        <ele>144</ele>
        <time>2011-02-27T14:36:34Z</time>
      </trkpt>
      <trkpt lat="43.89123" lon="4.05289">
        <ele>143</ele>
        <time>2011-02-27T14:36:35Z</time>
      </trkpt>
      <trkpt lat="43.89122" lon="4.05282">
        <ele>143</ele>
        <time>2011-02-27T14:36:36Z</time>
      </trkpt>
      <trkpt lat="43.8912" lon="4.05275">
        <ele>143</ele>
        <time>2011-02-27T14:36:37Z</time>
      </trkpt>
      <trkpt lat="43.89119" lon="4.05268">
        <ele>143</ele>
        <time>2011-02-27T14:36:38Z</time>
      </trkpt>
      <trkpt lat="43.89118" lon="4.05261">
        <ele>143</ele>
        <time>2011-02-27T14:36:39Z</time>
      </trkpt>
      <trkpt lat="43.89116" lon="4.05254">
        <ele>143</ele>
        <time>2011-02-27T14:36:40Z</time>
      </trkpt>
      <trkpt lat="43.89116" lon="4.05247">
        <ele>143</ele>
        <time>2011-02-27T14:36:41Z</time>
      </trkpt>
      <trkpt lat="43.89115" lon="4.05239">
        <ele>143</ele>
        <time>2011-02-27T14:36:42Z</time>
      </trkpt>
      <trkpt lat="43.89112" lon="4.05232">
        <ele>144</ele>
        <time>2011-02-27T14:36:43Z</time>
      </trkpt>
      <trkpt lat="43.8911" lon="4.05223">
        <ele>144</ele>
        <time>2011-02-27T14:36:44Z</time>
      </trkpt>
      <trkpt lat="43.89108" lon="4.05214">
        <ele>144</ele>
        <time>2011-02-27T14:36:45Z</time>
      </trkpt>
      <trkpt lat="43.89106" lon="4.05205">
        <ele>144</ele>
        <time>2011-02-27T14:36:46Z</time>
      </trkpt>
      <trkpt lat="43.89105" lon="4.05195">
        <ele>144</ele>
        <time>2011-02-27T14:36:47Z</time>
      </trkpt>
      <trkpt lat="43.89103" lon="4.05186">
        <ele>144</ele>
        <time>2011-02-27T14:36:48Z</time>
      </trkpt>
      <trkpt lat="43.89102" lon="4.05177">
        <ele>144</ele>
        <time>2011-02-27T14:36:49Z</time>
      </trkpt>
      <trkpt lat="43.89101" lon="4.05167">
        <ele>144</ele>
        <time>2011-02-27T14:36:50Z</time>
      </trkpt>
      <trkpt lat="43.891" lon="4.05158">
        <ele>144</ele>
        <time>2011-02-27T14:36:51Z</time>
      </trkpt>
      <trkpt lat="43.89099" lon="4.05149">
        <ele>144</ele>
        <time>2011-02-27T14:36:52Z</time>
      </trkpt>
      <trkpt lat="43.89098" lon="4.0514">
        <ele>144</ele>
        <time>2011-02-27T14:36:53Z</time>
      </trkpt>
      <trkpt lat="43.89097" lon="4.05131">
        <ele>144</ele>
        <time>2011-02-27T14:36:54Z</time>
      </trkpt>
      <trkpt lat="43.89096" lon="4.05121">
        <ele>144</ele>
        <time>2011-02-27T14:36:55Z</time>
      </trkpt>
      <trkpt lat="43.89095" lon="4.05112">
        <ele>144</ele>
        <time>2011-02-27T14:36:56Z</time>
      </trkpt>
      <trkpt lat="43.89094" lon="4.05102">
        <ele>144</ele>
        <time>2011-02-27T14:36:57Z</time>
      </trkpt>
      <trkpt lat="43.89093" lon="4.05093">
        <ele>144</ele>
        <time>2011-02-27T14:36:58Z</time>
      </trkpt>
      <trkpt lat="43.89092" lon="4.05083">
        <ele>144</ele>
        <time>2011-02-27T14:36:59Z</time>
      </trkpt>
      <trkpt lat="43.89092" lon="4.05074">
        <ele>143</ele>
        <time>2011-02-27T14:37:00Z</time>
      </trkpt>
      <trkpt lat="43.89091" lon="4.05064">
        <ele>143</ele>
        <time>2011-02-27T14:37:01Z</time>
      </trkpt>
      <trkpt lat="43.8909" lon="4.05055">
        <ele>143</ele>
        <time>2011-02-27T14:37:02Z</time>
      </trkpt>
      <trkpt lat="43.8909" lon="4.05046">
        <ele>142</ele>
        <time>2011-02-27T14:37:03Z</time>
      </trkpt>
      <trkpt lat="43.89089" lon="4.05037">
        <ele>142</ele>
        <time>2011-02-27T14:37:04Z</time>
      </trkpt>
      <trkpt lat="43.89088" lon="4.05028">
        <ele>142</ele>
        <time>2011-02-27T14:37:05Z</time>
      </trkpt>
      <trkpt lat="43.89088" lon="4.05019">
        <ele>142</ele>
        <time>2011-02-27T14:37:06Z</time>
      </trkpt>
      <trkpt lat="43.89087" lon="4.0501">
        <ele>142</ele>
        <time>2011-02-27T14:37:07Z</time>
      </trkpt>
      <trkpt lat="43.89087" lon="4.05001">
        <ele>142</ele>
        <time>2011-02-27T14:37:08Z</time>
      </trkpt>
      <trkpt lat="43.89086" lon="4.04992">
        <ele>141</ele>
        <time>2011-02-27T14:37:09Z</time>
      </trkpt>
      <trkpt lat="43.89086" lon="4.04982">
        <ele>141</ele>
        <time>2011-02-27T14:37:10Z</time>
      </trkpt>
      <trkpt lat="43.89086" lon="4.04974">
        <ele>141</ele>
        <time>2011-02-27T14:37:11Z</time>
      </trkpt>
      <trkpt lat="43.89085" lon="4.04965">
        <ele>141</ele>
        <time>2011-02-27T14:37:12Z</time>
      </trkpt>
      <trkpt lat="43.89085" lon="4.04957">
        <ele>140</ele>
        <time>2011-02-27T14:37:13Z</time>
      </trkpt>
      <trkpt lat="43.89085" lon="4.04948">
        <ele>140</ele>
        <time>2011-02-27T14:37:14Z</time>
      </trkpt>
      <trkpt lat="43.89085" lon="4.0494">
        <ele>139</ele>
        <time>2011-02-27T14:37:15Z</time>
      </trkpt>
      <trkpt lat="43.89084" lon="4.04933">
        <ele>139</ele>
        <time>2011-02-27T14:37:16Z</time>
      </trkpt>
      <trkpt lat="43.89083" lon="4.04925">
        <ele>139</ele>
        <time>2011-02-27T14:37:17Z</time>
      </trkpt>
      <trkpt lat="43.89082" lon="4.04917">
        <ele>139</ele>
        <time>2011-02-27T14:37:18Z</time>
      </trkpt>
      <trkpt lat="43.89081" lon="4.0491">
        <ele>139</ele>
        <time>2011-02-27T14:37:19Z</time>
      </trkpt>
      <trkpt lat="43.89079" lon="4.04902">
        <ele>139</ele>
        <time>2011-02-27T14:37:20Z</time>
      </trkpt>
      <trkpt lat="43.89079" lon="4.04896">
        <ele>139</ele>
        <time>2011-02-27T14:37:21Z</time>
      </trkpt>
      <trkpt lat="43.89081" lon="4.04884">
        <ele>139</ele>
        <time>2011-02-27T14:37:23Z</time>
      </trkpt>
      <trkpt lat="43.89086" lon="4.04877">
        <ele>139</ele>
        <time>2011-02-27T14:37:25Z</time>
      </trkpt>
      <trkpt lat="43.89094" lon="4.04874">
        <ele>139</ele>
        <time>2011-02-27T14:37:27Z</time>
      </trkpt>
      <trkpt lat="43.89098" lon="4.04873">
        <ele>139</ele>
        <time>2011-02-27T14:37:28Z</time>
      </trkpt>
      <trkpt lat="43.89107" lon="4.04872">
        <ele>138</ele>
        <time>2011-02-27T14:37:30Z</time>
      </trkpt>
      <trkpt lat="43.89116" lon="4.04872">
        <ele>138</ele>
        <time>2011-02-27T14:37:32Z</time>
      </trkpt>
      <trkpt lat="43.89121" lon="4.04872">
        <ele>138</ele>
        <time>2011-02-27T14:37:33Z</time>
      </trkpt>
      <trkpt lat="43.89125" lon="4.04872">
        <ele>138</ele>
        <time>2011-02-27T14:37:34Z</time>
      </trkpt>
      <trkpt lat="43.8913" lon="4.04871">
        <ele>137</ele>
        <time>2011-02-27T14:37:35Z</time>
      </trkpt>
      <trkpt lat="43.89134" lon="4.04871">
        <ele>137</ele>
        <time>2011-02-27T14:37:36Z</time>
      </trkpt>
      <trkpt lat="43.89139" lon="4.0487">
        <ele>137</ele>
        <time>2011-02-27T14:37:37Z</time>
      </trkpt>
      <trkpt lat="43.89144" lon="4.04869">
        <ele>136</ele>
        <time>2011-02-27T14:37:38Z</time>
      </trkpt>
      <trkpt lat="43.89148" lon="4.04869">
        <ele>136</ele>
        <time>2011-02-27T14:37:39Z</time>
      </trkpt>
      <trkpt lat="43.89153" lon="4.04868">
        <ele>136</ele>
        <time>2011-02-27T14:37:40Z</time>
      </trkpt>
      <trkpt lat="43.89157" lon="4.04867">
        <ele>136</ele>
        <time>2011-02-27T14:37:41Z</time>
      </trkpt>
      <trkpt lat="43.89162" lon="4.04866">
        <ele>135</ele>
        <time>2011-02-27T14:37:42Z</time>
      </trkpt>
      <trkpt lat="43.89166" lon="4.04865">
        <ele>135</ele>
        <time>2011-02-27T14:37:43Z</time>
      </trkpt>
      <trkpt lat="43.89171" lon="4.04864">
        <ele>135</ele>
        <time>2011-02-27T14:37:44Z</time>
      </trkpt>
      <trkpt lat="43.89176" lon="4.04864">
        <ele>135</ele>
        <time>2011-02-27T14:37:45Z</time>
      </trkpt>
      <trkpt lat="43.89181" lon="4.04863">
        <ele>135</ele>
        <time>2011-02-27T14:37:46Z</time>
      </trkpt>
      <trkpt lat="43.89186" lon="4.04863">
        <ele>135</ele>
        <time>2011-02-27T14:37:47Z</time>
      </trkpt>
      <trkpt lat="43.89191" lon="4.04863">
        <ele>135</ele>
        <time>2011-02-27T14:37:48Z</time>
      </trkpt>
      <trkpt lat="43.89196" lon="4.04863">
        <ele>135</ele>
        <time>2011-02-27T14:37:49Z</time>
      </trkpt>
      <trkpt lat="43.89201" lon="4.04862">
        <ele>135</ele>
        <time>2011-02-27T14:37:50Z</time>
      </trkpt>
      <trkpt lat="43.89206" lon="4.04862">
        <ele>135</ele>
        <time>2011-02-27T14:37:51Z</time>
      </trkpt>
      <trkpt lat="43.89211" lon="4.04862">
        <ele>135</ele>
        <time>2011-02-27T14:37:52Z</time>
      </trkpt>
      <trkpt lat="43.89216" lon="4.04861">
        <ele>135</ele>
        <time>2011-02-27T14:37:53Z</time>
      </trkpt>
      <trkpt lat="43.89221" lon="4.0486">
        <ele>135</ele>
        <time>2011-02-27T14:37:54Z</time>
      </trkpt>
      <trkpt lat="43.89226" lon="4.04858">
        <ele>134</ele>
        <time>2011-02-27T14:37:55Z</time>
      </trkpt>
      <trkpt lat="43.89231" lon="4.04856">
        <ele>135</ele>
        <time>2011-02-27T14:37:56Z</time>
      </trkpt>
      <trkpt lat="43.89236" lon="4.04854">
        <ele>135</ele>
        <time>2011-02-27T14:37:57Z</time>
      </trkpt>
      <trkpt lat="43.89241" lon="4.04852">
        <ele>135</ele>
        <time>2011-02-27T14:37:58Z</time>
      </trkpt>
      <trkpt lat="43.89245" lon="4.0485">
        <ele>135</ele>
        <time>2011-02-27T14:37:59Z</time>
      </trkpt>
      <trkpt lat="43.8925" lon="4.04848">
        <ele>134</ele>
        <time>2011-02-27T14:38:00Z</time>
      </trkpt>
      <trkpt lat="43.89255" lon="4.04846">
        <ele>135</ele>
        <time>2011-02-27T14:38:01Z</time>
      </trkpt>
      <trkpt lat="43.8926" lon="4.04844">
        <ele>135</ele>
        <time>2011-02-27T14:38:02Z</time>
      </trkpt>
      <trkpt lat="43.89265" lon="4.04842">
        <ele>135</ele>
        <time>2011-02-27T14:38:03Z</time>
      </trkpt>
      <trkpt lat="43.89269" lon="4.04841">
        <ele>135</ele>
        <time>2011-02-27T14:38:04Z</time>
      </trkpt>
      <trkpt lat="43.89274" lon="4.04839">
        <ele>135</ele>
        <time>2011-02-27T14:38:05Z</time>
      </trkpt>
      <trkpt lat="43.89279" lon="4.04837">
        <ele>135</ele>
        <time>2011-02-27T14:38:06Z</time>
      </trkpt>
      <trkpt lat="43.89284" lon="4.04836">
        <ele>135</ele>
        <time>2011-02-27T14:38:07Z</time>
      </trkpt>
      <trkpt lat="43.89289" lon="4.04834">
        <ele>135</ele>
        <time>2011-02-27T14:38:08Z</time>
      </trkpt>
      <trkpt lat="43.89294" lon="4.04832">
        <ele>135</ele>
        <time>2011-02-27T14:38:09Z</time>
      </trkpt>
      <trkpt lat="43.89298" lon="4.0483">
        <ele>135</ele>
        <time>2011-02-27T14:38:10Z</time>
      </trkpt>
      <trkpt lat="43.89303" lon="4.04829">
        <ele>135</ele>
        <time>2011-02-27T14:38:11Z</time>
      </trkpt>
      <trkpt lat="43.89308" lon="4.04827">
        <ele>134</ele>
        <time>2011-02-27T14:38:12Z</time>
      </trkpt>
      <trkpt lat="43.89313" lon="4.04825">
        <ele>134</ele>
        <time>2011-02-27T14:38:13Z</time>
      </trkpt>
      <trkpt lat="43.89318" lon="4.04823">
        <ele>134</ele>
        <time>2011-02-27T14:38:14Z</time>
      </trkpt>
      <trkpt lat="43.89323" lon="4.04821">
        <ele>134</ele>
        <time>2011-02-27T14:38:15Z</time>
      </trkpt>
      <trkpt lat="43.89327" lon="4.0482">
        <ele>134</ele>
        <time>2011-02-27T14:38:16Z</time>
      </trkpt>
      <trkpt lat="43.89332" lon="4.04818">
        <ele>135</ele>
        <time>2011-02-27T14:38:17Z</time>
      </trkpt>
      <trkpt lat="43.89337" lon="4.04817">
        <ele>135</ele>
        <time>2011-02-27T14:38:18Z</time>
      </trkpt>
      <trkpt lat="43.89342" lon="4.04816">
        <ele>135</ele>
        <time>2011-02-27T14:38:19Z</time>
      </trkpt>
      <trkpt lat="43.89347" lon="4.04814">
        <ele>135</ele>
        <time>2011-02-27T14:38:20Z</time>
      </trkpt>
      <trkpt lat="43.89352" lon="4.04813">
        <ele>135</ele>
        <time>2011-02-27T14:38:21Z</time>
      </trkpt>
      <trkpt lat="43.89357" lon="4.04811">
        <ele>136</ele>
        <time>2011-02-27T14:38:22Z</time>
      </trkpt>
      <trkpt lat="43.89362" lon="4.04809">
        <ele>136</ele>
        <time>2011-02-27T14:38:23Z</time>
      </trkpt>
      <trkpt lat="43.89367" lon="4.04807">
        <ele>135</ele>
        <time>2011-02-27T14:38:24Z</time>
      </trkpt>
      <trkpt lat="43.89372" lon="4.04805">
        <ele>135</ele>
        <time>2011-02-27T14:38:25Z</time>
      </trkpt>
      <trkpt lat="43.89377" lon="4.04803">
        <ele>135</ele>
        <time>2011-02-27T14:38:26Z</time>
      </trkpt>
      <trkpt lat="43.89381" lon="4.04801">
        <ele>135</ele>
        <time>2011-02-27T14:38:27Z</time>
      </trkpt>
      <trkpt lat="43.89386" lon="4.04799">
        <ele>135</ele>
        <time>2011-02-27T14:38:28Z</time>
      </trkpt>
      <trkpt lat="43.89391" lon="4.04797">
        <ele>135</ele>
        <time>2011-02-27T14:38:29Z</time>
      </trkpt>
      <trkpt lat="43.89395" lon="4.04795">
        <ele>135</ele>
        <time>2011-02-27T14:38:30Z</time>
      </trkpt>
      <trkpt lat="43.894" lon="4.04793">
        <ele>135</ele>
        <time>2011-02-27T14:38:31Z</time>
      </trkpt>
      <trkpt lat="43.89404" lon="4.04792">
        <ele>136</ele>
        <time>2011-02-27T14:38:32Z</time>
      </trkpt>
      <trkpt lat="43.89409" lon="4.04791">
        <ele>136</ele>
        <time>2011-02-27T14:38:33Z</time>
      </trkpt>
      <trkpt lat="43.89414" lon="4.0479">
        <ele>136</ele>
        <time>2011-02-27T14:38:34Z</time>
      </trkpt>
      <trkpt lat="43.89418" lon="4.04789">
        <ele>136</ele>
        <time>2011-02-27T14:38:35Z</time>
      </trkpt>
      <trkpt lat="43.89423" lon="4.04789">
        <ele>136</ele>
        <time>2011-02-27T14:38:36Z</time>
      </trkpt>
      <trkpt lat="43.89427" lon="4.04788">
        <ele>137</ele>
        <time>2011-02-27T14:38:37Z</time>
      </trkpt>
      <trkpt lat="43.89432" lon="4.04787">
        <ele>137</ele>
        <time>2011-02-27T14:38:38Z</time>
      </trkpt>
      <trkpt lat="43.89437" lon="4.04786">
        <ele>137</ele>
        <time>2011-02-27T14:38:39Z</time>
      </trkpt>
      <trkpt lat="43.89441" lon="4.04786">
        <ele>137</ele>
        <time>2011-02-27T14:38:40Z</time>
      </trkpt>
      <trkpt lat="43.89446" lon="4.04785">
        <ele>137</ele>
        <time>2011-02-27T14:38:41Z</time>
      </trkpt>
      <trkpt lat="43.89451" lon="4.04784">
        <ele>137</ele>
        <time>2011-02-27T14:38:42Z</time>
      </trkpt>
      <trkpt lat="43.89456" lon="4.04783">
        <ele>137</ele>
        <time>2011-02-27T14:38:43Z</time>
      </trkpt>
      <trkpt lat="43.89461" lon="4.04782">
        <ele>138</ele>
        <time>2011-02-27T14:38:44Z</time>
      </trkpt>
      <trkpt lat="43.89466" lon="4.04782">
        <ele>138</ele>
        <time>2011-02-27T14:38:45Z</time>
      </trkpt>
      <trkpt lat="43.89471" lon="4.04781">
        <ele>138</ele>
        <time>2011-02-27T14:38:46Z</time>
      </trkpt>
      <trkpt lat="43.89476" lon="4.0478">
        <ele>138</ele>
        <time>2011-02-27T14:38:47Z</time>
      </trkpt>
      <trkpt lat="43.8948" lon="4.0478">
        <ele>138</ele>
        <time>2011-02-27T14:38:48Z</time>
      </trkpt>
      <trkpt lat="43.89485" lon="4.04779">
        <ele>138</ele>
        <time>2011-02-27T14:38:49Z</time>
      </trkpt>
      <trkpt lat="43.8949" lon="4.04779">
        <ele>138</ele>
        <time>2011-02-27T14:38:50Z</time>
      </trkpt>
      <trkpt lat="43.89495" lon="4.04779">
        <ele>139</ele>
        <time>2011-02-27T14:38:51Z</time>
      </trkpt>
      <trkpt lat="43.895" lon="4.04778">
        <ele>139</ele>
        <time>2011-02-27T14:38:52Z</time>
      </trkpt>
      <trkpt lat="43.89505" lon="4.04778">
        <ele>139</ele>
        <time>2011-02-27T14:38:53Z</time>
      </trkpt>
      <trkpt lat="43.89509" lon="4.04778">
        <ele>139</ele>
        <time>2011-02-27T14:38:54Z</time>
      </trkpt>
      <trkpt lat="43.89514" lon="4.04778">
        <ele>139</ele>
        <time>2011-02-27T14:38:55Z</time>
      </trkpt>
      <trkpt lat="43.89519" lon="4.04777">
        <ele>139</ele>
        <time>2011-02-27T14:38:56Z</time>
      </trkpt>
      <trkpt lat="43.89523" lon="4.04777">
        <ele>139</ele>
        <time>2011-02-27T14:38:57Z</time>
      </trkpt>
      <trkpt lat="43.89528" lon="4.04777">
        <ele>140</ele>
        <time>2011-02-27T14:38:58Z</time>
      </trkpt>
      <trkpt lat="43.89532" lon="4.04777">
        <ele>140</ele>
        <time>2011-02-27T14:38:59Z</time>
      </trkpt>
      <trkpt lat="43.89537" lon="4.04776">
        <ele>140</ele>
        <time>2011-02-27T14:39:00Z</time>
      </trkpt>
      <trkpt lat="43.89546" lon="4.04776">
        <ele>141</ele>
        <time>2011-02-27T14:39:02Z</time>
      </trkpt>
      <trkpt lat="43.8955" lon="4.04776">
        <ele>141</ele>
        <time>2011-02-27T14:39:03Z</time>
      </trkpt>
      <trkpt lat="43.89555" lon="4.04775">
        <ele>142</ele>
        <time>2011-02-27T14:39:04Z</time>
      </trkpt>
      <trkpt lat="43.8956" lon="4.04775">
        <ele>142</ele>
        <time>2011-02-27T14:39:05Z</time>
      </trkpt>
      <trkpt lat="43.89564" lon="4.04774">
        <ele>142</ele>
        <time>2011-02-27T14:39:06Z</time>
      </trkpt>
      <trkpt lat="43.89569" lon="4.04773">
        <ele>142</ele>
        <time>2011-02-27T14:39:07Z</time>
      </trkpt>
      <trkpt lat="43.89574" lon="4.04772">
        <ele>142</ele>
        <time>2011-02-27T14:39:08Z</time>
      </trkpt>
      <trkpt lat="43.89578" lon="4.04771">
        <ele>142</ele>
        <time>2011-02-27T14:39:09Z</time>
      </trkpt>
      <trkpt lat="43.89583" lon="4.0477">
        <ele>142</ele>
        <time>2011-02-27T14:39:10Z</time>
      </trkpt>
      <trkpt lat="43.89588" lon="4.04768">
        <ele>142</ele>
        <time>2011-02-27T14:39:11Z</time>
      </trkpt>
      <trkpt lat="43.89592" lon="4.04767">
        <ele>142</ele>
        <time>2011-02-27T14:39:12Z</time>
      </trkpt>
      <trkpt lat="43.89597" lon="4.04765">
        <ele>142</ele>
        <time>2011-02-27T14:39:13Z</time>
      </trkpt>
      <trkpt lat="43.89601" lon="4.04763">
        <ele>142</ele>
        <time>2011-02-27T14:39:14Z</time>
      </trkpt>
      <trkpt lat="43.89606" lon="4.04762">
        <ele>142</ele>
        <time>2011-02-27T14:39:15Z</time>
      </trkpt>
      <trkpt lat="43.89611" lon="4.0476">
        <ele>142</ele>
        <time>2011-02-27T14:39:16Z</time>
      </trkpt>
      <trkpt lat="43.89615" lon="4.04758">
        <ele>142</ele>
        <time>2011-02-27T14:39:17Z</time>
      </trkpt>
      <trkpt lat="43.8962" lon="4.04757">
        <ele>142</ele>
        <time>2011-02-27T14:39:18Z</time>
      </trkpt>
      <trkpt lat="43.89625" lon="4.04755">
        <ele>142</ele>
        <time>2011-02-27T14:39:19Z</time>
      </trkpt>
      <trkpt lat="43.8963" lon="4.04754">
        <ele>141</ele>
        <time>2011-02-27T14:39:20Z</time>
      </trkpt>
      <trkpt lat="43.89634" lon="4.04752">
        <ele>142</ele>
        <time>2011-02-27T14:39:21Z</time>
      </trkpt>
      <trkpt lat="43.89639" lon="4.0475">
        <ele>142</ele>
        <time>2011-02-27T14:39:22Z</time>
      </trkpt>
      <trkpt lat="43.89643" lon="4.04748">
        <ele>141</ele>
        <time>2011-02-27T14:39:23Z</time>
      </trkpt>
      <trkpt lat="43.89648" lon="4.04747">
        <ele>141</ele>
        <time>2011-02-27T14:39:24Z</time>
      </trkpt>
      <trkpt lat="43.89653" lon="4.04745">
        <ele>141</ele>
        <time>2011-02-27T14:39:25Z</time>
      </trkpt>
      <trkpt lat="43.89657" lon="4.04744">
        <ele>141</ele>
        <time>2011-02-27T14:39:26Z</time>
      </trkpt>
      <trkpt lat="43.89662" lon="4.04742">
        <ele>141</ele>
        <time>2011-02-27T14:39:27Z</time>
      </trkpt>
      <trkpt lat="43.89666" lon="4.04741">
        <ele>141</ele>
        <time>2011-02-27T14:39:28Z</time>
      </trkpt>
      <trkpt lat="43.89671" lon="4.04739">
        <ele>141</ele>
        <time>2011-02-27T14:39:29Z</time>
      </trkpt>
      <trkpt lat="43.89676" lon="4.04738">
        <ele>141</ele>
        <time>2011-02-27T14:39:30Z</time>
      </trkpt>
      <trkpt lat="43.8968" lon="4.04736">
        <ele>141</ele>
        <time>2011-02-27T14:39:31Z</time>
      </trkpt>
      <trkpt lat="43.89685" lon="4.04735">
        <ele>141</ele>
        <time>2011-02-27T14:39:32Z</time>
      </trkpt>
      <trkpt lat="43.8969" lon="4.04734">
        <ele>141</ele>
        <time>2011-02-27T14:39:33Z</time>
      </trkpt>
      <trkpt lat="43.89694" lon="4.04732">
        <ele>141</ele>
        <time>2011-02-27T14:39:34Z</time>
      </trkpt>
      <trkpt lat="43.89699" lon="4.0473">
        <ele>141</ele>
        <time>2011-02-27T14:39:35Z</time>
      </trkpt>
      <trkpt lat="43.89703" lon="4.04729">
        <ele>140</ele>
        <time>2011-02-27T14:39:36Z</time>
      </trkpt>
      <trkpt lat="43.89708" lon="4.04727">
        <ele>140</ele>
        <time>2011-02-27T14:39:37Z</time>
      </trkpt>
      <trkpt lat="43.89713" lon="4.04726">
        <ele>141</ele>
        <time>2011-02-27T14:39:38Z</time>
      </trkpt>
      <trkpt lat="43.89717" lon="4.04724">
        <ele>141</ele>
        <time>2011-02-27T14:39:39Z</time>
      </trkpt>
      <trkpt lat="43.89722" lon="4.04722">
        <ele>141</ele>
        <time>2011-02-27T14:39:40Z</time>
      </trkpt>
      <trkpt lat="43.89726" lon="4.0472">
        <ele>141</ele>
        <time>2011-02-27T14:39:41Z</time>
      </trkpt>
      <trkpt lat="43.89731" lon="4.04718">
        <ele>141</ele>
        <time>2011-02-27T14:39:42Z</time>
      </trkpt>
      <trkpt lat="43.89735" lon="4.04716">
        <ele>141</ele>
        <time>2011-02-27T14:39:43Z</time>
      </trkpt>
      <trkpt lat="43.89739" lon="4.04714">
        <ele>141</ele>
        <time>2011-02-27T14:39:44Z</time>
      </trkpt>
      <trkpt lat="43.89744" lon="4.04712">
        <ele>141</ele>
        <time>2011-02-27T14:39:45Z</time>
      </trkpt>
      <trkpt lat="43.89748" lon="4.04711">
        <ele>141</ele>
        <time>2011-02-27T14:39:46Z</time>
      </trkpt>
      <trkpt lat="43.89757" lon="4.04707">
        <ele>142</ele>
        <time>2011-02-27T14:39:48Z</time>
      </trkpt>
      <trkpt lat="43.89765" lon="4.04704">
        <ele>142</ele>
        <time>2011-02-27T14:39:50Z</time>
      </trkpt>
      <trkpt lat="43.89774" lon="4.04702">
        <ele>142</ele>
        <time>2011-02-27T14:39:52Z</time>
      </trkpt>
      <trkpt lat="43.89783" lon="4.04699">
        <ele>142</ele>
        <time>2011-02-27T14:39:54Z</time>
      </trkpt>
      <trkpt lat="43.89787" lon="4.04698">
        <ele>142</ele>
        <time>2011-02-27T14:39:55Z</time>
      </trkpt>
      <trkpt lat="43.89795" lon="4.04695">
        <ele>142</ele>
        <time>2011-02-27T14:39:57Z</time>
      </trkpt>
      <trkpt lat="43.89804" lon="4.04691">
        <ele>142</ele>
        <time>2011-02-27T14:39:59Z</time>
      </trkpt>
      <trkpt lat="43.89813" lon="4.04688">
        <ele>142</ele>
        <time>2011-02-27T14:40:01Z</time>
      </trkpt>
      <trkpt lat="43.89817" lon="4.04687">
        <ele>142</ele>
        <time>2011-02-27T14:40:02Z</time>
      </trkpt>
      <trkpt lat="43.89822" lon="4.04685">
        <ele>142</ele>
        <time>2011-02-27T14:40:03Z</time>
      </trkpt>
      <trkpt lat="43.89826" lon="4.04684">
        <ele>142</ele>
        <time>2011-02-27T14:40:04Z</time>
      </trkpt>
      <trkpt lat="43.89831" lon="4.04682">
        <ele>142</ele>
        <time>2011-02-27T14:40:05Z</time>
      </trkpt>
      <trkpt lat="43.89835" lon="4.0468">
        <ele>142</ele>
        <time>2011-02-27T14:40:06Z</time>
      </trkpt>
      <trkpt lat="43.8984" lon="4.04678">
        <ele>142</ele>
        <time>2011-02-27T14:40:07Z</time>
      </trkpt>
      <trkpt lat="43.89845" lon="4.04677">
        <ele>143</ele>
        <time>2011-02-27T14:40:08Z</time>
      </trkpt>
      <trkpt lat="43.89849" lon="4.04676">
        <ele>143</ele>
        <time>2011-02-27T14:40:09Z</time>
      </trkpt>
      <trkpt lat="43.89854" lon="4.04674">
        <ele>143</ele>
        <time>2011-02-27T14:40:10Z</time>
      </trkpt>
      <trkpt lat="43.89859" lon="4.04673">
        <ele>143</ele>
        <time>2011-02-27T14:40:11Z</time>
      </trkpt>
      <trkpt lat="43.89864" lon="4.04671">
        <ele>143</ele>
        <time>2011-02-27T14:40:12Z</time>
      </trkpt>
      <trkpt lat="43.89868" lon="4.0467">
        <ele>144</ele>
        <time>2011-02-27T14:40:13Z</time>
      </trkpt>
      <trkpt lat="43.89873" lon="4.04669">
        <ele>144</ele>
        <time>2011-02-27T14:40:14Z</time>
      </trkpt>
      <trkpt lat="43.89878" lon="4.04668">
        <ele>144</ele>
        <time>2011-02-27T14:40:15Z</time>
      </trkpt>
      <trkpt lat="43.89883" lon="4.04667">
        <ele>145</ele>
        <time>2011-02-27T14:40:16Z</time>
      </trkpt>
      <trkpt lat="43.89887" lon="4.04666">
        <ele>145</ele>
        <time>2011-02-27T14:40:17Z</time>
      </trkpt>
      <trkpt lat="43.89896" lon="4.04664">
        <ele>145</ele>
        <time>2011-02-27T14:40:19Z</time>
      </trkpt>
      <trkpt lat="43.89904" lon="4.04662">
        <ele>146</ele>
        <time>2011-02-27T14:40:21Z</time>
      </trkpt>
      <trkpt lat="43.89912" lon="4.04661">
        <ele>146</ele>
        <time>2011-02-27T14:40:23Z</time>
      </trkpt>
      <trkpt lat="43.89921" lon="4.04661">
        <ele>147</ele>
        <time>2011-02-27T14:40:25Z</time>
      </trkpt>
      <trkpt lat="43.89929" lon="4.04663">
        <ele>147</ele>
        <time>2011-02-27T14:40:27Z</time>
      </trkpt>
      <trkpt lat="43.89937" lon="4.04665">
        <ele>147</ele>
        <time>2011-02-27T14:40:29Z</time>
      </trkpt>
      <trkpt lat="43.89945" lon="4.04668">
        <ele>148</ele>
        <time>2011-02-27T14:40:31Z</time>
      </trkpt>
      <trkpt lat="43.89949" lon="4.04669">
        <ele>148</ele>
        <time>2011-02-27T14:40:32Z</time>
      </trkpt>
      <trkpt lat="43.89958" lon="4.04671">
        <ele>149</ele>
        <time>2011-02-27T14:40:34Z</time>
      </trkpt>
      <trkpt lat="43.89966" lon="4.04672">
        <ele>149</ele>
        <time>2011-02-27T14:40:36Z</time>
      </trkpt>
      <trkpt lat="43.89975" lon="4.04673">
        <ele>149</ele>
        <time>2011-02-27T14:40:38Z</time>
      </trkpt>
      <trkpt lat="43.89983" lon="4.04673">
        <ele>150</ele>
        <time>2011-02-27T14:40:40Z</time>
      </trkpt>
      <trkpt lat="43.89987" lon="4.04673">
        <ele>150</ele>
        <time>2011-02-27T14:40:41Z</time>
      </trkpt>
      <trkpt lat="43.89995" lon="4.04668">
        <ele>152</ele>
        <time>2011-02-27T14:40:43Z</time>
      </trkpt>
      <trkpt lat="43.90002" lon="4.04662">
        <ele>153</ele>
        <time>2011-02-27T14:40:45Z</time>
      </trkpt>
      <trkpt lat="43.90009" lon="4.04655">
        <ele>155</ele>
        <time>2011-02-27T14:40:47Z</time>
      </trkpt>
      <trkpt lat="43.90015" lon="4.04648">
        <ele>156</ele>
        <time>2011-02-27T14:40:49Z</time>
      </trkpt>
      <trkpt lat="43.90019" lon="4.04644">
        <ele>156</ele>
        <time>2011-02-27T14:40:50Z</time>
      </trkpt>
      <trkpt lat="43.90026" lon="4.04637">
        <ele>157</ele>
        <time>2011-02-27T14:40:52Z</time>
      </trkpt>
      <trkpt lat="43.90033" lon="4.04633">
        <ele>158</ele>
        <time>2011-02-27T14:40:54Z</time>
      </trkpt>
      <trkpt lat="43.90042" lon="4.04631">
        <ele>159</ele>
        <time>2011-02-27T14:40:56Z</time>
      </trkpt>
      <trkpt lat="43.9005" lon="4.04633">
        <ele>159</ele>
        <time>2011-02-27T14:40:58Z</time>
      </trkpt>
      <trkpt lat="43.90058" lon="4.04635">
        <ele>159</ele>
        <time>2011-02-27T14:41:00Z</time>
      </trkpt>
      <trkpt lat="43.90066" lon="4.04639">
        <ele>160</ele>
        <time>2011-02-27T14:41:02Z</time>
      </trkpt>
      <trkpt lat="43.90074" lon="4.04643">
        <ele>160</ele>
        <time>2011-02-27T14:41:04Z</time>
      </trkpt>
      <trkpt lat="43.90082" lon="4.04646">
        <ele>160</ele>
        <time>2011-02-27T14:41:06Z</time>
      </trkpt>
      <trkpt lat="43.9009" lon="4.04649">
        <ele>161</ele>
        <time>2011-02-27T14:41:08Z</time>
      </trkpt>
      <trkpt lat="43.90098" lon="4.04649">
        <ele>162</ele>
        <time>2011-02-27T14:41:10Z</time>
      </trkpt>
      <trkpt lat="43.90107" lon="4.04649">
        <ele>163</ele>
        <time>2011-02-27T14:41:12Z</time>
      </trkpt>
      <trkpt lat="43.90115" lon="4.04649">
        <ele>163</ele>
        <time>2011-02-27T14:41:14Z</time>
      </trkpt>
      <trkpt lat="43.90119" lon="4.04649">
        <ele>163</ele>
        <time>2011-02-27T14:41:15Z</time>
      </trkpt>
      <trkpt lat="43.90128" lon="4.04646">
        <ele>163</ele>
        <time>2011-02-27T14:41:17Z</time>
      </trkpt>
      <trkpt lat="43.90136" lon="4.04644">
        <ele>164</ele>
        <time>2011-02-27T14:41:19Z</time>
      </trkpt>
      <trkpt lat="43.90143" lon="4.04641">
        <ele>165</ele>
        <time>2011-02-27T14:41:21Z</time>
      </trkpt>
      <trkpt lat="43.9015" lon="4.04639">
        <ele>165</ele>
        <time>2011-02-27T14:41:23Z</time>
      </trkpt>
      <trkpt lat="43.90157" lon="4.04638">
        <ele>165</ele>
        <time>2011-02-27T14:41:25Z</time>
      </trkpt>
      <trkpt lat="43.90165" lon="4.04638">
        <ele>166</ele>
        <time>2011-02-27T14:41:27Z</time>
      </trkpt>
      <trkpt lat="43.90168" lon="4.04638">
        <ele>166</ele>
        <time>2011-02-27T14:41:28Z</time>
      </trkpt>
      <trkpt lat="43.90176" lon="4.04639">
        <ele>167</ele>
        <time>2011-02-27T14:41:30Z</time>
      </trkpt>
      <trkpt lat="43.90183" lon="4.04641">
        <ele>168</ele>
        <time>2011-02-27T14:41:32Z</time>
      </trkpt>
      <trkpt lat="43.9019" lon="4.04642">
        <ele>169</ele>
        <time>2011-02-27T14:41:34Z</time>
      </trkpt>
      <trkpt lat="43.90197" lon="4.04644">
        <ele>169</ele>
        <time>2011-02-27T14:41:36Z</time>
      </trkpt>
      <trkpt lat="43.902" lon="4.04643">
        <ele>170</ele>
        <time>2011-02-27T14:41:37Z</time>
      </trkpt>
      <trkpt lat="43.90207" lon="4.0464">
        <ele>170</ele>
        <time>2011-02-27T14:41:39Z</time>
      </trkpt>
      <trkpt lat="43.90213" lon="4.04638">
        <ele>170</ele>
        <time>2011-02-27T14:41:41Z</time>
      </trkpt>
      <trkpt lat="43.90219" lon="4.04633">
        <ele>170</ele>
        <time>2011-02-27T14:41:43Z</time>
      </trkpt>
      <trkpt lat="43.90224" lon="4.04627">
        <ele>171</ele>
        <time>2011-02-27T14:41:45Z</time>
      </trkpt>
      <trkpt lat="43.90229" lon="4.0462">
        <ele>171</ele>
        <time>2011-02-27T14:41:47Z</time>
      </trkpt>
      <trkpt lat="43.90233" lon="4.04612">
        <ele>171</ele>
        <time>2011-02-27T14:41:49Z</time>
      </trkpt>
      <trkpt lat="43.90237" lon="4.04604">
        <ele>170</ele>
        <time>2011-02-27T14:41:51Z</time>
      </trkpt>
      <trkpt lat="43.90241" lon="4.04595">
        <ele>170</ele>
        <time>2011-02-27T14:41:53Z</time>
      </trkpt>
      <trkpt lat="43.90246" lon="4.04585">
        <ele>171</ele>
        <time>2011-02-27T14:41:55Z</time>
      </trkpt>
      <trkpt lat="43.90249" lon="4.0458">
        <ele>171</ele>
        <time>2011-02-27T14:41:56Z</time>
      </trkpt>
      <trkpt lat="43.90252" lon="4.04574">
        <ele>171</ele>
        <time>2011-02-27T14:41:57Z</time>
      </trkpt>
      <trkpt lat="43.90256" lon="4.04568">
        <ele>171</ele>
        <time>2011-02-27T14:41:58Z</time>
      </trkpt>
      <trkpt lat="43.9026" lon="4.04562">
        <ele>171</ele>
        <time>2011-02-27T14:41:59Z</time>
      </trkpt>
      <trkpt lat="43.90265" lon="4.04556">
        <ele>171</ele>
        <time>2011-02-27T14:42:00Z</time>
      </trkpt>
      <trkpt lat="43.9027" lon="4.0455">
        <ele>171</ele>
        <time>2011-02-27T14:42:01Z</time>
      </trkpt>
      <trkpt lat="43.90275" lon="4.04545">
        <ele>171</ele>
        <time>2011-02-27T14:42:02Z</time>
      </trkpt>
      <trkpt lat="43.9028" lon="4.04539">
        <ele>171</ele>
        <time>2011-02-27T14:42:03Z</time>
      </trkpt>
      <trkpt lat="43.90285" lon="4.04534">
        <ele>170</ele>
        <time>2011-02-27T14:42:04Z</time>
      </trkpt>
      <trkpt lat="43.9029" lon="4.04528">
        <ele>170</ele>
        <time>2011-02-27T14:42:05Z</time>
      </trkpt>
      <trkpt lat="43.90295" lon="4.04523">
        <ele>170</ele>
        <time>2011-02-27T14:42:06Z</time>
      </trkpt>
      <trkpt lat="43.90301" lon="4.04518">
        <ele>170</ele>
        <time>2011-02-27T14:42:07Z</time>
      </trkpt>
      <trkpt lat="43.90306" lon="4.04513">
        <ele>170</ele>
        <time>2011-02-27T14:42:08Z</time>
      </trkpt>
      <trkpt lat="43.90312" lon="4.04509">
        <ele>170</ele>
        <time>2011-02-27T14:42:09Z</time>
      </trkpt>
      <trkpt lat="43.90318" lon="4.04506">
        <ele>169</ele>
        <time>2011-02-27T14:42:10Z</time>
      </trkpt>
      <trkpt lat="43.90325" lon="4.04505">
        <ele>169</ele>
        <time>2011-02-27T14:42:11Z</time>
      </trkpt>
      <trkpt lat="43.90331" lon="4.04505">
        <ele>170</ele>
        <time>2011-02-27T14:42:12Z</time>
      </trkpt>
      <trkpt lat="43.90337" lon="4.04505">
        <ele>170</ele>
        <time>2011-02-27T14:42:13Z</time>
      </trkpt>
      <trkpt lat="43.90343" lon="4.04506">
        <ele>170</ele>
        <time>2011-02-27T14:42:14Z</time>
      </trkpt>
      <trkpt lat="43.90349" lon="4.04508">
        <ele>170</ele>
        <time>2011-02-27T14:42:15Z</time>
      </trkpt>
      <trkpt lat="43.90355" lon="4.0451">
        <ele>170</ele>
        <time>2011-02-27T14:42:16Z</time>
      </trkpt>
      <trkpt lat="43.90361" lon="4.04512">
        <ele>171</ele>
        <time>2011-02-27T14:42:17Z</time>
      </trkpt>
      <trkpt lat="43.90367" lon="4.04514">
        <ele>170</ele>
        <time>2011-02-27T14:42:18Z</time>
      </trkpt>
      <trkpt lat="43.90372" lon="4.04517">
        <ele>170</ele>
        <time>2011-02-27T14:42:19Z</time>
      </trkpt>
      <trkpt lat="43.90378" lon="4.0452">
        <ele>170</ele>
        <time>2011-02-27T14:42:20Z</time>
      </trkpt>
      <trkpt lat="43.90383" lon="4.04523">
        <ele>170</ele>
        <time>2011-02-27T14:42:21Z</time>
      </trkpt>
      <trkpt lat="43.90388" lon="4.04526">
        <ele>170</ele>
        <time>2011-02-27T14:42:22Z</time>
      </trkpt>
      <trkpt lat="43.90394" lon="4.0453">
        <ele>170</ele>
        <time>2011-02-27T14:42:23Z</time>
      </trkpt>
      <trkpt lat="43.90399" lon="4.04533">
        <ele>170</ele>
        <time>2011-02-27T14:42:24Z</time>
      </trkpt>
      <trkpt lat="43.90405" lon="4.04536">
        <ele>170</ele>
        <time>2011-02-27T14:42:25Z</time>
      </trkpt>
      <trkpt lat="43.90411" lon="4.04539">
        <ele>170</ele>
        <time>2011-02-27T14:42:26Z</time>
      </trkpt>
      <trkpt lat="43.90416" lon="4.04543">
        <ele>169</ele>
        <time>2011-02-27T14:42:27Z</time>
      </trkpt>
      <trkpt lat="43.90422" lon="4.04546">
        <ele>169</ele>
        <time>2011-02-27T14:42:28Z</time>
      </trkpt>
      <trkpt lat="43.90428" lon="4.04549">
        <ele>169</ele>
        <time>2011-02-27T14:42:29Z</time>
      </trkpt>
      <trkpt lat="43.90433" lon="4.04553">
        <ele>168</ele>
        <time>2011-02-27T14:42:30Z</time>
      </trkpt>
      <trkpt lat="43.90439" lon="4.04556">
        <ele>167</ele>
        <time>2011-02-27T14:42:31Z</time>
      </trkpt>
      <trkpt lat="43.90445" lon="4.04559">
        <ele>167</ele>
        <time>2011-02-27T14:42:32Z</time>
      </trkpt>
      <trkpt lat="43.90451" lon="4.04562">
        <ele>166</ele>
        <time>2011-02-27T14:42:33Z</time>
      </trkpt>
      <trkpt lat="43.90457" lon="4.04565">
        <ele>166</ele>
        <time>2011-02-27T14:42:34Z</time>
      </trkpt>
      <trkpt lat="43.90463" lon="4.04568">
        <ele>165</ele>
        <time>2011-02-27T14:42:35Z</time>
      </trkpt>
      <trkpt lat="43.9047" lon="4.04571">
        <ele>165</ele>
        <time>2011-02-27T14:42:36Z</time>
      </trkpt>
      <trkpt lat="43.90476" lon="4.04573">
        <ele>164</ele>
        <time>2011-02-27T14:42:37Z</time>
      </trkpt>
      <trkpt lat="43.90483" lon="4.04575">
        <ele>164</ele>
        <time>2011-02-27T14:42:38Z</time>
      </trkpt>
      <trkpt lat="43.9049" lon="4.04576">
        <ele>163</ele>
        <time>2011-02-27T14:42:39Z</time>
      </trkpt>
      <trkpt lat="43.90497" lon="4.04576">
        <ele>163</ele>
        <time>2011-02-27T14:42:40Z</time>
      </trkpt>
      <trkpt lat="43.90504" lon="4.04577">
        <ele>162</ele>
        <time>2011-02-27T14:42:41Z</time>
      </trkpt>
      <trkpt lat="43.90511" lon="4.04577">
        <ele>162</ele>
        <time>2011-02-27T14:42:42Z</time>
      </trkpt>
      <trkpt lat="43.90519" lon="4.04576">
        <ele>161</ele>
        <time>2011-02-27T14:42:43Z</time>
      </trkpt>
      <trkpt lat="43.90526" lon="4.04575">
        <ele>161</ele>
        <time>2011-02-27T14:42:44Z</time>
      </trkpt>
      <trkpt lat="43.90534" lon="4.04574">
        <ele>161</ele>
        <time>2011-02-27T14:42:45Z</time>
      </trkpt>
      <trkpt lat="43.90541" lon="4.04572">
        <ele>160</ele>
        <time>2011-02-27T14:42:46Z</time>
      </trkpt>
      <trkpt lat="43.90548" lon="4.04571">
        <ele>160</ele>
        <time>2011-02-27T14:42:47Z</time>
      </trkpt>
      <trkpt lat="43.90555" lon="4.04569">
        <ele>160</ele>
        <time>2011-02-27T14:42:48Z</time>
      </trkpt>
      <trkpt lat="43.90562" lon="4.04567">
        <ele>160</ele>
        <time>2011-02-27T14:42:49Z</time>
      </trkpt>
      <trkpt lat="43.9057" lon="4.04564">
        <ele>160</ele>
        <time>2011-02-27T14:42:50Z</time>
      </trkpt>
      <trkpt lat="43.90577" lon="4.04561">
        <ele>160</ele>
        <time>2011-02-27T14:42:51Z</time>
      </trkpt>
      <trkpt lat="43.90585" lon="4.04558">
        <ele>160</ele>
        <time>2011-02-27T14:42:52Z</time>
      </trkpt>
      <trkpt lat="43.90592" lon="4.04556">
        <ele>160</ele>
        <time>2011-02-27T14:42:53Z</time>
      </trkpt>
      <trkpt lat="43.90599" lon="4.04553">
        <ele>160</ele>
        <time>2011-02-27T14:42:54Z</time>
      </trkpt>
      <trkpt lat="43.90607" lon="4.0455">
        <ele>160</ele>
        <time>2011-02-27T14:42:55Z</time>
      </trkpt>
      <trkpt lat="43.90614" lon="4.04547">
        <ele>159</ele>
        <time>2011-02-27T14:42:56Z</time>
      </trkpt>
      <trkpt lat="43.90621" lon="4.04545">
        <ele>159</ele>
        <time>2011-02-27T14:42:57Z</time>
      </trkpt>
      <trkpt lat="43.90629" lon="4.04543">
        <ele>159</ele>
        <time>2011-02-27T14:42:58Z</time>
      </trkpt>
      <trkpt lat="43.90636" lon="4.04542">
        <ele>159</ele>
        <time>2011-02-27T14:42:59Z</time>
      </trkpt>
      <trkpt lat="43.90644" lon="4.04543">
        <ele>159</ele>
        <time>2011-02-27T14:43:00Z</time>
      </trkpt>
      <trkpt lat="43.90651" lon="4.04545">
        <ele>159</ele>
        <time>2011-02-27T14:43:01Z</time>
      </trkpt>
      <trkpt lat="43.90658" lon="4.04548">
        <ele>158</ele>
        <time>2011-02-27T14:43:02Z</time>
      </trkpt>
      <trkpt lat="43.90665" lon="4.04552">
        <ele>158</ele>
        <time>2011-02-27T14:43:03Z</time>
      </trkpt>
      <trkpt lat="43.90672" lon="4.04557">
        <ele>158</ele>
        <time>2011-02-27T14:43:04Z</time>
      </trkpt>
      <trkpt lat="43.90678" lon="4.04563">
        <ele>157</ele>
        <time>2011-02-27T14:43:05Z</time>
      </trkpt>
      <trkpt lat="43.90684" lon="4.04569">
        <ele>157</ele>
        <time>2011-02-27T14:43:06Z</time>
      </trkpt>
      <trkpt lat="43.90691" lon="4.04576">
        <ele>157</ele>
        <time>2011-02-27T14:43:07Z</time>
      </trkpt>
      <trkpt lat="43.90698" lon="4.04582">
        <ele>157</ele>
        <time>2011-02-27T14:43:08Z</time>
      </trkpt>
      <trkpt lat="43.90705" lon="4.04587">
        <ele>157</ele>
        <time>2011-02-27T14:43:09Z</time>
      </trkpt>
      <trkpt lat="43.90713" lon="4.0459">
        <ele>156</ele>
        <time>2011-02-27T14:43:10Z</time>
      </trkpt>
      <trkpt lat="43.90721" lon="4.04589">
        <ele>156</ele>
        <time>2011-02-27T14:43:11Z</time>
      </trkpt>
      <trkpt lat="43.90729" lon="4.04589">
        <ele>156</ele>
        <time>2011-02-27T14:43:12Z</time>
      </trkpt>
      <trkpt lat="43.90738" lon="4.04589">
        <ele>155</ele>
        <time>2011-02-27T14:43:13Z</time>
      </trkpt>
      <trkpt lat="43.90747" lon="4.04588">
        <ele>155</ele>
        <time>2011-02-27T14:43:14Z</time>
      </trkpt>
      <trkpt lat="43.90756" lon="4.04587">
        <ele>155</ele>
        <time>2011-02-27T14:43:15Z</time>
      </trkpt>
      <trkpt lat="43.90765" lon="4.04586">
        <ele>155</ele>
        <time>2011-02-27T14:43:16Z</time>
      </trkpt>
      <trkpt lat="43.90775" lon="4.04585">
        <ele>155</ele>
        <time>2011-02-27T14:43:17Z</time>
      </trkpt>
      <trkpt lat="43.90784" lon="4.04586">
        <ele>154</ele>
        <time>2011-02-27T14:43:18Z</time>
      </trkpt>
      <trkpt lat="43.90792" lon="4.04587">
        <ele>153</ele>
        <time>2011-02-27T14:43:19Z</time>
      </trkpt>
      <trkpt lat="43.90801" lon="4.04589">
        <ele>153</ele>
        <time>2011-02-27T14:43:20Z</time>
      </trkpt>
      <trkpt lat="43.90809" lon="4.04592">
        <ele>153</ele>
        <time>2011-02-27T14:43:21Z</time>
      </trkpt>
      <trkpt lat="43.90817" lon="4.04595">
        <ele>152</ele>
        <time>2011-02-27T14:43:22Z</time>
      </trkpt>
      <trkpt lat="43.90825" lon="4.04599">
        <ele>152</ele>
        <time>2011-02-27T14:43:23Z</time>
      </trkpt>
      <trkpt lat="43.90832" lon="4.04602">
        <ele>151</ele>
        <time>2011-02-27T14:43:24Z</time>
      </trkpt>
      <trkpt lat="43.90839" lon="4.04605">
        <ele>151</ele>
        <time>2011-02-27T14:43:25Z</time>
      </trkpt>
      <trkpt lat="43.90846" lon="4.04607">
        <ele>151</ele>
        <time>2011-02-27T14:43:26Z</time>
      </trkpt>
      <trkpt lat="43.90854" lon="4.04609">
        <ele>150</ele>
        <time>2011-02-27T14:43:27Z</time>
      </trkpt>
      <trkpt lat="43.90862" lon="4.04611">
        <ele>150</ele>
        <time>2011-02-27T14:43:28Z</time>
      </trkpt>
      <trkpt lat="43.9087" lon="4.04613">
        <ele>149</ele>
        <time>2011-02-27T14:43:29Z</time>
      </trkpt>
      <trkpt lat="43.90877" lon="4.04614">
        <ele>149</ele>
        <time>2011-02-27T14:43:30Z</time>
      </trkpt>
      <trkpt lat="43.90883" lon="4.04615">
        <ele>149</ele>
        <time>2011-02-27T14:43:31Z</time>
      </trkpt>
      <trkpt lat="43.9089" lon="4.04616">
        <ele>149</ele>
        <time>2011-02-27T14:43:32Z</time>
      </trkpt>
      <trkpt lat="43.90896" lon="4.04617">
        <ele>150</ele>
        <time>2011-02-27T14:43:33Z</time>
      </trkpt>
      <trkpt lat="43.90902" lon="4.04618">
        <ele>150</ele>
        <time>2011-02-27T14:43:34Z</time>
      </trkpt>
      <trkpt lat="43.90907" lon="4.04619">
        <ele>149</ele>
        <time>2011-02-27T14:43:35Z</time>
      </trkpt>
      <trkpt lat="43.90913" lon="4.04621">
        <ele>149</ele>
        <time>2011-02-27T14:43:36Z</time>
      </trkpt>
      <trkpt lat="43.90919" lon="4.04624">
        <ele>149</ele>
        <time>2011-02-27T14:43:37Z</time>
      </trkpt>
      <trkpt lat="43.90925" lon="4.04627">
        <ele>149</ele>
        <time>2011-02-27T14:43:38Z</time>
      </trkpt>
      <trkpt lat="43.9093" lon="4.04629">
        <ele>148</ele>
        <time>2011-02-27T14:43:39Z</time>
      </trkpt>
      <trkpt lat="43.90936" lon="4.04632">
        <ele>148</ele>
        <time>2011-02-27T14:43:40Z</time>
      </trkpt>
      <trkpt lat="43.90941" lon="4.04636">
        <ele>148</ele>
        <time>2011-02-27T14:43:41Z</time>
      </trkpt>
      <trkpt lat="43.90947" lon="4.04639">
        <ele>147</ele>
        <time>2011-02-27T14:43:42Z</time>
      </trkpt>
      <trkpt lat="43.90952" lon="4.04643">
        <ele>147</ele>
        <time>2011-02-27T14:43:43Z</time>
      </trkpt>
      <trkpt lat="43.90958" lon="4.04646">
        <ele>146</ele>
        <time>2011-02-27T14:43:44Z</time>
      </trkpt>
      <trkpt lat="43.90963" lon="4.04649">
        <ele>146</ele>
        <time>2011-02-27T14:43:45Z</time>
      </trkpt>
      <trkpt lat="43.90969" lon="4.04652">
        <ele>146</ele>
        <time>2011-02-27T14:43:46Z</time>
      </trkpt>
      <trkpt lat="43.90974" lon="4.04654">
        <ele>145</ele>
        <time>2011-02-27T14:43:47Z</time>
      </trkpt>
      <trkpt lat="43.9098" lon="4.04657">
        <ele>145</ele>
        <time>2011-02-27T14:43:48Z</time>
      </trkpt>
      <trkpt lat="43.90985" lon="4.04659">
        <ele>145</ele>
        <time>2011-02-27T14:43:49Z</time>
      </trkpt>
      <trkpt lat="43.90991" lon="4.04661">
        <ele>145</ele>
        <time>2011-02-27T14:43:50Z</time>
      </trkpt>
      <trkpt lat="43.90996" lon="4.04662">
        <ele>146</ele>
        <time>2011-02-27T14:43:51Z</time>
      </trkpt>
      <trkpt lat="43.91" lon="4.04663">
        <ele>146</ele>
        <time>2011-02-27T14:43:52Z</time>
      </trkpt>
      <trkpt lat="43.91009" lon="4.04665">
        <ele>147</ele>
        <time>2011-02-27T14:43:54Z</time>
      </trkpt>
      <trkpt lat="43.91017" lon="4.04667">
        <ele>148</ele>
        <time>2011-02-27T14:43:56Z</time>
      </trkpt>
      <trkpt lat="43.91021" lon="4.04669">
        <ele>148</ele>
        <time>2011-02-27T14:43:57Z</time>
      </trkpt>
      <trkpt lat="43.9103" lon="4.04672">
        <ele>148</ele>
        <time>2011-02-27T14:43:59Z</time>
      </trkpt>
      <trkpt lat="43.91038" lon="4.04675">
        <ele>149</ele>
        <time>2011-02-27T14:44:01Z</time>
      </trkpt>
      <trkpt lat="43.91046" lon="4.04678">
        <ele>149</ele>
        <time>2011-02-27T14:44:03Z</time>
      </trkpt>
      <trkpt lat="43.91055" lon="4.04681">
        <ele>149</ele>
        <time>2011-02-27T14:44:05Z</time>
      </trkpt>
      <trkpt lat="43.91059" lon="4.04683">
        <ele>149</ele>
        <time>2011-02-27T14:44:06Z</time>
      </trkpt>
      <trkpt lat="43.91067" lon="4.04685">
        <ele>150</ele>
        <time>2011-02-27T14:44:08Z</time>
      </trkpt>
      <trkpt lat="43.91075" lon="4.04687">
        <ele>151</ele>
        <time>2011-02-27T14:44:10Z</time>
      </trkpt>
      <trkpt lat="43.91083" lon="4.04689">
        <ele>151</ele>
        <time>2011-02-27T14:44:12Z</time>
      </trkpt>
      <trkpt lat="43.91091" lon="4.0469">
        <ele>151</ele>
        <time>2011-02-27T14:44:14Z</time>
      </trkpt>
      <trkpt lat="43.91099" lon="4.0469">
        <ele>152</ele>
        <time>2011-02-27T14:44:16Z</time>
      </trkpt>
      <trkpt lat="43.91107" lon="4.0469">
        <ele>153</ele>
        <time>2011-02-27T14:44:18Z</time>
      </trkpt>
      <trkpt lat="43.91114" lon="4.0469">
        <ele>154</ele>
        <time>2011-02-27T14:44:20Z</time>
      </trkpt>
      <trkpt lat="43.91118" lon="4.04691">
        <ele>154</ele>
        <time>2011-02-27T14:44:21Z</time>
      </trkpt>
      <trkpt lat="43.91125" lon="4.04693">
        <ele>155</ele>
        <time>2011-02-27T14:44:23Z</time>
      </trkpt>
      <trkpt lat="43.91131" lon="4.04695">
        <ele>155</ele>
        <time>2011-02-27T14:44:25Z</time>
      </trkpt>
      <trkpt lat="43.91134" lon="4.04696">
        <ele>155</ele>
        <time>2011-02-27T14:44:26Z</time>
      </trkpt>
      <trkpt lat="43.91141" lon="4.04698">
        <ele>156</ele>
        <time>2011-02-27T14:44:28Z</time>
      </trkpt>
      <trkpt lat="43.91147" lon="4.047">
        <ele>156</ele>
        <time>2011-02-27T14:44:30Z</time>
      </trkpt>
      <trkpt lat="43.91152" lon="4.04702">
        <ele>156</ele>
        <time>2011-02-27T14:44:32Z</time>
      </trkpt>
      <trkpt lat="43.91158" lon="4.04704">
        <ele>157</ele>
        <time>2011-02-27T14:44:34Z</time>
      </trkpt>
      <trkpt lat="43.91164" lon="4.04705">
        <ele>157</ele>
        <time>2011-02-27T14:44:36Z</time>
      </trkpt>
      <trkpt lat="43.9117" lon="4.04706">
        <ele>157</ele>
        <time>2011-02-27T14:44:38Z</time>
      </trkpt>
      <trkpt lat="43.91175" lon="4.04708">
        <ele>157</ele>
        <time>2011-02-27T14:44:40Z</time>
      </trkpt>
      <trkpt lat="43.91181" lon="4.04711">
        <ele>157</ele>
        <time>2011-02-27T14:44:42Z</time>
      </trkpt>
      <trkpt lat="43.91187" lon="4.04713">
        <ele>157</ele>
        <time>2011-02-27T14:44:44Z</time>
      </trkpt>
      <trkpt lat="43.91192" lon="4.04717">
        <ele>157</ele>
        <time>2011-02-27T14:44:46Z</time>
      </trkpt>
      <trkpt lat="43.91198" lon="4.04721">
        <ele>158</ele>
        <time>2011-02-27T14:44:48Z</time>
      </trkpt>
      <trkpt lat="43.91203" lon="4.04725">
        <ele>158</ele>
        <time>2011-02-27T14:44:50Z</time>
      </trkpt>
      <trkpt lat="43.91208" lon="4.0473">
        <ele>158</ele>
        <time>2011-02-27T14:44:52Z</time>
      </trkpt>
      <trkpt lat="43.91214" lon="4.04734">
        <ele>158</ele>
        <time>2011-02-27T14:44:54Z</time>
      </trkpt>
      <trkpt lat="43.91219" lon="4.04738">
        <ele>159</ele>
        <time>2011-02-27T14:44:56Z</time>
      </trkpt>
      <trkpt lat="43.91224" lon="4.04743">
        <ele>159</ele>
        <time>2011-02-27T14:44:58Z</time>
      </trkpt>
      <trkpt lat="43.91228" lon="4.04749">
        <ele>160</ele>
        <time>2011-02-27T14:45:00Z</time>
      </trkpt>
      <trkpt lat="43.91232" lon="4.04755">
        <ele>161</ele>
        <time>2011-02-27T14:45:02Z</time>
      </trkpt>
      <trkpt lat="43.91236" lon="4.04763">
        <ele>161</ele>
        <time>2011-02-27T14:45:04Z</time>
      </trkpt>
      <trkpt lat="43.91238" lon="4.04771">
        <ele>162</ele>
        <time>2011-02-27T14:45:06Z</time>
      </trkpt>
      <trkpt lat="43.9124" lon="4.04781">
        <ele>162</ele>
        <time>2011-02-27T14:45:08Z</time>
      </trkpt>
      <trkpt lat="43.91242" lon="4.0479">
        <ele>162</ele>
        <time>2011-02-27T14:45:10Z</time>
      </trkpt>
      <trkpt lat="43.91243" lon="4.048">
        <ele>162</ele>
        <time>2011-02-27T14:45:12Z</time>
      </trkpt>
      <trkpt lat="43.91244" lon="4.0481">
        <ele>162</ele>
        <time>2011-02-27T14:45:14Z</time>
      </trkpt>
      <trkpt lat="43.91246" lon="4.0482">
        <ele>162</ele>
        <time>2011-02-27T14:45:16Z</time>
      </trkpt>
      <trkpt lat="43.91248" lon="4.04829">
        <ele>162</ele>
        <time>2011-02-27T14:45:18Z</time>
      </trkpt>
      <trkpt lat="43.91253" lon="4.04836">
        <ele>162</ele>
        <time>2011-02-27T14:45:20Z</time>
      </trkpt>
      <trkpt lat="43.91258" lon="4.04842">
        <ele>162</ele>
        <time>2011-02-27T14:45:22Z</time>
      </trkpt>
      <trkpt lat="43.91265" lon="4.04846">
        <ele>162</ele>
        <time>2011-02-27T14:45:24Z</time>
      </trkpt>
      <trkpt lat="43.91268" lon="4.04847">
        <ele>162</ele>
        <time>2011-02-27T14:45:25Z</time>
      </trkpt>
      <trkpt lat="43.91275" lon="4.04848">
        <ele>162</ele>
        <time>2011-02-27T14:45:27Z</time>
      </trkpt>
      <trkpt lat="43.91282" lon="4.04849">
        <ele>162</ele>
        <time>2011-02-27T14:45:29Z</time>
      </trkpt>
      <trkpt lat="43.91289" lon="4.04849">
        <ele>163</ele>
        <time>2011-02-27T14:45:31Z</time>
      </trkpt>
      <trkpt lat="43.91297" lon="4.04848">
        <ele>164</ele>
        <time>2011-02-27T14:45:33Z</time>
      </trkpt>
      <trkpt lat="43.91304" lon="4.04846">
        <ele>164</ele>
        <time>2011-02-27T14:45:35Z</time>
      </trkpt>
      <trkpt lat="43.91313" lon="4.04843">
        <ele>166</ele>
        <time>2011-02-27T14:45:37Z</time>
      </trkpt>
      <trkpt lat="43.91318" lon="4.04842">
        <ele>167</ele>
        <time>2011-02-27T14:45:38Z</time>
      </trkpt>
      <trkpt lat="43.91323" lon="4.04842">
        <ele>167</ele>
        <time>2011-02-27T14:45:39Z</time>
      </trkpt>
      <trkpt lat="43.91328" lon="4.04841">
        <ele>167</ele>
        <time>2011-02-27T14:45:40Z</time>
      </trkpt>
      <trkpt lat="43.91333" lon="4.0484">
        <ele>168</ele>
        <time>2011-02-27T14:45:41Z</time>
      </trkpt>
      <trkpt lat="43.91338" lon="4.0484">
        <ele>168</ele>
        <time>2011-02-27T14:45:42Z</time>
      </trkpt>
      <trkpt lat="43.91344" lon="4.04839">
        <ele>169</ele>
        <time>2011-02-27T14:45:43Z</time>
      </trkpt>
      <trkpt lat="43.91349" lon="4.04838">
        <ele>169</ele>
        <time>2011-02-27T14:45:44Z</time>
      </trkpt>
      <trkpt lat="43.91354" lon="4.04837">
        <ele>170</ele>
        <time>2011-02-27T14:45:45Z</time>
      </trkpt>
      <trkpt lat="43.91359" lon="4.04836">
        <ele>170</ele>
        <time>2011-02-27T14:45:46Z</time>
      </trkpt>
      <trkpt lat="43.91364" lon="4.04836">
        <ele>170</ele>
        <time>2011-02-27T14:45:47Z</time>
      </trkpt>
      <trkpt lat="43.91369" lon="4.04834">
        <ele>171</ele>
        <time>2011-02-27T14:45:48Z</time>
      </trkpt>
      <trkpt lat="43.91374" lon="4.04833">
        <ele>172</ele>
        <time>2011-02-27T14:45:49Z</time>
      </trkpt>
      <trkpt lat="43.91378" lon="4.04832">
        <ele>172</ele>
        <time>2011-02-27T14:45:50Z</time>
      </trkpt>
      <trkpt lat="43.91387" lon="4.04831">
        <ele>173</ele>
        <time>2011-02-27T14:45:52Z</time>
      </trkpt>
      <trkpt lat="43.91395" lon="4.0483">
        <ele>173</ele>
        <time>2011-02-27T14:45:54Z</time>
      </trkpt>
      <trkpt lat="43.91404" lon="4.04831">
        <ele>173</ele>
        <time>2011-02-27T14:45:56Z</time>
      </trkpt>
      <trkpt lat="43.91412" lon="4.04833">
        <ele>174</ele>
        <time>2011-02-27T14:45:58Z</time>
      </trkpt>
      <trkpt lat="43.91421" lon="4.04835">
        <ele>174</ele>
        <time>2011-02-27T14:46:00Z</time>
      </trkpt>
      <trkpt lat="43.9143" lon="4.04838">
        <ele>174</ele>
        <time>2011-02-27T14:46:02Z</time>
      </trkpt>
      <trkpt lat="43.91439" lon="4.04841">
        <ele>174</ele>
        <time>2011-02-27T14:46:04Z</time>
      </trkpt>
      <trkpt lat="43.91443" lon="4.04842">
        <ele>174</ele>
        <time>2011-02-27T14:46:05Z</time>
      </trkpt>
      <trkpt lat="43.91448" lon="4.04845">
        <ele>173</ele>
        <time>2011-02-27T14:46:06Z</time>
      </trkpt>
      <trkpt lat="43.91452" lon="4.04847">
        <ele>173</ele>
        <time>2011-02-27T14:46:07Z</time>
      </trkpt>
      <trkpt lat="43.91457" lon="4.04849">
        <ele>172</ele>
        <time>2011-02-27T14:46:08Z</time>
      </trkpt>
      <trkpt lat="43.91462" lon="4.04851">
        <ele>172</ele>
        <time>2011-02-27T14:46:09Z</time>
      </trkpt>
      <trkpt lat="43.91467" lon="4.04853">
        <ele>171</ele>
        <time>2011-02-27T14:46:10Z</time>
      </trkpt>
      <trkpt lat="43.91472" lon="4.04855">
        <ele>171</ele>
        <time>2011-02-27T14:46:11Z</time>
      </trkpt>
      <trkpt lat="43.91477" lon="4.04856">
        <ele>171</ele>
        <time>2011-02-27T14:46:12Z</time>
      </trkpt>
      <trkpt lat="43.91482" lon="4.04858">
        <ele>170</ele>
        <time>2011-02-27T14:46:13Z</time>
      </trkpt>
      <trkpt lat="43.91487" lon="4.04861">
        <ele>170</ele>
        <time>2011-02-27T14:46:14Z</time>
      </trkpt>
      <trkpt lat="43.91492" lon="4.04863">
        <ele>170</ele>
        <time>2011-02-27T14:46:15Z</time>
      </trkpt>
      <trkpt lat="43.91496" lon="4.04866">
        <ele>170</ele>
        <time>2011-02-27T14:46:16Z</time>
      </trkpt>
      <trkpt lat="43.91501" lon="4.04869">
        <ele>170</ele>
        <time>2011-02-27T14:46:17Z</time>
      </trkpt>
      <trkpt lat="43.91506" lon="4.04873">
        <ele>170</ele>
        <time>2011-02-27T14:46:18Z</time>
      </trkpt>
      <trkpt lat="43.9151" lon="4.04876">
        <ele>170</ele>
        <time>2011-02-27T14:46:19Z</time>
      </trkpt>
      <trkpt lat="43.91514" lon="4.04879">
        <ele>170</ele>
        <time>2011-02-27T14:46:20Z</time>
      </trkpt>
      <trkpt lat="43.91519" lon="4.04882">
        <ele>170</ele>
        <time>2011-02-27T14:46:21Z</time>
      </trkpt>
      <trkpt lat="43.91523" lon="4.04885">
        <ele>170</ele>
        <time>2011-02-27T14:46:22Z</time>
      </trkpt>
      <trkpt lat="43.91527" lon="4.04888">
        <ele>170</ele>
        <time>2011-02-27T14:46:23Z</time>
      </trkpt>
      <trkpt lat="43.91531" lon="4.04891">
        <ele>170</ele>
        <time>2011-02-27T14:46:24Z</time>
      </trkpt>
      <trkpt lat="43.91536" lon="4.04894">
        <ele>170</ele>
        <time>2011-02-27T14:46:25Z</time>
      </trkpt>
      <trkpt lat="43.9154" lon="4.04897">
        <ele>170</ele>
        <time>2011-02-27T14:46:26Z</time>
      </trkpt>
      <trkpt lat="43.91548" lon="4.04903">
        <ele>170</ele>
        <time>2011-02-27T14:46:28Z</time>
      </trkpt>
      <trkpt lat="43.91555" lon="4.04909">
        <ele>170</ele>
        <time>2011-02-27T14:46:30Z</time>
      </trkpt>
      <trkpt lat="43.91563" lon="4.04914">
        <ele>170</ele>
        <time>2011-02-27T14:46:32Z</time>
      </trkpt>
      <trkpt lat="43.91571" lon="4.0492">
        <ele>169</ele>
        <time>2011-02-27T14:46:34Z</time>
      </trkpt>
      <trkpt lat="43.91579" lon="4.04925">
        <ele>169</ele>
        <time>2011-02-27T14:46:36Z</time>
      </trkpt>
      <trkpt lat="43.91583" lon="4.04928">
        <ele>169</ele>
        <time>2011-02-27T14:46:37Z</time>
      </trkpt>
      <trkpt lat="43.91587" lon="4.04931">
        <ele>169</ele>
        <time>2011-02-27T14:46:38Z</time>
      </trkpt>
      <trkpt lat="43.91592" lon="4.04934">
        <ele>169</ele>
        <time>2011-02-27T14:46:39Z</time>
      </trkpt>
      <trkpt lat="43.91596" lon="4.04938">
        <ele>169</ele>
        <time>2011-02-27T14:46:40Z</time>
      </trkpt>
      <trkpt lat="43.91601" lon="4.04941">
        <ele>169</ele>
        <time>2011-02-27T14:46:41Z</time>
      </trkpt>
      <trkpt lat="43.91605" lon="4.04944">
        <ele>169</ele>
        <time>2011-02-27T14:46:42Z</time>
      </trkpt>
      <trkpt lat="43.9161" lon="4.04947">
        <ele>169</ele>
        <time>2011-02-27T14:46:43Z</time>
      </trkpt>
      <trkpt lat="43.91614" lon="4.04951">
        <ele>169</ele>
        <time>2011-02-27T14:46:44Z</time>
      </trkpt>
      <trkpt lat="43.91619" lon="4.04954">
        <ele>169</ele>
        <time>2011-02-27T14:46:45Z</time>
      </trkpt>
      <trkpt lat="43.91623" lon="4.04958">
        <ele>169</ele>
        <time>2011-02-27T14:46:46Z</time>
      </trkpt>
      <trkpt lat="43.91628" lon="4.04961">
        <ele>169</ele>
        <time>2011-02-27T14:46:47Z</time>
      </trkpt>
      <trkpt lat="43.91632" lon="4.04964">
        <ele>169</ele>
        <time>2011-02-27T14:46:48Z</time>
      </trkpt>
      <trkpt lat="43.91637" lon="4.04968">
        <ele>169</ele>
        <time>2011-02-27T14:46:49Z</time>
      </trkpt>
      <trkpt lat="43.91641" lon="4.04972">
        <ele>168</ele>
        <time>2011-02-27T14:46:50Z</time>
      </trkpt>
      <trkpt lat="43.91645" lon="4.04976">
        <ele>168</ele>
        <time>2011-02-27T14:46:51Z</time>
      </trkpt>
      <trkpt lat="43.9165" lon="4.04979">
        <ele>168</ele>
        <time>2011-02-27T14:46:52Z</time>
      </trkpt>
      <trkpt lat="43.91655" lon="4.04982">
        <ele>168</ele>
        <time>2011-02-27T14:46:53Z</time>
      </trkpt>
      <trkpt lat="43.9166" lon="4.04985">
        <ele>168</ele>
        <time>2011-02-27T14:46:54Z</time>
      </trkpt>
      <trkpt lat="43.91665" lon="4.04987">
        <ele>168</ele>
        <time>2011-02-27T14:46:55Z</time>
      </trkpt>
      <trkpt lat="43.9167" lon="4.04987">
        <ele>167</ele>
        <time>2011-02-27T14:46:56Z</time>
      </trkpt>
      <trkpt lat="43.91676" lon="4.04986">
        <ele>167</ele>
        <time>2011-02-27T14:46:57Z</time>
      </trkpt>
      <trkpt lat="43.91681" lon="4.04984">
        <ele>167</ele>
        <time>2011-02-27T14:46:58Z</time>
      </trkpt>
      <trkpt lat="43.91687" lon="4.04981">
        <ele>167</ele>
        <time>2011-02-27T14:46:59Z</time>
      </trkpt>
      <trkpt lat="43.91693" lon="4.04977">
        <ele>166</ele>
        <time>2011-02-27T14:47:00Z</time>
      </trkpt>
      <trkpt lat="43.91698" lon="4.04972">
        <ele>167</ele>
        <time>2011-02-27T14:47:01Z</time>
      </trkpt>
      <trkpt lat="43.91703" lon="4.04966">
        <ele>167</ele>
        <time>2011-02-27T14:47:02Z</time>
      </trkpt>
      <trkpt lat="43.91708" lon="4.04959">
        <ele>167</ele>
        <time>2011-02-27T14:47:03Z</time>
      </trkpt>
      <trkpt lat="43.91712" lon="4.04951">
        <ele>167</ele>
        <time>2011-02-27T14:47:04Z</time>
      </trkpt>
      <trkpt lat="43.91716" lon="4.04943">
        <ele>166</ele>
        <time>2011-02-27T14:47:05Z</time>
      </trkpt>
      <trkpt lat="43.9172" lon="4.04935">
        <ele>166</ele>
        <time>2011-02-27T14:47:06Z</time>
      </trkpt>
      <trkpt lat="43.91724" lon="4.04926">
        <ele>165</ele>
        <time>2011-02-27T14:47:07Z</time>
      </trkpt>
      <trkpt lat="43.91727" lon="4.04918">
        <ele>164</ele>
        <time>2011-02-27T14:47:08Z</time>
      </trkpt>
      <trkpt lat="43.9173" lon="4.04909">
        <ele>164</ele>
        <time>2011-02-27T14:47:09Z</time>
      </trkpt>
      <trkpt lat="43.91732" lon="4.049">
        <ele>163</ele>
        <time>2011-02-27T14:47:10Z</time>
      </trkpt>
      <trkpt lat="43.91735" lon="4.0489">
        <ele>163</ele>
        <time>2011-02-27T14:47:11Z</time>
      </trkpt>
      <trkpt lat="43.91738" lon="4.04879">
        <ele>162</ele>
        <time>2011-02-27T14:47:12Z</time>
      </trkpt>
      <trkpt lat="43.91741" lon="4.04868">
        <ele>162</ele>
        <time>2011-02-27T14:47:13Z</time>
      </trkpt>
      <trkpt lat="43.91744" lon="4.04857">
        <ele>161</ele>
        <time>2011-02-27T14:47:14Z</time>
      </trkpt>
      <trkpt lat="43.91747" lon="4.04845">
        <ele>161</ele>
        <time>2011-02-27T14:47:15Z</time>
      </trkpt>
      <trkpt lat="43.91751" lon="4.04833">
        <ele>160</ele>
        <time>2011-02-27T14:47:16Z</time>
      </trkpt>
      <trkpt lat="43.91754" lon="4.04821">
        <ele>160</ele>
        <time>2011-02-27T14:47:17Z</time>
      </trkpt>
      <trkpt lat="43.91757" lon="4.04809">
        <ele>159</ele>
        <time>2011-02-27T14:47:18Z</time>
      </trkpt>
      <trkpt lat="43.9176" lon="4.04797">
        <ele>159</ele>
        <time>2011-02-27T14:47:19Z</time>
      </trkpt>
      <trkpt lat="43.91764" lon="4.04785">
        <ele>158</ele>
        <time>2011-02-27T14:47:20Z</time>
      </trkpt>
      <trkpt lat="43.91767" lon="4.04772">
        <ele>158</ele>
        <time>2011-02-27T14:47:21Z</time>
      </trkpt>
      <trkpt lat="43.9177" lon="4.0476">
        <ele>158</ele>
        <time>2011-02-27T14:47:22Z</time>
      </trkpt>
      <trkpt lat="43.91774" lon="4.04749">
        <ele>158</ele>
        <time>2011-02-27T14:47:23Z</time>
      </trkpt>
      <trkpt lat="43.91778" lon="4.04737">
        <ele>158</ele>
        <time>2011-02-27T14:47:24Z</time>
      </trkpt>
      <trkpt lat="43.91783" lon="4.04727">
        <ele>157</ele>
        <time>2011-02-27T14:47:25Z</time>
      </trkpt>
      <trkpt lat="43.91789" lon="4.04717">
        <ele>157</ele>
        <time>2011-02-27T14:47:26Z</time>
      </trkpt>
      <trkpt lat="43.91795" lon="4.04708">
        <ele>157</ele>
        <time>2011-02-27T14:47:27Z</time>
      </trkpt>
      <trkpt lat="43.918" lon="4.047">
        <ele>156</ele>
        <time>2011-02-27T14:47:28Z</time>
      </trkpt>
      <trkpt lat="43.91806" lon="4.04692">
        <ele>156</ele>
        <time>2011-02-27T14:47:29Z</time>
      </trkpt>
      <trkpt lat="43.91811" lon="4.04685">
        <ele>156</ele>
        <time>2011-02-27T14:47:30Z</time>
      </trkpt>
      <trkpt lat="43.91816" lon="4.04678">
        <ele>156</ele>
        <time>2011-02-27T14:47:31Z</time>
      </trkpt>
      <trkpt lat="43.91821" lon="4.04671">
        <ele>156</ele>
        <time>2011-02-27T14:47:32Z</time>
      </trkpt>
      <trkpt lat="43.91825" lon="4.04665">
        <ele>155</ele>
        <time>2011-02-27T14:47:33Z</time>
      </trkpt>
      <trkpt lat="43.91828" lon="4.04659">
        <ele>155</ele>
        <time>2011-02-27T14:47:34Z</time>
      </trkpt>
      <trkpt lat="43.91831" lon="4.04653">
        <ele>155</ele>
        <time>2011-02-27T14:47:35Z</time>
      </trkpt>
      <trkpt lat="43.91835" lon="4.04643">
        <ele>155</ele>
        <time>2011-02-27T14:47:37Z</time>
      </trkpt>
      <trkpt lat="43.91839" lon="4.04632">
        <ele>155</ele>
        <time>2011-02-27T14:47:39Z</time>
      </trkpt>
      <trkpt lat="43.91841" lon="4.04627">
        <ele>155</ele>
        <time>2011-02-27T14:47:40Z</time>
      </trkpt>
      <trkpt lat="43.91844" lon="4.04616">
        <ele>155</ele>
        <time>2011-02-27T14:47:42Z</time>
      </trkpt>
      <trkpt lat="43.91847" lon="4.04606">
        <ele>154</ele>
        <time>2011-02-27T14:47:44Z</time>
      </trkpt>
      <trkpt lat="43.9185" lon="4.04598">
        <ele>155</ele>
        <time>2011-02-27T14:47:46Z</time>
      </trkpt>
      <trkpt lat="43.91852" lon="4.04589">
        <ele>156</ele>
        <time>2011-02-27T14:47:48Z</time>
      </trkpt>
      <trkpt lat="43.91855" lon="4.0458">
        <ele>156</ele>
        <time>2011-02-27T14:47:50Z</time>
      </trkpt>
      <trkpt lat="43.91859" lon="4.04572">
        <ele>157</ele>
        <time>2011-02-27T14:47:52Z</time>
      </trkpt>
      <trkpt lat="43.91863" lon="4.04564">
        <ele>157</ele>
        <time>2011-02-27T14:47:54Z</time>
      </trkpt>
      <trkpt lat="43.91868" lon="4.04557">
        <ele>158</ele>
        <time>2011-02-27T14:47:56Z</time>
      </trkpt>
      <trkpt lat="43.91873" lon="4.04551">
        <ele>158</ele>
        <time>2011-02-27T14:47:58Z</time>
      </trkpt>
      <trkpt lat="43.91879" lon="4.04546">
        <ele>158</ele>
        <time>2011-02-27T14:48:00Z</time>
      </trkpt>
      <trkpt lat="43.91886" lon="4.04542">
        <ele>158</ele>
        <time>2011-02-27T14:48:02Z</time>
      </trkpt>
      <trkpt lat="43.91893" lon="4.04538">
        <ele>159</ele>
        <time>2011-02-27T14:48:04Z</time>
      </trkpt>
      <trkpt lat="43.919" lon="4.04534">
        <ele>159</ele>
        <time>2011-02-27T14:48:06Z</time>
      </trkpt>
      <trkpt lat="43.91907" lon="4.04531">
        <ele>159</ele>
        <time>2011-02-27T14:48:08Z</time>
      </trkpt>
      <trkpt lat="43.91915" lon="4.04527">
        <ele>160</ele>
        <time>2011-02-27T14:48:10Z</time>
      </trkpt>
      <trkpt lat="43.91922" lon="4.04524">
        <ele>160</ele>
        <time>2011-02-27T14:48:12Z</time>
      </trkpt>
      <trkpt lat="43.9193" lon="4.04522">
        <ele>160</ele>
        <time>2011-02-27T14:48:14Z</time>
      </trkpt>
      <trkpt lat="43.91937" lon="4.0452">
        <ele>160</ele>
        <time>2011-02-27T14:48:16Z</time>
      </trkpt>
      <trkpt lat="43.91945" lon="4.04519">
        <ele>160</ele>
        <time>2011-02-27T14:48:18Z</time>
      </trkpt>
      <trkpt lat="43.91952" lon="4.0452">
        <ele>159</ele>
        <time>2011-02-27T14:48:20Z</time>
      </trkpt>
      <trkpt lat="43.9196" lon="4.04521">
        <ele>159</ele>
        <time>2011-02-27T14:48:22Z</time>
      </trkpt>
      <trkpt lat="43.91968" lon="4.04524">
        <ele>159</ele>
        <time>2011-02-27T14:48:24Z</time>
      </trkpt>
      <trkpt lat="43.91976" lon="4.04526">
        <ele>158</ele>
        <time>2011-02-27T14:48:26Z</time>
      </trkpt>
      <trkpt lat="43.9198" lon="4.04528">
        <ele>158</ele>
        <time>2011-02-27T14:48:27Z</time>
      </trkpt>
      <trkpt lat="43.91989" lon="4.04531">
        <ele>158</ele>
        <time>2011-02-27T14:48:29Z</time>
      </trkpt>
      <trkpt lat="43.91993" lon="4.04533">
        <ele>158</ele>
        <time>2011-02-27T14:48:30Z</time>
      </trkpt>
      <trkpt lat="43.91998" lon="4.04535">
        <ele>157</ele>
        <time>2011-02-27T14:48:31Z</time>
      </trkpt>
      <trkpt lat="43.92002" lon="4.04537">
        <ele>157</ele>
        <time>2011-02-27T14:48:32Z</time>
      </trkpt>
      <trkpt lat="43.92007" lon="4.04539">
        <ele>157</ele>
        <time>2011-02-27T14:48:33Z</time>
      </trkpt>
      <trkpt lat="43.92011" lon="4.0454">
        <ele>156</ele>
        <time>2011-02-27T14:48:34Z</time>
      </trkpt>
      <trkpt lat="43.92016" lon="4.04542">
        <ele>156</ele>
        <time>2011-02-27T14:48:35Z</time>
      </trkpt>
      <trkpt lat="43.92021" lon="4.04544">
        <ele>156</ele>
        <time>2011-02-27T14:48:36Z</time>
      </trkpt>
      <trkpt lat="43.92025" lon="4.04546">
        <ele>155</ele>
        <time>2011-02-27T14:48:37Z</time>
      </trkpt>
      <trkpt lat="43.9203" lon="4.04548">
        <ele>156</ele>
        <time>2011-02-27T14:48:38Z</time>
      </trkpt>
      <trkpt lat="43.92034" lon="4.0455">
        <ele>156</ele>
        <time>2011-02-27T14:48:39Z</time>
      </trkpt>
      <trkpt lat="43.92039" lon="4.04552">
        <ele>155</ele>
        <time>2011-02-27T14:48:40Z</time>
      </trkpt>
      <trkpt lat="43.92043" lon="4.04555">
        <ele>155</ele>
        <time>2011-02-27T14:48:41Z</time>
      </trkpt>
      <trkpt lat="43.92048" lon="4.04557">
        <ele>155</ele>
        <time>2011-02-27T14:48:42Z</time>
      </trkpt>
      <trkpt lat="43.92052" lon="4.04559">
        <ele>155</ele>
        <time>2011-02-27T14:48:43Z</time>
      </trkpt>
      <trkpt lat="43.92057" lon="4.0456">
        <ele>155</ele>
        <time>2011-02-27T14:48:44Z</time>
      </trkpt>
      <trkpt lat="43.92062" lon="4.04561">
        <ele>155</ele>
        <time>2011-02-27T14:48:45Z</time>
      </trkpt>
      <trkpt lat="43.92066" lon="4.04562">
        <ele>155</ele>
        <time>2011-02-27T14:48:46Z</time>
      </trkpt>
      <trkpt lat="43.92071" lon="4.04563">
        <ele>154</ele>
        <time>2011-02-27T14:48:47Z</time>
      </trkpt>
      <trkpt lat="43.92075" lon="4.04564">
        <ele>154</ele>
        <time>2011-02-27T14:48:48Z</time>
      </trkpt>
      <trkpt lat="43.9208" lon="4.04564">
        <ele>154</ele>
        <time>2011-02-27T14:48:49Z</time>
      </trkpt>
      <trkpt lat="43.92085" lon="4.04564">
        <ele>154</ele>
        <time>2011-02-27T14:48:50Z</time>
      </trkpt>
      <trkpt lat="43.9209" lon="4.04564">
        <ele>154</ele>
        <time>2011-02-27T14:48:51Z</time>
      </trkpt>
      <trkpt lat="43.92095" lon="4.04564">
        <ele>154</ele>
        <time>2011-02-27T14:48:52Z</time>
      </trkpt>
      <trkpt lat="43.921" lon="4.04563">
        <ele>155</ele>
        <time>2011-02-27T14:48:53Z</time>
      </trkpt>
      <trkpt lat="43.92104" lon="4.04562">
        <ele>155</ele>
        <time>2011-02-27T14:48:54Z</time>
      </trkpt>
      <trkpt lat="43.92109" lon="4.0456">
        <ele>155</ele>
        <time>2011-02-27T14:48:55Z</time>
      </trkpt>
      <trkpt lat="43.92114" lon="4.04559">
        <ele>155</ele>
        <time>2011-02-27T14:48:56Z</time>
      </trkpt>
      <trkpt lat="43.92118" lon="4.04557">
        <ele>154</ele>
        <time>2011-02-27T14:48:57Z</time>
      </trkpt>
      <trkpt lat="43.92123" lon="4.04555">
        <ele>154</ele>
        <time>2011-02-27T14:48:58Z</time>
      </trkpt>
      <trkpt lat="43.92127" lon="4.04553">
        <ele>154</ele>
        <time>2011-02-27T14:48:59Z</time>
      </trkpt>
      <trkpt lat="43.92132" lon="4.04551">
        <ele>155</ele>
        <time>2011-02-27T14:49:00Z</time>
      </trkpt>
      <trkpt lat="43.92136" lon="4.04549">
        <ele>155</ele>
        <time>2011-02-27T14:49:01Z</time>
      </trkpt>
      <trkpt lat="43.92141" lon="4.04546">
        <ele>155</ele>
        <time>2011-02-27T14:49:02Z</time>
      </trkpt>
      <trkpt lat="43.92145" lon="4.04544">
        <ele>154</ele>
        <time>2011-02-27T14:49:03Z</time>
      </trkpt>
      <trkpt lat="43.92149" lon="4.04541">
        <ele>154</ele>
        <time>2011-02-27T14:49:04Z</time>
      </trkpt>
      <trkpt lat="43.92153" lon="4.04538">
        <ele>154</ele>
        <time>2011-02-27T14:49:05Z</time>
      </trkpt>
      <trkpt lat="43.92158" lon="4.04535">
        <ele>154</ele>
        <time>2011-02-27T14:49:06Z</time>
      </trkpt>
      <trkpt lat="43.92162" lon="4.04532">
        <ele>154</ele>
        <time>2011-02-27T14:49:07Z</time>
      </trkpt>
      <trkpt lat="43.92166" lon="4.04529">
        <ele>154</ele>
        <time>2011-02-27T14:49:08Z</time>
      </trkpt>
      <trkpt lat="43.9217" lon="4.04525">
        <ele>154</ele>
        <time>2011-02-27T14:49:09Z</time>
      </trkpt>
      <trkpt lat="43.92174" lon="4.04522">
        <ele>154</ele>
        <time>2011-02-27T14:49:10Z</time>
      </trkpt>
      <trkpt lat="43.92182" lon="4.04516">
        <ele>154</ele>
        <time>2011-02-27T14:49:12Z</time>
      </trkpt>
      <trkpt lat="43.92189" lon="4.04511">
        <ele>153</ele>
        <time>2011-02-27T14:49:14Z</time>
      </trkpt>
      <trkpt lat="43.92197" lon="4.04506">
        <ele>153</ele>
        <time>2011-02-27T14:49:16Z</time>
      </trkpt>
      <trkpt lat="43.92205" lon="4.04503">
        <ele>153</ele>
        <time>2011-02-27T14:49:18Z</time>
      </trkpt>
      <trkpt lat="43.92212" lon="4.04502">
        <ele>153</ele>
        <time>2011-02-27T14:49:20Z</time>
      </trkpt>
      <trkpt lat="43.92219" lon="4.04503">
        <ele>153</ele>
        <time>2011-02-27T14:49:22Z</time>
      </trkpt>
      <trkpt lat="43.92226" lon="4.04505">
        <ele>153</ele>
        <time>2011-02-27T14:49:24Z</time>
      </trkpt>
      <trkpt lat="43.92232" lon="4.04507">
        <ele>154</ele>
        <time>2011-02-27T14:49:26Z</time>
      </trkpt>
      <trkpt lat="43.92239" lon="4.04509">
        <ele>154</ele>
        <time>2011-02-27T14:49:28Z</time>
      </trkpt>
      <trkpt lat="43.92245" lon="4.0451">
        <ele>154</ele>
        <time>2011-02-27T14:49:30Z</time>
      </trkpt>
      <trkpt lat="43.92251" lon="4.04511">
        <ele>155</ele>
        <time>2011-02-27T14:49:32Z</time>
      </trkpt>
      <trkpt lat="43.92254" lon="4.04512">
        <ele>155</ele>
        <time>2011-02-27T14:49:33Z</time>
      </trkpt>
      <trkpt lat="43.9226" lon="4.04511">
        <ele>156</ele>
        <time>2011-02-27T14:49:35Z</time>
      </trkpt>
      <trkpt lat="43.92266" lon="4.04509">
        <ele>156</ele>
        <time>2011-02-27T14:49:37Z</time>
      </trkpt>
      <trkpt lat="43.92271" lon="4.04508">
        <ele>157</ele>
        <time>2011-02-27T14:49:39Z</time>
      </trkpt>
      <trkpt lat="43.92277" lon="4.04507">
        <ele>158</ele>
        <time>2011-02-27T14:49:41Z</time>
      </trkpt>
      <trkpt lat="43.92283" lon="4.04507">
        <ele>159</ele>
        <time>2011-02-27T14:49:43Z</time>
      </trkpt>
      <trkpt lat="43.92289" lon="4.04505">
        <ele>160</ele>
        <time>2011-02-27T14:49:45Z</time>
      </trkpt>
      <trkpt lat="43.92295" lon="4.04505">
        <ele>161</ele>
        <time>2011-02-27T14:49:47Z</time>
      </trkpt>
      <trkpt lat="43.92302" lon="4.04506">
        <ele>162</ele>
        <time>2011-02-27T14:49:49Z</time>
      </trkpt>
      <trkpt lat="43.92305" lon="4.04506">
        <ele>162</ele>
        <time>2011-02-27T14:49:50Z</time>
      </trkpt>
      <trkpt lat="43.92312" lon="4.04507">
        <ele>163</ele>
        <time>2011-02-27T14:49:52Z</time>
      </trkpt>
      <trkpt lat="43.92319" lon="4.04508">
        <ele>163</ele>
        <time>2011-02-27T14:49:54Z</time>
      </trkpt>
      <trkpt lat="43.92322" lon="4.04508">
        <ele>164</ele>
        <time>2011-02-27T14:49:55Z</time>
      </trkpt>
      <trkpt lat="43.92329" lon="4.04508">
        <ele>165</ele>
        <time>2011-02-27T14:49:57Z</time>
      </trkpt>
      <trkpt lat="43.92336" lon="4.04508">
        <ele>165</ele>
        <time>2011-02-27T14:49:59Z</time>
      </trkpt>
      <trkpt lat="43.92343" lon="4.04509">
        <ele>165</ele>
        <time>2011-02-27T14:50:01Z</time>
      </trkpt>
      <trkpt lat="43.9235" lon="4.04509">
        <ele>165</ele>
        <time>2011-02-27T14:50:03Z</time>
      </trkpt>
      <trkpt lat="43.92357" lon="4.0451">
        <ele>165</ele>
        <time>2011-02-27T14:50:05Z</time>
      </trkpt>
      <trkpt lat="43.92365" lon="4.04511">
        <ele>165</ele>
        <time>2011-02-27T14:50:07Z</time>
      </trkpt>
      <trkpt lat="43.92369" lon="4.04511">
        <ele>164</ele>
        <time>2011-02-27T14:50:08Z</time>
      </trkpt>
      <trkpt lat="43.92376" lon="4.04511">
        <ele>164</ele>
        <time>2011-02-27T14:50:10Z</time>
      </trkpt>
      <trkpt lat="43.92384" lon="4.04511">
        <ele>163</ele>
        <time>2011-02-27T14:50:12Z</time>
      </trkpt>
      <trkpt lat="43.92392" lon="4.04512">
        <ele>163</ele>
        <time>2011-02-27T14:50:14Z</time>
      </trkpt>
      <trkpt lat="43.92396" lon="4.04512">
        <ele>163</ele>
        <time>2011-02-27T14:50:15Z</time>
      </trkpt>
      <trkpt lat="43.92404" lon="4.04512">
        <ele>163</ele>
        <time>2011-02-27T14:50:17Z</time>
      </trkpt>
      <trkpt lat="43.92411" lon="4.04512">
        <ele>162</ele>
        <time>2011-02-27T14:50:19Z</time>
      </trkpt>
      <trkpt lat="43.92416" lon="4.04512">
        <ele>162</ele>
        <time>2011-02-27T14:50:21Z</time>
      </trkpt>
      <trkpt lat="43.92419" lon="4.04512">
        <ele>162</ele>
        <time>2011-02-27T14:50:22Z</time>
      </trkpt>
      <trkpt lat="43.92425" lon="4.04512">
        <ele>161</ele>
        <time>2011-02-27T14:50:25Z</time>
      </trkpt>
      <trkpt lat="43.92432" lon="4.04511">
        <ele>161</ele>
        <time>2011-02-27T14:50:28Z</time>
      </trkpt>
      <trkpt lat="43.92438" lon="4.04509">
        <ele>161</ele>
        <time>2011-02-27T14:50:30Z</time>
      </trkpt>
      <trkpt lat="43.92445" lon="4.04508">
        <ele>161</ele>
        <time>2011-02-27T14:50:32Z</time>
      </trkpt>
      <trkpt lat="43.92452" lon="4.04507">
        <ele>161</ele>
        <time>2011-02-27T14:50:34Z</time>
      </trkpt>
      <trkpt lat="43.92458" lon="4.04506">
        <ele>161</ele>
        <time>2011-02-27T14:50:36Z</time>
      </trkpt>
      <trkpt lat="43.92465" lon="4.04506">
        <ele>161</ele>
        <time>2011-02-27T14:50:38Z</time>
      </trkpt>
      <trkpt lat="43.92468" lon="4.04506">
        <ele>161</ele>
        <time>2011-02-27T14:50:39Z</time>
      </trkpt>
      <trkpt lat="43.92475" lon="4.04506">
        <ele>161</ele>
        <time>2011-02-27T14:50:41Z</time>
      </trkpt>
      <trkpt lat="43.92481" lon="4.04507">
        <ele>161</ele>
        <time>2011-02-27T14:50:43Z</time>
      </trkpt>
      <trkpt lat="43.92488" lon="4.04508">
        <ele>161</ele>
        <time>2011-02-27T14:50:45Z</time>
      </trkpt>
      <trkpt lat="43.92494" lon="4.04509">
        <ele>161</ele>
        <time>2011-02-27T14:50:47Z</time>
      </trkpt>
      <trkpt lat="43.92501" lon="4.04511">
        <ele>161</ele>
        <time>2011-02-27T14:50:49Z</time>
      </trkpt>
      <trkpt lat="43.92507" lon="4.04513">
        <ele>162</ele>
        <time>2011-02-27T14:50:51Z</time>
      </trkpt>
      <trkpt lat="43.92514" lon="4.04516">
        <ele>162</ele>
        <time>2011-02-27T14:50:53Z</time>
      </trkpt>
      <trkpt lat="43.92521" lon="4.04518">
        <ele>162</ele>
        <time>2011-02-27T14:50:55Z</time>
      </trkpt>
      <trkpt lat="43.92527" lon="4.0452">
        <ele>162</ele>
        <time>2011-02-27T14:50:57Z</time>
      </trkpt>
      <trkpt lat="43.92534" lon="4.04522">
        <ele>162</ele>
        <time>2011-02-27T14:50:59Z</time>
      </trkpt>
      <trkpt lat="43.92541" lon="4.04524">
        <ele>163</ele>
        <time>2011-02-27T14:51:01Z</time>
      </trkpt>
      <trkpt lat="43.92548" lon="4.04526">
        <ele>163</ele>
        <time>2011-02-27T14:51:03Z</time>
      </trkpt>
      <trkpt lat="43.92556" lon="4.04527">
        <ele>164</ele>
        <time>2011-02-27T14:51:05Z</time>
      </trkpt>
      <trkpt lat="43.92563" lon="4.04529">
        <ele>164</ele>
        <time>2011-02-27T14:51:07Z</time>
      </trkpt>
      <trkpt lat="43.9257" lon="4.0453">
        <ele>165</ele>
        <time>2011-02-27T14:51:09Z</time>
      </trkpt>
      <trkpt lat="43.92577" lon="4.04531">
        <ele>165</ele>
        <time>2011-02-27T14:51:11Z</time>
      </trkpt>
      <trkpt lat="43.92584" lon="4.04533">
        <ele>166</ele>
        <time>2011-02-27T14:51:13Z</time>
      </trkpt>
      <trkpt lat="43.92591" lon="4.04534">
        <ele>166</ele>
        <time>2011-02-27T14:51:15Z</time>
      </trkpt>
      <trkpt lat="43.92599" lon="4.04536">
        <ele>166</ele>
        <time>2011-02-27T14:51:17Z</time>
      </trkpt>
      <trkpt lat="43.92606" lon="4.04538">
        <ele>166</ele>
        <time>2011-02-27T14:51:19Z</time>
      </trkpt>
      <trkpt lat="43.92613" lon="4.0454">
        <ele>167</ele>
        <time>2011-02-27T14:51:21Z</time>
      </trkpt>
      <trkpt lat="43.92616" lon="4.04542">
        <ele>167</ele>
        <time>2011-02-27T14:51:22Z</time>
      </trkpt>
      <trkpt lat="43.92623" lon="4.04545">
        <ele>168</ele>
        <time>2011-02-27T14:51:24Z</time>
      </trkpt>
      <trkpt lat="43.9263" lon="4.04547">
        <ele>168</ele>
        <time>2011-02-27T14:51:26Z</time>
      </trkpt>
      <trkpt lat="43.92634" lon="4.04549">
        <ele>168</ele>
        <time>2011-02-27T14:51:27Z</time>
      </trkpt>
      <trkpt lat="43.92641" lon="4.04551">
        <ele>169</ele>
        <time>2011-02-27T14:51:29Z</time>
      </trkpt>
      <trkpt lat="43.92648" lon="4.04554">
        <ele>169</ele>
        <time>2011-02-27T14:51:31Z</time>
      </trkpt>
      <trkpt lat="43.92655" lon="4.04555">
        <ele>169</ele>
        <time>2011-02-27T14:51:33Z</time>
      </trkpt>
      <trkpt lat="43.92662" lon="4.04556">
        <ele>170</ele>
        <time>2011-02-27T14:51:35Z</time>
      </trkpt>
      <trkpt lat="43.92669" lon="4.04556">
        <ele>170</ele>
        <time>2011-02-27T14:51:37Z</time>
      </trkpt>
      <trkpt lat="43.92676" lon="4.04557">
        <ele>171</ele>
        <time>2011-02-27T14:51:39Z</time>
      </trkpt>
      <trkpt lat="43.92683" lon="4.04557">
        <ele>171</ele>
        <time>2011-02-27T14:51:41Z</time>
      </trkpt>
      <trkpt lat="43.9269" lon="4.04557">
        <ele>172</ele>
        <time>2011-02-27T14:51:43Z</time>
      </trkpt>
      <trkpt lat="43.92698" lon="4.04556">
        <ele>172</ele>
        <time>2011-02-27T14:51:45Z</time>
      </trkpt>
      <trkpt lat="43.92705" lon="4.04556">
        <ele>173</ele>
        <time>2011-02-27T14:51:47Z</time>
      </trkpt>
      <trkpt lat="43.92712" lon="4.04555">
        <ele>173</ele>
        <time>2011-02-27T14:51:49Z</time>
      </trkpt>
      <trkpt lat="43.92716" lon="4.04555">
        <ele>173</ele>
        <time>2011-02-27T14:51:50Z</time>
      </trkpt>
      <trkpt lat="43.92723" lon="4.04556">
        <ele>174</ele>
        <time>2011-02-27T14:51:52Z</time>
      </trkpt>
      <trkpt lat="43.92726" lon="4.04556">
        <ele>174</ele>
        <time>2011-02-27T14:51:53Z</time>
      </trkpt>
      <trkpt lat="43.92733" lon="4.04558">
        <ele>175</ele>
        <time>2011-02-27T14:51:55Z</time>
      </trkpt>
      <trkpt lat="43.9274" lon="4.04558">
        <ele>176</ele>
        <time>2011-02-27T14:51:57Z</time>
      </trkpt>
      <trkpt lat="43.92747" lon="4.04559">
        <ele>176</ele>
        <time>2011-02-27T14:51:59Z</time>
      </trkpt>
      <trkpt lat="43.92752" lon="4.0456">
        <ele>177</ele>
        <time>2011-02-27T14:52:01Z</time>
      </trkpt>
      <trkpt lat="43.92758" lon="4.04561">
        <ele>177</ele>
        <time>2011-02-27T14:52:03Z</time>
      </trkpt>
      <trkpt lat="43.92765" lon="4.04563">
        <ele>177</ele>
        <time>2011-02-27T14:52:05Z</time>
      </trkpt>
      <trkpt lat="43.92772" lon="4.04566">
        <ele>178</ele>
        <time>2011-02-27T14:52:07Z</time>
      </trkpt>
      <trkpt lat="43.92779" lon="4.04568">
        <ele>178</ele>
        <time>2011-02-27T14:52:09Z</time>
      </trkpt>
      <trkpt lat="43.92787" lon="4.0457">
        <ele>178</ele>
        <time>2011-02-27T14:52:11Z</time>
      </trkpt>
      <trkpt lat="43.92795" lon="4.04572">
        <ele>178</ele>
        <time>2011-02-27T14:52:13Z</time>
      </trkpt>
      <trkpt lat="43.92802" lon="4.04573">
        <ele>178</ele>
        <time>2011-02-27T14:52:15Z</time>
      </trkpt>
      <trkpt lat="43.9281" lon="4.04575">
        <ele>178</ele>
        <time>2011-02-27T14:52:17Z</time>
      </trkpt>
      <trkpt lat="43.92818" lon="4.04577">
        <ele>179</ele>
        <time>2011-02-27T14:52:19Z</time>
      </trkpt>
      <trkpt lat="43.92825" lon="4.04579">
        <ele>179</ele>
        <time>2011-02-27T14:52:21Z</time>
      </trkpt>
      <trkpt lat="43.92833" lon="4.04581">
        <ele>179</ele>
        <time>2011-02-27T14:52:23Z</time>
      </trkpt>
      <trkpt lat="43.92841" lon="4.04583">
        <ele>179</ele>
        <time>2011-02-27T14:52:25Z</time>
      </trkpt>
      <trkpt lat="43.92849" lon="4.04584">
        <ele>180</ele>
        <time>2011-02-27T14:52:27Z</time>
      </trkpt>
      <trkpt lat="43.92857" lon="4.04584">
        <ele>180</ele>
        <time>2011-02-27T14:52:29Z</time>
      </trkpt>
      <trkpt lat="43.92865" lon="4.04582">
        <ele>180</ele>
        <time>2011-02-27T14:52:31Z</time>
      </trkpt>
      <trkpt lat="43.92873" lon="4.04581">
        <ele>180</ele>
        <time>2011-02-27T14:52:33Z</time>
      </trkpt>
      <trkpt lat="43.92881" lon="4.04579">
        <ele>180</ele>
        <time>2011-02-27T14:52:35Z</time>
      </trkpt>
      <trkpt lat="43.92889" lon="4.04577">
        <ele>181</ele>
        <time>2011-02-27T14:52:37Z</time>
      </trkpt>
      <trkpt lat="43.92892" lon="4.04576">
        <ele>181</ele>
        <time>2011-02-27T14:52:38Z</time>
      </trkpt>
      <trkpt lat="43.92899" lon="4.04574">
        <ele>182</ele>
        <time>2011-02-27T14:52:40Z</time>
      </trkpt>
      <trkpt lat="43.92906" lon="4.04573">
        <ele>183</ele>
        <time>2011-02-27T14:52:42Z</time>
      </trkpt>
      <trkpt lat="43.92913" lon="4.04572">
        <ele>183</ele>
        <time>2011-02-27T14:52:44Z</time>
      </trkpt>
      <trkpt lat="43.9292" lon="4.04572">
        <ele>184</ele>
        <time>2011-02-27T14:52:46Z</time>
      </trkpt>
      <trkpt lat="43.92927" lon="4.04573">
        <ele>184</ele>
        <time>2011-02-27T14:52:49Z</time>
      </trkpt>
      <trkpt lat="43.92931" lon="4.04573">
        <ele>185</ele>
        <time>2011-02-27T14:52:49Z</time>
      </trkpt>
      <trkpt lat="43.92938" lon="4.04575">
        <ele>185</ele>
        <time>2011-02-27T14:52:51Z</time>
      </trkpt>
      <trkpt lat="43.92944" lon="4.04577">
        <ele>185</ele>
        <time>2011-02-27T14:52:53Z</time>
      </trkpt>
      <trkpt lat="43.9295" lon="4.0458">
        <ele>186</ele>
        <time>2011-02-27T14:52:55Z</time>
      </trkpt>
      <trkpt lat="43.92956" lon="4.04583">
        <ele>186</ele>
        <time>2011-02-27T14:52:57Z</time>
      </trkpt>
      <trkpt lat="43.92961" lon="4.04586">
        <ele>186</ele>
        <time>2011-02-27T14:52:59Z</time>
      </trkpt>
      <trkpt lat="43.92967" lon="4.04591">
        <ele>186</ele>
        <time>2011-02-27T14:53:01Z</time>
      </trkpt>
      <trkpt lat="43.92969" lon="4.04593">
        <ele>187</ele>
        <time>2011-02-27T14:53:02Z</time>
      </trkpt>
      <trkpt lat="43.92975" lon="4.04598">
        <ele>187</ele>
        <time>2011-02-27T14:53:04Z</time>
      </trkpt>
      <trkpt lat="43.92981" lon="4.04603">
        <ele>188</ele>
        <time>2011-02-27T14:53:06Z</time>
      </trkpt>
      <trkpt lat="43.92986" lon="4.04608">
        <ele>189</ele>
        <time>2011-02-27T14:53:08Z</time>
      </trkpt>
      <trkpt lat="43.92992" lon="4.04612">
        <ele>190</ele>
        <time>2011-02-27T14:53:10Z</time>
      </trkpt>
      <trkpt lat="43.92997" lon="4.04616">
        <ele>190</ele>
        <time>2011-02-27T14:53:12Z</time>
      </trkpt>
      <trkpt lat="43.93001" lon="4.0462">
        <ele>191</ele>
        <time>2011-02-27T14:53:14Z</time>
      </trkpt>
      <trkpt lat="43.93006" lon="4.04624">
        <ele>191</ele>
        <time>2011-02-27T14:53:16Z</time>
      </trkpt>
      <trkpt lat="43.93011" lon="4.04628">
        <ele>192</ele>
        <time>2011-02-27T14:53:18Z</time>
      </trkpt>
      <trkpt lat="43.93016" lon="4.04633">
        <ele>192</ele>
        <time>2011-02-27T14:53:20Z</time>
      </trkpt>
      <trkpt lat="43.93021" lon="4.04637">
        <ele>193</ele>
        <time>2011-02-27T14:53:22Z</time>
      </trkpt>
      <trkpt lat="43.93027" lon="4.04642">
        <ele>193</ele>
        <time>2011-02-27T14:53:24Z</time>
      </trkpt>
      <trkpt lat="43.93032" lon="4.04647">
        <ele>194</ele>
        <time>2011-02-27T14:53:26Z</time>
      </trkpt>
      <trkpt lat="43.93038" lon="4.04651">
        <ele>194</ele>
        <time>2011-02-27T14:53:28Z</time>
      </trkpt>
      <trkpt lat="43.9304" lon="4.04654">
        <ele>195</ele>
        <time>2011-02-27T14:53:29Z</time>
      </trkpt>
      <trkpt lat="43.93046" lon="4.04658">
        <ele>195</ele>
        <time>2011-02-27T14:53:31Z</time>
      </trkpt>
      <trkpt lat="43.93051" lon="4.04663">
        <ele>196</ele>
        <time>2011-02-27T14:53:33Z</time>
      </trkpt>
      <trkpt lat="43.93054" lon="4.04666">
        <ele>196</ele>
        <time>2011-02-27T14:53:34Z</time>
      </trkpt>
      <trkpt lat="43.93059" lon="4.04671">
        <ele>196</ele>
        <time>2011-02-27T14:53:36Z</time>
      </trkpt>
      <trkpt lat="43.93065" lon="4.04676">
        <ele>196</ele>
        <time>2011-02-27T14:53:38Z</time>
      </trkpt>
      <trkpt lat="43.9307" lon="4.04681">
        <ele>197</ele>
        <time>2011-02-27T14:53:40Z</time>
      </trkpt>
      <trkpt lat="43.93073" lon="4.04684">
        <ele>197</ele>
        <time>2011-02-27T14:53:41Z</time>
      </trkpt>
      <trkpt lat="43.93078" lon="4.04688">
        <ele>198</ele>
        <time>2011-02-27T14:53:43Z</time>
      </trkpt>
      <trkpt lat="43.93083" lon="4.04693">
        <ele>199</ele>
        <time>2011-02-27T14:53:45Z</time>
      </trkpt>
      <trkpt lat="43.93088" lon="4.04698">
        <ele>199</ele>
        <time>2011-02-27T14:53:47Z</time>
      </trkpt>
      <trkpt lat="43.93091" lon="4.047">
        <ele>199</ele>
        <time>2011-02-27T14:53:48Z</time>
      </trkpt>
      <trkpt lat="43.93096" lon="4.04706">
        <ele>199</ele>
        <time>2011-02-27T14:53:50Z</time>
      </trkpt>
      <trkpt lat="43.93101" lon="4.04711">
        <ele>200</ele>
        <time>2011-02-27T14:53:52Z</time>
      </trkpt>
      <trkpt lat="43.93107" lon="4.04716">
        <ele>200</ele>
        <time>2011-02-27T14:53:54Z</time>
      </trkpt>
      <trkpt lat="43.93112" lon="4.04721">
        <ele>201</ele>
        <time>2011-02-27T14:53:56Z</time>
      </trkpt>
      <trkpt lat="43.93117" lon="4.04726">
        <ele>200</ele>
        <time>2011-02-27T14:53:58Z</time>
      </trkpt>
      <trkpt lat="43.93123" lon="4.04732">
        <ele>201</ele>
        <time>2011-02-27T14:54:00Z</time>
      </trkpt>
      <trkpt lat="43.93128" lon="4.04737">
        <ele>201</ele>
        <time>2011-02-27T14:54:02Z</time>
      </trkpt>
      <trkpt lat="43.93131" lon="4.04739">
        <ele>201</ele>
        <time>2011-02-27T14:54:03Z</time>
      </trkpt>
      <trkpt lat="43.93136" lon="4.04743">
        <ele>202</ele>
        <time>2011-02-27T14:54:05Z</time>
      </trkpt>
      <trkpt lat="43.93141" lon="4.04746">
        <ele>203</ele>
        <time>2011-02-27T14:54:07Z</time>
      </trkpt>
      <trkpt lat="43.93146" lon="4.0475">
        <ele>203</ele>
        <time>2011-02-27T14:54:09Z</time>
      </trkpt>
      <trkpt lat="43.9315" lon="4.04754">
        <ele>204</ele>
        <time>2011-02-27T14:54:11Z</time>
      </trkpt>
      <trkpt lat="43.93155" lon="4.04757">
        <ele>205</ele>
        <time>2011-02-27T14:54:13Z</time>
      </trkpt>
      <trkpt lat="43.9316" lon="4.04761">
        <ele>205</ele>
        <time>2011-02-27T14:54:15Z</time>
      </trkpt>
      <trkpt lat="43.93165" lon="4.04766">
        <ele>206</ele>
        <time>2011-02-27T14:54:17Z</time>
      </trkpt>
      <trkpt lat="43.9317" lon="4.0477">
        <ele>206</ele>
        <time>2011-02-27T14:54:19Z</time>
      </trkpt>
      <trkpt lat="43.93173" lon="4.04772">
        <ele>207</ele>
        <time>2011-02-27T14:54:20Z</time>
      </trkpt>
      <trkpt lat="43.93179" lon="4.04777">
        <ele>207</ele>
        <time>2011-02-27T14:54:22Z</time>
      </trkpt>
      <trkpt lat="43.93185" lon="4.04781">
        <ele>207</ele>
        <time>2011-02-27T14:54:24Z</time>
      </trkpt>
      <trkpt lat="43.9319" lon="4.04786">
        <ele>208</ele>
        <time>2011-02-27T14:54:26Z</time>
      </trkpt>
      <trkpt lat="43.93196" lon="4.0479">
        <ele>208</ele>
        <time>2011-02-27T14:54:28Z</time>
      </trkpt>
      <trkpt lat="43.93201" lon="4.04793">
        <ele>208</ele>
        <time>2011-02-27T14:54:30Z</time>
      </trkpt>
      <trkpt lat="43.93204" lon="4.04795">
        <ele>208</ele>
        <time>2011-02-27T14:54:31Z</time>
      </trkpt>
      <trkpt lat="43.93209" lon="4.04797">
        <ele>208</ele>
        <time>2011-02-27T14:54:33Z</time>
      </trkpt>
      <trkpt lat="43.93215" lon="4.048">
        <ele>209</ele>
        <time>2011-02-27T14:54:35Z</time>
      </trkpt>
      <trkpt lat="43.93221" lon="4.04802">
        <ele>209</ele>
        <time>2011-02-27T14:54:37Z</time>
      </trkpt>
      <trkpt lat="43.93227" lon="4.04805">
        <ele>210</ele>
        <time>2011-02-27T14:54:39Z</time>
      </trkpt>
      <trkpt lat="43.9323" lon="4.04806">
        <ele>210</ele>
        <time>2011-02-27T14:54:40Z</time>
      </trkpt>
      <trkpt lat="43.93236" lon="4.04808">
        <ele>210</ele>
        <time>2011-02-27T14:54:42Z</time>
      </trkpt>
      <trkpt lat="43.93241" lon="4.0481">
        <ele>211</ele>
        <time>2011-02-27T14:54:44Z</time>
      </trkpt>
      <trkpt lat="43.93247" lon="4.04811">
        <ele>211</ele>
        <time>2011-02-27T14:54:46Z</time>
      </trkpt>
      <trkpt lat="43.93253" lon="4.04814">
        <ele>212</ele>
        <time>2011-02-27T14:54:48Z</time>
      </trkpt>
      <trkpt lat="43.93258" lon="4.04816">
        <ele>212</ele>
        <time>2011-02-27T14:54:50Z</time>
      </trkpt>
      <trkpt lat="43.93264" lon="4.04818">
        <ele>213</ele>
        <time>2011-02-27T14:54:52Z</time>
      </trkpt>
      <trkpt lat="43.9327" lon="4.0482">
        <ele>213</ele>
        <time>2011-02-27T14:54:54Z</time>
      </trkpt>
      <trkpt lat="43.93273" lon="4.04821">
        <ele>213</ele>
        <time>2011-02-27T14:54:55Z</time>
      </trkpt>
      <trkpt lat="43.93279" lon="4.04823">
        <ele>213</ele>
        <time>2011-02-27T14:54:57Z</time>
      </trkpt>
      <trkpt lat="43.93285" lon="4.04826">
        <ele>213</ele>
        <time>2011-02-27T14:54:59Z</time>
      </trkpt>
      <trkpt lat="43.93291" lon="4.04829">
        <ele>214</ele>
        <time>2011-02-27T14:55:01Z</time>
      </trkpt>
      <trkpt lat="43.93297" lon="4.04831">
        <ele>214</ele>
        <time>2011-02-27T14:55:03Z</time>
      </trkpt>
      <trkpt lat="43.933" lon="4.04833">
        <ele>214</ele>
        <time>2011-02-27T14:55:04Z</time>
      </trkpt>
      <trkpt lat="43.93306" lon="4.04835">
        <ele>215</ele>
        <time>2011-02-27T14:55:06Z</time>
      </trkpt>
      <trkpt lat="43.93312" lon="4.04837">
        <ele>215</ele>
        <time>2011-02-27T14:55:08Z</time>
      </trkpt>
      <trkpt lat="43.93318" lon="4.04839">
        <ele>215</ele>
        <time>2011-02-27T14:55:10Z</time>
      </trkpt>
      <trkpt lat="43.93324" lon="4.04841">
        <ele>216</ele>
        <time>2011-02-27T14:55:12Z</time>
      </trkpt>
      <trkpt lat="43.9333" lon="4.04843">
        <ele>217</ele>
        <time>2011-02-27T14:55:14Z</time>
      </trkpt>
      <trkpt lat="43.93336" lon="4.04845">
        <ele>217</ele>
        <time>2011-02-27T14:55:16Z</time>
      </trkpt>
      <trkpt lat="43.93341" lon="4.04847">
        <ele>218</ele>
        <time>2011-02-27T14:55:18Z</time>
      </trkpt>
      <trkpt lat="43.93347" lon="4.0485">
        <ele>218</ele>
        <time>2011-02-27T14:55:20Z</time>
      </trkpt>
      <trkpt lat="43.93353" lon="4.04854">
        <ele>218</ele>
        <time>2011-02-27T14:55:22Z</time>
      </trkpt>
      <trkpt lat="43.93359" lon="4.04857">
        <ele>219</ele>
        <time>2011-02-27T14:55:24Z</time>
      </trkpt>
      <trkpt lat="43.93365" lon="4.0486">
        <ele>219</ele>
        <time>2011-02-27T14:55:26Z</time>
      </trkpt>
      <trkpt lat="43.9337" lon="4.04863">
        <ele>218</ele>
        <time>2011-02-27T14:55:28Z</time>
      </trkpt>
      <trkpt lat="43.93373" lon="4.04865">
        <ele>219</ele>
        <time>2011-02-27T14:55:29Z</time>
      </trkpt>
      <trkpt lat="43.93379" lon="4.04867">
        <ele>219</ele>
        <time>2011-02-27T14:55:31Z</time>
      </trkpt>
      <trkpt lat="43.93385" lon="4.04869">
        <ele>218</ele>
        <time>2011-02-27T14:55:33Z</time>
      </trkpt>
      <trkpt lat="43.9339" lon="4.04871">
        <ele>219</ele>
        <time>2011-02-27T14:55:35Z</time>
      </trkpt>
      <trkpt lat="43.93393" lon="4.04872">
        <ele>219</ele>
        <time>2011-02-27T14:55:36Z</time>
      </trkpt>
      <trkpt lat="43.93399" lon="4.04873">
        <ele>219</ele>
        <time>2011-02-27T14:55:38Z</time>
      </trkpt>
      <trkpt lat="43.93405" lon="4.04874">
        <ele>220</ele>
        <time>2011-02-27T14:55:40Z</time>
      </trkpt>
      <trkpt lat="43.93411" lon="4.04876">
        <ele>221</ele>
        <time>2011-02-27T14:55:42Z</time>
      </trkpt>
      <trkpt lat="43.93418" lon="4.04878">
        <ele>221</ele>
        <time>2011-02-27T14:55:44Z</time>
      </trkpt>
      <trkpt lat="43.93427" lon="4.04882">
        <ele>221</ele>
        <time>2011-02-27T14:55:46Z</time>
      </trkpt>
      <trkpt lat="43.93435" lon="4.04885">
        <ele>221</ele>
        <time>2011-02-27T14:55:48Z</time>
      </trkpt>
      <trkpt lat="43.9344" lon="4.04887">
        <ele>221</ele>
        <time>2011-02-27T14:55:49Z</time>
      </trkpt>
      <trkpt lat="43.93444" lon="4.04889">
        <ele>220</ele>
        <time>2011-02-27T14:55:50Z</time>
      </trkpt>
      <trkpt lat="43.93449" lon="4.04891">
        <ele>220</ele>
        <time>2011-02-27T14:55:51Z</time>
      </trkpt>
      <trkpt lat="43.93453" lon="4.04892">
        <ele>220</ele>
        <time>2011-02-27T14:55:52Z</time>
      </trkpt>
      <trkpt lat="43.93458" lon="4.04894">
        <ele>220</ele>
        <time>2011-02-27T14:55:53Z</time>
      </trkpt>
      <trkpt lat="43.93463" lon="4.04895">
        <ele>219</ele>
        <time>2011-02-27T14:55:54Z</time>
      </trkpt>
      <trkpt lat="43.93468" lon="4.04896">
        <ele>219</ele>
        <time>2011-02-27T14:55:55Z</time>
      </trkpt>
      <trkpt lat="43.93473" lon="4.04896">
        <ele>219</ele>
        <time>2011-02-27T14:55:56Z</time>
      </trkpt>
      <trkpt lat="43.93478" lon="4.04897">
        <ele>219</ele>
        <time>2011-02-27T14:55:57Z</time>
      </trkpt>
      <trkpt lat="43.93484" lon="4.04897">
        <ele>219</ele>
        <time>2011-02-27T14:55:58Z</time>
      </trkpt>
      <trkpt lat="43.93489" lon="4.04897">
        <ele>219</ele>
        <time>2011-02-27T14:55:59Z</time>
      </trkpt>
      <trkpt lat="43.93494" lon="4.04897">
        <ele>218</ele>
        <time>2011-02-27T14:56:00Z</time>
      </trkpt>
      <trkpt lat="43.935" lon="4.04897">
        <ele>218</ele>
        <time>2011-02-27T14:56:01Z</time>
      </trkpt>
      <trkpt lat="43.93505" lon="4.04898">
        <ele>218</ele>
        <time>2011-02-27T14:56:02Z</time>
      </trkpt>
      <trkpt lat="43.9351" lon="4.04899">
        <ele>218</ele>
        <time>2011-02-27T14:56:03Z</time>
      </trkpt>
      <trkpt lat="43.93515" lon="4.049">
        <ele>217</ele>
        <time>2011-02-27T14:56:04Z</time>
      </trkpt>
      <trkpt lat="43.9352" lon="4.04901">
        <ele>217</ele>
        <time>2011-02-27T14:56:05Z</time>
      </trkpt>
      <trkpt lat="43.93525" lon="4.04903">
        <ele>217</ele>
        <time>2011-02-27T14:56:06Z</time>
      </trkpt>
      <trkpt lat="43.9353" lon="4.04904">
        <ele>217</ele>
        <time>2011-02-27T14:56:07Z</time>
      </trkpt>
      <trkpt lat="43.93535" lon="4.04905">
        <ele>217</ele>
        <time>2011-02-27T14:56:08Z</time>
      </trkpt>
      <trkpt lat="43.9354" lon="4.04906">
        <ele>216</ele>
        <time>2011-02-27T14:56:09Z</time>
      </trkpt>
      <trkpt lat="43.93545" lon="4.04906">
        <ele>216</ele>
        <time>2011-02-27T14:56:10Z</time>
      </trkpt>
      <trkpt lat="43.93549" lon="4.04906">
        <ele>216</ele>
        <time>2011-02-27T14:56:11Z</time>
      </trkpt>
      <trkpt lat="43.93554" lon="4.04906">
        <ele>216</ele>
        <time>2011-02-27T14:56:12Z</time>
      </trkpt>
      <trkpt lat="43.93559" lon="4.04906">
        <ele>216</ele>
        <time>2011-02-27T14:56:13Z</time>
      </trkpt>
      <trkpt lat="43.93563" lon="4.04906">
        <ele>216</ele>
        <time>2011-02-27T14:56:14Z</time>
      </trkpt>
      <trkpt lat="43.93568" lon="4.04905">
        <ele>216</ele>
        <time>2011-02-27T14:56:15Z</time>
      </trkpt>
      <trkpt lat="43.93573" lon="4.04905">
        <ele>216</ele>
        <time>2011-02-27T14:56:16Z</time>
      </trkpt>
      <trkpt lat="43.93578" lon="4.04904">
        <ele>216</ele>
        <time>2011-02-27T14:56:17Z</time>
      </trkpt>
      <trkpt lat="43.93583" lon="4.04904">
        <ele>216</ele>
        <time>2011-02-27T14:56:18Z</time>
      </trkpt>
      <trkpt lat="43.93589" lon="4.04904">
        <ele>216</ele>
        <time>2011-02-27T14:56:19Z</time>
      </trkpt>
      <trkpt lat="43.93595" lon="4.04904">
        <ele>215</ele>
        <time>2011-02-27T14:56:20Z</time>
      </trkpt>
      <trkpt lat="43.93601" lon="4.04904">
        <ele>215</ele>
        <time>2011-02-27T14:56:21Z</time>
      </trkpt>
      <trkpt lat="43.93606" lon="4.04905">
        <ele>215</ele>
        <time>2011-02-27T14:56:22Z</time>
      </trkpt>
      <trkpt lat="43.93612" lon="4.04905">
        <ele>214</ele>
        <time>2011-02-27T14:56:23Z</time>
      </trkpt>
      <trkpt lat="43.93617" lon="4.04906">
        <ele>214</ele>
        <time>2011-02-27T14:56:24Z</time>
      </trkpt>
      <trkpt lat="43.93622" lon="4.04906">
        <ele>214</ele>
        <time>2011-02-27T14:56:25Z</time>
      </trkpt>
      <trkpt lat="43.93627" lon="4.04906">
        <ele>213</ele>
        <time>2011-02-27T14:56:26Z</time>
      </trkpt>
      <trkpt lat="43.93631" lon="4.04906">
        <ele>213</ele>
        <time>2011-02-27T14:56:27Z</time>
      </trkpt>
      <trkpt lat="43.93636" lon="4.04906">
        <ele>213</ele>
        <time>2011-02-27T14:56:28Z</time>
      </trkpt>
      <trkpt lat="43.93641" lon="4.04906">
        <ele>213</ele>
        <time>2011-02-27T14:56:29Z</time>
      </trkpt>
      <trkpt lat="43.93646" lon="4.04906">
        <ele>212</ele>
        <time>2011-02-27T14:56:30Z</time>
      </trkpt>
      <trkpt lat="43.93652" lon="4.04905">
        <ele>212</ele>
        <time>2011-02-27T14:56:31Z</time>
      </trkpt>
      <trkpt lat="43.93657" lon="4.04905">
        <ele>212</ele>
        <time>2011-02-27T14:56:32Z</time>
      </trkpt>
      <trkpt lat="43.93663" lon="4.04904">
        <ele>211</ele>
        <time>2011-02-27T14:56:33Z</time>
      </trkpt>
      <trkpt lat="43.93668" lon="4.04903">
        <ele>211</ele>
        <time>2011-02-27T14:56:34Z</time>
      </trkpt>
      <trkpt lat="43.93673" lon="4.04902">
        <ele>211</ele>
        <time>2011-02-27T14:56:35Z</time>
      </trkpt>
      <trkpt lat="43.93679" lon="4.04901">
        <ele>211</ele>
        <time>2011-02-27T14:56:36Z</time>
      </trkpt>
      <trkpt lat="43.93684" lon="4.049">
        <ele>211</ele>
        <time>2011-02-27T14:56:37Z</time>
      </trkpt>
      <trkpt lat="43.93689" lon="4.04899">
        <ele>210</ele>
        <time>2011-02-27T14:56:38Z</time>
      </trkpt>
      <trkpt lat="43.93694" lon="4.04898">
        <ele>210</ele>
        <time>2011-02-27T14:56:39Z</time>
      </trkpt>
      <trkpt lat="43.93699" lon="4.04896">
        <ele>210</ele>
        <time>2011-02-27T14:56:40Z</time>
      </trkpt>
      <trkpt lat="43.93704" lon="4.04895">
        <ele>210</ele>
        <time>2011-02-27T14:56:41Z</time>
      </trkpt>
      <trkpt lat="43.93709" lon="4.04894">
        <ele>209</ele>
        <time>2011-02-27T14:56:42Z</time>
      </trkpt>
      <trkpt lat="43.93714" lon="4.04892">
        <ele>209</ele>
        <time>2011-02-27T14:56:43Z</time>
      </trkpt>
      <trkpt lat="43.93719" lon="4.04891">
        <ele>209</ele>
        <time>2011-02-27T14:56:44Z</time>
      </trkpt>
      <trkpt lat="43.93724" lon="4.0489">
        <ele>209</ele>
        <time>2011-02-27T14:56:45Z</time>
      </trkpt>
      <trkpt lat="43.9373" lon="4.04889">
        <ele>208</ele>
        <time>2011-02-27T14:56:46Z</time>
      </trkpt>
      <trkpt lat="43.93735" lon="4.04888">
        <ele>208</ele>
        <time>2011-02-27T14:56:47Z</time>
      </trkpt>
      <trkpt lat="43.93741" lon="4.04887">
        <ele>208</ele>
        <time>2011-02-27T14:56:48Z</time>
      </trkpt>
      <trkpt lat="43.93747" lon="4.04887">
        <ele>208</ele>
        <time>2011-02-27T14:56:49Z</time>
      </trkpt>
      <trkpt lat="43.93752" lon="4.04887">
        <ele>208</ele>
        <time>2011-02-27T14:56:50Z</time>
      </trkpt>
      <trkpt lat="43.93758" lon="4.04887">
        <ele>207</ele>
        <time>2011-02-27T14:56:51Z</time>
      </trkpt>
      <trkpt lat="43.93764" lon="4.04888">
        <ele>207</ele>
        <time>2011-02-27T14:56:52Z</time>
      </trkpt>
      <trkpt lat="43.9377" lon="4.04888">
        <ele>207</ele>
        <time>2011-02-27T14:56:53Z</time>
      </trkpt>
      <trkpt lat="43.93776" lon="4.04889">
        <ele>208</ele>
        <time>2011-02-27T14:56:54Z</time>
      </trkpt>
      <trkpt lat="43.93781" lon="4.0489">
        <ele>207</ele>
        <time>2011-02-27T14:56:55Z</time>
      </trkpt>
      <trkpt lat="43.93787" lon="4.0489">
        <ele>207</ele>
        <time>2011-02-27T14:56:56Z</time>
      </trkpt>
      <trkpt lat="43.93793" lon="4.04891">
        <ele>207</ele>
        <time>2011-02-27T14:56:57Z</time>
      </trkpt>
      <trkpt lat="43.93798" lon="4.04891">
        <ele>207</ele>
        <time>2011-02-27T14:56:58Z</time>
      </trkpt>
      <trkpt lat="43.93803" lon="4.04892">
        <ele>207</ele>
        <time>2011-02-27T14:56:59Z</time>
      </trkpt>
      <trkpt lat="43.93808" lon="4.04892">
        <ele>206</ele>
        <time>2011-02-27T14:57:00Z</time>
      </trkpt>
      <trkpt lat="43.93814" lon="4.04893">
        <ele>206</ele>
        <time>2011-02-27T14:57:01Z</time>
      </trkpt>
      <trkpt lat="43.93819" lon="4.04893">
        <ele>206</ele>
        <time>2011-02-27T14:57:02Z</time>
      </trkpt>
      <trkpt lat="43.93824" lon="4.04893">
        <ele>206</ele>
        <time>2011-02-27T14:57:03Z</time>
      </trkpt>
      <trkpt lat="43.9383" lon="4.04893">
        <ele>206</ele>
        <time>2011-02-27T14:57:04Z</time>
      </trkpt>
      <trkpt lat="43.93835" lon="4.04893">
        <ele>206</ele>
        <time>2011-02-27T14:57:05Z</time>
      </trkpt>
      <trkpt lat="43.93841" lon="4.04893">
        <ele>206</ele>
        <time>2011-02-27T14:57:06Z</time>
      </trkpt>
      <trkpt lat="43.93846" lon="4.04892">
        <ele>206</ele>
        <time>2011-02-27T14:57:07Z</time>
      </trkpt>
      <trkpt lat="43.93852" lon="4.04891">
        <ele>206</ele>
        <time>2011-02-27T14:57:08Z</time>
      </trkpt>
      <trkpt lat="43.93857" lon="4.04891">
        <ele>205</ele>
        <time>2011-02-27T14:57:09Z</time>
      </trkpt>
      <trkpt lat="43.93863" lon="4.04891">
        <ele>205</ele>
        <time>2011-02-27T14:57:10Z</time>
      </trkpt>
      <trkpt lat="43.93868" lon="4.04891">
        <ele>205</ele>
        <time>2011-02-27T14:57:11Z</time>
      </trkpt>
      <trkpt lat="43.93873" lon="4.04892">
        <ele>205</ele>
        <time>2011-02-27T14:57:12Z</time>
      </trkpt>
      <trkpt lat="43.93878" lon="4.04894">
        <ele>205</ele>
        <time>2011-02-27T14:57:13Z</time>
      </trkpt>
      <trkpt lat="43.93883" lon="4.04896">
        <ele>205</ele>
        <time>2011-02-27T14:57:14Z</time>
      </trkpt>
      <trkpt lat="43.93888" lon="4.049">
        <ele>204</ele>
        <time>2011-02-27T14:57:15Z</time>
      </trkpt>
      <trkpt lat="43.93892" lon="4.04904">
        <ele>204</ele>
        <time>2011-02-27T14:57:16Z</time>
      </trkpt>
      <trkpt lat="43.93896" lon="4.04909">
        <ele>204</ele>
        <time>2011-02-27T14:57:17Z</time>
      </trkpt>
      <trkpt lat="43.939" lon="4.04915">
        <ele>203</ele>
        <time>2011-02-27T14:57:18Z</time>
      </trkpt>
      <trkpt lat="43.93905" lon="4.0492">
        <ele>203</ele>
        <time>2011-02-27T14:57:19Z</time>
      </trkpt>
      <trkpt lat="43.93911" lon="4.04924">
        <ele>203</ele>
        <time>2011-02-27T14:57:20Z</time>
      </trkpt>
      <trkpt lat="43.93917" lon="4.04928">
        <ele>203</ele>
        <time>2011-02-27T14:57:21Z</time>
      </trkpt>
      <trkpt lat="43.93924" lon="4.0493">
        <ele>202</ele>
        <time>2011-02-27T14:57:22Z</time>
      </trkpt>
      <trkpt lat="43.9393" lon="4.04931">
        <ele>202</ele>
        <time>2011-02-27T14:57:23Z</time>
      </trkpt>
      <trkpt lat="43.93936" lon="4.04932">
        <ele>202</ele>
        <time>2011-02-27T14:57:24Z</time>
      </trkpt>
      <trkpt lat="43.93942" lon="4.04932">
        <ele>202</ele>
        <time>2011-02-27T14:57:25Z</time>
      </trkpt>
      <trkpt lat="43.93948" lon="4.04933">
        <ele>202</ele>
        <time>2011-02-27T14:57:26Z</time>
      </trkpt>
      <trkpt lat="43.93954" lon="4.04933">
        <ele>201</ele>
        <time>2011-02-27T14:57:27Z</time>
      </trkpt>
      <trkpt lat="43.9396" lon="4.04933">
        <ele>201</ele>
        <time>2011-02-27T14:57:28Z</time>
      </trkpt>
      <trkpt lat="43.93966" lon="4.04933">
        <ele>201</ele>
        <time>2011-02-27T14:57:29Z</time>
      </trkpt>
      <trkpt lat="43.93972" lon="4.04933">
        <ele>200</ele>
        <time>2011-02-27T14:57:30Z</time>
      </trkpt>
      <trkpt lat="43.93978" lon="4.04933">
        <ele>200</ele>
        <time>2011-02-27T14:57:31Z</time>
      </trkpt>
      <trkpt lat="43.93983" lon="4.04934">
        <ele>199</ele>
        <time>2011-02-27T14:57:32Z</time>
      </trkpt>
      <trkpt lat="43.93989" lon="4.04934">
        <ele>199</ele>
        <time>2011-02-27T14:57:33Z</time>
      </trkpt>
      <trkpt lat="43.93995" lon="4.04934">
        <ele>198</ele>
        <time>2011-02-27T14:57:34Z</time>
      </trkpt>
      <trkpt lat="43.94001" lon="4.04934">
        <ele>198</ele>
        <time>2011-02-27T14:57:35Z</time>
      </trkpt>
      <trkpt lat="43.94007" lon="4.04935">
        <ele>197</ele>
        <time>2011-02-27T14:57:36Z</time>
      </trkpt>
      <trkpt lat="43.94013" lon="4.04935">
        <ele>196</ele>
        <time>2011-02-27T14:57:37Z</time>
      </trkpt>
      <trkpt lat="43.94018" lon="4.04936">
        <ele>195</ele>
        <time>2011-02-27T14:57:38Z</time>
      </trkpt>
      <trkpt lat="43.94024" lon="4.04936">
        <ele>195</ele>
        <time>2011-02-27T14:57:39Z</time>
      </trkpt>
      <trkpt lat="43.9403" lon="4.04937">
        <ele>194</ele>
        <time>2011-02-27T14:57:40Z</time>
      </trkpt>
      <trkpt lat="43.94035" lon="4.04937">
        <ele>194</ele>
        <time>2011-02-27T14:57:41Z</time>
      </trkpt>
      <trkpt lat="43.94041" lon="4.04937">
        <ele>193</ele>
        <time>2011-02-27T14:57:42Z</time>
      </trkpt>
      <trkpt lat="43.94047" lon="4.04937">
        <ele>192</ele>
        <time>2011-02-27T14:57:43Z</time>
      </trkpt>
      <trkpt lat="43.94052" lon="4.04937">
        <ele>192</ele>
        <time>2011-02-27T14:57:44Z</time>
      </trkpt>
      <trkpt lat="43.94058" lon="4.04937">
        <ele>191</ele>
        <time>2011-02-27T14:57:45Z</time>
      </trkpt>
      <trkpt lat="43.94063" lon="4.04937">
        <ele>191</ele>
        <time>2011-02-27T14:57:46Z</time>
      </trkpt>
      <trkpt lat="43.94069" lon="4.04937">
        <ele>191</ele>
        <time>2011-02-27T14:57:47Z</time>
      </trkpt>
      <trkpt lat="43.94075" lon="4.04937">
        <ele>190</ele>
        <time>2011-02-27T14:57:48Z</time>
      </trkpt>
      <trkpt lat="43.9408" lon="4.04937">
        <ele>190</ele>
        <time>2011-02-27T14:57:49Z</time>
      </trkpt>
      <trkpt lat="43.94086" lon="4.04937">
        <ele>190</ele>
        <time>2011-02-27T14:57:50Z</time>
      </trkpt>
      <trkpt lat="43.94092" lon="4.04936">
        <ele>189</ele>
        <time>2011-02-27T14:57:51Z</time>
      </trkpt>
      <trkpt lat="43.94097" lon="4.04936">
        <ele>188</ele>
        <time>2011-02-27T14:57:52Z</time>
      </trkpt>
      <trkpt lat="43.94103" lon="4.04935">
        <ele>188</ele>
        <time>2011-02-27T14:57:53Z</time>
      </trkpt>
      <trkpt lat="43.94109" lon="4.04935">
        <ele>187</ele>
        <time>2011-02-27T14:57:54Z</time>
      </trkpt>
      <trkpt lat="43.94114" lon="4.04934">
        <ele>186</ele>
        <time>2011-02-27T14:57:55Z</time>
      </trkpt>
      <trkpt lat="43.9412" lon="4.04933">
        <ele>186</ele>
        <time>2011-02-27T14:57:56Z</time>
      </trkpt>
      <trkpt lat="43.94125" lon="4.04932">
        <ele>186</ele>
        <time>2011-02-27T14:57:57Z</time>
      </trkpt>
      <trkpt lat="43.94131" lon="4.0493">
        <ele>186</ele>
        <time>2011-02-27T14:57:58Z</time>
      </trkpt>
      <trkpt lat="43.94137" lon="4.04929">
        <ele>185</ele>
        <time>2011-02-27T14:57:59Z</time>
      </trkpt>
      <trkpt lat="43.94143" lon="4.04928">
        <ele>185</ele>
        <time>2011-02-27T14:58:00Z</time>
      </trkpt>
      <trkpt lat="43.94149" lon="4.04926">
        <ele>185</ele>
        <time>2011-02-27T14:58:01Z</time>
      </trkpt>
      <trkpt lat="43.94155" lon="4.04925">
        <ele>184</ele>
        <time>2011-02-27T14:58:02Z</time>
      </trkpt>
      <trkpt lat="43.94161" lon="4.04924">
        <ele>184</ele>
        <time>2011-02-27T14:58:03Z</time>
      </trkpt>
      <trkpt lat="43.94168" lon="4.04923">
        <ele>184</ele>
        <time>2011-02-27T14:58:04Z</time>
      </trkpt>
      <trkpt lat="43.94174" lon="4.04923">
        <ele>184</ele>
        <time>2011-02-27T14:58:05Z</time>
      </trkpt>
      <trkpt lat="43.9418" lon="4.04922">
        <ele>183</ele>
        <time>2011-02-27T14:58:06Z</time>
      </trkpt>
      <trkpt lat="43.94186" lon="4.04921">
        <ele>183</ele>
        <time>2011-02-27T14:58:07Z</time>
      </trkpt>
      <trkpt lat="43.94192" lon="4.0492">
        <ele>183</ele>
        <time>2011-02-27T14:58:08Z</time>
      </trkpt>
      <trkpt lat="43.94198" lon="4.04919">
        <ele>182</ele>
        <time>2011-02-27T14:58:09Z</time>
      </trkpt>
      <trkpt lat="43.94204" lon="4.04918">
        <ele>182</ele>
        <time>2011-02-27T14:58:10Z</time>
      </trkpt>
      <trkpt lat="43.9421" lon="4.04918">
        <ele>182</ele>
        <time>2011-02-27T14:58:11Z</time>
      </trkpt>
      <trkpt lat="43.94216" lon="4.04917">
        <ele>182</ele>
        <time>2011-02-27T14:58:12Z</time>
      </trkpt>
      <trkpt lat="43.94222" lon="4.04916">
        <ele>182</ele>
        <time>2011-02-27T14:58:13Z</time>
      </trkpt>
      <trkpt lat="43.94228" lon="4.04915">
        <ele>181</ele>
        <time>2011-02-27T14:58:14Z</time>
      </trkpt>
      <trkpt lat="43.94234" lon="4.04914">
        <ele>181</ele>
        <time>2011-02-27T14:58:15Z</time>
      </trkpt>
      <trkpt lat="43.9424" lon="4.04914">
        <ele>181</ele>
        <time>2011-02-27T14:58:16Z</time>
      </trkpt>
      <trkpt lat="43.94247" lon="4.04913">
        <ele>180</ele>
        <time>2011-02-27T14:58:17Z</time>
      </trkpt>
      <trkpt lat="43.94253" lon="4.04911">
        <ele>180</ele>
        <time>2011-02-27T14:58:18Z</time>
      </trkpt>
      <trkpt lat="43.94259" lon="4.0491">
        <ele>180</ele>
        <time>2011-02-27T14:58:19Z</time>
      </trkpt>
      <trkpt lat="43.94265" lon="4.04909">
        <ele>180</ele>
        <time>2011-02-27T14:58:20Z</time>
      </trkpt>
      <trkpt lat="43.94272" lon="4.04908">
        <ele>180</ele>
        <time>2011-02-27T14:58:21Z</time>
      </trkpt>
      <trkpt lat="43.94278" lon="4.04907">
        <ele>179</ele>
        <time>2011-02-27T14:58:22Z</time>
      </trkpt>
      <trkpt lat="43.94284" lon="4.04906">
        <ele>179</ele>
        <time>2011-02-27T14:58:23Z</time>
      </trkpt>
      <trkpt lat="43.9429" lon="4.04906">
        <ele>179</ele>
        <time>2011-02-27T14:58:24Z</time>
      </trkpt>
      <trkpt lat="43.94296" lon="4.04905">
        <ele>179</ele>
        <time>2011-02-27T14:58:25Z</time>
      </trkpt>
      <trkpt lat="43.94303" lon="4.04904">
        <ele>179</ele>
        <time>2011-02-27T14:58:26Z</time>
      </trkpt>
      <trkpt lat="43.94309" lon="4.04903">
        <ele>179</ele>
        <time>2011-02-27T14:58:27Z</time>
      </trkpt>
      <trkpt lat="43.94315" lon="4.04902">
        <ele>178</ele>
        <time>2011-02-27T14:58:28Z</time>
      </trkpt>
      <trkpt lat="43.94321" lon="4.04901">
        <ele>178</ele>
        <time>2011-02-27T14:58:29Z</time>
      </trkpt>
      <trkpt lat="43.94327" lon="4.049">
        <ele>178</ele>
        <time>2011-02-27T14:58:30Z</time>
      </trkpt>
      <trkpt lat="43.94333" lon="4.04899">
        <ele>178</ele>
        <time>2011-02-27T14:58:31Z</time>
      </trkpt>
      <trkpt lat="43.94339" lon="4.04898">
        <ele>178</ele>
        <time>2011-02-27T14:58:32Z</time>
      </trkpt>
      <trkpt lat="43.94345" lon="4.04897">
        <ele>178</ele>
        <time>2011-02-27T14:58:33Z</time>
      </trkpt>
      <trkpt lat="43.94351" lon="4.04896">
        <ele>178</ele>
        <time>2011-02-27T14:58:34Z</time>
      </trkpt>
      <trkpt lat="43.94357" lon="4.04895">
        <ele>178</ele>
        <time>2011-02-27T14:58:35Z</time>
      </trkpt>
      <trkpt lat="43.94363" lon="4.04894">
        <ele>178</ele>
        <time>2011-02-27T14:58:36Z</time>
      </trkpt>
      <trkpt lat="43.94368" lon="4.04893">
        <ele>177</ele>
        <time>2011-02-27T14:58:37Z</time>
      </trkpt>
      <trkpt lat="43.94373" lon="4.04893">
        <ele>177</ele>
        <time>2011-02-27T14:58:38Z</time>
      </trkpt>
      <trkpt lat="43.94378" lon="4.04891">
        <ele>177</ele>
        <time>2011-02-27T14:58:39Z</time>
      </trkpt>
      <trkpt lat="43.94383" lon="4.0489">
        <ele>177</ele>
        <time>2011-02-27T14:58:40Z</time>
      </trkpt>
      <trkpt lat="43.94388" lon="4.04889">
        <ele>177</ele>
        <time>2011-02-27T14:58:41Z</time>
      </trkpt>
      <trkpt lat="43.94393" lon="4.04888">
        <ele>177</ele>
        <time>2011-02-27T14:58:42Z</time>
      </trkpt>
      <trkpt lat="43.94398" lon="4.04887">
        <ele>177</ele>
        <time>2011-02-27T14:58:43Z</time>
      </trkpt>
      <trkpt lat="43.94403" lon="4.04887">
        <ele>177</ele>
        <time>2011-02-27T14:58:44Z</time>
      </trkpt>
      <trkpt lat="43.94408" lon="4.04886">
        <ele>178</ele>
        <time>2011-02-27T14:58:45Z</time>
      </trkpt>
      <trkpt lat="43.94413" lon="4.04886">
        <ele>178</ele>
        <time>2011-02-27T14:58:46Z</time>
      </trkpt>
      <trkpt lat="43.94419" lon="4.04886">
        <ele>178</ele>
        <time>2011-02-27T14:58:47Z</time>
      </trkpt>
      <trkpt lat="43.94424" lon="4.04885">
        <ele>179</ele>
        <time>2011-02-27T14:58:48Z</time>
      </trkpt>
      <trkpt lat="43.94429" lon="4.04885">
        <ele>179</ele>
        <time>2011-02-27T14:58:49Z</time>
      </trkpt>
      <trkpt lat="43.94434" lon="4.04885">
        <ele>180</ele>
        <time>2011-02-27T14:58:50Z</time>
      </trkpt>
      <trkpt lat="43.9444" lon="4.04885">
        <ele>180</ele>
        <time>2011-02-27T14:58:51Z</time>
      </trkpt>
      <trkpt lat="43.94445" lon="4.04885">
        <ele>180</ele>
        <time>2011-02-27T14:58:52Z</time>
      </trkpt>
      <trkpt lat="43.94451" lon="4.04885">
        <ele>181</ele>
        <time>2011-02-27T14:58:53Z</time>
      </trkpt>
      <trkpt lat="43.94457" lon="4.04885">
        <ele>181</ele>
        <time>2011-02-27T14:58:54Z</time>
      </trkpt>
      <trkpt lat="43.94462" lon="4.04885">
        <ele>181</ele>
        <time>2011-02-27T14:58:55Z</time>
      </trkpt>
      <trkpt lat="43.94468" lon="4.04885">
        <ele>182</ele>
        <time>2011-02-27T14:58:56Z</time>
      </trkpt>
      <trkpt lat="43.94475" lon="4.04885">
        <ele>182</ele>
        <time>2011-02-27T14:58:57Z</time>
      </trkpt>
      <trkpt lat="43.94481" lon="4.04885">
        <ele>182</ele>
        <time>2011-02-27T14:58:58Z</time>
      </trkpt>
      <trkpt lat="43.94487" lon="4.04885">
        <ele>183</ele>
        <time>2011-02-27T14:58:59Z</time>
      </trkpt>
      <trkpt lat="43.94494" lon="4.04885">
        <ele>183</ele>
        <time>2011-02-27T14:59:00Z</time>
      </trkpt>
      <trkpt lat="43.94501" lon="4.04885">
        <ele>183</ele>
        <time>2011-02-27T14:59:01Z</time>
      </trkpt>
      <trkpt lat="43.94507" lon="4.04885">
        <ele>184</ele>
        <time>2011-02-27T14:59:02Z</time>
      </trkpt>
      <trkpt lat="43.94514" lon="4.04885">
        <ele>184</ele>
        <time>2011-02-27T14:59:03Z</time>
      </trkpt>
      <trkpt lat="43.94521" lon="4.04885">
        <ele>185</ele>
        <time>2011-02-27T14:59:04Z</time>
      </trkpt>
      <trkpt lat="43.94528" lon="4.04885">
        <ele>185</ele>
        <time>2011-02-27T14:59:05Z</time>
      </trkpt>
      <trkpt lat="43.94535" lon="4.04886">
        <ele>186</ele>
        <time>2011-02-27T14:59:06Z</time>
      </trkpt>
      <trkpt lat="43.94542" lon="4.04886">
        <ele>186</ele>
        <time>2011-02-27T14:59:07Z</time>
      </trkpt>
      <trkpt lat="43.94549" lon="4.04887">
        <ele>187</ele>
        <time>2011-02-27T14:59:08Z</time>
      </trkpt>
      <trkpt lat="43.94557" lon="4.04887">
        <ele>187</ele>
        <time>2011-02-27T14:59:09Z</time>
      </trkpt>
      <trkpt lat="43.94564" lon="4.04888">
        <ele>187</ele>
        <time>2011-02-27T14:59:10Z</time>
      </trkpt>
      <trkpt lat="43.94571" lon="4.04888">
        <ele>188</ele>
        <time>2011-02-27T14:59:11Z</time>
      </trkpt>
      <trkpt lat="43.94578" lon="4.04888">
        <ele>188</ele>
        <time>2011-02-27T14:59:12Z</time>
      </trkpt>
      <trkpt lat="43.94585" lon="4.04889">
        <ele>188</ele>
        <time>2011-02-27T14:59:13Z</time>
      </trkpt>
      <trkpt lat="43.94592" lon="4.04889">
        <ele>188</ele>
        <time>2011-02-27T14:59:14Z</time>
      </trkpt>
      <trkpt lat="43.94599" lon="4.0489">
        <ele>189</ele>
        <time>2011-02-27T14:59:15Z</time>
      </trkpt>
      <trkpt lat="43.94606" lon="4.0489">
        <ele>189</ele>
        <time>2011-02-27T14:59:16Z</time>
      </trkpt>
      <trkpt lat="43.94613" lon="4.04891">
        <ele>189</ele>
        <time>2011-02-27T14:59:17Z</time>
      </trkpt>
      <trkpt lat="43.9462" lon="4.04891">
        <ele>189</ele>
        <time>2011-02-27T14:59:18Z</time>
      </trkpt>
      <trkpt lat="43.94627" lon="4.04892">
        <ele>190</ele>
        <time>2011-02-27T14:59:19Z</time>
      </trkpt>
      <trkpt lat="43.94634" lon="4.04893">
        <ele>190</ele>
        <time>2011-02-27T14:59:20Z</time>
      </trkpt>
      <trkpt lat="43.94641" lon="4.04894">
        <ele>191</ele>
        <time>2011-02-27T14:59:21Z</time>
      </trkpt>
      <trkpt lat="43.94648" lon="4.04895">
        <ele>191</ele>
        <time>2011-02-27T14:59:22Z</time>
      </trkpt>
      <trkpt lat="43.94655" lon="4.04896">
        <ele>191</ele>
        <time>2011-02-27T14:59:23Z</time>
      </trkpt>
      <trkpt lat="43.94662" lon="4.04896">
        <ele>191</ele>
        <time>2011-02-27T14:59:24Z</time>
      </trkpt>
      <trkpt lat="43.94669" lon="4.04896">
        <ele>191</ele>
        <time>2011-02-27T14:59:25Z</time>
      </trkpt>
      <trkpt lat="43.94676" lon="4.04897">
        <ele>191</ele>
        <time>2011-02-27T14:59:26Z</time>
      </trkpt>
      <trkpt lat="43.94683" lon="4.04897">
        <ele>191</ele>
        <time>2011-02-27T14:59:27Z</time>
      </trkpt>
      <trkpt lat="43.9469" lon="4.04897">
        <ele>191</ele>
        <time>2011-02-27T14:59:28Z</time>
      </trkpt>
      <trkpt lat="43.94697" lon="4.04897">
        <ele>191</ele>
        <time>2011-02-27T14:59:29Z</time>
      </trkpt>
      <trkpt lat="43.94704" lon="4.04898">
        <ele>191</ele>
        <time>2011-02-27T14:59:30Z</time>
      </trkpt>
      <trkpt lat="43.94711" lon="4.04899">
        <ele>191</ele>
        <time>2011-02-27T14:59:31Z</time>
      </trkpt>
      <trkpt lat="43.94719" lon="4.049">
        <ele>191</ele>
        <time>2011-02-27T14:59:32Z</time>
      </trkpt>
      <trkpt lat="43.94726" lon="4.04901">
        <ele>191</ele>
        <time>2011-02-27T14:59:33Z</time>
      </trkpt>
      <trkpt lat="43.94734" lon="4.04902">
        <ele>191</ele>
        <time>2011-02-27T14:59:34Z</time>
      </trkpt>
      <trkpt lat="43.94742" lon="4.04903">
        <ele>191</ele>
        <time>2011-02-27T14:59:35Z</time>
      </trkpt>
      <trkpt lat="43.9475" lon="4.04905">
        <ele>190</ele>
        <time>2011-02-27T14:59:36Z</time>
      </trkpt>
      <trkpt lat="43.94758" lon="4.04906">
        <ele>190</ele>
        <time>2011-02-27T14:59:37Z</time>
      </trkpt>
      <trkpt lat="43.94766" lon="4.04908">
        <ele>189</ele>
        <time>2011-02-27T14:59:38Z</time>
      </trkpt>
      <trkpt lat="43.94774" lon="4.0491">
        <ele>188</ele>
        <time>2011-02-27T14:59:39Z</time>
      </trkpt>
      <trkpt lat="43.94782" lon="4.04913">
        <ele>187</ele>
        <time>2011-02-27T14:59:40Z</time>
      </trkpt>
      <trkpt lat="43.94791" lon="4.04915">
        <ele>187</ele>
        <time>2011-02-27T14:59:41Z</time>
      </trkpt>
      <trkpt lat="43.94799" lon="4.04917">
        <ele>187</ele>
        <time>2011-02-27T14:59:42Z</time>
      </trkpt>
      <trkpt lat="43.94807" lon="4.0492">
        <ele>186</ele>
        <time>2011-02-27T14:59:43Z</time>
      </trkpt>
      <trkpt lat="43.94814" lon="4.04922">
        <ele>186</ele>
        <time>2011-02-27T14:59:44Z</time>
      </trkpt>
      <trkpt lat="43.94822" lon="4.04925">
        <ele>185</ele>
        <time>2011-02-27T14:59:45Z</time>
      </trkpt>
      <trkpt lat="43.9483" lon="4.04928">
        <ele>185</ele>
        <time>2011-02-27T14:59:46Z</time>
      </trkpt>
      <trkpt lat="43.94838" lon="4.04931">
        <ele>184</ele>
        <time>2011-02-27T14:59:47Z</time>
      </trkpt>
      <trkpt lat="43.94845" lon="4.04934">
        <ele>183</ele>
        <time>2011-02-27T14:59:48Z</time>
      </trkpt>
      <trkpt lat="43.94853" lon="4.04938">
        <ele>182</ele>
        <time>2011-02-27T14:59:49Z</time>
      </trkpt>
      <trkpt lat="43.94861" lon="4.04941">
        <ele>181</ele>
        <time>2011-02-27T14:59:50Z</time>
      </trkpt>
      <trkpt lat="43.94869" lon="4.04944">
        <ele>180</ele>
        <time>2011-02-27T14:59:51Z</time>
      </trkpt>
      <trkpt lat="43.94877" lon="4.04947">
        <ele>179</ele>
        <time>2011-02-27T14:59:52Z</time>
      </trkpt>
      <trkpt lat="43.94885" lon="4.0495">
        <ele>178</ele>
        <time>2011-02-27T14:59:53Z</time>
      </trkpt>
      <trkpt lat="43.94893" lon="4.04953">
        <ele>176</ele>
        <time>2011-02-27T14:59:54Z</time>
      </trkpt>
      <trkpt lat="43.949" lon="4.04955">
        <ele>175</ele>
        <time>2011-02-27T14:59:55Z</time>
      </trkpt>
      <trkpt lat="43.94908" lon="4.04958">
        <ele>174</ele>
        <time>2011-02-27T14:59:56Z</time>
      </trkpt>
      <trkpt lat="43.94915" lon="4.0496">
        <ele>174</ele>
        <time>2011-02-27T14:59:57Z</time>
      </trkpt>
      <trkpt lat="43.94923" lon="4.04961">
        <ele>173</ele>
        <time>2011-02-27T14:59:58Z</time>
      </trkpt>
      <trkpt lat="43.9493" lon="4.04962">
        <ele>173</ele>
        <time>2011-02-27T14:59:59Z</time>
      </trkpt>
      <trkpt lat="43.94938" lon="4.04963">
        <ele>172</ele>
        <time>2011-02-27T15:00:00Z</time>
      </trkpt>
      <trkpt lat="43.94945" lon="4.04963">
        <ele>171</ele>
        <time>2011-02-27T15:00:01Z</time>
      </trkpt>
      <trkpt lat="43.94952" lon="4.04963">
        <ele>171</ele>
        <time>2011-02-27T15:00:02Z</time>
      </trkpt>
      <trkpt lat="43.9496" lon="4.04963">
        <ele>170</ele>
        <time>2011-02-27T15:00:03Z</time>
      </trkpt>
      <trkpt lat="43.94967" lon="4.04963">
        <ele>170</ele>
        <time>2011-02-27T15:00:04Z</time>
      </trkpt>
      <trkpt lat="43.94975" lon="4.04963">
        <ele>169</ele>
        <time>2011-02-27T15:00:05Z</time>
      </trkpt>
      <trkpt lat="43.94982" lon="4.04963">
        <ele>168</ele>
        <time>2011-02-27T15:00:06Z</time>
      </trkpt>
      <trkpt lat="43.94989" lon="4.04963">
        <ele>168</ele>
        <time>2011-02-27T15:00:07Z</time>
      </trkpt>
      <trkpt lat="43.94996" lon="4.04963">
        <ele>167</ele>
        <time>2011-02-27T15:00:08Z</time>
      </trkpt>
      <trkpt lat="43.95003" lon="4.04963">
        <ele>166</ele>
        <time>2011-02-27T15:00:09Z</time>
      </trkpt>
      <trkpt lat="43.9501" lon="4.04963">
        <ele>166</ele>
        <time>2011-02-27T15:00:10Z</time>
      </trkpt>
      <trkpt lat="43.95017" lon="4.04963">
        <ele>165</ele>
        <time>2011-02-27T15:00:11Z</time>
      </trkpt>
      <trkpt lat="43.95024" lon="4.04963">
        <ele>165</ele>
        <time>2011-02-27T15:00:12Z</time>
      </trkpt>
      <trkpt lat="43.95031" lon="4.04963">
        <ele>164</ele>
        <time>2011-02-27T15:00:13Z</time>
      </trkpt>
      <trkpt lat="43.95037" lon="4.04963">
        <ele>164</ele>
        <time>2011-02-27T15:00:14Z</time>
      </trkpt>
      <trkpt lat="43.95044" lon="4.04963">
        <ele>163</ele>
        <time>2011-02-27T15:00:15Z</time>
      </trkpt>
      <trkpt lat="43.95051" lon="4.04962">
        <ele>163</ele>
        <time>2011-02-27T15:00:16Z</time>
      </trkpt>
      <trkpt lat="43.95057" lon="4.04962">
        <ele>163</ele>
        <time>2011-02-27T15:00:17Z</time>
      </trkpt>
      <trkpt lat="43.95064" lon="4.04962">
        <ele>163</ele>
        <time>2011-02-27T15:00:18Z</time>
      </trkpt>
      <trkpt lat="43.9507" lon="4.04962">
        <ele>162</ele>
        <time>2011-02-27T15:00:19Z</time>
      </trkpt>
      <trkpt lat="43.95077" lon="4.04962">
        <ele>162</ele>
        <time>2011-02-27T15:00:20Z</time>
      </trkpt>
      <trkpt lat="43.95083" lon="4.04962">
        <ele>162</ele>
        <time>2011-02-27T15:00:21Z</time>
      </trkpt>
      <trkpt lat="43.95089" lon="4.04961">
        <ele>161</ele>
        <time>2011-02-27T15:00:22Z</time>
      </trkpt>
      <trkpt lat="43.95095" lon="4.04961">
        <ele>161</ele>
        <time>2011-02-27T15:00:23Z</time>
      </trkpt>
      <trkpt lat="43.95101" lon="4.04961">
        <ele>160</ele>
        <time>2011-02-27T15:00:24Z</time>
      </trkpt>
      <trkpt lat="43.95107" lon="4.0496">
        <ele>160</ele>
        <time>2011-02-27T15:00:25Z</time>
      </trkpt>
      <trkpt lat="43.95113" lon="4.0496">
        <ele>159</ele>
        <time>2011-02-27T15:00:26Z</time>
      </trkpt>
      <trkpt lat="43.95119" lon="4.0496">
        <ele>159</ele>
        <time>2011-02-27T15:00:27Z</time>
      </trkpt>
      <trkpt lat="43.95125" lon="4.04959">
        <ele>159</ele>
        <time>2011-02-27T15:00:28Z</time>
      </trkpt>
      <trkpt lat="43.95131" lon="4.04959">
        <ele>159</ele>
        <time>2011-02-27T15:00:29Z</time>
      </trkpt>
      <trkpt lat="43.95137" lon="4.04958">
        <ele>159</ele>
        <time>2011-02-27T15:00:30Z</time>
      </trkpt>
      <trkpt lat="43.95143" lon="4.04958">
        <ele>159</ele>
        <time>2011-02-27T15:00:31Z</time>
      </trkpt>
      <trkpt lat="43.95149" lon="4.04958">
        <ele>159</ele>
        <time>2011-02-27T15:00:32Z</time>
      </trkpt>
      <trkpt lat="43.95155" lon="4.04958">
        <ele>159</ele>
        <time>2011-02-27T15:00:33Z</time>
      </trkpt>
      <trkpt lat="43.95161" lon="4.04957">
        <ele>159</ele>
        <time>2011-02-27T15:00:34Z</time>
      </trkpt>
      <trkpt lat="43.95166" lon="4.04957">
        <ele>159</ele>
        <time>2011-02-27T15:00:35Z</time>
      </trkpt>
      <trkpt lat="43.95172" lon="4.04957">
        <ele>159</ele>
        <time>2011-02-27T15:00:36Z</time>
      </trkpt>
      <trkpt lat="43.95178" lon="4.04957">
        <ele>159</ele>
        <time>2011-02-27T15:00:37Z</time>
      </trkpt>
      <trkpt lat="43.95183" lon="4.04957">
        <ele>159</ele>
        <time>2011-02-27T15:00:38Z</time>
      </trkpt>
      <trkpt lat="43.95189" lon="4.04957">
        <ele>159</ele>
        <time>2011-02-27T15:00:39Z</time>
      </trkpt>
      <trkpt lat="43.95194" lon="4.04957">
        <ele>159</ele>
        <time>2011-02-27T15:00:40Z</time>
      </trkpt>
      <trkpt lat="43.95199" lon="4.04958">
        <ele>159</ele>
        <time>2011-02-27T15:00:41Z</time>
      </trkpt>
      <trkpt lat="43.95204" lon="4.04958">
        <ele>158</ele>
        <time>2011-02-27T15:00:42Z</time>
      </trkpt>
      <trkpt lat="43.95209" lon="4.04958">
        <ele>158</ele>
        <time>2011-02-27T15:00:43Z</time>
      </trkpt>
      <trkpt lat="43.95214" lon="4.04958">
        <ele>158</ele>
        <time>2011-02-27T15:00:44Z</time>
      </trkpt>
      <trkpt lat="43.95219" lon="4.04958">
        <ele>158</ele>
        <time>2011-02-27T15:00:45Z</time>
      </trkpt>
      <trkpt lat="43.95224" lon="4.04958">
        <ele>158</ele>
        <time>2011-02-27T15:00:46Z</time>
      </trkpt>
      <trkpt lat="43.95229" lon="4.04959">
        <ele>159</ele>
        <time>2011-02-27T15:00:47Z</time>
      </trkpt>
      <trkpt lat="43.95234" lon="4.04959">
        <ele>159</ele>
        <time>2011-02-27T15:00:48Z</time>
      </trkpt>
      <trkpt lat="43.9524" lon="4.0496">
        <ele>159</ele>
        <time>2011-02-27T15:00:49Z</time>
      </trkpt>
      <trkpt lat="43.95246" lon="4.04961">
        <ele>159</ele>
        <time>2011-02-27T15:00:50Z</time>
      </trkpt>
      <trkpt lat="43.95252" lon="4.04961">
        <ele>159</ele>
        <time>2011-02-27T15:00:51Z</time>
      </trkpt>
      <trkpt lat="43.95258" lon="4.04962">
        <ele>159</ele>
        <time>2011-02-27T15:00:52Z</time>
      </trkpt>
      <trkpt lat="43.95265" lon="4.04963">
        <ele>159</ele>
        <time>2011-02-27T15:00:53Z</time>
      </trkpt>
      <trkpt lat="43.95272" lon="4.04964">
        <ele>159</ele>
        <time>2011-02-27T15:00:54Z</time>
      </trkpt>
      <trkpt lat="43.95278" lon="4.04964">
        <ele>159</ele>
        <time>2011-02-27T15:00:55Z</time>
      </trkpt>
      <trkpt lat="43.95285" lon="4.04965">
        <ele>159</ele>
        <time>2011-02-27T15:00:56Z</time>
      </trkpt>
      <trkpt lat="43.95292" lon="4.04965">
        <ele>159</ele>
        <time>2011-02-27T15:00:57Z</time>
      </trkpt>
      <trkpt lat="43.95299" lon="4.04966">
        <ele>159</ele>
        <time>2011-02-27T15:00:58Z</time>
      </trkpt>
      <trkpt lat="43.95305" lon="4.04967">
        <ele>159</ele>
        <time>2011-02-27T15:00:59Z</time>
      </trkpt>
      <trkpt lat="43.95312" lon="4.04968">
        <ele>159</ele>
        <time>2011-02-27T15:01:00Z</time>
      </trkpt>
      <trkpt lat="43.95319" lon="4.04969">
        <ele>159</ele>
        <time>2011-02-27T15:01:01Z</time>
      </trkpt>
      <trkpt lat="43.95325" lon="4.0497">
        <ele>159</ele>
        <time>2011-02-27T15:01:02Z</time>
      </trkpt>
      <trkpt lat="43.95332" lon="4.04971">
        <ele>159</ele>
        <time>2011-02-27T15:01:03Z</time>
      </trkpt>
      <trkpt lat="43.95338" lon="4.04972">
        <ele>159</ele>
        <time>2011-02-27T15:01:04Z</time>
      </trkpt>
      <trkpt lat="43.95344" lon="4.04973">
        <ele>159</ele>
        <time>2011-02-27T15:01:05Z</time>
      </trkpt>
      <trkpt lat="43.9535" lon="4.04974">
        <ele>159</ele>
        <time>2011-02-27T15:01:06Z</time>
      </trkpt>
      <trkpt lat="43.95356" lon="4.04974">
        <ele>159</ele>
        <time>2011-02-27T15:01:07Z</time>
      </trkpt>
      <trkpt lat="43.95361" lon="4.04975">
        <ele>159</ele>
        <time>2011-02-27T15:01:08Z</time>
      </trkpt>
      <trkpt lat="43.95367" lon="4.04976">
        <ele>159</ele>
        <time>2011-02-27T15:01:09Z</time>
      </trkpt>
      <trkpt lat="43.95373" lon="4.04976">
        <ele>159</ele>
        <time>2011-02-27T15:01:10Z</time>
      </trkpt>
      <trkpt lat="43.95379" lon="4.04977">
        <ele>159</ele>
        <time>2011-02-27T15:01:11Z</time>
      </trkpt>
      <trkpt lat="43.95384" lon="4.04978">
        <ele>158</ele>
        <time>2011-02-27T15:01:12Z</time>
      </trkpt>
      <trkpt lat="43.9539" lon="4.04978">
        <ele>158</ele>
        <time>2011-02-27T15:01:13Z</time>
      </trkpt>
      <trkpt lat="43.95396" lon="4.04979">
        <ele>158</ele>
        <time>2011-02-27T15:01:14Z</time>
      </trkpt>
      <trkpt lat="43.95401" lon="4.0498">
        <ele>158</ele>
        <time>2011-02-27T15:01:15Z</time>
      </trkpt>
      <trkpt lat="43.95407" lon="4.04981">
        <ele>158</ele>
        <time>2011-02-27T15:01:16Z</time>
      </trkpt>
      <trkpt lat="43.95413" lon="4.04982">
        <ele>159</ele>
        <time>2011-02-27T15:01:17Z</time>
      </trkpt>
      <trkpt lat="43.95418" lon="4.04982">
        <ele>159</ele>
        <time>2011-02-27T15:01:18Z</time>
      </trkpt>
      <trkpt lat="43.95424" lon="4.04983">
        <ele>159</ele>
        <time>2011-02-27T15:01:19Z</time>
      </trkpt>
      <trkpt lat="43.9543" lon="4.04983">
        <ele>159</ele>
        <time>2011-02-27T15:01:20Z</time>
      </trkpt>
      <trkpt lat="43.95435" lon="4.04984">
        <ele>159</ele>
        <time>2011-02-27T15:01:21Z</time>
      </trkpt>
      <trkpt lat="43.95441" lon="4.04985">
        <ele>159</ele>
        <time>2011-02-27T15:01:22Z</time>
      </trkpt>
      <trkpt lat="43.95447" lon="4.04986">
        <ele>159</ele>
        <time>2011-02-27T15:01:23Z</time>
      </trkpt>
      <trkpt lat="43.95453" lon="4.04988">
        <ele>160</ele>
        <time>2011-02-27T15:01:24Z</time>
      </trkpt>
      <trkpt lat="43.95458" lon="4.04988">
        <ele>160</ele>
        <time>2011-02-27T15:01:25Z</time>
      </trkpt>
      <trkpt lat="43.95464" lon="4.04989">
        <ele>160</ele>
        <time>2011-02-27T15:01:26Z</time>
      </trkpt>
      <trkpt lat="43.95469" lon="4.0499">
        <ele>160</ele>
        <time>2011-02-27T15:01:27Z</time>
      </trkpt>
      <trkpt lat="43.95475" lon="4.04991">
        <ele>160</ele>
        <time>2011-02-27T15:01:28Z</time>
      </trkpt>
      <trkpt lat="43.9548" lon="4.04991">
        <ele>160</ele>
        <time>2011-02-27T15:01:29Z</time>
      </trkpt>
      <trkpt lat="43.95485" lon="4.04992">
        <ele>160</ele>
        <time>2011-02-27T15:01:30Z</time>
      </trkpt>
      <trkpt lat="43.9549" lon="4.04993">
        <ele>161</ele>
        <time>2011-02-27T15:01:31Z</time>
      </trkpt>
      <trkpt lat="43.95495" lon="4.04993">
        <ele>161</ele>
        <time>2011-02-27T15:01:32Z</time>
      </trkpt>
      <trkpt lat="43.95501" lon="4.04994">
        <ele>161</ele>
        <time>2011-02-27T15:01:33Z</time>
      </trkpt>
      <trkpt lat="43.95506" lon="4.04995">
        <ele>161</ele>
        <time>2011-02-27T15:01:34Z</time>
      </trkpt>
      <trkpt lat="43.95511" lon="4.04995">
        <ele>161</ele>
        <time>2011-02-27T15:01:35Z</time>
      </trkpt>
      <trkpt lat="43.95516" lon="4.04996">
        <ele>161</ele>
        <time>2011-02-27T15:01:36Z</time>
      </trkpt>
      <trkpt lat="43.95521" lon="4.04997">
        <ele>161</ele>
        <time>2011-02-27T15:01:37Z</time>
      </trkpt>
      <trkpt lat="43.95526" lon="4.04997">
        <ele>161</ele>
        <time>2011-02-27T15:01:38Z</time>
      </trkpt>
      <trkpt lat="43.95531" lon="4.04998">
        <ele>161</ele>
        <time>2011-02-27T15:01:39Z</time>
      </trkpt>
      <trkpt lat="43.9554" lon="4.04999">
        <ele>161</ele>
        <time>2011-02-27T15:01:41Z</time>
      </trkpt>
      <trkpt lat="43.95544" lon="4.04999">
        <ele>161</ele>
        <time>2011-02-27T15:01:42Z</time>
      </trkpt>
      <trkpt lat="43.95548" lon="4.05">
        <ele>161</ele>
        <time>2011-02-27T15:01:43Z</time>
      </trkpt>
      <trkpt lat="43.95556" lon="4.05001">
        <ele>161</ele>
        <time>2011-02-27T15:01:45Z</time>
      </trkpt>
      <trkpt lat="43.95565" lon="4.05002">
        <ele>160</ele>
        <time>2011-02-27T15:01:47Z</time>
      </trkpt>
      <trkpt lat="43.95573" lon="4.05004">
        <ele>160</ele>
        <time>2011-02-27T15:01:49Z</time>
      </trkpt>
      <trkpt lat="43.95578" lon="4.05005">
        <ele>160</ele>
        <time>2011-02-27T15:01:50Z</time>
      </trkpt>
      <trkpt lat="43.95582" lon="4.05005">
        <ele>160</ele>
        <time>2011-02-27T15:01:51Z</time>
      </trkpt>
      <trkpt lat="43.95587" lon="4.05006">
        <ele>159</ele>
        <time>2011-02-27T15:01:52Z</time>
      </trkpt>
      <trkpt lat="43.95592" lon="4.05007">
        <ele>159</ele>
        <time>2011-02-27T15:01:53Z</time>
      </trkpt>
      <trkpt lat="43.95596" lon="4.05008">
        <ele>159</ele>
        <time>2011-02-27T15:01:54Z</time>
      </trkpt>
      <trkpt lat="43.95601" lon="4.05009">
        <ele>159</ele>
        <time>2011-02-27T15:01:55Z</time>
      </trkpt>
      <trkpt lat="43.95606" lon="4.05009">
        <ele>158</ele>
        <time>2011-02-27T15:01:56Z</time>
      </trkpt>
      <trkpt lat="43.95611" lon="4.0501">
        <ele>158</ele>
        <time>2011-02-27T15:01:57Z</time>
      </trkpt>
      <trkpt lat="43.95616" lon="4.05011">
        <ele>158</ele>
        <time>2011-02-27T15:01:58Z</time>
      </trkpt>
      <trkpt lat="43.95621" lon="4.05012">
        <ele>158</ele>
        <time>2011-02-27T15:01:59Z</time>
      </trkpt>
      <trkpt lat="43.95626" lon="4.05013">
        <ele>157</ele>
        <time>2011-02-27T15:02:00Z</time>
      </trkpt>
      <trkpt lat="43.95631" lon="4.05014">
        <ele>157</ele>
        <time>2011-02-27T15:02:01Z</time>
      </trkpt>
      <trkpt lat="43.95636" lon="4.05014">
        <ele>157</ele>
        <time>2011-02-27T15:02:02Z</time>
      </trkpt>
      <trkpt lat="43.9564" lon="4.05015">
        <ele>157</ele>
        <time>2011-02-27T15:02:03Z</time>
      </trkpt>
      <trkpt lat="43.95645" lon="4.05016">
        <ele>157</ele>
        <time>2011-02-27T15:02:04Z</time>
      </trkpt>
      <trkpt lat="43.9565" lon="4.05016">
        <ele>156</ele>
        <time>2011-02-27T15:02:05Z</time>
      </trkpt>
      <trkpt lat="43.95655" lon="4.05017">
        <ele>156</ele>
        <time>2011-02-27T15:02:06Z</time>
      </trkpt>
      <trkpt lat="43.9566" lon="4.05018">
        <ele>156</ele>
        <time>2011-02-27T15:02:07Z</time>
      </trkpt>
      <trkpt lat="43.95665" lon="4.05018">
        <ele>156</ele>
        <time>2011-02-27T15:02:08Z</time>
      </trkpt>
      <trkpt lat="43.9567" lon="4.05019">
        <ele>156</ele>
        <time>2011-02-27T15:02:09Z</time>
      </trkpt>
      <trkpt lat="43.95675" lon="4.05021">
        <ele>156</ele>
        <time>2011-02-27T15:02:10Z</time>
      </trkpt>
      <trkpt lat="43.9568" lon="4.05023">
        <ele>156</ele>
        <time>2011-02-27T15:02:11Z</time>
      </trkpt>
      <trkpt lat="43.95685" lon="4.05025">
        <ele>156</ele>
        <time>2011-02-27T15:02:12Z</time>
      </trkpt>
      <trkpt lat="43.9569" lon="4.05026">
        <ele>156</ele>
        <time>2011-02-27T15:02:13Z</time>
      </trkpt>
      <trkpt lat="43.95694" lon="4.05027">
        <ele>156</ele>
        <time>2011-02-27T15:02:14Z</time>
      </trkpt>
      <trkpt lat="43.95699" lon="4.05028">
        <ele>156</ele>
        <time>2011-02-27T15:02:15Z</time>
      </trkpt>
      <trkpt lat="43.95704" lon="4.05029">
        <ele>156</ele>
        <time>2011-02-27T15:02:16Z</time>
      </trkpt>
      <trkpt lat="43.95708" lon="4.0503">
        <ele>156</ele>
        <time>2011-02-27T15:02:17Z</time>
      </trkpt>
      <trkpt lat="43.95713" lon="4.05031">
        <ele>156</ele>
        <time>2011-02-27T15:02:18Z</time>
      </trkpt>
      <trkpt lat="43.95718" lon="4.05031">
        <ele>157</ele>
        <time>2011-02-27T15:02:19Z</time>
      </trkpt>
      <trkpt lat="43.95722" lon="4.05031">
        <ele>157</ele>
        <time>2011-02-27T15:02:20Z</time>
      </trkpt>
      <trkpt lat="43.95727" lon="4.0503">
        <ele>157</ele>
        <time>2011-02-27T15:02:21Z</time>
      </trkpt>
      <trkpt lat="43.95731" lon="4.05029">
        <ele>157</ele>
        <time>2011-02-27T15:02:22Z</time>
      </trkpt>
      <trkpt lat="43.95736" lon="4.05027">
        <ele>158</ele>
        <time>2011-02-27T15:02:23Z</time>
      </trkpt>
      <trkpt lat="43.9574" lon="4.05026">
        <ele>158</ele>
        <time>2011-02-27T15:02:24Z</time>
      </trkpt>
      <trkpt lat="43.95748" lon="4.05021">
        <ele>159</ele>
        <time>2011-02-27T15:02:26Z</time>
      </trkpt>
      <trkpt lat="43.95755" lon="4.05017">
        <ele>159</ele>
        <time>2011-02-27T15:02:29Z</time>
      </trkpt>
      <trkpt lat="43.95761" lon="4.05013">
        <ele>158</ele>
        <time>2011-02-27T15:02:30Z</time>
      </trkpt>
      <trkpt lat="43.95765" lon="4.0501">
        <ele>158</ele>
        <time>2011-02-27T15:02:32Z</time>
      </trkpt>
      <trkpt lat="43.9577" lon="4.05007">
        <ele>157</ele>
        <time>2011-02-27T15:02:34Z</time>
      </trkpt>
      <trkpt lat="43.95775" lon="4.05004">
        <ele>156</ele>
        <time>2011-02-27T15:02:36Z</time>
      </trkpt>
      <trkpt lat="43.95777" lon="4.05003">
        <ele>156</ele>
        <time>2011-02-27T15:02:37Z</time>
      </trkpt>
      <trkpt lat="43.95783" lon="4.04998">
        <ele>155</ele>
        <time>2011-02-27T15:02:39Z</time>
      </trkpt>
      <trkpt lat="43.95788" lon="4.04992">
        <ele>154</ele>
        <time>2011-02-27T15:02:41Z</time>
      </trkpt>
      <trkpt lat="43.95793" lon="4.04986">
        <ele>154</ele>
        <time>2011-02-27T15:02:43Z</time>
      </trkpt>
      <trkpt lat="43.95798" lon="4.04982">
        <ele>153</ele>
        <time>2011-02-27T15:02:45Z</time>
      </trkpt>
      <trkpt lat="43.95803" lon="4.04978">
        <ele>153</ele>
        <time>2011-02-27T15:02:47Z</time>
      </trkpt>
      <trkpt lat="43.95809" lon="4.04975">
        <ele>153</ele>
        <time>2011-02-27T15:02:49Z</time>
      </trkpt>
      <trkpt lat="43.95815" lon="4.04972">
        <ele>153</ele>
        <time>2011-02-27T15:02:51Z</time>
      </trkpt>
      <trkpt lat="43.95822" lon="4.04969">
        <ele>153</ele>
        <time>2011-02-27T15:02:53Z</time>
      </trkpt>
      <trkpt lat="43.95825" lon="4.04968">
        <ele>154</ele>
        <time>2011-02-27T15:02:54Z</time>
      </trkpt>
      <trkpt lat="43.95833" lon="4.04967">
        <ele>154</ele>
        <time>2011-02-27T15:02:56Z</time>
      </trkpt>
      <trkpt lat="43.95841" lon="4.04967">
        <ele>154</ele>
        <time>2011-02-27T15:02:58Z</time>
      </trkpt>
      <trkpt lat="43.95845" lon="4.04968">
        <ele>155</ele>
        <time>2011-02-27T15:02:59Z</time>
      </trkpt>
      <trkpt lat="43.95854" lon="4.0497">
        <ele>156</ele>
        <time>2011-02-27T15:03:01Z</time>
      </trkpt>
      <trkpt lat="43.95859" lon="4.04972">
        <ele>157</ele>
        <time>2011-02-27T15:03:02Z</time>
      </trkpt>
      <trkpt lat="43.95863" lon="4.04973">
        <ele>157</ele>
        <time>2011-02-27T15:03:03Z</time>
      </trkpt>
      <trkpt lat="43.95868" lon="4.04975">
        <ele>158</ele>
        <time>2011-02-27T15:03:04Z</time>
      </trkpt>
      <trkpt lat="43.95872" lon="4.04977">
        <ele>158</ele>
        <time>2011-02-27T15:03:05Z</time>
      </trkpt>
      <trkpt lat="43.95877" lon="4.0498">
        <ele>159</ele>
        <time>2011-02-27T15:03:06Z</time>
      </trkpt>
      <trkpt lat="43.95881" lon="4.04983">
        <ele>159</ele>
        <time>2011-02-27T15:03:07Z</time>
      </trkpt>
      <trkpt lat="43.95886" lon="4.04986">
        <ele>160</ele>
        <time>2011-02-27T15:03:08Z</time>
      </trkpt>
      <trkpt lat="43.9589" lon="4.04989">
        <ele>160</ele>
        <time>2011-02-27T15:03:09Z</time>
      </trkpt>
      <trkpt lat="43.95895" lon="4.04992">
        <ele>161</ele>
        <time>2011-02-27T15:03:10Z</time>
      </trkpt>
      <trkpt lat="43.95899" lon="4.04995">
        <ele>161</ele>
        <time>2011-02-27T15:03:11Z</time>
      </trkpt>
      <trkpt lat="43.95904" lon="4.04998">
        <ele>161</ele>
        <time>2011-02-27T15:03:12Z</time>
      </trkpt>
      <trkpt lat="43.95909" lon="4.05001">
        <ele>161</ele>
        <time>2011-02-27T15:03:13Z</time>
      </trkpt>
      <trkpt lat="43.95914" lon="4.05004">
        <ele>161</ele>
        <time>2011-02-27T15:03:14Z</time>
      </trkpt>
      <trkpt lat="43.95919" lon="4.05007">
        <ele>160</ele>
        <time>2011-02-27T15:03:15Z</time>
      </trkpt>
      <trkpt lat="43.95924" lon="4.0501">
        <ele>160</ele>
        <time>2011-02-27T15:03:16Z</time>
      </trkpt>
      <trkpt lat="43.95929" lon="4.05012">
        <ele>160</ele>
        <time>2011-02-27T15:03:17Z</time>
      </trkpt>
      <trkpt lat="43.95934" lon="4.05014">
        <ele>160</ele>
        <time>2011-02-27T15:03:18Z</time>
      </trkpt>
      <trkpt lat="43.9594" lon="4.05016">
        <ele>160</ele>
        <time>2011-02-27T15:03:19Z</time>
      </trkpt>
      <trkpt lat="43.95945" lon="4.05018">
        <ele>160</ele>
        <time>2011-02-27T15:03:20Z</time>
      </trkpt>
      <trkpt lat="43.9595" lon="4.0502">
        <ele>160</ele>
        <time>2011-02-27T15:03:21Z</time>
      </trkpt>
      <trkpt lat="43.95955" lon="4.05021">
        <ele>160</ele>
        <time>2011-02-27T15:03:22Z</time>
      </trkpt>
      <trkpt lat="43.9596" lon="4.05023">
        <ele>160</ele>
        <time>2011-02-27T15:03:23Z</time>
      </trkpt>
      <trkpt lat="43.95966" lon="4.05025">
        <ele>160</ele>
        <time>2011-02-27T15:03:24Z</time>
      </trkpt>
      <trkpt lat="43.95971" lon="4.05026">
        <ele>160</ele>
        <time>2011-02-27T15:03:25Z</time>
      </trkpt>
      <trkpt lat="43.95977" lon="4.05028">
        <ele>159</ele>
        <time>2011-02-27T15:03:26Z</time>
      </trkpt>
      <trkpt lat="43.95982" lon="4.05029">
        <ele>159</ele>
        <time>2011-02-27T15:03:27Z</time>
      </trkpt>
      <trkpt lat="43.95988" lon="4.05031">
        <ele>159</ele>
        <time>2011-02-27T15:03:28Z</time>
      </trkpt>
      <trkpt lat="43.95993" lon="4.05033">
        <ele>159</ele>
        <time>2011-02-27T15:03:29Z</time>
      </trkpt>
      <trkpt lat="43.95999" lon="4.05034">
        <ele>159</ele>
        <time>2011-02-27T15:03:30Z</time>
      </trkpt>
      <trkpt lat="43.96004" lon="4.05036">
        <ele>159</ele>
        <time>2011-02-27T15:03:31Z</time>
      </trkpt>
      <trkpt lat="43.96009" lon="4.05037">
        <ele>159</ele>
        <time>2011-02-27T15:03:32Z</time>
      </trkpt>
      <trkpt lat="43.96015" lon="4.05039">
        <ele>159</ele>
        <time>2011-02-27T15:03:33Z</time>
      </trkpt>
      <trkpt lat="43.9602" lon="4.05041">
        <ele>159</ele>
        <time>2011-02-27T15:03:34Z</time>
      </trkpt>
      <trkpt lat="43.96026" lon="4.05043">
        <ele>159</ele>
        <time>2011-02-27T15:03:35Z</time>
      </trkpt>
      <trkpt lat="43.96031" lon="4.05044">
        <ele>159</ele>
        <time>2011-02-27T15:03:36Z</time>
      </trkpt>
      <trkpt lat="43.96037" lon="4.05044">
        <ele>159</ele>
        <time>2011-02-27T15:03:37Z</time>
      </trkpt>
      <trkpt lat="43.96042" lon="4.05043">
        <ele>158</ele>
        <time>2011-02-27T15:03:38Z</time>
      </trkpt>
      <trkpt lat="43.96048" lon="4.05041">
        <ele>158</ele>
        <time>2011-02-27T15:03:39Z</time>
      </trkpt>
      <trkpt lat="43.96053" lon="4.05039">
        <ele>158</ele>
        <time>2011-02-27T15:03:40Z</time>
      </trkpt>
      <trkpt lat="43.96059" lon="4.05036">
        <ele>157</ele>
        <time>2011-02-27T15:03:41Z</time>
      </trkpt>
      <trkpt lat="43.96064" lon="4.05033">
        <ele>157</ele>
        <time>2011-02-27T15:03:42Z</time>
      </trkpt>
      <trkpt lat="43.96069" lon="4.05029">
        <ele>157</ele>
        <time>2011-02-27T15:03:43Z</time>
      </trkpt>
      <trkpt lat="43.96074" lon="4.05025">
        <ele>156</ele>
        <time>2011-02-27T15:03:44Z</time>
      </trkpt>
      <trkpt lat="43.96079" lon="4.0502">
        <ele>155</ele>
        <time>2011-02-27T15:03:45Z</time>
      </trkpt>
      <trkpt lat="43.96085" lon="4.05015">
        <ele>155</ele>
        <time>2011-02-27T15:03:46Z</time>
      </trkpt>
      <trkpt lat="43.9609" lon="4.0501">
        <ele>154</ele>
        <time>2011-02-27T15:03:47Z</time>
      </trkpt>
      <trkpt lat="43.96094" lon="4.05005">
        <ele>154</ele>
        <time>2011-02-27T15:03:48Z</time>
      </trkpt>
      <trkpt lat="43.96099" lon="4.04999">
        <ele>154</ele>
        <time>2011-02-27T15:03:49Z</time>
      </trkpt>
      <trkpt lat="43.96104" lon="4.04994">
        <ele>153</ele>
        <time>2011-02-27T15:03:50Z</time>
      </trkpt>
      <trkpt lat="43.96109" lon="4.04988">
        <ele>152</ele>
        <time>2011-02-27T15:03:51Z</time>
      </trkpt>
      <trkpt lat="43.96114" lon="4.04982">
        <ele>152</ele>
        <time>2011-02-27T15:03:52Z</time>
      </trkpt>
      <trkpt lat="43.9612" lon="4.04976">
        <ele>152</ele>
        <time>2011-02-27T15:03:53Z</time>
      </trkpt>
      <trkpt lat="43.96125" lon="4.0497">
        <ele>151</ele>
        <time>2011-02-27T15:03:54Z</time>
      </trkpt>
      <trkpt lat="43.9613" lon="4.04963">
        <ele>150</ele>
        <time>2011-02-27T15:03:55Z</time>
      </trkpt>
      <trkpt lat="43.96134" lon="4.04958">
        <ele>150</ele>
        <time>2011-02-27T15:03:56Z</time>
      </trkpt>
      <trkpt lat="43.96139" lon="4.04952">
        <ele>149</ele>
        <time>2011-02-27T15:03:57Z</time>
      </trkpt>
      <trkpt lat="43.96144" lon="4.04946">
        <ele>149</ele>
        <time>2011-02-27T15:03:58Z</time>
      </trkpt>
      <trkpt lat="43.96149" lon="4.04941">
        <ele>148</ele>
        <time>2011-02-27T15:03:59Z</time>
      </trkpt>
      <trkpt lat="43.96153" lon="4.04936">
        <ele>148</ele>
        <time>2011-02-27T15:04:00Z</time>
      </trkpt>
      <trkpt lat="43.96158" lon="4.04931">
        <ele>148</ele>
        <time>2011-02-27T15:04:01Z</time>
      </trkpt>
      <trkpt lat="43.96163" lon="4.04927">
        <ele>148</ele>
        <time>2011-02-27T15:04:02Z</time>
      </trkpt>
      <trkpt lat="43.96168" lon="4.04923">
        <ele>148</ele>
        <time>2011-02-27T15:04:03Z</time>
      </trkpt>
      <trkpt lat="43.96173" lon="4.04921">
        <ele>147</ele>
        <time>2011-02-27T15:04:04Z</time>
      </trkpt>
      <trkpt lat="43.96177" lon="4.0492">
        <ele>147</ele>
        <time>2011-02-27T15:04:05Z</time>
      </trkpt>
      <trkpt lat="43.96182" lon="4.04918">
        <ele>147</ele>
        <time>2011-02-27T15:04:06Z</time>
      </trkpt>
      <trkpt lat="43.96187" lon="4.04917">
        <ele>147</ele>
        <time>2011-02-27T15:04:07Z</time>
      </trkpt>
      <trkpt lat="43.96191" lon="4.04916">
        <ele>146</ele>
        <time>2011-02-27T15:04:08Z</time>
      </trkpt>
      <trkpt lat="43.962" lon="4.04915">
        <ele>146</ele>
        <time>2011-02-27T15:04:10Z</time>
      </trkpt>
      <trkpt lat="43.96208" lon="4.04913">
        <ele>146</ele>
        <time>2011-02-27T15:04:12Z</time>
      </trkpt>
      <trkpt lat="43.96217" lon="4.0491">
        <ele>146</ele>
        <time>2011-02-27T15:04:14Z</time>
      </trkpt>
      <trkpt lat="43.96224" lon="4.04906">
        <ele>146</ele>
        <time>2011-02-27T15:04:16Z</time>
      </trkpt>
      <trkpt lat="43.96231" lon="4.04902">
        <ele>146</ele>
        <time>2011-02-27T15:04:18Z</time>
      </trkpt>
      <trkpt lat="43.96238" lon="4.04897">
        <ele>147</ele>
        <time>2011-02-27T15:04:20Z</time>
      </trkpt>
      <trkpt lat="43.96245" lon="4.04894">
        <ele>147</ele>
        <time>2011-02-27T15:04:22Z</time>
      </trkpt>
      <trkpt lat="43.96252" lon="4.04892">
        <ele>147</ele>
        <time>2011-02-27T15:04:24Z</time>
      </trkpt>
      <trkpt lat="43.9626" lon="4.04892">
        <ele>147</ele>
        <time>2011-02-27T15:04:26Z</time>
      </trkpt>
      <trkpt lat="43.96267" lon="4.04892">
        <ele>147</ele>
        <time>2011-02-27T15:04:28Z</time>
      </trkpt>
      <trkpt lat="43.96275" lon="4.04894">
        <ele>147</ele>
        <time>2011-02-27T15:04:30Z</time>
      </trkpt>
      <trkpt lat="43.96284" lon="4.04897">
        <ele>147</ele>
        <time>2011-02-27T15:04:32Z</time>
      </trkpt>
      <trkpt lat="43.96293" lon="4.04898">
        <ele>147</ele>
        <time>2011-02-27T15:04:34Z</time>
      </trkpt>
      <trkpt lat="43.96302" lon="4.04898">
        <ele>148</ele>
        <time>2011-02-27T15:04:36Z</time>
      </trkpt>
      <trkpt lat="43.9631" lon="4.04899">
        <ele>149</ele>
        <time>2011-02-27T15:04:38Z</time>
      </trkpt>
      <trkpt lat="43.96319" lon="4.049">
        <ele>151</ele>
        <time>2011-02-27T15:04:40Z</time>
      </trkpt>
      <trkpt lat="43.96328" lon="4.04902">
        <ele>152</ele>
        <time>2011-02-27T15:04:42Z</time>
      </trkpt>
      <trkpt lat="43.96336" lon="4.04904">
        <ele>154</ele>
        <time>2011-02-27T15:04:44Z</time>
      </trkpt>
      <trkpt lat="43.96345" lon="4.04906">
        <ele>156</ele>
        <time>2011-02-27T15:04:46Z</time>
      </trkpt>
      <trkpt lat="43.96351" lon="4.04909">
        <ele>157</ele>
        <time>2011-02-27T15:04:47Z</time>
      </trkpt>
      <trkpt lat="43.96357" lon="4.04912">
        <ele>158</ele>
        <time>2011-02-27T15:04:48Z</time>
      </trkpt>
      <trkpt lat="43.96364" lon="4.04915">
        <ele>158</ele>
        <time>2011-02-27T15:04:49Z</time>
      </trkpt>
      <trkpt lat="43.9637" lon="4.04919">
        <ele>159</ele>
        <time>2011-02-27T15:04:50Z</time>
      </trkpt>
      <trkpt lat="43.96376" lon="4.04922">
        <ele>160</ele>
        <time>2011-02-27T15:04:51Z</time>
      </trkpt>
      <trkpt lat="43.96383" lon="4.04925">
        <ele>160</ele>
        <time>2011-02-27T15:04:52Z</time>
      </trkpt>
      <trkpt lat="43.9639" lon="4.04927">
        <ele>160</ele>
        <time>2011-02-27T15:04:53Z</time>
      </trkpt>
      <trkpt lat="43.96397" lon="4.04928">
        <ele>161</ele>
        <time>2011-02-27T15:04:54Z</time>
      </trkpt>
      <trkpt lat="43.96403" lon="4.04928">
        <ele>161</ele>
        <time>2011-02-27T15:04:55Z</time>
      </trkpt>
      <trkpt lat="43.96409" lon="4.04929">
        <ele>161</ele>
        <time>2011-02-27T15:04:56Z</time>
      </trkpt>
      <trkpt lat="43.96415" lon="4.04929">
        <ele>161</ele>
        <time>2011-02-27T15:04:57Z</time>
      </trkpt>
      <trkpt lat="43.9642" lon="4.04929">
        <ele>161</ele>
        <time>2011-02-27T15:04:58Z</time>
      </trkpt>
      <trkpt lat="43.96426" lon="4.04929">
        <ele>161</ele>
        <time>2011-02-27T15:04:59Z</time>
      </trkpt>
      <trkpt lat="43.96431" lon="4.04929">
        <ele>161</ele>
        <time>2011-02-27T15:05:00Z</time>
      </trkpt>
      <trkpt lat="43.96436" lon="4.04928">
        <ele>161</ele>
        <time>2011-02-27T15:05:01Z</time>
      </trkpt>
      <trkpt lat="43.96442" lon="4.04928">
        <ele>162</ele>
        <time>2011-02-27T15:05:02Z</time>
      </trkpt>
      <trkpt lat="43.96447" lon="4.04928">
        <ele>163</ele>
        <time>2011-02-27T15:05:03Z</time>
      </trkpt>
      <trkpt lat="43.96452" lon="4.04927">
        <ele>163</ele>
        <time>2011-02-27T15:05:04Z</time>
      </trkpt>
      <trkpt lat="43.96457" lon="4.04926">
        <ele>164</ele>
        <time>2011-02-27T15:05:05Z</time>
      </trkpt>
      <trkpt lat="43.96463" lon="4.04927">
        <ele>165</ele>
        <time>2011-02-27T15:05:06Z</time>
      </trkpt>
      <trkpt lat="43.96468" lon="4.04928">
        <ele>165</ele>
        <time>2011-02-27T15:05:07Z</time>
      </trkpt>
      <trkpt lat="43.96474" lon="4.0493">
        <ele>166</ele>
        <time>2011-02-27T15:05:08Z</time>
      </trkpt>
      <trkpt lat="43.96479" lon="4.04932">
        <ele>167</ele>
        <time>2011-02-27T15:05:09Z</time>
      </trkpt>
      <trkpt lat="43.96485" lon="4.04934">
        <ele>167</ele>
        <time>2011-02-27T15:05:10Z</time>
      </trkpt>
      <trkpt lat="43.9649" lon="4.04936">
        <ele>167</ele>
        <time>2011-02-27T15:05:11Z</time>
      </trkpt>
      <trkpt lat="43.96495" lon="4.04938">
        <ele>168</ele>
        <time>2011-02-27T15:05:12Z</time>
      </trkpt>
      <trkpt lat="43.965" lon="4.0494">
        <ele>168</ele>
        <time>2011-02-27T15:05:13Z</time>
      </trkpt>
      <trkpt lat="43.96505" lon="4.04943">
        <ele>168</ele>
        <time>2011-02-27T15:05:14Z</time>
      </trkpt>
      <trkpt lat="43.9651" lon="4.04946">
        <ele>168</ele>
        <time>2011-02-27T15:05:15Z</time>
      </trkpt>
      <trkpt lat="43.96515" lon="4.04949">
        <ele>168</ele>
        <time>2011-02-27T15:05:16Z</time>
      </trkpt>
      <trkpt lat="43.9652" lon="4.04952">
        <ele>167</ele>
        <time>2011-02-27T15:05:17Z</time>
      </trkpt>
      <trkpt lat="43.96524" lon="4.04955">
        <ele>167</ele>
        <time>2011-02-27T15:05:18Z</time>
      </trkpt>
      <trkpt lat="43.96529" lon="4.04957">
        <ele>167</ele>
        <time>2011-02-27T15:05:19Z</time>
      </trkpt>
      <trkpt lat="43.96533" lon="4.0496">
        <ele>167</ele>
        <time>2011-02-27T15:05:20Z</time>
      </trkpt>
      <trkpt lat="43.96538" lon="4.04963">
        <ele>166</ele>
        <time>2011-02-27T15:05:21Z</time>
      </trkpt>
      <trkpt lat="43.96542" lon="4.04965">
        <ele>166</ele>
        <time>2011-02-27T15:05:22Z</time>
      </trkpt>
      <trkpt lat="43.96546" lon="4.04968">
        <ele>166</ele>
        <time>2011-02-27T15:05:23Z</time>
      </trkpt>
      <trkpt lat="43.96554" lon="4.04972">
        <ele>166</ele>
        <time>2011-02-27T15:05:25Z</time>
      </trkpt>
      <trkpt lat="43.96562" lon="4.04977">
        <ele>166</ele>
        <time>2011-02-27T15:05:27Z</time>
      </trkpt>
      <trkpt lat="43.9657" lon="4.04983">
        <ele>165</ele>
        <time>2011-02-27T15:05:29Z</time>
      </trkpt>
      <trkpt lat="43.96574" lon="4.04986">
        <ele>165</ele>
        <time>2011-02-27T15:05:30Z</time>
      </trkpt>
      <trkpt lat="43.96582" lon="4.04991">
        <ele>164</ele>
        <time>2011-02-27T15:05:32Z</time>
      </trkpt>
      <trkpt lat="43.9659" lon="4.04996">
        <ele>164</ele>
        <time>2011-02-27T15:05:34Z</time>
      </trkpt>
      <trkpt lat="43.96595" lon="4.04999">
        <ele>164</ele>
        <time>2011-02-27T15:05:35Z</time>
      </trkpt>
      <trkpt lat="43.96599" lon="4.05001">
        <ele>164</ele>
        <time>2011-02-27T15:05:36Z</time>
      </trkpt>
      <trkpt lat="43.96603" lon="4.05003">
        <ele>163</ele>
        <time>2011-02-27T15:05:37Z</time>
      </trkpt>
      <trkpt lat="43.96608" lon="4.05005">
        <ele>163</ele>
        <time>2011-02-27T15:05:38Z</time>
      </trkpt>
      <trkpt lat="43.96612" lon="4.05007">
        <ele>163</ele>
        <time>2011-02-27T15:05:39Z</time>
      </trkpt>
      <trkpt lat="43.96616" lon="4.05008">
        <ele>163</ele>
        <time>2011-02-27T15:05:40Z</time>
      </trkpt>
      <trkpt lat="43.96621" lon="4.0501">
        <ele>162</ele>
        <time>2011-02-27T15:05:41Z</time>
      </trkpt>
      <trkpt lat="43.96629" lon="4.05014">
        <ele>161</ele>
        <time>2011-02-27T15:05:43Z</time>
      </trkpt>
      <trkpt lat="43.96637" lon="4.05017">
        <ele>161</ele>
        <time>2011-02-27T15:05:45Z</time>
      </trkpt>
      <trkpt lat="43.96645" lon="4.0502">
        <ele>160</ele>
        <time>2011-02-27T15:05:47Z</time>
      </trkpt>
      <trkpt lat="43.96652" lon="4.05023">
        <ele>159</ele>
        <time>2011-02-27T15:05:49Z</time>
      </trkpt>
      <trkpt lat="43.96659" lon="4.05025">
        <ele>159</ele>
        <time>2011-02-27T15:05:51Z</time>
      </trkpt>
      <trkpt lat="43.96667" lon="4.05027">
        <ele>158</ele>
        <time>2011-02-27T15:05:53Z</time>
      </trkpt>
      <trkpt lat="43.9667" lon="4.05028">
        <ele>158</ele>
        <time>2011-02-27T15:05:54Z</time>
      </trkpt>
      <trkpt lat="43.96678" lon="4.0503">
        <ele>156</ele>
        <time>2011-02-27T15:05:56Z</time>
      </trkpt>
      <trkpt lat="43.96687" lon="4.0503">
        <ele>155</ele>
        <time>2011-02-27T15:05:58Z</time>
      </trkpt>
      <trkpt lat="43.96691" lon="4.05031">
        <ele>155</ele>
        <time>2011-02-27T15:05:59Z</time>
      </trkpt>
      <trkpt lat="43.96696" lon="4.05031">
        <ele>155</ele>
        <time>2011-02-27T15:06:00Z</time>
      </trkpt>
      <trkpt lat="43.967" lon="4.05031">
        <ele>154</ele>
        <time>2011-02-27T15:06:01Z</time>
      </trkpt>
      <trkpt lat="43.96705" lon="4.05031">
        <ele>154</ele>
        <time>2011-02-27T15:06:02Z</time>
      </trkpt>
      <trkpt lat="43.9671" lon="4.05031">
        <ele>154</ele>
        <time>2011-02-27T15:06:03Z</time>
      </trkpt>
      <trkpt lat="43.96715" lon="4.05031">
        <ele>153</ele>
        <time>2011-02-27T15:06:04Z</time>
      </trkpt>
      <trkpt lat="43.96719" lon="4.0503">
        <ele>153</ele>
        <time>2011-02-27T15:06:05Z</time>
      </trkpt>
      <trkpt lat="43.96724" lon="4.0503">
        <ele>153</ele>
        <time>2011-02-27T15:06:06Z</time>
      </trkpt>
      <trkpt lat="43.96729" lon="4.05029">
        <ele>152</ele>
        <time>2011-02-27T15:06:07Z</time>
      </trkpt>
      <trkpt lat="43.96734" lon="4.05027">
        <ele>152</ele>
        <time>2011-02-27T15:06:08Z</time>
      </trkpt>
      <trkpt lat="43.96739" lon="4.05026">
        <ele>152</ele>
        <time>2011-02-27T15:06:09Z</time>
      </trkpt>
      <trkpt lat="43.96744" lon="4.05024">
        <ele>151</ele>
        <time>2011-02-27T15:06:10Z</time>
      </trkpt>
      <trkpt lat="43.96749" lon="4.05022">
        <ele>151</ele>
        <time>2011-02-27T15:06:11Z</time>
      </trkpt>
      <trkpt lat="43.96753" lon="4.0502">
        <ele>150</ele>
        <time>2011-02-27T15:06:12Z</time>
      </trkpt>
      <trkpt lat="43.96758" lon="4.05017">
        <ele>150</ele>
        <time>2011-02-27T15:06:13Z</time>
      </trkpt>
      <trkpt lat="43.96763" lon="4.05015">
        <ele>149</ele>
        <time>2011-02-27T15:06:14Z</time>
      </trkpt>
      <trkpt lat="43.96768" lon="4.05013">
        <ele>149</ele>
        <time>2011-02-27T15:06:15Z</time>
      </trkpt>
      <trkpt lat="43.96772" lon="4.0501">
        <ele>149</ele>
        <time>2011-02-27T15:06:16Z</time>
      </trkpt>
      <trkpt lat="43.96777" lon="4.05008">
        <ele>149</ele>
        <time>2011-02-27T15:06:17Z</time>
      </trkpt>
      <trkpt lat="43.96781" lon="4.05006">
        <ele>148</ele>
        <time>2011-02-27T15:06:18Z</time>
      </trkpt>
      <trkpt lat="43.96786" lon="4.05003">
        <ele>148</ele>
        <time>2011-02-27T15:06:19Z</time>
      </trkpt>
      <trkpt lat="43.9679" lon="4.05001">
        <ele>147</ele>
        <time>2011-02-27T15:06:20Z</time>
      </trkpt>
      <trkpt lat="43.96795" lon="4.04999">
        <ele>147</ele>
        <time>2011-02-27T15:06:21Z</time>
      </trkpt>
      <trkpt lat="43.96799" lon="4.04996">
        <ele>147</ele>
        <time>2011-02-27T15:06:22Z</time>
      </trkpt>
      <trkpt lat="43.96804" lon="4.04994">
        <ele>147</ele>
        <time>2011-02-27T15:06:23Z</time>
      </trkpt>
      <trkpt lat="43.96809" lon="4.04991">
        <ele>146</ele>
        <time>2011-02-27T15:06:24Z</time>
      </trkpt>
      <trkpt lat="43.96814" lon="4.04989">
        <ele>146</ele>
        <time>2011-02-27T15:06:25Z</time>
      </trkpt>
      <trkpt lat="43.96819" lon="4.04986">
        <ele>146</ele>
        <time>2011-02-27T15:06:26Z</time>
      </trkpt>
      <trkpt lat="43.96824" lon="4.04983">
        <ele>145</ele>
        <time>2011-02-27T15:06:27Z</time>
      </trkpt>
      <trkpt lat="43.96829" lon="4.04981">
        <ele>145</ele>
        <time>2011-02-27T15:06:28Z</time>
      </trkpt>
      <trkpt lat="43.96834" lon="4.04978">
        <ele>145</ele>
        <time>2011-02-27T15:06:29Z</time>
      </trkpt>
      <trkpt lat="43.96838" lon="4.04975">
        <ele>145</ele>
        <time>2011-02-27T15:06:30Z</time>
      </trkpt>
      <trkpt lat="43.96843" lon="4.04972">
        <ele>145</ele>
        <time>2011-02-27T15:06:31Z</time>
      </trkpt>
      <trkpt lat="43.96848" lon="4.0497">
        <ele>145</ele>
        <time>2011-02-27T15:06:32Z</time>
      </trkpt>
      <trkpt lat="43.96853" lon="4.04967">
        <ele>144</ele>
        <time>2011-02-27T15:06:33Z</time>
      </trkpt>
      <trkpt lat="43.96858" lon="4.04964">
        <ele>144</ele>
        <time>2011-02-27T15:06:34Z</time>
      </trkpt>
      <trkpt lat="43.96863" lon="4.04962">
        <ele>144</ele>
        <time>2011-02-27T15:06:35Z</time>
      </trkpt>
      <trkpt lat="43.96868" lon="4.0496">
        <ele>143</ele>
        <time>2011-02-27T15:06:36Z</time>
      </trkpt>
      <trkpt lat="43.96873" lon="4.04958">
        <ele>143</ele>
        <time>2011-02-27T15:06:37Z</time>
      </trkpt>
      <trkpt lat="43.96879" lon="4.04956">
        <ele>143</ele>
        <time>2011-02-27T15:06:38Z</time>
      </trkpt>
      <trkpt lat="43.96884" lon="4.04955">
        <ele>143</ele>
        <time>2011-02-27T15:06:39Z</time>
      </trkpt>
      <trkpt lat="43.96889" lon="4.04954">
        <ele>143</ele>
        <time>2011-02-27T15:06:40Z</time>
      </trkpt>
      <trkpt lat="43.96894" lon="4.04955">
        <ele>143</ele>
        <time>2011-02-27T15:06:41Z</time>
      </trkpt>
      <trkpt lat="43.96899" lon="4.04957">
        <ele>143</ele>
        <time>2011-02-27T15:06:42Z</time>
      </trkpt>
      <trkpt lat="43.96904" lon="4.0496">
        <ele>143</ele>
        <time>2011-02-27T15:06:43Z</time>
      </trkpt>
      <trkpt lat="43.96909" lon="4.04964">
        <ele>142</ele>
        <time>2011-02-27T15:06:44Z</time>
      </trkpt>
      <trkpt lat="43.96913" lon="4.04969">
        <ele>142</ele>
        <time>2011-02-27T15:06:45Z</time>
      </trkpt>
      <trkpt lat="43.96917" lon="4.04974">
        <ele>142</ele>
        <time>2011-02-27T15:06:46Z</time>
      </trkpt>
      <trkpt lat="43.96921" lon="4.0498">
        <ele>142</ele>
        <time>2011-02-27T15:06:47Z</time>
      </trkpt>
      <trkpt lat="43.96924" lon="4.04985">
        <ele>142</ele>
        <time>2011-02-27T15:06:48Z</time>
      </trkpt>
      <trkpt lat="43.96928" lon="4.04991">
        <ele>142</ele>
        <time>2011-02-27T15:06:49Z</time>
      </trkpt>
      <trkpt lat="43.96931" lon="4.04997">
        <ele>141</ele>
        <time>2011-02-27T15:06:50Z</time>
      </trkpt>
      <trkpt lat="43.96935" lon="4.05002">
        <ele>141</ele>
        <time>2011-02-27T15:06:51Z</time>
      </trkpt>
      <trkpt lat="43.96938" lon="4.05008">
        <ele>141</ele>
        <time>2011-02-27T15:06:52Z</time>
      </trkpt>
      <trkpt lat="43.96941" lon="4.05013">
        <ele>141</ele>
        <time>2011-02-27T15:06:53Z</time>
      </trkpt>
      <trkpt lat="43.96944" lon="4.05019">
        <ele>142</ele>
        <time>2011-02-27T15:06:54Z</time>
      </trkpt>
      <trkpt lat="43.96947" lon="4.05024">
        <ele>142</ele>
        <time>2011-02-27T15:06:55Z</time>
      </trkpt>
      <trkpt lat="43.9695" lon="4.0503">
        <ele>142</ele>
        <time>2011-02-27T15:06:56Z</time>
      </trkpt>
      <trkpt lat="43.96954" lon="4.05035">
        <ele>143</ele>
        <time>2011-02-27T15:06:57Z</time>
      </trkpt>
      <trkpt lat="43.96957" lon="4.0504">
        <ele>143</ele>
        <time>2011-02-27T15:06:58Z</time>
      </trkpt>
      <trkpt lat="43.9696" lon="4.05045">
        <ele>143</ele>
        <time>2011-02-27T15:06:59Z</time>
      </trkpt>
      <trkpt lat="43.96963" lon="4.0505">
        <ele>144</ele>
        <time>2011-02-27T15:07:00Z</time>
      </trkpt>
      <trkpt lat="43.96966" lon="4.05054">
        <ele>144</ele>
        <time>2011-02-27T15:07:01Z</time>
      </trkpt>
      <trkpt lat="43.96972" lon="4.05063">
        <ele>145</ele>
        <time>2011-02-27T15:07:03Z</time>
      </trkpt>
      <trkpt lat="43.96978" lon="4.05072">
        <ele>146</ele>
        <time>2011-02-27T15:07:05Z</time>
      </trkpt>
      <trkpt lat="43.96982" lon="4.05076">
        <ele>146</ele>
        <time>2011-02-27T15:07:06Z</time>
      </trkpt>
      <trkpt lat="43.96985" lon="4.0508">
        <ele>147</ele>
        <time>2011-02-27T15:07:07Z</time>
      </trkpt>
      <trkpt lat="43.96989" lon="4.05083">
        <ele>147</ele>
        <time>2011-02-27T15:07:08Z</time>
      </trkpt>
      <trkpt lat="43.96997" lon="4.05088">
        <ele>148</ele>
        <time>2011-02-27T15:07:10Z</time>
      </trkpt>
      <trkpt lat="43.97004" lon="4.05089">
        <ele>148</ele>
        <time>2011-02-27T15:07:12Z</time>
      </trkpt>
      <trkpt lat="43.97011" lon="4.05088">
        <ele>148</ele>
        <time>2011-02-27T15:07:14Z</time>
      </trkpt>
      <trkpt lat="43.97018" lon="4.05088">
        <ele>149</ele>
        <time>2011-02-27T15:07:16Z</time>
      </trkpt>
      <trkpt lat="43.97026" lon="4.05088">
        <ele>150</ele>
        <time>2011-02-27T15:07:18Z</time>
      </trkpt>
      <trkpt lat="43.97034" lon="4.05088">
        <ele>150</ele>
        <time>2011-02-27T15:07:20Z</time>
      </trkpt>
      <trkpt lat="43.97038" lon="4.05088">
        <ele>150</ele>
        <time>2011-02-27T15:07:21Z</time>
      </trkpt>
      <trkpt lat="43.97043" lon="4.05088">
        <ele>150</ele>
        <time>2011-02-27T15:07:22Z</time>
      </trkpt>
      <trkpt lat="43.97047" lon="4.05089">
        <ele>150</ele>
        <time>2011-02-27T15:07:23Z</time>
      </trkpt>
      <trkpt lat="43.97052" lon="4.0509">
        <ele>150</ele>
        <time>2011-02-27T15:07:24Z</time>
      </trkpt>
      <trkpt lat="43.97056" lon="4.0509">
        <ele>150</ele>
        <time>2011-02-27T15:07:25Z</time>
      </trkpt>
      <trkpt lat="43.97061" lon="4.05091">
        <ele>150</ele>
        <time>2011-02-27T15:07:26Z</time>
      </trkpt>
      <trkpt lat="43.97069" lon="4.05093">
        <ele>151</ele>
        <time>2011-02-27T15:07:28Z</time>
      </trkpt>
      <trkpt lat="43.97078" lon="4.05095">
        <ele>151</ele>
        <time>2011-02-27T15:07:30Z</time>
      </trkpt>
      <trkpt lat="43.97082" lon="4.05096">
        <ele>152</ele>
        <time>2011-02-27T15:07:31Z</time>
      </trkpt>
      <trkpt lat="43.97091" lon="4.05098">
        <ele>152</ele>
        <time>2011-02-27T15:07:33Z</time>
      </trkpt>
      <trkpt lat="43.97099" lon="4.051">
        <ele>152</ele>
        <time>2011-02-27T15:07:35Z</time>
      </trkpt>
      <trkpt lat="43.97107" lon="4.05102">
        <ele>152</ele>
        <time>2011-02-27T15:07:37Z</time>
      </trkpt>
      <trkpt lat="43.9711" lon="4.05103">
        <ele>152</ele>
        <time>2011-02-27T15:07:38Z</time>
      </trkpt>
      <trkpt lat="43.97116" lon="4.05105">
        <ele>152</ele>
        <time>2011-02-27T15:07:40Z</time>
      </trkpt>
      <trkpt lat="43.97123" lon="4.05107">
        <ele>152</ele>
        <time>2011-02-27T15:07:42Z</time>
      </trkpt>
      <trkpt lat="43.9713" lon="4.05109">
        <ele>151</ele>
        <time>2011-02-27T15:07:44Z</time>
      </trkpt>
      <trkpt lat="43.97137" lon="4.05111">
        <ele>151</ele>
        <time>2011-02-27T15:07:46Z</time>
      </trkpt>
      <trkpt lat="43.97145" lon="4.05114">
        <ele>150</ele>
        <time>2011-02-27T15:07:48Z</time>
      </trkpt>
      <trkpt lat="43.97149" lon="4.05115">
        <ele>150</ele>
        <time>2011-02-27T15:07:49Z</time>
      </trkpt>
      <trkpt lat="43.97156" lon="4.05118">
        <ele>150</ele>
        <time>2011-02-27T15:07:51Z</time>
      </trkpt>
      <trkpt lat="43.97164" lon="4.0512">
        <ele>149</ele>
        <time>2011-02-27T15:07:53Z</time>
      </trkpt>
      <trkpt lat="43.97171" lon="4.05122">
        <ele>149</ele>
        <time>2011-02-27T15:07:55Z</time>
      </trkpt>
      <trkpt lat="43.97179" lon="4.05124">
        <ele>148</ele>
        <time>2011-02-27T15:07:57Z</time>
      </trkpt>
      <trkpt lat="43.97187" lon="4.05127">
        <ele>148</ele>
        <time>2011-02-27T15:07:59Z</time>
      </trkpt>
      <trkpt lat="43.97195" lon="4.05128">
        <ele>148</ele>
        <time>2011-02-27T15:08:01Z</time>
      </trkpt>
      <trkpt lat="43.97202" lon="4.0513">
        <ele>148</ele>
        <time>2011-02-27T15:08:03Z</time>
      </trkpt>
      <trkpt lat="43.97205" lon="4.05131">
        <ele>148</ele>
        <time>2011-02-27T15:08:04Z</time>
      </trkpt>
      <trkpt lat="43.97212" lon="4.05132">
        <ele>148</ele>
        <time>2011-02-27T15:08:06Z</time>
      </trkpt>
      <trkpt lat="43.97218" lon="4.05133">
        <ele>148</ele>
        <time>2011-02-27T15:08:08Z</time>
      </trkpt>
      <trkpt lat="43.97224" lon="4.05134">
        <ele>147</ele>
        <time>2011-02-27T15:08:10Z</time>
      </trkpt>
      <trkpt lat="43.97228" lon="4.05135">
        <ele>147</ele>
        <time>2011-02-27T15:08:11Z</time>
      </trkpt>
      <trkpt lat="43.97234" lon="4.05135">
        <ele>147</ele>
        <time>2011-02-27T15:08:13Z</time>
      </trkpt>
      <trkpt lat="43.97241" lon="4.05136">
        <ele>147</ele>
        <time>2011-02-27T15:08:15Z</time>
      </trkpt>
      <trkpt lat="43.97247" lon="4.05137">
        <ele>147</ele>
        <time>2011-02-27T15:08:17Z</time>
      </trkpt>
      <trkpt lat="43.9725" lon="4.05138">
        <ele>147</ele>
        <time>2011-02-27T15:08:18Z</time>
      </trkpt>
      <trkpt lat="43.97257" lon="4.05139">
        <ele>147</ele>
        <time>2011-02-27T15:08:20Z</time>
      </trkpt>
      <trkpt lat="43.97263" lon="4.05141">
        <ele>147</ele>
        <time>2011-02-27T15:08:22Z</time>
      </trkpt>
      <trkpt lat="43.9727" lon="4.05142">
        <ele>147</ele>
        <time>2011-02-27T15:08:24Z</time>
      </trkpt>
      <trkpt lat="43.97277" lon="4.05144">
        <ele>147</ele>
        <time>2011-02-27T15:08:26Z</time>
      </trkpt>
      <trkpt lat="43.9728" lon="4.05145">
        <ele>146</ele>
        <time>2011-02-27T15:08:27Z</time>
      </trkpt>
      <trkpt lat="43.97286" lon="4.05146">
        <ele>147</ele>
        <time>2011-02-27T15:08:29Z</time>
      </trkpt>
      <trkpt lat="43.97293" lon="4.05148">
        <ele>147</ele>
        <time>2011-02-27T15:08:31Z</time>
      </trkpt>
      <trkpt lat="43.97299" lon="4.0515">
        <ele>147</ele>
        <time>2011-02-27T15:08:33Z</time>
      </trkpt>
      <trkpt lat="43.97306" lon="4.05152">
        <ele>147</ele>
        <time>2011-02-27T15:08:35Z</time>
      </trkpt>
      <trkpt lat="43.97313" lon="4.05154">
        <ele>147</ele>
        <time>2011-02-27T15:08:37Z</time>
      </trkpt>
      <trkpt lat="43.9732" lon="4.05157">
        <ele>147</ele>
        <time>2011-02-27T15:08:39Z</time>
      </trkpt>
      <trkpt lat="43.97327" lon="4.05159">
        <ele>147</ele>
        <time>2011-02-27T15:08:41Z</time>
      </trkpt>
      <trkpt lat="43.97334" lon="4.05162">
        <ele>147</ele>
        <time>2011-02-27T15:08:43Z</time>
      </trkpt>
      <trkpt lat="43.97337" lon="4.05163">
        <ele>147</ele>
        <time>2011-02-27T15:08:44Z</time>
      </trkpt>
      <trkpt lat="43.97344" lon="4.05165">
        <ele>147</ele>
        <time>2011-02-27T15:08:46Z</time>
      </trkpt>
      <trkpt lat="43.97351" lon="4.05168">
        <ele>147</ele>
        <time>2011-02-27T15:08:48Z</time>
      </trkpt>
      <trkpt lat="43.97355" lon="4.05169">
        <ele>147</ele>
        <time>2011-02-27T15:08:49Z</time>
      </trkpt>
      <trkpt lat="43.97362" lon="4.05172">
        <ele>147</ele>
        <time>2011-02-27T15:08:51Z</time>
      </trkpt>
      <trkpt lat="43.97368" lon="4.05174">
        <ele>148</ele>
        <time>2011-02-27T15:08:53Z</time>
      </trkpt>
      <trkpt lat="43.97375" lon="4.05176">
        <ele>148</ele>
        <time>2011-02-27T15:08:55Z</time>
      </trkpt>
      <trkpt lat="43.97382" lon="4.05178">
        <ele>148</ele>
        <time>2011-02-27T15:08:57Z</time>
      </trkpt>
      <trkpt lat="43.97386" lon="4.05179">
        <ele>148</ele>
        <time>2011-02-27T15:08:58Z</time>
      </trkpt>
      <trkpt lat="43.97393" lon="4.05181">
        <ele>148</ele>
        <time>2011-02-27T15:09:00Z</time>
      </trkpt>
      <trkpt lat="43.974" lon="4.05183">
        <ele>149</ele>
        <time>2011-02-27T15:09:02Z</time>
      </trkpt>
      <trkpt lat="43.97403" lon="4.05184">
        <ele>149</ele>
        <time>2011-02-27T15:09:03Z</time>
      </trkpt>
      <trkpt lat="43.97411" lon="4.05186">
        <ele>149</ele>
        <time>2011-02-27T15:09:05Z</time>
      </trkpt>
      <trkpt lat="43.97418" lon="4.05188">
        <ele>149</ele>
        <time>2011-02-27T15:09:07Z</time>
      </trkpt>
      <trkpt lat="43.97425" lon="4.0519">
        <ele>149</ele>
        <time>2011-02-27T15:09:09Z</time>
      </trkpt>
      <trkpt lat="43.97433" lon="4.05192">
        <ele>149</ele>
        <time>2011-02-27T15:09:11Z</time>
      </trkpt>
      <trkpt lat="43.9744" lon="4.05194">
        <ele>148</ele>
        <time>2011-02-27T15:09:13Z</time>
      </trkpt>
      <trkpt lat="43.97448" lon="4.05196">
        <ele>149</ele>
        <time>2011-02-27T15:09:15Z</time>
      </trkpt>
      <trkpt lat="43.97456" lon="4.05198">
        <ele>149</ele>
        <time>2011-02-27T15:09:17Z</time>
      </trkpt>
      <trkpt lat="43.97463" lon="4.05199">
        <ele>149</ele>
        <time>2011-02-27T15:09:19Z</time>
      </trkpt>
      <trkpt lat="43.97471" lon="4.052">
        <ele>149</ele>
        <time>2011-02-27T15:09:21Z</time>
      </trkpt>
      <trkpt lat="43.97478" lon="4.05201">
        <ele>149</ele>
        <time>2011-02-27T15:09:23Z</time>
      </trkpt>
      <trkpt lat="43.97486" lon="4.05202">
        <ele>150</ele>
        <time>2011-02-27T15:09:25Z</time>
      </trkpt>
      <trkpt lat="43.9749" lon="4.05202">
        <ele>150</ele>
        <time>2011-02-27T15:09:26Z</time>
      </trkpt>
      <trkpt lat="43.97497" lon="4.05202">
        <ele>150</ele>
        <time>2011-02-27T15:09:28Z</time>
      </trkpt>
      <trkpt lat="43.97505" lon="4.05202">
        <ele>150</ele>
        <time>2011-02-27T15:09:30Z</time>
      </trkpt>
      <trkpt lat="43.97512" lon="4.05202">
        <ele>150</ele>
        <time>2011-02-27T15:09:32Z</time>
      </trkpt>
      <trkpt lat="43.97516" lon="4.05203">
        <ele>150</ele>
        <time>2011-02-27T15:09:33Z</time>
      </trkpt>
      <trkpt lat="43.97524" lon="4.05203">
        <ele>150</ele>
        <time>2011-02-27T15:09:35Z</time>
      </trkpt>
      <trkpt lat="43.97531" lon="4.05203">
        <ele>150</ele>
        <time>2011-02-27T15:09:37Z</time>
      </trkpt>
      <trkpt lat="43.97539" lon="4.05203">
        <ele>150</ele>
        <time>2011-02-27T15:09:39Z</time>
      </trkpt>
      <trkpt lat="43.97546" lon="4.05203">
        <ele>150</ele>
        <time>2011-02-27T15:09:41Z</time>
      </trkpt>
      <trkpt lat="43.97554" lon="4.05202">
        <ele>151</ele>
        <time>2011-02-27T15:09:43Z</time>
      </trkpt>
      <trkpt lat="43.97562" lon="4.05202">
        <ele>151</ele>
        <time>2011-02-27T15:09:45Z</time>
      </trkpt>
      <trkpt lat="43.97569" lon="4.05202">
        <ele>151</ele>
        <time>2011-02-27T15:09:47Z</time>
      </trkpt>
      <trkpt lat="43.97576" lon="4.05202">
        <ele>151</ele>
        <time>2011-02-27T15:09:49Z</time>
      </trkpt>
      <trkpt lat="43.9758" lon="4.05201">
        <ele>152</ele>
        <time>2011-02-27T15:09:50Z</time>
      </trkpt>
      <trkpt lat="43.97587" lon="4.05201">
        <ele>152</ele>
        <time>2011-02-27T15:09:52Z</time>
      </trkpt>
      <trkpt lat="43.97594" lon="4.05201">
        <ele>152</ele>
        <time>2011-02-27T15:09:54Z</time>
      </trkpt>
      <trkpt lat="43.97601" lon="4.05201">
        <ele>152</ele>
        <time>2011-02-27T15:09:56Z</time>
      </trkpt>
      <trkpt lat="43.97607" lon="4.05201">
        <ele>153</ele>
        <time>2011-02-27T15:09:58Z</time>
      </trkpt>
      <trkpt lat="43.97614" lon="4.052">
        <ele>153</ele>
        <time>2011-02-27T15:10:00Z</time>
      </trkpt>
      <trkpt lat="43.97621" lon="4.052">
        <ele>152</ele>
        <time>2011-02-27T15:10:02Z</time>
      </trkpt>
      <trkpt lat="43.97624" lon="4.052">
        <ele>152</ele>
        <time>2011-02-27T15:10:03Z</time>
      </trkpt>
      <trkpt lat="43.9763" lon="4.05199">
        <ele>152</ele>
        <time>2011-02-27T15:10:05Z</time>
      </trkpt>
      <trkpt lat="43.97637" lon="4.05198">
        <ele>153</ele>
        <time>2011-02-27T15:10:07Z</time>
      </trkpt>
      <trkpt lat="43.97643" lon="4.05197">
        <ele>152</ele>
        <time>2011-02-27T15:10:09Z</time>
      </trkpt>
      <trkpt lat="43.97649" lon="4.05195">
        <ele>153</ele>
        <time>2011-02-27T15:10:12Z</time>
      </trkpt>
      <trkpt lat="43.97655" lon="4.05193">
        <ele>153</ele>
        <time>2011-02-27T15:10:15Z</time>
      </trkpt>
      <trkpt lat="43.97659" lon="4.05189">
        <ele>153</ele>
        <time>2011-02-27T15:10:18Z</time>
      </trkpt>
      <trkpt lat="43.97664" lon="4.05186">
        <ele>153</ele>
        <time>2011-02-27T15:10:22Z</time>
      </trkpt>
      <trkpt lat="43.97668" lon="4.05183">
        <ele>153</ele>
        <time>2011-02-27T15:10:25Z</time>
      </trkpt>
      <trkpt lat="43.97674" lon="4.0518">
        <ele>154</ele>
        <time>2011-02-27T15:10:28Z</time>
      </trkpt>
      <trkpt lat="43.9768" lon="4.05182">
        <ele>154</ele>
        <time>2011-02-27T15:10:30Z</time>
      </trkpt>
      <trkpt lat="43.97683" lon="4.05182">
        <ele>154</ele>
        <time>2011-02-27T15:10:31Z</time>
      </trkpt>
      <trkpt lat="43.97689" lon="4.05185">
        <ele>154</ele>
        <time>2011-02-27T15:10:33Z</time>
      </trkpt>
      <trkpt lat="43.97696" lon="4.05187">
        <ele>155</ele>
        <time>2011-02-27T15:10:35Z</time>
      </trkpt>
      <trkpt lat="43.97699" lon="4.05188">
        <ele>155</ele>
        <time>2011-02-27T15:10:36Z</time>
      </trkpt>
      <trkpt lat="43.97706" lon="4.05189">
        <ele>155</ele>
        <time>2011-02-27T15:10:38Z</time>
      </trkpt>
      <trkpt lat="43.97713" lon="4.05189">
        <ele>156</ele>
        <time>2011-02-27T15:10:40Z</time>
      </trkpt>
      <trkpt lat="43.9772" lon="4.05189">
        <ele>156</ele>
        <time>2011-02-27T15:10:42Z</time>
      </trkpt>
      <trkpt lat="43.97724" lon="4.05189">
        <ele>156</ele>
        <time>2011-02-27T15:10:43Z</time>
      </trkpt>
      <trkpt lat="43.97731" lon="4.05189">
        <ele>157</ele>
        <time>2011-02-27T15:10:45Z</time>
      </trkpt>
      <trkpt lat="43.97738" lon="4.05189">
        <ele>157</ele>
        <time>2011-02-27T15:10:47Z</time>
      </trkpt>
      <trkpt lat="43.97746" lon="4.05188">
        <ele>158</ele>
        <time>2011-02-27T15:10:49Z</time>
      </trkpt>
      <trkpt lat="43.97754" lon="4.05188">
        <ele>157</ele>
        <time>2011-02-27T15:10:51Z</time>
      </trkpt>
      <trkpt lat="43.97762" lon="4.05188">
        <ele>157</ele>
        <time>2011-02-27T15:10:53Z</time>
      </trkpt>
      <trkpt lat="43.97766" lon="4.05188">
        <ele>157</ele>
        <time>2011-02-27T15:10:54Z</time>
      </trkpt>
      <trkpt lat="43.97774" lon="4.05189">
        <ele>157</ele>
        <time>2011-02-27T15:10:56Z</time>
      </trkpt>
      <trkpt lat="43.97782" lon="4.0519">
        <ele>156</ele>
        <time>2011-02-27T15:10:58Z</time>
      </trkpt>
      <trkpt lat="43.9779" lon="4.05192">
        <ele>156</ele>
        <time>2011-02-27T15:11:00Z</time>
      </trkpt>
      <trkpt lat="43.97798" lon="4.05194">
        <ele>156</ele>
        <time>2011-02-27T15:11:02Z</time>
      </trkpt>
      <trkpt lat="43.97805" lon="4.05196">
        <ele>155</ele>
        <time>2011-02-27T15:11:04Z</time>
      </trkpt>
      <trkpt lat="43.97813" lon="4.05199">
        <ele>155</ele>
        <time>2011-02-27T15:11:06Z</time>
      </trkpt>
      <trkpt lat="43.9782" lon="4.05202">
        <ele>155</ele>
        <time>2011-02-27T15:11:08Z</time>
      </trkpt>
      <trkpt lat="43.97828" lon="4.05204">
        <ele>155</ele>
        <time>2011-02-27T15:11:10Z</time>
      </trkpt>
      <trkpt lat="43.97832" lon="4.05206">
        <ele>155</ele>
        <time>2011-02-27T15:11:11Z</time>
      </trkpt>
      <trkpt lat="43.97839" lon="4.05209">
        <ele>155</ele>
        <time>2011-02-27T15:11:13Z</time>
      </trkpt>
      <trkpt lat="43.97842" lon="4.0521">
        <ele>155</ele>
        <time>2011-02-27T15:11:14Z</time>
      </trkpt>
      <trkpt lat="43.9785" lon="4.05212">
        <ele>156</ele>
        <time>2011-02-27T15:11:16Z</time>
      </trkpt>
      <trkpt lat="43.97857" lon="4.05213">
        <ele>156</ele>
        <time>2011-02-27T15:11:18Z</time>
      </trkpt>
      <trkpt lat="43.97865" lon="4.05213">
        <ele>156</ele>
        <time>2011-02-27T15:11:20Z</time>
      </trkpt>
      <trkpt lat="43.97873" lon="4.05214">
        <ele>157</ele>
        <time>2011-02-27T15:11:22Z</time>
      </trkpt>
      <trkpt lat="43.9788" lon="4.05215">
        <ele>157</ele>
        <time>2011-02-27T15:11:24Z</time>
      </trkpt>
      <trkpt lat="43.97888" lon="4.05215">
        <ele>157</ele>
        <time>2011-02-27T15:11:26Z</time>
      </trkpt>
      <trkpt lat="43.97896" lon="4.05216">
        <ele>158</ele>
        <time>2011-02-27T15:11:28Z</time>
      </trkpt>
      <trkpt lat="43.979" lon="4.05216">
        <ele>158</ele>
        <time>2011-02-27T15:11:29Z</time>
      </trkpt>
      <trkpt lat="43.97908" lon="4.05216">
        <ele>158</ele>
        <time>2011-02-27T15:11:31Z</time>
      </trkpt>
      <trkpt lat="43.97912" lon="4.05217">
        <ele>158</ele>
        <time>2011-02-27T15:11:32Z</time>
      </trkpt>
      <trkpt lat="43.9792" lon="4.05217">
        <ele>158</ele>
        <time>2011-02-27T15:11:34Z</time>
      </trkpt>
      <trkpt lat="43.97928" lon="4.05218">
        <ele>159</ele>
        <time>2011-02-27T15:11:36Z</time>
      </trkpt>
      <trkpt lat="43.97936" lon="4.05219">
        <ele>159</ele>
        <time>2011-02-27T15:11:38Z</time>
      </trkpt>
      <trkpt lat="43.9794" lon="4.05219">
        <ele>159</ele>
        <time>2011-02-27T15:11:39Z</time>
      </trkpt>
      <trkpt lat="43.97948" lon="4.0522">
        <ele>160</ele>
        <time>2011-02-27T15:11:41Z</time>
      </trkpt>
      <trkpt lat="43.97955" lon="4.05221">
        <ele>160</ele>
        <time>2011-02-27T15:11:43Z</time>
      </trkpt>
      <trkpt lat="43.97963" lon="4.05222">
        <ele>161</ele>
        <time>2011-02-27T15:11:45Z</time>
      </trkpt>
      <trkpt lat="43.9797" lon="4.05222">
        <ele>162</ele>
        <time>2011-02-27T15:11:47Z</time>
      </trkpt>
      <trkpt lat="43.97977" lon="4.05223">
        <ele>163</ele>
        <time>2011-02-27T15:11:49Z</time>
      </trkpt>
      <trkpt lat="43.97982" lon="4.05223">
        <ele>164</ele>
        <time>2011-02-27T15:11:51Z</time>
      </trkpt>
      <trkpt lat="43.97987" lon="4.05225">
        <ele>164</ele>
        <time>2011-02-27T15:11:53Z</time>
      </trkpt>
      <trkpt lat="43.97991" lon="4.05227">
        <ele>164</ele>
        <time>2011-02-27T15:11:55Z</time>
      </trkpt>
      <trkpt lat="43.97996" lon="4.0523">
        <ele>165</ele>
        <time>2011-02-27T15:11:57Z</time>
      </trkpt>
      <trkpt lat="43.98002" lon="4.05235">
        <ele>166</ele>
        <time>2011-02-27T15:11:59Z</time>
      </trkpt>
      <trkpt lat="43.98008" lon="4.05242">
        <ele>166</ele>
        <time>2011-02-27T15:12:01Z</time>
      </trkpt>
      <trkpt lat="43.98013" lon="4.05248">
        <ele>166</ele>
        <time>2011-02-27T15:12:03Z</time>
      </trkpt>
      <trkpt lat="43.98016" lon="4.05252">
        <ele>166</ele>
        <time>2011-02-27T15:12:04Z</time>
      </trkpt>
      <trkpt lat="43.98024" lon="4.05256">
        <ele>167</ele>
        <time>2011-02-27T15:12:06Z</time>
      </trkpt>
      <trkpt lat="43.98033" lon="4.0526">
        <ele>167</ele>
        <time>2011-02-27T15:12:08Z</time>
      </trkpt>
      <trkpt lat="43.98038" lon="4.0526">
        <ele>167</ele>
        <time>2011-02-27T15:12:09Z</time>
      </trkpt>
      <trkpt lat="43.98043" lon="4.05259">
        <ele>167</ele>
        <time>2011-02-27T15:12:10Z</time>
      </trkpt>
      <trkpt lat="43.98048" lon="4.05258">
        <ele>167</ele>
        <time>2011-02-27T15:12:11Z</time>
      </trkpt>
      <trkpt lat="43.98053" lon="4.05258">
        <ele>167</ele>
        <time>2011-02-27T15:12:12Z</time>
      </trkpt>
      <trkpt lat="43.98058" lon="4.05257">
        <ele>167</ele>
        <time>2011-02-27T15:12:13Z</time>
      </trkpt>
      <trkpt lat="43.98062" lon="4.05257">
        <ele>167</ele>
        <time>2011-02-27T15:12:14Z</time>
      </trkpt>
      <trkpt lat="43.9807" lon="4.05254">
        <ele>167</ele>
        <time>2011-02-27T15:12:16Z</time>
      </trkpt>
      <trkpt lat="43.98077" lon="4.05249">
        <ele>167</ele>
        <time>2011-02-27T15:12:18Z</time>
      </trkpt>
      <trkpt lat="43.98082" lon="4.05242">
        <ele>166</ele>
        <time>2011-02-27T15:12:20Z</time>
      </trkpt>
      <trkpt lat="43.98085" lon="4.05238">
        <ele>166</ele>
        <time>2011-02-27T15:12:21Z</time>
      </trkpt>
      <trkpt lat="43.98091" lon="4.05231">
        <ele>165</ele>
        <time>2011-02-27T15:12:23Z</time>
      </trkpt>
      <trkpt lat="43.98097" lon="4.05224">
        <ele>164</ele>
        <time>2011-02-27T15:12:25Z</time>
      </trkpt>
      <trkpt lat="43.981" lon="4.0522">
        <ele>164</ele>
        <time>2011-02-27T15:12:26Z</time>
      </trkpt>
      <trkpt lat="43.98107" lon="4.05214">
        <ele>164</ele>
        <time>2011-02-27T15:12:28Z</time>
      </trkpt>
      <trkpt lat="43.9811" lon="4.05211">
        <ele>163</ele>
        <time>2011-02-27T15:12:29Z</time>
      </trkpt>
      <trkpt lat="43.98118" lon="4.05206">
        <ele>163</ele>
        <time>2011-02-27T15:12:31Z</time>
      </trkpt>
      <trkpt lat="43.98122" lon="4.05204">
        <ele>162</ele>
        <time>2011-02-27T15:12:32Z</time>
      </trkpt>
      <trkpt lat="43.9813" lon="4.052">
        <ele>162</ele>
        <time>2011-02-27T15:12:34Z</time>
      </trkpt>
      <trkpt lat="43.98137" lon="4.05196">
        <ele>162</ele>
        <time>2011-02-27T15:12:36Z</time>
      </trkpt>
      <trkpt lat="43.98143" lon="4.0519">
        <ele>162</ele>
        <time>2011-02-27T15:12:38Z</time>
      </trkpt>
      <trkpt lat="43.98145" lon="4.05182">
        <ele>162</ele>
        <time>2011-02-27T15:12:40Z</time>
      </trkpt>
      <trkpt lat="43.98145" lon="4.05173">
        <ele>162</ele>
        <time>2011-02-27T15:12:42Z</time>
      </trkpt>
      <trkpt lat="43.98144" lon="4.05163">
        <ele>162</ele>
        <time>2011-02-27T15:12:44Z</time>
      </trkpt>
      <trkpt lat="43.98143" lon="4.05158">
        <ele>162</ele>
        <time>2011-02-27T15:12:45Z</time>
      </trkpt>
      <trkpt lat="43.9814" lon="4.05146">
        <ele>162</ele>
        <time>2011-02-27T15:12:47Z</time>
      </trkpt>
      <trkpt lat="43.98139" lon="4.05139">
        <ele>162</ele>
        <time>2011-02-27T15:12:48Z</time>
      </trkpt>
      <trkpt lat="43.98139" lon="4.05133">
        <ele>161</ele>
        <time>2011-02-27T15:12:49Z</time>
      </trkpt>
      <trkpt lat="43.98138" lon="4.05126">
        <ele>161</ele>
        <time>2011-02-27T15:12:50Z</time>
      </trkpt>
      <trkpt lat="43.98138" lon="4.05119">
        <ele>161</ele>
        <time>2011-02-27T15:12:51Z</time>
      </trkpt>
      <trkpt lat="43.98137" lon="4.05112">
        <ele>161</ele>
        <time>2011-02-27T15:12:52Z</time>
      </trkpt>
      <trkpt lat="43.98137" lon="4.05105">
        <ele>161</ele>
        <time>2011-02-27T15:12:53Z</time>
      </trkpt>
      <trkpt lat="43.98138" lon="4.05097">
        <ele>161</ele>
        <time>2011-02-27T15:12:54Z</time>
      </trkpt>
      <trkpt lat="43.98137" lon="4.05089">
        <ele>161</ele>
        <time>2011-02-27T15:12:55Z</time>
      </trkpt>
      <trkpt lat="43.98137" lon="4.05081">
        <ele>161</ele>
        <time>2011-02-27T15:12:56Z</time>
      </trkpt>
      <trkpt lat="43.98137" lon="4.05073">
        <ele>161</ele>
        <time>2011-02-27T15:12:57Z</time>
      </trkpt>
      <trkpt lat="43.98137" lon="4.05064">
        <ele>161</ele>
        <time>2011-02-27T15:12:58Z</time>
      </trkpt>
      <trkpt lat="43.98138" lon="4.05056">
        <ele>161</ele>
        <time>2011-02-27T15:12:59Z</time>
      </trkpt>
      <trkpt lat="43.98138" lon="4.05047">
        <ele>161</ele>
        <time>2011-02-27T15:13:00Z</time>
      </trkpt>
      <trkpt lat="43.98138" lon="4.05039">
        <ele>161</ele>
        <time>2011-02-27T15:13:01Z</time>
      </trkpt>
      <trkpt lat="43.98138" lon="4.0503">
        <ele>161</ele>
        <time>2011-02-27T15:13:02Z</time>
      </trkpt>
      <trkpt lat="43.98138" lon="4.05021">
        <ele>161</ele>
        <time>2011-02-27T15:13:03Z</time>
      </trkpt>
      <trkpt lat="43.98138" lon="4.05011">
        <ele>160</ele>
        <time>2011-02-27T15:13:04Z</time>
      </trkpt>
      <trkpt lat="43.98138" lon="4.05002">
        <ele>160</ele>
        <time>2011-02-27T15:13:05Z</time>
      </trkpt>
      <trkpt lat="43.98139" lon="4.04993">
        <ele>160</ele>
        <time>2011-02-27T15:13:06Z</time>
      </trkpt>
      <trkpt lat="43.98139" lon="4.04984">
        <ele>160</ele>
        <time>2011-02-27T15:13:07Z</time>
      </trkpt>
      <trkpt lat="43.98139" lon="4.04975">
        <ele>160</ele>
        <time>2011-02-27T15:13:08Z</time>
      </trkpt>
      <trkpt lat="43.98139" lon="4.04966">
        <ele>160</ele>
        <time>2011-02-27T15:13:09Z</time>
      </trkpt>
      <trkpt lat="43.98139" lon="4.04957">
        <ele>160</ele>
        <time>2011-02-27T15:13:10Z</time>
      </trkpt>
      <trkpt lat="43.98139" lon="4.04948">
        <ele>160</ele>
        <time>2011-02-27T15:13:11Z</time>
      </trkpt>
      <trkpt lat="43.98139" lon="4.0494">
        <ele>160</ele>
        <time>2011-02-27T15:13:12Z</time>
      </trkpt>
      <trkpt lat="43.98139" lon="4.04932">
        <ele>160</ele>
        <time>2011-02-27T15:13:13Z</time>
      </trkpt>
      <trkpt lat="43.98139" lon="4.04923">
        <ele>159</ele>
        <time>2011-02-27T15:13:14Z</time>
      </trkpt>
      <trkpt lat="43.98139" lon="4.04915">
        <ele>159</ele>
        <time>2011-02-27T15:13:15Z</time>
      </trkpt>
      <trkpt lat="43.98139" lon="4.04907">
        <ele>159</ele>
        <time>2011-02-27T15:13:16Z</time>
      </trkpt>
      <trkpt lat="43.9814" lon="4.04899">
        <ele>159</ele>
        <time>2011-02-27T15:13:17Z</time>
      </trkpt>
      <trkpt lat="43.9814" lon="4.0489">
        <ele>159</ele>
        <time>2011-02-27T15:13:18Z</time>
      </trkpt>
      <trkpt lat="43.98141" lon="4.04882">
        <ele>158</ele>
        <time>2011-02-27T15:13:19Z</time>
      </trkpt>
      <trkpt lat="43.98141" lon="4.04873">
        <ele>158</ele>
        <time>2011-02-27T15:13:20Z</time>
      </trkpt>
      <trkpt lat="43.98142" lon="4.04865">
        <ele>158</ele>
        <time>2011-02-27T15:13:21Z</time>
      </trkpt>
      <trkpt lat="43.98142" lon="4.04856">
        <ele>157</ele>
        <time>2011-02-27T15:13:22Z</time>
      </trkpt>
      <trkpt lat="43.98142" lon="4.04848">
        <ele>157</ele>
        <time>2011-02-27T15:13:23Z</time>
      </trkpt>
      <trkpt lat="43.98143" lon="4.0484">
        <ele>156</ele>
        <time>2011-02-27T15:13:24Z</time>
      </trkpt>
      <trkpt lat="43.98143" lon="4.04831">
        <ele>155</ele>
        <time>2011-02-27T15:13:25Z</time>
      </trkpt>
      <trkpt lat="43.98144" lon="4.04823">
        <ele>155</ele>
        <time>2011-02-27T15:13:26Z</time>
      </trkpt>
      <trkpt lat="43.98144" lon="4.04815">
        <ele>154</ele>
        <time>2011-02-27T15:13:27Z</time>
      </trkpt>
      <trkpt lat="43.98145" lon="4.04806">
        <ele>154</ele>
        <time>2011-02-27T15:13:28Z</time>
      </trkpt>
      <trkpt lat="43.98145" lon="4.04798">
        <ele>154</ele>
        <time>2011-02-27T15:13:29Z</time>
      </trkpt>
      <trkpt lat="43.98146" lon="4.04789">
        <ele>153</ele>
        <time>2011-02-27T15:13:30Z</time>
      </trkpt>
      <trkpt lat="43.98146" lon="4.04781">
        <ele>153</ele>
        <time>2011-02-27T15:13:31Z</time>
      </trkpt>
      <trkpt lat="43.98147" lon="4.04773">
        <ele>153</ele>
        <time>2011-02-27T15:13:32Z</time>
      </trkpt>
      <trkpt lat="43.98147" lon="4.04764">
        <ele>152</ele>
        <time>2011-02-27T15:13:33Z</time>
      </trkpt>
      <trkpt lat="43.98147" lon="4.04756">
        <ele>152</ele>
        <time>2011-02-27T15:13:34Z</time>
      </trkpt>
      <trkpt lat="43.98148" lon="4.04748">
        <ele>152</ele>
        <time>2011-02-27T15:13:35Z</time>
      </trkpt>
      <trkpt lat="43.98148" lon="4.0474">
        <ele>152</ele>
        <time>2011-02-27T15:13:36Z</time>
      </trkpt>
      <trkpt lat="43.98149" lon="4.04731">
        <ele>152</ele>
        <time>2011-02-27T15:13:37Z</time>
      </trkpt>
      <trkpt lat="43.98149" lon="4.04723">
        <ele>152</ele>
        <time>2011-02-27T15:13:38Z</time>
      </trkpt>
      <trkpt lat="43.9815" lon="4.04715">
        <ele>152</ele>
        <time>2011-02-27T15:13:39Z</time>
      </trkpt>
      <trkpt lat="43.9815" lon="4.04706">
        <ele>152</ele>
        <time>2011-02-27T15:13:40Z</time>
      </trkpt>
      <trkpt lat="43.9815" lon="4.04698">
        <ele>151</ele>
        <time>2011-02-27T15:13:41Z</time>
      </trkpt>
      <trkpt lat="43.98149" lon="4.0469">
        <ele>151</ele>
        <time>2011-02-27T15:13:42Z</time>
      </trkpt>
      <trkpt lat="43.98149" lon="4.04683">
        <ele>151</ele>
        <time>2011-02-27T15:13:43Z</time>
      </trkpt>
      <trkpt lat="43.9815" lon="4.04676">
        <ele>151</ele>
        <time>2011-02-27T15:13:44Z</time>
      </trkpt>
      <trkpt lat="43.98152" lon="4.04672">
        <ele>151</ele>
        <time>2011-02-27T15:13:45Z</time>
      </trkpt>
      <trkpt lat="43.98159" lon="4.0467">
        <ele>151</ele>
        <time>2011-02-27T15:13:47Z</time>
      </trkpt>
      <trkpt lat="43.98162" lon="4.04671">
        <ele>151</ele>
        <time>2011-02-27T15:13:48Z</time>
      </trkpt>
      <trkpt lat="43.98169" lon="4.04675">
        <ele>150</ele>
        <time>2011-02-27T15:13:50Z</time>
      </trkpt>
      <trkpt lat="43.98176" lon="4.0468">
        <ele>150</ele>
        <time>2011-02-27T15:13:52Z</time>
      </trkpt>
      <trkpt lat="43.9818" lon="4.04683">
        <ele>150</ele>
        <time>2011-02-27T15:13:53Z</time>
      </trkpt>
      <trkpt lat="43.98189" lon="4.04688">
        <ele>150</ele>
        <time>2011-02-27T15:13:55Z</time>
      </trkpt>
      <trkpt lat="43.98193" lon="4.0469">
        <ele>150</ele>
        <time>2011-02-27T15:13:56Z</time>
      </trkpt>
      <trkpt lat="43.98197" lon="4.04692">
        <ele>150</ele>
        <time>2011-02-27T15:13:57Z</time>
      </trkpt>
      <trkpt lat="43.98201" lon="4.04695">
        <ele>151</ele>
        <time>2011-02-27T15:13:58Z</time>
      </trkpt>
      <trkpt lat="43.98205" lon="4.04697">
        <ele>151</ele>
        <time>2011-02-27T15:13:59Z</time>
      </trkpt>
      <trkpt lat="43.98212" lon="4.04701">
        <ele>151</ele>
        <time>2011-02-27T15:14:01Z</time>
      </trkpt>
      <trkpt lat="43.98219" lon="4.04705">
        <ele>152</ele>
        <time>2011-02-27T15:14:03Z</time>
      </trkpt>
      <trkpt lat="43.98226" lon="4.04708">
        <ele>153</ele>
        <time>2011-02-27T15:14:05Z</time>
      </trkpt>
      <trkpt lat="43.9823" lon="4.0471">
        <ele>153</ele>
        <time>2011-02-27T15:14:06Z</time>
      </trkpt>
      <trkpt lat="43.98238" lon="4.04713">
        <ele>154</ele>
        <time>2011-02-27T15:14:08Z</time>
      </trkpt>
      <trkpt lat="43.98246" lon="4.04717">
        <ele>154</ele>
        <time>2011-02-27T15:14:10Z</time>
      </trkpt>
      <trkpt lat="43.98251" lon="4.04719">
        <ele>154</ele>
        <time>2011-02-27T15:14:11Z</time>
      </trkpt>
      <trkpt lat="43.98255" lon="4.04722">
        <ele>154</ele>
        <time>2011-02-27T15:14:12Z</time>
      </trkpt>
      <trkpt lat="43.98259" lon="4.04725">
        <ele>154</ele>
        <time>2011-02-27T15:14:13Z</time>
      </trkpt>
      <trkpt lat="43.98264" lon="4.04727">
        <ele>155</ele>
        <time>2011-02-27T15:14:14Z</time>
      </trkpt>
      <trkpt lat="43.98268" lon="4.0473">
        <ele>155</ele>
        <time>2011-02-27T15:14:15Z</time>
      </trkpt>
      <trkpt lat="43.98273" lon="4.04734">
        <ele>154</ele>
        <time>2011-02-27T15:14:16Z</time>
      </trkpt>
      <trkpt lat="43.98278" lon="4.04737">
        <ele>154</ele>
        <time>2011-02-27T15:14:17Z</time>
      </trkpt>
      <trkpt lat="43.98282" lon="4.0474">
        <ele>154</ele>
        <time>2011-02-27T15:14:18Z</time>
      </trkpt>
      <trkpt lat="43.98287" lon="4.04744">
        <ele>154</ele>
        <time>2011-02-27T15:14:19Z</time>
      </trkpt>
      <trkpt lat="43.98291" lon="4.04747">
        <ele>153</ele>
        <time>2011-02-27T15:14:20Z</time>
      </trkpt>
      <trkpt lat="43.98295" lon="4.0475">
        <ele>153</ele>
        <time>2011-02-27T15:14:21Z</time>
      </trkpt>
      <trkpt lat="43.983" lon="4.04753">
        <ele>153</ele>
        <time>2011-02-27T15:14:22Z</time>
      </trkpt>
      <trkpt lat="43.98304" lon="4.04756">
        <ele>152</ele>
        <time>2011-02-27T15:14:23Z</time>
      </trkpt>
      <trkpt lat="43.98308" lon="4.04759">
        <ele>152</ele>
        <time>2011-02-27T15:14:24Z</time>
      </trkpt>
      <trkpt lat="43.98312" lon="4.04762">
        <ele>152</ele>
        <time>2011-02-27T15:14:25Z</time>
      </trkpt>
      <trkpt lat="43.98316" lon="4.04765">
        <ele>152</ele>
        <time>2011-02-27T15:14:26Z</time>
      </trkpt>
      <trkpt lat="43.98321" lon="4.04767">
        <ele>151</ele>
        <time>2011-02-27T15:14:27Z</time>
      </trkpt>
      <trkpt lat="43.98328" lon="4.04773">
        <ele>151</ele>
        <time>2011-02-27T15:14:29Z</time>
      </trkpt>
      <trkpt lat="43.98334" lon="4.04776">
        <ele>151</ele>
        <time>2011-02-27T15:14:31Z</time>
      </trkpt>
      <trkpt lat="43.98336" lon="4.04776">
        <ele>151</ele>
        <time>2011-02-27T15:14:32Z</time>
      </trkpt>
      <trkpt lat="43.9834" lon="4.04772">
        <ele>150</ele>
        <time>2011-02-27T15:14:34Z</time>
      </trkpt>
      <trkpt lat="43.98342" lon="4.04768">
        <ele>150</ele>
        <time>2011-02-27T15:14:35Z</time>
      </trkpt>
      <trkpt lat="43.98345" lon="4.0476">
        <ele>150</ele>
        <time>2011-02-27T15:14:37Z</time>
      </trkpt>
      <trkpt lat="43.98347" lon="4.04749">
        <ele>150</ele>
        <time>2011-02-27T15:14:39Z</time>
      </trkpt>
      <trkpt lat="43.9835" lon="4.04738">
        <ele>150</ele>
        <time>2011-02-27T15:14:41Z</time>
      </trkpt>
      <trkpt lat="43.98351" lon="4.04732">
        <ele>150</ele>
        <time>2011-02-27T15:14:42Z</time>
      </trkpt>
      <trkpt lat="43.98353" lon="4.04725">
        <ele>150</ele>
        <time>2011-02-27T15:14:43Z</time>
      </trkpt>
      <trkpt lat="43.98354" lon="4.04719">
        <ele>150</ele>
        <time>2011-02-27T15:14:44Z</time>
      </trkpt>
      <trkpt lat="43.98356" lon="4.04713">
        <ele>150</ele>
        <time>2011-02-27T15:14:45Z</time>
      </trkpt>
      <trkpt lat="43.98358" lon="4.04707">
        <ele>150</ele>
        <time>2011-02-27T15:14:46Z</time>
      </trkpt>
      <trkpt lat="43.9836" lon="4.047">
        <ele>150</ele>
        <time>2011-02-27T15:14:47Z</time>
      </trkpt>
      <trkpt lat="43.98361" lon="4.04694">
        <ele>150</ele>
        <time>2011-02-27T15:14:48Z</time>
      </trkpt>
      <trkpt lat="43.98363" lon="4.04687">
        <ele>150</ele>
        <time>2011-02-27T15:14:49Z</time>
      </trkpt>
      <trkpt lat="43.98365" lon="4.04681">
        <ele>150</ele>
        <time>2011-02-27T15:14:50Z</time>
      </trkpt>
      <trkpt lat="43.98367" lon="4.04675">
        <ele>149</ele>
        <time>2011-02-27T15:14:51Z</time>
      </trkpt>
      <trkpt lat="43.98369" lon="4.04669">
        <ele>149</ele>
        <time>2011-02-27T15:14:52Z</time>
      </trkpt>
      <trkpt lat="43.98371" lon="4.04663">
        <ele>149</ele>
        <time>2011-02-27T15:14:53Z</time>
      </trkpt>
      <trkpt lat="43.98373" lon="4.04657">
        <ele>149</ele>
        <time>2011-02-27T15:14:54Z</time>
      </trkpt>
      <trkpt lat="43.98375" lon="4.0465">
        <ele>149</ele>
        <time>2011-02-27T15:14:55Z</time>
      </trkpt>
      <trkpt lat="43.98377" lon="4.04644">
        <ele>149</ele>
        <time>2011-02-27T15:14:56Z</time>
      </trkpt>
      <trkpt lat="43.9838" lon="4.04638">
        <ele>148</ele>
        <time>2011-02-27T15:14:57Z</time>
      </trkpt>
      <trkpt lat="43.98382" lon="4.04632">
        <ele>148</ele>
        <time>2011-02-27T15:14:58Z</time>
      </trkpt>
      <trkpt lat="43.98385" lon="4.04626">
        <ele>148</ele>
        <time>2011-02-27T15:14:59Z</time>
      </trkpt>
      <trkpt lat="43.98387" lon="4.04621">
        <ele>149</ele>
        <time>2011-02-27T15:15:00Z</time>
      </trkpt>
      <trkpt lat="43.9839" lon="4.04615">
        <ele>149</ele>
        <time>2011-02-27T15:15:01Z</time>
      </trkpt>
      <trkpt lat="43.98393" lon="4.04609">
        <ele>149</ele>
        <time>2011-02-27T15:15:02Z</time>
      </trkpt>
      <trkpt lat="43.98396" lon="4.04603">
        <ele>150</ele>
        <time>2011-02-27T15:15:03Z</time>
      </trkpt>
      <trkpt lat="43.98399" lon="4.04598">
        <ele>150</ele>
        <time>2011-02-27T15:15:04Z</time>
      </trkpt>
      <trkpt lat="43.98403" lon="4.04592">
        <ele>150</ele>
        <time>2011-02-27T15:15:05Z</time>
      </trkpt>
      <trkpt lat="43.98406" lon="4.04586">
        <ele>150</ele>
        <time>2011-02-27T15:15:06Z</time>
      </trkpt>
      <trkpt lat="43.98409" lon="4.04581">
        <ele>150</ele>
        <time>2011-02-27T15:15:07Z</time>
      </trkpt>
      <trkpt lat="43.98413" lon="4.04575">
        <ele>150</ele>
        <time>2011-02-27T15:15:08Z</time>
      </trkpt>
      <trkpt lat="43.98416" lon="4.0457">
        <ele>150</ele>
        <time>2011-02-27T15:15:09Z</time>
      </trkpt>
      <trkpt lat="43.98419" lon="4.04565">
        <ele>150</ele>
        <time>2011-02-27T15:15:10Z</time>
      </trkpt>
      <trkpt lat="43.98422" lon="4.0456">
        <ele>150</ele>
        <time>2011-02-27T15:15:11Z</time>
      </trkpt>
      <trkpt lat="43.98426" lon="4.04555">
        <ele>150</ele>
        <time>2011-02-27T15:15:12Z</time>
      </trkpt>
      <trkpt lat="43.98429" lon="4.0455">
        <ele>150</ele>
        <time>2011-02-27T15:15:13Z</time>
      </trkpt>
      <trkpt lat="43.98433" lon="4.04545">
        <ele>150</ele>
        <time>2011-02-27T15:15:14Z</time>
      </trkpt>
      <trkpt lat="43.98436" lon="4.04541">
        <ele>150</ele>
        <time>2011-02-27T15:15:15Z</time>
      </trkpt>
      <trkpt lat="43.9844" lon="4.04536">
        <ele>150</ele>
        <time>2011-02-27T15:15:16Z</time>
      </trkpt>
      <trkpt lat="43.98444" lon="4.04531">
        <ele>151</ele>
        <time>2011-02-27T15:15:17Z</time>
      </trkpt>
      <trkpt lat="43.98448" lon="4.04527">
        <ele>151</ele>
        <time>2011-02-27T15:15:18Z</time>
      </trkpt>
      <trkpt lat="43.98452" lon="4.04523">
        <ele>151</ele>
        <time>2011-02-27T15:15:19Z</time>
      </trkpt>
      <trkpt lat="43.98456" lon="4.04518">
        <ele>151</ele>
        <time>2011-02-27T15:15:20Z</time>
      </trkpt>
      <trkpt lat="43.9846" lon="4.04514">
        <ele>151</ele>
        <time>2011-02-27T15:15:21Z</time>
      </trkpt>
      <trkpt lat="43.98465" lon="4.04511">
        <ele>151</ele>
        <time>2011-02-27T15:15:22Z</time>
      </trkpt>
      <trkpt lat="43.98469" lon="4.04507">
        <ele>151</ele>
        <time>2011-02-27T15:15:23Z</time>
      </trkpt>
      <trkpt lat="43.98473" lon="4.04504">
        <ele>151</ele>
        <time>2011-02-27T15:15:24Z</time>
      </trkpt>
      <trkpt lat="43.98477" lon="4.045">
        <ele>151</ele>
        <time>2011-02-27T15:15:25Z</time>
      </trkpt>
      <trkpt lat="43.98481" lon="4.04497">
        <ele>151</ele>
        <time>2011-02-27T15:15:26Z</time>
      </trkpt>
      <trkpt lat="43.98487" lon="4.04491">
        <ele>150</ele>
        <time>2011-02-27T15:15:28Z</time>
      </trkpt>
      <trkpt lat="43.98492" lon="4.04486">
        <ele>150</ele>
        <time>2011-02-27T15:15:30Z</time>
      </trkpt>
      <trkpt lat="43.98496" lon="4.0448">
        <ele>150</ele>
        <time>2011-02-27T15:15:32Z</time>
      </trkpt>
      <trkpt lat="43.98497" lon="4.04476">
        <ele>150</ele>
        <time>2011-02-27T15:15:33Z</time>
      </trkpt>
      <trkpt lat="43.98499" lon="4.0447">
        <ele>151</ele>
        <time>2011-02-27T15:15:35Z</time>
      </trkpt>
      <trkpt lat="43.985" lon="4.0446">
        <ele>154</ele>
        <time>2011-02-27T15:15:38Z</time>
      </trkpt>
      <trkpt lat="43.98503" lon="4.04451">
        <ele>156</ele>
        <time>2011-02-27T15:15:40Z</time>
      </trkpt>
      <trkpt lat="43.98505" lon="4.04443">
        <ele>159</ele>
        <time>2011-02-27T15:15:42Z</time>
      </trkpt>
      <trkpt lat="43.98509" lon="4.04432">
        <ele>162</ele>
        <time>2011-02-27T15:15:44Z</time>
      </trkpt>
      <trkpt lat="43.98512" lon="4.04426">
        <ele>164</ele>
        <time>2011-02-27T15:15:45Z</time>
      </trkpt>
      <trkpt lat="43.98514" lon="4.0442">
        <ele>165</ele>
        <time>2011-02-27T15:15:46Z</time>
      </trkpt>
      <trkpt lat="43.98517" lon="4.04414">
        <ele>166</ele>
        <time>2011-02-27T15:15:47Z</time>
      </trkpt>
      <trkpt lat="43.9852" lon="4.04407">
        <ele>167</ele>
        <time>2011-02-27T15:15:48Z</time>
      </trkpt>
      <trkpt lat="43.98523" lon="4.044">
        <ele>167</ele>
        <time>2011-02-27T15:15:49Z</time>
      </trkpt>
      <trkpt lat="43.98525" lon="4.04394">
        <ele>168</ele>
        <time>2011-02-27T15:15:50Z</time>
      </trkpt>
      <trkpt lat="43.98528" lon="4.04387">
        <ele>169</ele>
        <time>2011-02-27T15:15:51Z</time>
      </trkpt>
      <trkpt lat="43.98531" lon="4.04381">
        <ele>169</ele>
        <time>2011-02-27T15:15:52Z</time>
      </trkpt>
      <trkpt lat="43.98534" lon="4.04374">
        <ele>170</ele>
        <time>2011-02-27T15:15:53Z</time>
      </trkpt>
      <trkpt lat="43.98537" lon="4.04368">
        <ele>170</ele>
        <time>2011-02-27T15:15:54Z</time>
      </trkpt>
      <trkpt lat="43.98541" lon="4.04361">
        <ele>170</ele>
        <time>2011-02-27T15:15:55Z</time>
      </trkpt>
      <trkpt lat="43.98544" lon="4.04354">
        <ele>170</ele>
        <time>2011-02-27T15:15:56Z</time>
      </trkpt>
      <trkpt lat="43.98547" lon="4.04348">
        <ele>170</ele>
        <time>2011-02-27T15:15:57Z</time>
      </trkpt>
      <trkpt lat="43.98551" lon="4.04341">
        <ele>170</ele>
        <time>2011-02-27T15:15:58Z</time>
      </trkpt>
      <trkpt lat="43.98554" lon="4.04335">
        <ele>170</ele>
        <time>2011-02-27T15:15:59Z</time>
      </trkpt>
      <trkpt lat="43.98558" lon="4.04329">
        <ele>170</ele>
        <time>2011-02-27T15:16:00Z</time>
      </trkpt>
      <trkpt lat="43.98561" lon="4.04323">
        <ele>169</ele>
        <time>2011-02-27T15:16:01Z</time>
      </trkpt>
      <trkpt lat="43.98564" lon="4.04317">
        <ele>168</ele>
        <time>2011-02-27T15:16:02Z</time>
      </trkpt>
      <trkpt lat="43.98567" lon="4.04312">
        <ele>168</ele>
        <time>2011-02-27T15:16:03Z</time>
      </trkpt>
      <trkpt lat="43.98572" lon="4.04304">
        <ele>167</ele>
        <time>2011-02-27T15:16:05Z</time>
      </trkpt>
      <trkpt lat="43.98577" lon="4.04296">
        <ele>166</ele>
        <time>2011-02-27T15:16:07Z</time>
      </trkpt>
      <trkpt lat="43.98582" lon="4.04289">
        <ele>165</ele>
        <time>2011-02-27T15:16:09Z</time>
      </trkpt>
      <trkpt lat="43.98587" lon="4.04281">
        <ele>164</ele>
        <time>2011-02-27T15:16:11Z</time>
      </trkpt>
      <trkpt lat="43.98591" lon="4.04274">
        <ele>163</ele>
        <time>2011-02-27T15:16:13Z</time>
      </trkpt>
      <trkpt lat="43.98596" lon="4.04267">
        <ele>162</ele>
        <time>2011-02-27T15:16:15Z</time>
      </trkpt>
      <trkpt lat="43.98601" lon="4.04261">
        <ele>162</ele>
        <time>2011-02-27T15:16:17Z</time>
      </trkpt>
      <trkpt lat="43.98605" lon="4.04255">
        <ele>161</ele>
        <time>2011-02-27T15:16:19Z</time>
      </trkpt>
      <trkpt lat="43.9861" lon="4.04248">
        <ele>161</ele>
        <time>2011-02-27T15:16:21Z</time>
      </trkpt>
      <trkpt lat="43.98614" lon="4.04241">
        <ele>161</ele>
        <time>2011-02-27T15:16:23Z</time>
      </trkpt>
      <trkpt lat="43.98619" lon="4.04235">
        <ele>161</ele>
        <time>2011-02-27T15:16:25Z</time>
      </trkpt>
      <trkpt lat="43.98624" lon="4.04228">
        <ele>161</ele>
        <time>2011-02-27T15:16:27Z</time>
      </trkpt>
      <trkpt lat="43.98628" lon="4.04221">
        <ele>160</ele>
        <time>2011-02-27T15:16:29Z</time>
      </trkpt>
      <trkpt lat="43.98633" lon="4.04213">
        <ele>160</ele>
        <time>2011-02-27T15:16:31Z</time>
      </trkpt>
      <trkpt lat="43.98638" lon="4.04205">
        <ele>160</ele>
        <time>2011-02-27T15:16:33Z</time>
      </trkpt>
      <trkpt lat="43.98643" lon="4.04197">
        <ele>160</ele>
        <time>2011-02-27T15:16:35Z</time>
      </trkpt>
      <trkpt lat="43.98647" lon="4.04188">
        <ele>161</ele>
        <time>2011-02-27T15:16:37Z</time>
      </trkpt>
      <trkpt lat="43.9865" lon="4.04184">
        <ele>161</ele>
        <time>2011-02-27T15:16:38Z</time>
      </trkpt>
      <trkpt lat="43.98654" lon="4.04174">
        <ele>161</ele>
        <time>2011-02-27T15:16:40Z</time>
      </trkpt>
      <trkpt lat="43.98659" lon="4.04165">
        <ele>162</ele>
        <time>2011-02-27T15:16:42Z</time>
      </trkpt>
      <trkpt lat="43.98662" lon="4.04155">
        <ele>162</ele>
        <time>2011-02-27T15:16:44Z</time>
      </trkpt>
      <trkpt lat="43.98665" lon="4.04145">
        <ele>161</ele>
        <time>2011-02-27T15:16:46Z</time>
      </trkpt>
      <trkpt lat="43.98666" lon="4.04136">
        <ele>160</ele>
        <time>2011-02-27T15:16:48Z</time>
      </trkpt>
      <trkpt lat="43.98666" lon="4.04127">
        <ele>160</ele>
        <time>2011-02-27T15:16:50Z</time>
      </trkpt>
      <trkpt lat="43.98667" lon="4.04119">
        <ele>160</ele>
        <time>2011-02-27T15:16:52Z</time>
      </trkpt>
      <trkpt lat="43.98668" lon="4.04108">
        <ele>160</ele>
        <time>2011-02-27T15:16:54Z</time>
      </trkpt>
      <trkpt lat="43.9867" lon="4.04096">
        <ele>160</ele>
        <time>2011-02-27T15:16:56Z</time>
      </trkpt>
      <trkpt lat="43.98672" lon="4.04089">
        <ele>160</ele>
        <time>2011-02-27T15:16:57Z</time>
      </trkpt>
      <trkpt lat="43.98673" lon="4.04082">
        <ele>160</ele>
        <time>2011-02-27T15:16:58Z</time>
      </trkpt>
      <trkpt lat="43.98674" lon="4.04075">
        <ele>160</ele>
        <time>2011-02-27T15:16:59Z</time>
      </trkpt>
      <trkpt lat="43.98676" lon="4.04068">
        <ele>160</ele>
        <time>2011-02-27T15:17:00Z</time>
      </trkpt>
      <trkpt lat="43.98677" lon="4.04061">
        <ele>161</ele>
        <time>2011-02-27T15:17:01Z</time>
      </trkpt>
      <trkpt lat="43.98679" lon="4.04053">
        <ele>161</ele>
        <time>2011-02-27T15:17:02Z</time>
      </trkpt>
      <trkpt lat="43.9868" lon="4.04045">
        <ele>161</ele>
        <time>2011-02-27T15:17:03Z</time>
      </trkpt>
      <trkpt lat="43.98682" lon="4.04037">
        <ele>161</ele>
        <time>2011-02-27T15:17:04Z</time>
      </trkpt>
      <trkpt lat="43.98683" lon="4.04029">
        <ele>161</ele>
        <time>2011-02-27T15:17:05Z</time>
      </trkpt>
      <trkpt lat="43.98685" lon="4.04021">
        <ele>160</ele>
        <time>2011-02-27T15:17:06Z</time>
      </trkpt>
      <trkpt lat="43.98686" lon="4.04013">
        <ele>160</ele>
        <time>2011-02-27T15:17:07Z</time>
      </trkpt>
      <trkpt lat="43.98687" lon="4.04005">
        <ele>160</ele>
        <time>2011-02-27T15:17:08Z</time>
      </trkpt>
      <trkpt lat="43.98688" lon="4.03997">
        <ele>160</ele>
        <time>2011-02-27T15:17:09Z</time>
      </trkpt>
      <trkpt lat="43.9869" lon="4.03989">
        <ele>159</ele>
        <time>2011-02-27T15:17:10Z</time>
      </trkpt>
      <trkpt lat="43.98691" lon="4.03982">
        <ele>160</ele>
        <time>2011-02-27T15:17:11Z</time>
      </trkpt>
      <trkpt lat="43.98692" lon="4.03975">
        <ele>160</ele>
        <time>2011-02-27T15:17:12Z</time>
      </trkpt>
      <trkpt lat="43.98693" lon="4.03968">
        <ele>160</ele>
        <time>2011-02-27T15:17:13Z</time>
      </trkpt>
      <trkpt lat="43.98694" lon="4.03961">
        <ele>160</ele>
        <time>2011-02-27T15:17:14Z</time>
      </trkpt>
      <trkpt lat="43.98696" lon="4.03954">
        <ele>160</ele>
        <time>2011-02-27T15:17:15Z</time>
      </trkpt>
      <trkpt lat="43.98697" lon="4.03947">
        <ele>160</ele>
        <time>2011-02-27T15:17:16Z</time>
      </trkpt>
      <trkpt lat="43.98698" lon="4.0394">
        <ele>160</ele>
        <time>2011-02-27T15:17:17Z</time>
      </trkpt>
      <trkpt lat="43.987" lon="4.03934">
        <ele>160</ele>
        <time>2011-02-27T15:17:18Z</time>
      </trkpt>
      <trkpt lat="43.98701" lon="4.03928">
        <ele>160</ele>
        <time>2011-02-27T15:17:19Z</time>
      </trkpt>
      <trkpt lat="43.98704" lon="4.03917">
        <ele>161</ele>
        <time>2011-02-27T15:17:21Z</time>
      </trkpt>
      <trkpt lat="43.98708" lon="4.03906">
        <ele>161</ele>
        <time>2011-02-27T15:17:23Z</time>
      </trkpt>
      <trkpt lat="43.98711" lon="4.03897">
        <ele>161</ele>
        <time>2011-02-27T15:17:25Z</time>
      </trkpt>
      <trkpt lat="43.98714" lon="4.03887">
        <ele>161</ele>
        <time>2011-02-27T15:17:27Z</time>
      </trkpt>
      <trkpt lat="43.98717" lon="4.03877">
        <ele>161</ele>
        <time>2011-02-27T15:17:29Z</time>
      </trkpt>
      <trkpt lat="43.9872" lon="4.03868">
        <ele>161</ele>
        <time>2011-02-27T15:17:31Z</time>
      </trkpt>
      <trkpt lat="43.98722" lon="4.03858">
        <ele>162</ele>
        <time>2011-02-27T15:17:33Z</time>
      </trkpt>
      <trkpt lat="43.98725" lon="4.03849">
        <ele>162</ele>
        <time>2011-02-27T15:17:35Z</time>
      </trkpt>
      <trkpt lat="43.98728" lon="4.03839">
        <ele>162</ele>
        <time>2011-02-27T15:17:37Z</time>
      </trkpt>
      <trkpt lat="43.98731" lon="4.03828">
        <ele>162</ele>
        <time>2011-02-27T15:17:39Z</time>
      </trkpt>
      <trkpt lat="43.98733" lon="4.03821">
        <ele>162</ele>
        <time>2011-02-27T15:17:40Z</time>
      </trkpt>
      <trkpt lat="43.98734" lon="4.03815">
        <ele>162</ele>
        <time>2011-02-27T15:17:41Z</time>
      </trkpt>
      <trkpt lat="43.98736" lon="4.03809">
        <ele>162</ele>
        <time>2011-02-27T15:17:42Z</time>
      </trkpt>
      <trkpt lat="43.98737" lon="4.03802">
        <ele>162</ele>
        <time>2011-02-27T15:17:43Z</time>
      </trkpt>
      <trkpt lat="43.98739" lon="4.03796">
        <ele>162</ele>
        <time>2011-02-27T15:17:44Z</time>
      </trkpt>
      <trkpt lat="43.9874" lon="4.0379">
        <ele>162</ele>
        <time>2011-02-27T15:17:45Z</time>
      </trkpt>
      <trkpt lat="43.98742" lon="4.03783">
        <ele>162</ele>
        <time>2011-02-27T15:17:46Z</time>
      </trkpt>
      <trkpt lat="43.98743" lon="4.03777">
        <ele>162</ele>
        <time>2011-02-27T15:17:47Z</time>
      </trkpt>
      <trkpt lat="43.98745" lon="4.03765">
        <ele>162</ele>
        <time>2011-02-27T15:17:49Z</time>
      </trkpt>
      <trkpt lat="43.98747" lon="4.03754">
        <ele>162</ele>
        <time>2011-02-27T15:17:51Z</time>
      </trkpt>
      <trkpt lat="43.98749" lon="4.03743">
        <ele>163</ele>
        <time>2011-02-27T15:17:53Z</time>
      </trkpt>
      <trkpt lat="43.9875" lon="4.03737">
        <ele>163</ele>
        <time>2011-02-27T15:17:54Z</time>
      </trkpt>
      <trkpt lat="43.98753" lon="4.03726">
        <ele>162</ele>
        <time>2011-02-27T15:17:56Z</time>
      </trkpt>
      <trkpt lat="43.98755" lon="4.0372">
        <ele>162</ele>
        <time>2011-02-27T15:17:57Z</time>
      </trkpt>
      <trkpt lat="43.98758" lon="4.03716">
        <ele>162</ele>
        <time>2011-02-27T15:17:58Z</time>
      </trkpt>
      <trkpt lat="43.98762" lon="4.03712">
        <ele>163</ele>
        <time>2011-02-27T15:17:59Z</time>
      </trkpt>
      <trkpt lat="43.98767" lon="4.0371">
        <ele>163</ele>
        <time>2011-02-27T15:18:00Z</time>
      </trkpt>
      <trkpt lat="43.98771" lon="4.03708">
        <ele>163</ele>
        <time>2011-02-27T15:18:01Z</time>
      </trkpt>
      <trkpt lat="43.98775" lon="4.03706">
        <ele>163</ele>
        <time>2011-02-27T15:18:02Z</time>
      </trkpt>
      <trkpt lat="43.98784" lon="4.03703">
        <ele>163</ele>
        <time>2011-02-27T15:18:04Z</time>
      </trkpt>
      <trkpt lat="43.98793" lon="4.03701">
        <ele>163</ele>
        <time>2011-02-27T15:18:06Z</time>
      </trkpt>
      <trkpt lat="43.98801" lon="4.03699">
        <ele>163</ele>
        <time>2011-02-27T15:18:08Z</time>
      </trkpt>
      <trkpt lat="43.9881" lon="4.03696">
        <ele>163</ele>
        <time>2011-02-27T15:18:10Z</time>
      </trkpt>
      <trkpt lat="43.98814" lon="4.03695">
        <ele>163</ele>
        <time>2011-02-27T15:18:11Z</time>
      </trkpt>
      <trkpt lat="43.98822" lon="4.03693">
        <ele>163</ele>
        <time>2011-02-27T15:18:13Z</time>
      </trkpt>
      <trkpt lat="43.98829" lon="4.03691">
        <ele>163</ele>
        <time>2011-02-27T15:18:15Z</time>
      </trkpt>
      <trkpt lat="43.98837" lon="4.03688">
        <ele>163</ele>
        <time>2011-02-27T15:18:17Z</time>
      </trkpt>
      <trkpt lat="43.9884" lon="4.03687">
        <ele>163</ele>
        <time>2011-02-27T15:18:18Z</time>
      </trkpt>
      <trkpt lat="43.98848" lon="4.03685">
        <ele>163</ele>
        <time>2011-02-27T15:18:20Z</time>
      </trkpt>
      <trkpt lat="43.98856" lon="4.03682">
        <ele>163</ele>
        <time>2011-02-27T15:18:22Z</time>
      </trkpt>
      <trkpt lat="43.98864" lon="4.03679">
        <ele>163</ele>
        <time>2011-02-27T15:18:24Z</time>
      </trkpt>
      <trkpt lat="43.98872" lon="4.03677">
        <ele>164</ele>
        <time>2011-02-27T15:18:26Z</time>
      </trkpt>
      <trkpt lat="43.9888" lon="4.03674">
        <ele>164</ele>
        <time>2011-02-27T15:18:28Z</time>
      </trkpt>
      <trkpt lat="43.98884" lon="4.03673">
        <ele>164</ele>
        <time>2011-02-27T15:18:29Z</time>
      </trkpt>
      <trkpt lat="43.98892" lon="4.0367">
        <ele>164</ele>
        <time>2011-02-27T15:18:31Z</time>
      </trkpt>
      <trkpt lat="43.989" lon="4.03667">
        <ele>164</ele>
        <time>2011-02-27T15:18:33Z</time>
      </trkpt>
      <trkpt lat="43.98908" lon="4.03665">
        <ele>164</ele>
        <time>2011-02-27T15:18:35Z</time>
      </trkpt>
      <trkpt lat="43.98916" lon="4.03663">
        <ele>164</ele>
        <time>2011-02-27T15:18:37Z</time>
      </trkpt>
      <trkpt lat="43.98924" lon="4.0366">
        <ele>164</ele>
        <time>2011-02-27T15:18:39Z</time>
      </trkpt>
      <trkpt lat="43.98931" lon="4.03657">
        <ele>164</ele>
        <time>2011-02-27T15:18:41Z</time>
      </trkpt>
      <trkpt lat="43.98939" lon="4.03654">
        <ele>165</ele>
        <time>2011-02-27T15:18:43Z</time>
      </trkpt>
      <trkpt lat="43.98943" lon="4.03652">
        <ele>165</ele>
        <time>2011-02-27T15:18:44Z</time>
      </trkpt>
      <trkpt lat="43.9895" lon="4.03648">
        <ele>165</ele>
        <time>2011-02-27T15:18:46Z</time>
      </trkpt>
      <trkpt lat="43.98958" lon="4.03644">
        <ele>165</ele>
        <time>2011-02-27T15:18:48Z</time>
      </trkpt>
      <trkpt lat="43.98965" lon="4.0364">
        <ele>165</ele>
        <time>2011-02-27T15:18:50Z</time>
      </trkpt>
      <trkpt lat="43.98972" lon="4.03635">
        <ele>165</ele>
        <time>2011-02-27T15:18:52Z</time>
      </trkpt>
      <trkpt lat="43.98976" lon="4.03633">
        <ele>165</ele>
        <time>2011-02-27T15:18:53Z</time>
      </trkpt>
      <trkpt lat="43.98984" lon="4.0363">
        <ele>165</ele>
        <time>2011-02-27T15:18:55Z</time>
      </trkpt>
      <trkpt lat="43.98992" lon="4.03628">
        <ele>166</ele>
        <time>2011-02-27T15:18:57Z</time>
      </trkpt>
      <trkpt lat="43.99001" lon="4.03626">
        <ele>166</ele>
        <time>2011-02-27T15:18:59Z</time>
      </trkpt>
      <trkpt lat="43.99006" lon="4.03625">
        <ele>166</ele>
        <time>2011-02-27T15:19:00Z</time>
      </trkpt>
      <trkpt lat="43.9901" lon="4.03624">
        <ele>166</ele>
        <time>2011-02-27T15:19:01Z</time>
      </trkpt>
      <trkpt lat="43.99015" lon="4.03623">
        <ele>166</ele>
        <time>2011-02-27T15:19:02Z</time>
      </trkpt>
      <trkpt lat="43.99019" lon="4.03622">
        <ele>167</ele>
        <time>2011-02-27T15:19:03Z</time>
      </trkpt>
      <trkpt lat="43.99028" lon="4.0362">
        <ele>167</ele>
        <time>2011-02-27T15:19:05Z</time>
      </trkpt>
      <trkpt lat="43.99032" lon="4.03619">
        <ele>168</ele>
        <time>2011-02-27T15:19:06Z</time>
      </trkpt>
      <trkpt lat="43.99037" lon="4.03618">
        <ele>168</ele>
        <time>2011-02-27T15:19:07Z</time>
      </trkpt>
      <trkpt lat="43.99041" lon="4.03617">
        <ele>168</ele>
        <time>2011-02-27T15:19:08Z</time>
      </trkpt>
      <trkpt lat="43.99046" lon="4.03616">
        <ele>169</ele>
        <time>2011-02-27T15:19:09Z</time>
      </trkpt>
      <trkpt lat="43.9905" lon="4.03615">
        <ele>169</ele>
        <time>2011-02-27T15:19:10Z</time>
      </trkpt>
      <trkpt lat="43.99055" lon="4.03614">
        <ele>169</ele>
        <time>2011-02-27T15:19:11Z</time>
      </trkpt>
      <trkpt lat="43.99063" lon="4.03612">
        <ele>169</ele>
        <time>2011-02-27T15:19:13Z</time>
      </trkpt>
      <trkpt lat="43.99071" lon="4.0361">
        <ele>170</ele>
        <time>2011-02-27T15:19:15Z</time>
      </trkpt>
      <trkpt lat="43.9908" lon="4.03607">
        <ele>170</ele>
        <time>2011-02-27T15:19:17Z</time>
      </trkpt>
      <trkpt lat="43.99089" lon="4.03605">
        <ele>171</ele>
        <time>2011-02-27T15:19:19Z</time>
      </trkpt>
      <trkpt lat="43.99097" lon="4.03603">
        <ele>171</ele>
        <time>2011-02-27T15:19:21Z</time>
      </trkpt>
      <trkpt lat="43.99106" lon="4.03602">
        <ele>171</ele>
        <time>2011-02-27T15:19:23Z</time>
      </trkpt>
      <trkpt lat="43.99115" lon="4.036">
        <ele>171</ele>
        <time>2011-02-27T15:19:25Z</time>
      </trkpt>
      <trkpt lat="43.99124" lon="4.03598">
        <ele>171</ele>
        <time>2011-02-27T15:19:27Z</time>
      </trkpt>
      <trkpt lat="43.99128" lon="4.03596">
        <ele>171</ele>
        <time>2011-02-27T15:19:28Z</time>
      </trkpt>
      <trkpt lat="43.99137" lon="4.03594">
        <ele>171</ele>
        <time>2011-02-27T15:19:30Z</time>
      </trkpt>
      <trkpt lat="43.99146" lon="4.03592">
        <ele>171</ele>
        <time>2011-02-27T15:19:32Z</time>
      </trkpt>
      <trkpt lat="43.99154" lon="4.0359">
        <ele>171</ele>
        <time>2011-02-27T15:19:34Z</time>
      </trkpt>
      <trkpt lat="43.99159" lon="4.03589">
        <ele>171</ele>
        <time>2011-02-27T15:19:35Z</time>
      </trkpt>
      <trkpt lat="43.99168" lon="4.03587">
        <ele>171</ele>
        <time>2011-02-27T15:19:37Z</time>
      </trkpt>
      <trkpt lat="43.99172" lon="4.03586">
        <ele>171</ele>
        <time>2011-02-27T15:19:38Z</time>
      </trkpt>
      <trkpt lat="43.99181" lon="4.03584">
        <ele>171</ele>
        <time>2011-02-27T15:19:40Z</time>
      </trkpt>
      <trkpt lat="43.9919" lon="4.03582">
        <ele>171</ele>
        <time>2011-02-27T15:19:42Z</time>
      </trkpt>
      <trkpt lat="43.99198" lon="4.0358">
        <ele>172</ele>
        <time>2011-02-27T15:19:44Z</time>
      </trkpt>
      <trkpt lat="43.99207" lon="4.03578">
        <ele>171</ele>
        <time>2011-02-27T15:19:46Z</time>
      </trkpt>
      <trkpt lat="43.99215" lon="4.03576">
        <ele>171</ele>
        <time>2011-02-27T15:19:48Z</time>
      </trkpt>
      <trkpt lat="43.99223" lon="4.03574">
        <ele>171</ele>
        <time>2011-02-27T15:19:50Z</time>
      </trkpt>
      <trkpt lat="43.99231" lon="4.03572">
        <ele>171</ele>
        <time>2011-02-27T15:19:52Z</time>
      </trkpt>
      <trkpt lat="43.99237" lon="4.0357">
        <ele>170</ele>
        <time>2011-02-27T15:19:54Z</time>
      </trkpt>
      <trkpt lat="43.9924" lon="4.03569">
        <ele>170</ele>
        <time>2011-02-27T15:19:55Z</time>
      </trkpt>
      <trkpt lat="43.99246" lon="4.03567">
        <ele>171</ele>
        <time>2011-02-27T15:19:57Z</time>
      </trkpt>
      <trkpt lat="43.99251" lon="4.03563">
        <ele>171</ele>
        <time>2011-02-27T15:19:59Z</time>
      </trkpt>
      <trkpt lat="43.99253" lon="4.0356">
        <ele>171</ele>
        <time>2011-02-27T15:20:00Z</time>
      </trkpt>
      <trkpt lat="43.99255" lon="4.03553">
        <ele>171</ele>
        <time>2011-02-27T15:20:02Z</time>
      </trkpt>
      <trkpt lat="43.99256" lon="4.03545">
        <ele>171</ele>
        <time>2011-02-27T15:20:04Z</time>
      </trkpt>
      <trkpt lat="43.99257" lon="4.03535">
        <ele>171</ele>
        <time>2011-02-27T15:20:06Z</time>
      </trkpt>
      <trkpt lat="43.99257" lon="4.03523">
        <ele>171</ele>
        <time>2011-02-27T15:20:08Z</time>
      </trkpt>
      <trkpt lat="43.99257" lon="4.03516">
        <ele>171</ele>
        <time>2011-02-27T15:20:09Z</time>
      </trkpt>
      <trkpt lat="43.99258" lon="4.0351">
        <ele>171</ele>
        <time>2011-02-27T15:20:10Z</time>
      </trkpt>
      <trkpt lat="43.99258" lon="4.03497">
        <ele>171</ele>
        <time>2011-02-27T15:20:12Z</time>
      </trkpt>
      <trkpt lat="43.99257" lon="4.03486">
        <ele>172</ele>
        <time>2011-02-27T15:20:14Z</time>
      </trkpt>
      <trkpt lat="43.99256" lon="4.03477">
        <ele>172</ele>
        <time>2011-02-27T15:20:16Z</time>
      </trkpt>
      <trkpt lat="43.99255" lon="4.03468">
        <ele>172</ele>
        <time>2011-02-27T15:20:18Z</time>
      </trkpt>
      <trkpt lat="43.99255" lon="4.03459">
        <ele>172</ele>
        <time>2011-02-27T15:20:20Z</time>
      </trkpt>
      <trkpt lat="43.99253" lon="4.0345">
        <ele>173</ele>
        <time>2011-02-27T15:20:22Z</time>
      </trkpt>
      <trkpt lat="43.99251" lon="4.03441">
        <ele>174</ele>
        <time>2011-02-27T15:20:24Z</time>
      </trkpt>
      <trkpt lat="43.99247" lon="4.03432">
        <ele>175</ele>
        <time>2011-02-27T15:20:26Z</time>
      </trkpt>
      <trkpt lat="43.99243" lon="4.03424">
        <ele>176</ele>
        <time>2011-02-27T15:20:28Z</time>
      </trkpt>
      <trkpt lat="43.9924" lon="4.03415">
        <ele>178</ele>
        <time>2011-02-27T15:20:30Z</time>
      </trkpt>
      <trkpt lat="43.99237" lon="4.03404">
        <ele>179</ele>
        <time>2011-02-27T15:20:32Z</time>
      </trkpt>
      <trkpt lat="43.99236" lon="4.03398">
        <ele>180</ele>
        <time>2011-02-27T15:20:33Z</time>
      </trkpt>
      <trkpt lat="43.99236" lon="4.03392">
        <ele>180</ele>
        <time>2011-02-27T15:20:34Z</time>
      </trkpt>
      <trkpt lat="43.99237" lon="4.03385">
        <ele>180</ele>
        <time>2011-02-27T15:20:35Z</time>
      </trkpt>
      <trkpt lat="43.9924" lon="4.03378">
        <ele>179</ele>
        <time>2011-02-27T15:20:36Z</time>
      </trkpt>
      <trkpt lat="43.99244" lon="4.03371">
        <ele>178</ele>
        <time>2011-02-27T15:20:37Z</time>
      </trkpt>
      <trkpt lat="43.99249" lon="4.03365">
        <ele>178</ele>
        <time>2011-02-27T15:20:38Z</time>
      </trkpt>
      <trkpt lat="43.99254" lon="4.03359">
        <ele>177</ele>
        <time>2011-02-27T15:20:39Z</time>
      </trkpt>
      <trkpt lat="43.99259" lon="4.03354">
        <ele>176</ele>
        <time>2011-02-27T15:20:40Z</time>
      </trkpt>
      <trkpt lat="43.99264" lon="4.03349">
        <ele>176</ele>
        <time>2011-02-27T15:20:41Z</time>
      </trkpt>
      <trkpt lat="43.99269" lon="4.03345">
        <ele>175</ele>
        <time>2011-02-27T15:20:42Z</time>
      </trkpt>
      <trkpt lat="43.99274" lon="4.03342">
        <ele>175</ele>
        <time>2011-02-27T15:20:43Z</time>
      </trkpt>
      <trkpt lat="43.99278" lon="4.03339">
        <ele>174</ele>
        <time>2011-02-27T15:20:44Z</time>
      </trkpt>
      <trkpt lat="43.99283" lon="4.03336">
        <ele>174</ele>
        <time>2011-02-27T15:20:45Z</time>
      </trkpt>
      <trkpt lat="43.99287" lon="4.03333">
        <ele>173</ele>
        <time>2011-02-27T15:20:46Z</time>
      </trkpt>
      <trkpt lat="43.99291" lon="4.03331">
        <ele>173</ele>
        <time>2011-02-27T15:20:47Z</time>
      </trkpt>
      <trkpt lat="43.99299" lon="4.03326">
        <ele>172</ele>
        <time>2011-02-27T15:20:49Z</time>
      </trkpt>
      <trkpt lat="43.99307" lon="4.03322">
        <ele>172</ele>
        <time>2011-02-27T15:20:51Z</time>
      </trkpt>
      <trkpt lat="43.99315" lon="4.03318">
        <ele>171</ele>
        <time>2011-02-27T15:20:53Z</time>
      </trkpt>
      <trkpt lat="43.99322" lon="4.03315">
        <ele>171</ele>
        <time>2011-02-27T15:20:55Z</time>
      </trkpt>
      <trkpt lat="43.99329" lon="4.03311">
        <ele>171</ele>
        <time>2011-02-27T15:20:57Z</time>
      </trkpt>
      <trkpt lat="43.99337" lon="4.03308">
        <ele>171</ele>
        <time>2011-02-27T15:20:59Z</time>
      </trkpt>
      <trkpt lat="43.99341" lon="4.03306">
        <ele>171</ele>
        <time>2011-02-27T15:21:00Z</time>
      </trkpt>
      <trkpt lat="43.99349" lon="4.03303">
        <ele>171</ele>
        <time>2011-02-27T15:21:02Z</time>
      </trkpt>
      <trkpt lat="43.99357" lon="4.033">
        <ele>171</ele>
        <time>2011-02-27T15:21:04Z</time>
      </trkpt>
      <trkpt lat="43.99365" lon="4.03297">
        <ele>170</ele>
        <time>2011-02-27T15:21:06Z</time>
      </trkpt>
      <trkpt lat="43.99373" lon="4.03294">
        <ele>170</ele>
        <time>2011-02-27T15:21:08Z</time>
      </trkpt>
      <trkpt lat="43.9938" lon="4.03291">
        <ele>170</ele>
        <time>2011-02-27T15:21:10Z</time>
      </trkpt>
      <trkpt lat="43.99388" lon="4.03288">
        <ele>170</ele>
        <time>2011-02-27T15:21:12Z</time>
      </trkpt>
      <trkpt lat="43.99396" lon="4.03285">
        <ele>170</ele>
        <time>2011-02-27T15:21:14Z</time>
      </trkpt>
      <trkpt lat="43.994" lon="4.03284">
        <ele>170</ele>
        <time>2011-02-27T15:21:15Z</time>
      </trkpt>
      <trkpt lat="43.99408" lon="4.03281">
        <ele>170</ele>
        <time>2011-02-27T15:21:17Z</time>
      </trkpt>
      <trkpt lat="43.99416" lon="4.03278">
        <ele>170</ele>
        <time>2011-02-27T15:21:19Z</time>
      </trkpt>
      <trkpt lat="43.9942" lon="4.03276">
        <ele>170</ele>
        <time>2011-02-27T15:21:20Z</time>
      </trkpt>
      <trkpt lat="43.99428" lon="4.03273">
        <ele>170</ele>
        <time>2011-02-27T15:21:22Z</time>
      </trkpt>
      <trkpt lat="43.99436" lon="4.0327">
        <ele>170</ele>
        <time>2011-02-27T15:21:24Z</time>
      </trkpt>
      <trkpt lat="43.9944" lon="4.03269">
        <ele>170</ele>
        <time>2011-02-27T15:21:25Z</time>
      </trkpt>
      <trkpt lat="43.99447" lon="4.03266">
        <ele>170</ele>
        <time>2011-02-27T15:21:27Z</time>
      </trkpt>
      <trkpt lat="43.99455" lon="4.03263">
        <ele>170</ele>
        <time>2011-02-27T15:21:29Z</time>
      </trkpt>
      <trkpt lat="43.99463" lon="4.03259">
        <ele>170</ele>
        <time>2011-02-27T15:21:31Z</time>
      </trkpt>
      <trkpt lat="43.9947" lon="4.03256">
        <ele>170</ele>
        <time>2011-02-27T15:21:33Z</time>
      </trkpt>
      <trkpt lat="43.99478" lon="4.03253">
        <ele>170</ele>
        <time>2011-02-27T15:21:35Z</time>
      </trkpt>
      <trkpt lat="43.99485" lon="4.0325">
        <ele>170</ele>
        <time>2011-02-27T15:21:37Z</time>
      </trkpt>
      <trkpt lat="43.99492" lon="4.03247">
        <ele>170</ele>
        <time>2011-02-27T15:21:39Z</time>
      </trkpt>
      <trkpt lat="43.99498" lon="4.03245">
        <ele>171</ele>
        <time>2011-02-27T15:21:41Z</time>
      </trkpt>
      <trkpt lat="43.99505" lon="4.03242">
        <ele>171</ele>
        <time>2011-02-27T15:21:43Z</time>
      </trkpt>
      <trkpt lat="43.99511" lon="4.03239">
        <ele>172</ele>
        <time>2011-02-27T15:21:45Z</time>
      </trkpt>
      <trkpt lat="43.99516" lon="4.03237">
        <ele>171</ele>
        <time>2011-02-27T15:21:47Z</time>
      </trkpt>
      <trkpt lat="43.99521" lon="4.03234">
        <ele>172</ele>
        <time>2011-02-27T15:21:49Z</time>
      </trkpt>
      <trkpt lat="43.99525" lon="4.03232">
        <ele>172</ele>
        <time>2011-02-27T15:21:51Z</time>
      </trkpt>
      <trkpt lat="43.99532" lon="4.03231">
        <ele>172</ele>
        <time>2011-02-27T15:21:54Z</time>
      </trkpt>
      <trkpt lat="43.99536" lon="4.03234">
        <ele>172</ele>
        <time>2011-02-27T15:21:56Z</time>
      </trkpt>
      <trkpt lat="43.9954" lon="4.03238">
        <ele>172</ele>
        <time>2011-02-27T15:21:58Z</time>
      </trkpt>
      <trkpt lat="43.99544" lon="4.03243">
        <ele>172</ele>
        <time>2011-02-27T15:22:00Z</time>
      </trkpt>
      <trkpt lat="43.99547" lon="4.03245">
        <ele>173</ele>
        <time>2011-02-27T15:22:01Z</time>
      </trkpt>
      <trkpt lat="43.99552" lon="4.03251">
        <ele>173</ele>
        <time>2011-02-27T15:22:03Z</time>
      </trkpt>
      <trkpt lat="43.99557" lon="4.03256">
        <ele>174</ele>
        <time>2011-02-27T15:22:05Z</time>
      </trkpt>
      <trkpt lat="43.99562" lon="4.03262">
        <ele>174</ele>
        <time>2011-02-27T15:22:07Z</time>
      </trkpt>
      <trkpt lat="43.99567" lon="4.03267">
        <ele>174</ele>
        <time>2011-02-27T15:22:09Z</time>
      </trkpt>
      <trkpt lat="43.9957" lon="4.03269">
        <ele>175</ele>
        <time>2011-02-27T15:22:10Z</time>
      </trkpt>
      <trkpt lat="43.99575" lon="4.03275">
        <ele>176</ele>
        <time>2011-02-27T15:22:12Z</time>
      </trkpt>
      <trkpt lat="43.9958" lon="4.0328">
        <ele>176</ele>
        <time>2011-02-27T15:22:14Z</time>
      </trkpt>
      <trkpt lat="43.99586" lon="4.03286">
        <ele>176</ele>
        <time>2011-02-27T15:22:16Z</time>
      </trkpt>
      <trkpt lat="43.99591" lon="4.03292">
        <ele>176</ele>
        <time>2011-02-27T15:22:18Z</time>
      </trkpt>
      <trkpt lat="43.99597" lon="4.03297">
        <ele>177</ele>
        <time>2011-02-27T15:22:20Z</time>
      </trkpt>
      <trkpt lat="43.99603" lon="4.03302">
        <ele>178</ele>
        <time>2011-02-27T15:22:22Z</time>
      </trkpt>
      <trkpt lat="43.99606" lon="4.03304">
        <ele>179</ele>
        <time>2011-02-27T15:22:23Z</time>
      </trkpt>
      <trkpt lat="43.99612" lon="4.03309">
        <ele>179</ele>
        <time>2011-02-27T15:22:25Z</time>
      </trkpt>
      <trkpt lat="43.99618" lon="4.03314">
        <ele>180</ele>
        <time>2011-02-27T15:22:27Z</time>
      </trkpt>
      <trkpt lat="43.99623" lon="4.0332">
        <ele>181</ele>
        <time>2011-02-27T15:22:29Z</time>
      </trkpt>
      <trkpt lat="43.99628" lon="4.03326">
        <ele>182</ele>
        <time>2011-02-27T15:22:31Z</time>
      </trkpt>
      <trkpt lat="43.99634" lon="4.03332">
        <ele>183</ele>
        <time>2011-02-27T15:22:33Z</time>
      </trkpt>
      <trkpt lat="43.99636" lon="4.03335">
        <ele>183</ele>
        <time>2011-02-27T15:22:34Z</time>
      </trkpt>
      <trkpt lat="43.99639" lon="4.03338">
        <ele>183</ele>
        <time>2011-02-27T15:22:35Z</time>
      </trkpt>
      <trkpt lat="43.99644" lon="4.03344">
        <ele>183</ele>
        <time>2011-02-27T15:22:37Z</time>
      </trkpt>
      <trkpt lat="43.99649" lon="4.03351">
        <ele>184</ele>
        <time>2011-02-27T15:22:39Z</time>
      </trkpt>
      <trkpt lat="43.99655" lon="4.03357">
        <ele>184</ele>
        <time>2011-02-27T15:22:41Z</time>
      </trkpt>
      <trkpt lat="43.9966" lon="4.03364">
        <ele>184</ele>
        <time>2011-02-27T15:22:43Z</time>
      </trkpt>
      <trkpt lat="43.99665" lon="4.0337">
        <ele>184</ele>
        <time>2011-02-27T15:22:45Z</time>
      </trkpt>
      <trkpt lat="43.99671" lon="4.03377">
        <ele>184</ele>
        <time>2011-02-27T15:22:47Z</time>
      </trkpt>
      <trkpt lat="43.99673" lon="4.0338">
        <ele>184</ele>
        <time>2011-02-27T15:22:48Z</time>
      </trkpt>
      <trkpt lat="43.99678" lon="4.03386">
        <ele>184</ele>
        <time>2011-02-27T15:22:50Z</time>
      </trkpt>
      <trkpt lat="43.99684" lon="4.03392">
        <ele>184</ele>
        <time>2011-02-27T15:22:52Z</time>
      </trkpt>
      <trkpt lat="43.9969" lon="4.03397">
        <ele>184</ele>
        <time>2011-02-27T15:22:54Z</time>
      </trkpt>
      <trkpt lat="43.99696" lon="4.03401">
        <ele>185</ele>
        <time>2011-02-27T15:22:56Z</time>
      </trkpt>
      <trkpt lat="43.99701" lon="4.03404">
        <ele>185</ele>
        <time>2011-02-27T15:22:58Z</time>
      </trkpt>
      <trkpt lat="43.99706" lon="4.03407">
        <ele>186</ele>
        <time>2011-02-27T15:23:00Z</time>
      </trkpt>
      <trkpt lat="43.99711" lon="4.03411">
        <ele>186</ele>
        <time>2011-02-27T15:23:02Z</time>
      </trkpt>
      <trkpt lat="43.99716" lon="4.03415">
        <ele>186</ele>
        <time>2011-02-27T15:23:04Z</time>
      </trkpt>
      <trkpt lat="43.9972" lon="4.0342">
        <ele>187</ele>
        <time>2011-02-27T15:23:06Z</time>
      </trkpt>
      <trkpt lat="43.99724" lon="4.03424">
        <ele>188</ele>
        <time>2011-02-27T15:23:08Z</time>
      </trkpt>
      <trkpt lat="43.99727" lon="4.03429">
        <ele>189</ele>
        <time>2011-02-27T15:23:10Z</time>
      </trkpt>
      <trkpt lat="43.99732" lon="4.03435">
        <ele>190</ele>
        <time>2011-02-27T15:23:13Z</time>
      </trkpt>
      <trkpt lat="43.99737" lon="4.03441">
        <ele>191</ele>
        <time>2011-02-27T15:23:16Z</time>
      </trkpt>
      <trkpt lat="43.99742" lon="4.03446">
        <ele>192</ele>
        <time>2011-02-27T15:23:18Z</time>
      </trkpt>
      <trkpt lat="43.99746" lon="4.03451">
        <ele>193</ele>
        <time>2011-02-27T15:23:20Z</time>
      </trkpt>
      <trkpt lat="43.99751" lon="4.03457">
        <ele>193</ele>
        <time>2011-02-27T15:23:22Z</time>
      </trkpt>
      <trkpt lat="43.99756" lon="4.03463">
        <ele>194</ele>
        <time>2011-02-27T15:23:24Z</time>
      </trkpt>
      <trkpt lat="43.99761" lon="4.0347">
        <ele>194</ele>
        <time>2011-02-27T15:23:26Z</time>
      </trkpt>
      <trkpt lat="43.99763" lon="4.03473">
        <ele>195</ele>
        <time>2011-02-27T15:23:27Z</time>
      </trkpt>
      <trkpt lat="43.99768" lon="4.03478">
        <ele>195</ele>
        <time>2011-02-27T15:23:29Z</time>
      </trkpt>
      <trkpt lat="43.99773" lon="4.03484">
        <ele>196</ele>
        <time>2011-02-27T15:23:31Z</time>
      </trkpt>
      <trkpt lat="43.99777" lon="4.0349">
        <ele>196</ele>
        <time>2011-02-27T15:23:33Z</time>
      </trkpt>
      <trkpt lat="43.99781" lon="4.03497">
        <ele>195</ele>
        <time>2011-02-27T15:23:35Z</time>
      </trkpt>
      <trkpt lat="43.99785" lon="4.03503">
        <ele>196</ele>
        <time>2011-02-27T15:23:37Z</time>
      </trkpt>
      <trkpt lat="43.99788" lon="4.03509">
        <ele>197</ele>
        <time>2011-02-27T15:23:39Z</time>
      </trkpt>
      <trkpt lat="43.99792" lon="4.03516">
        <ele>197</ele>
        <time>2011-02-27T15:23:42Z</time>
      </trkpt>
      <trkpt lat="43.99795" lon="4.03521">
        <ele>197</ele>
        <time>2011-02-27T15:23:44Z</time>
      </trkpt>
      <trkpt lat="43.99797" lon="4.03527">
        <ele>198</ele>
        <time>2011-02-27T15:23:46Z</time>
      </trkpt>
      <trkpt lat="43.998" lon="4.03534">
        <ele>198</ele>
        <time>2011-02-27T15:23:49Z</time>
      </trkpt>
      <trkpt lat="43.998" lon="4.03536">
        <ele>198</ele>
        <time>2011-02-27T15:23:50Z</time>
      </trkpt>
      <trkpt lat="43.99802" lon="4.03545">
        <ele>195</ele>
        <time>2011-02-27T15:24:03Z</time>
      </trkpt>
      <trkpt lat="43.99803" lon="4.03545">
        <ele>194</ele>
        <time>2011-02-27T15:24:04Z</time>
      </trkpt>
      <trkpt lat="43.99803" lon="4.03545">
        <ele>194</ele>
        <time>2011-02-27T15:24:06Z</time>
      </trkpt>
      <trkpt lat="43.99803" lon="4.03553">
        <ele>191</ele>
        <time>2011-02-27T15:24:21Z</time>
      </trkpt>
      <trkpt lat="43.99803" lon="4.03555">
        <ele>191</ele>
        <time>2011-02-27T15:24:22Z</time>
      </trkpt>
      <trkpt lat="43.99805" lon="4.03563">
        <ele>191</ele>
        <time>2011-02-27T15:24:25Z</time>
      </trkpt>
      <trkpt lat="43.99806" lon="4.03572">
        <ele>192</ele>
        <time>2011-02-27T15:24:28Z</time>
      </trkpt>
      <trkpt lat="43.99807" lon="4.03581">
        <ele>193</ele>
        <time>2011-02-27T15:24:31Z</time>
      </trkpt>
      <trkpt lat="43.99808" lon="4.03588">
        <ele>193</ele>
        <time>2011-02-27T15:24:33Z</time>
      </trkpt>
      <trkpt lat="43.99809" lon="4.03594">
        <ele>193</ele>
        <time>2011-02-27T15:24:35Z</time>
      </trkpt>
      <trkpt lat="43.99812" lon="4.036">
        <ele>193</ele>
        <time>2011-02-27T15:24:37Z</time>
      </trkpt>
      <trkpt lat="43.99815" lon="4.03605">
        <ele>193</ele>
        <time>2011-02-27T15:24:39Z</time>
      </trkpt>
      <trkpt lat="43.99818" lon="4.03611">
        <ele>194</ele>
        <time>2011-02-27T15:24:41Z</time>
      </trkpt>
      <trkpt lat="43.99819" lon="4.03613">
        <ele>194</ele>
        <time>2011-02-27T15:24:42Z</time>
      </trkpt>
      <trkpt lat="43.99823" lon="4.03619">
        <ele>194</ele>
        <time>2011-02-27T15:24:44Z</time>
      </trkpt>
      <trkpt lat="43.99826" lon="4.03626">
        <ele>195</ele>
        <time>2011-02-27T15:24:46Z</time>
      </trkpt>
      <trkpt lat="43.99828" lon="4.03629">
        <ele>195</ele>
        <time>2011-02-27T15:24:47Z</time>
      </trkpt>
      <trkpt lat="43.99831" lon="4.03636">
        <ele>196</ele>
        <time>2011-02-27T15:24:49Z</time>
      </trkpt>
      <trkpt lat="43.99835" lon="4.03643">
        <ele>196</ele>
        <time>2011-02-27T15:24:51Z</time>
      </trkpt>
      <trkpt lat="43.99838" lon="4.03649">
        <ele>196</ele>
        <time>2011-02-27T15:24:53Z</time>
      </trkpt>
      <trkpt lat="43.99842" lon="4.03655">
        <ele>196</ele>
        <time>2011-02-27T15:24:55Z</time>
      </trkpt>
      <trkpt lat="43.99846" lon="4.03661">
        <ele>197</ele>
        <time>2011-02-27T15:24:57Z</time>
      </trkpt>
      <trkpt lat="43.9985" lon="4.03667">
        <ele>197</ele>
        <time>2011-02-27T15:24:59Z</time>
      </trkpt>
      <trkpt lat="43.99854" lon="4.03673">
        <ele>198</ele>
        <time>2011-02-27T15:25:01Z</time>
      </trkpt>
      <trkpt lat="43.99856" lon="4.03676">
        <ele>198</ele>
        <time>2011-02-27T15:25:02Z</time>
      </trkpt>
      <trkpt lat="43.99861" lon="4.03681">
        <ele>198</ele>
        <time>2011-02-27T15:25:04Z</time>
      </trkpt>
      <trkpt lat="43.99863" lon="4.03683">
        <ele>199</ele>
        <time>2011-02-27T15:25:05Z</time>
      </trkpt>
      <trkpt lat="43.99868" lon="4.03688">
        <ele>199</ele>
        <time>2011-02-27T15:25:07Z</time>
      </trkpt>
      <trkpt lat="43.99873" lon="4.03693">
        <ele>199</ele>
        <time>2011-02-27T15:25:09Z</time>
      </trkpt>
      <trkpt lat="43.99877" lon="4.03696">
        <ele>200</ele>
        <time>2011-02-27T15:25:11Z</time>
      </trkpt>
      <trkpt lat="43.99882" lon="4.03699">
        <ele>200</ele>
        <time>2011-02-27T15:25:13Z</time>
      </trkpt>
      <trkpt lat="43.99887" lon="4.03702">
        <ele>201</ele>
        <time>2011-02-27T15:25:15Z</time>
      </trkpt>
      <trkpt lat="43.99892" lon="4.03706">
        <ele>201</ele>
        <time>2011-02-27T15:25:17Z</time>
      </trkpt>
      <trkpt lat="43.99897" lon="4.03711">
        <ele>201</ele>
        <time>2011-02-27T15:25:19Z</time>
      </trkpt>
      <trkpt lat="43.99902" lon="4.03716">
        <ele>201</ele>
        <time>2011-02-27T15:25:21Z</time>
      </trkpt>
      <trkpt lat="43.99907" lon="4.03722">
        <ele>201</ele>
        <time>2011-02-27T15:25:23Z</time>
      </trkpt>
      <trkpt lat="43.99912" lon="4.03727">
        <ele>201</ele>
        <time>2011-02-27T15:25:25Z</time>
      </trkpt>
      <trkpt lat="43.99918" lon="4.03733">
        <ele>201</ele>
        <time>2011-02-27T15:25:27Z</time>
      </trkpt>
      <trkpt lat="43.9992" lon="4.03736">
        <ele>201</ele>
        <time>2011-02-27T15:25:28Z</time>
      </trkpt>
      <trkpt lat="43.99925" lon="4.03743">
        <ele>201</ele>
        <time>2011-02-27T15:25:30Z</time>
      </trkpt>
      <trkpt lat="43.99931" lon="4.0375">
        <ele>202</ele>
        <time>2011-02-27T15:25:32Z</time>
      </trkpt>
      <trkpt lat="43.99939" lon="4.03758">
        <ele>202</ele>
        <time>2011-02-27T15:25:34Z</time>
      </trkpt>
      <trkpt lat="43.99943" lon="4.03762">
        <ele>202</ele>
        <time>2011-02-27T15:25:35Z</time>
      </trkpt>
      <trkpt lat="43.99947" lon="4.03765">
        <ele>202</ele>
        <time>2011-02-27T15:25:36Z</time>
      </trkpt>
      <trkpt lat="43.99952" lon="4.03769">
        <ele>202</ele>
        <time>2011-02-27T15:25:37Z</time>
      </trkpt>
      <trkpt lat="43.99956" lon="4.03772">
        <ele>202</ele>
        <time>2011-02-27T15:25:38Z</time>
      </trkpt>
      <trkpt lat="43.9996" lon="4.03776">
        <ele>201</ele>
        <time>2011-02-27T15:25:39Z</time>
      </trkpt>
      <trkpt lat="43.99964" lon="4.03779">
        <ele>201</ele>
        <time>2011-02-27T15:25:40Z</time>
      </trkpt>
      <trkpt lat="43.99968" lon="4.03783">
        <ele>201</ele>
        <time>2011-02-27T15:25:41Z</time>
      </trkpt>
      <trkpt lat="43.99972" lon="4.03786">
        <ele>201</ele>
        <time>2011-02-27T15:25:42Z</time>
      </trkpt>
      <trkpt lat="43.99977" lon="4.0379">
        <ele>202</ele>
        <time>2011-02-27T15:25:43Z</time>
      </trkpt>
      <trkpt lat="43.99981" lon="4.03793">
        <ele>201</ele>
        <time>2011-02-27T15:25:44Z</time>
      </trkpt>
      <trkpt lat="43.99985" lon="4.03797">
        <ele>201</ele>
        <time>2011-02-27T15:25:45Z</time>
      </trkpt>
      <trkpt lat="43.99989" lon="4.038">
        <ele>201</ele>
        <time>2011-02-27T15:25:46Z</time>
      </trkpt>
      <trkpt lat="43.99994" lon="4.03804">
        <ele>201</ele>
        <time>2011-02-27T15:25:47Z</time>
      </trkpt>
      <trkpt lat="43.99998" lon="4.03807">
        <ele>201</ele>
        <time>2011-02-27T15:25:48Z</time>
      </trkpt>
      <trkpt lat="44.00002" lon="4.0381">
        <ele>201</ele>
        <time>2011-02-27T15:25:49Z</time>
      </trkpt>
      <trkpt lat="44.00007" lon="4.03814">
        <ele>201</ele>
        <time>2011-02-27T15:25:50Z</time>
      </trkpt>
      <trkpt lat="44.00011" lon="4.03818">
        <ele>201</ele>
        <time>2011-02-27T15:25:51Z</time>
      </trkpt>
      <trkpt lat="44.00016" lon="4.03822">
        <ele>201</ele>
        <time>2011-02-27T15:25:52Z</time>
      </trkpt>
      <trkpt lat="44.00021" lon="4.03826">
        <ele>201</ele>
        <time>2011-02-27T15:25:53Z</time>
      </trkpt>
      <trkpt lat="44.00025" lon="4.03831">
        <ele>201</ele>
        <time>2011-02-27T15:25:54Z</time>
      </trkpt>
      <trkpt lat="44.00029" lon="4.03835">
        <ele>201</ele>
        <time>2011-02-27T15:25:55Z</time>
      </trkpt>
      <trkpt lat="44.00033" lon="4.0384">
        <ele>201</ele>
        <time>2011-02-27T15:25:56Z</time>
      </trkpt>
      <trkpt lat="44.00037" lon="4.03845">
        <ele>200</ele>
        <time>2011-02-27T15:25:57Z</time>
      </trkpt>
      <trkpt lat="44.00041" lon="4.0385">
        <ele>201</ele>
        <time>2011-02-27T15:25:58Z</time>
      </trkpt>
      <trkpt lat="44.00044" lon="4.03855">
        <ele>201</ele>
        <time>2011-02-27T15:25:59Z</time>
      </trkpt>
      <trkpt lat="44.00047" lon="4.0386">
        <ele>201</ele>
        <time>2011-02-27T15:26:00Z</time>
      </trkpt>
      <trkpt lat="44.00051" lon="4.03866">
        <ele>201</ele>
        <time>2011-02-27T15:26:01Z</time>
      </trkpt>
      <trkpt lat="44.00054" lon="4.03871">
        <ele>201</ele>
        <time>2011-02-27T15:26:02Z</time>
      </trkpt>
      <trkpt lat="44.00057" lon="4.03876">
        <ele>201</ele>
        <time>2011-02-27T15:26:03Z</time>
      </trkpt>
      <trkpt lat="44.0006" lon="4.03882">
        <ele>201</ele>
        <time>2011-02-27T15:26:04Z</time>
      </trkpt>
      <trkpt lat="44.00064" lon="4.03887">
        <ele>201</ele>
        <time>2011-02-27T15:26:05Z</time>
      </trkpt>
      <trkpt lat="44.00068" lon="4.03894">
        <ele>201</ele>
        <time>2011-02-27T15:26:06Z</time>
      </trkpt>
      <trkpt lat="44.00072" lon="4.039">
        <ele>201</ele>
        <time>2011-02-27T15:26:07Z</time>
      </trkpt>
      <trkpt lat="44.00076" lon="4.03907">
        <ele>201</ele>
        <time>2011-02-27T15:26:08Z</time>
      </trkpt>
      <trkpt lat="44.00081" lon="4.03913">
        <ele>201</ele>
        <time>2011-02-27T15:26:09Z</time>
      </trkpt>
      <trkpt lat="44.00085" lon="4.0392">
        <ele>201</ele>
        <time>2011-02-27T15:26:10Z</time>
      </trkpt>
      <trkpt lat="44.0009" lon="4.03926">
        <ele>201</ele>
        <time>2011-02-27T15:26:11Z</time>
      </trkpt>
      <trkpt lat="44.00095" lon="4.03932">
        <ele>201</ele>
        <time>2011-02-27T15:26:12Z</time>
      </trkpt>
      <trkpt lat="44.001" lon="4.03938">
        <ele>202</ele>
        <time>2011-02-27T15:26:13Z</time>
      </trkpt>
      <trkpt lat="44.00105" lon="4.03943">
        <ele>202</ele>
        <time>2011-02-27T15:26:14Z</time>
      </trkpt>
      <trkpt lat="44.0011" lon="4.03949">
        <ele>202</ele>
        <time>2011-02-27T15:26:15Z</time>
      </trkpt>
      <trkpt lat="44.00116" lon="4.03954">
        <ele>201</ele>
        <time>2011-02-27T15:26:16Z</time>
      </trkpt>
      <trkpt lat="44.00121" lon="4.03959">
        <ele>201</ele>
        <time>2011-02-27T15:26:17Z</time>
      </trkpt>
      <trkpt lat="44.00126" lon="4.03963">
        <ele>201</ele>
        <time>2011-02-27T15:26:18Z</time>
      </trkpt>
      <trkpt lat="44.00131" lon="4.03968">
        <ele>201</ele>
        <time>2011-02-27T15:26:19Z</time>
      </trkpt>
      <trkpt lat="44.00136" lon="4.03972">
        <ele>201</ele>
        <time>2011-02-27T15:26:20Z</time>
      </trkpt>
      <trkpt lat="44.00142" lon="4.03977">
        <ele>201</ele>
        <time>2011-02-27T15:26:21Z</time>
      </trkpt>
      <trkpt lat="44.00147" lon="4.03981">
        <ele>200</ele>
        <time>2011-02-27T15:26:22Z</time>
      </trkpt>
      <trkpt lat="44.00152" lon="4.03985">
        <ele>200</ele>
        <time>2011-02-27T15:26:23Z</time>
      </trkpt>
      <trkpt lat="44.00157" lon="4.0399">
        <ele>200</ele>
        <time>2011-02-27T15:26:24Z</time>
      </trkpt>
      <trkpt lat="44.00161" lon="4.03994">
        <ele>200</ele>
        <time>2011-02-27T15:26:25Z</time>
      </trkpt>
      <trkpt lat="44.00166" lon="4.03998">
        <ele>199</ele>
        <time>2011-02-27T15:26:26Z</time>
      </trkpt>
      <trkpt lat="44.00171" lon="4.04003">
        <ele>199</ele>
        <time>2011-02-27T15:26:27Z</time>
      </trkpt>
      <trkpt lat="44.00176" lon="4.04008">
        <ele>199</ele>
        <time>2011-02-27T15:26:28Z</time>
      </trkpt>
      <trkpt lat="44.0018" lon="4.04012">
        <ele>198</ele>
        <time>2011-02-27T15:26:29Z</time>
      </trkpt>
      <trkpt lat="44.00185" lon="4.04018">
        <ele>198</ele>
        <time>2011-02-27T15:26:30Z</time>
      </trkpt>
      <trkpt lat="44.00189" lon="4.04023">
        <ele>198</ele>
        <time>2011-02-27T15:26:31Z</time>
      </trkpt>
      <trkpt lat="44.00193" lon="4.04029">
        <ele>198</ele>
        <time>2011-02-27T15:26:32Z</time>
      </trkpt>
      <trkpt lat="44.00197" lon="4.04035">
        <ele>198</ele>
        <time>2011-02-27T15:26:33Z</time>
      </trkpt>
      <trkpt lat="44.002" lon="4.04041">
        <ele>198</ele>
        <time>2011-02-27T15:26:34Z</time>
      </trkpt>
      <trkpt lat="44.00204" lon="4.04048">
        <ele>197</ele>
        <time>2011-02-27T15:26:35Z</time>
      </trkpt>
      <trkpt lat="44.00207" lon="4.04054">
        <ele>197</ele>
        <time>2011-02-27T15:26:36Z</time>
      </trkpt>
      <trkpt lat="44.00211" lon="4.04061">
        <ele>197</ele>
        <time>2011-02-27T15:26:37Z</time>
      </trkpt>
      <trkpt lat="44.00214" lon="4.04067">
        <ele>197</ele>
        <time>2011-02-27T15:26:38Z</time>
      </trkpt>
      <trkpt lat="44.00217" lon="4.04073">
        <ele>197</ele>
        <time>2011-02-27T15:26:39Z</time>
      </trkpt>
      <trkpt lat="44.0022" lon="4.04079">
        <ele>196</ele>
        <time>2011-02-27T15:26:40Z</time>
      </trkpt>
      <trkpt lat="44.00223" lon="4.04085">
        <ele>196</ele>
        <time>2011-02-27T15:26:41Z</time>
      </trkpt>
      <trkpt lat="44.00226" lon="4.04092">
        <ele>196</ele>
        <time>2011-02-27T15:26:42Z</time>
      </trkpt>
      <trkpt lat="44.00228" lon="4.04097">
        <ele>196</ele>
        <time>2011-02-27T15:26:43Z</time>
      </trkpt>
      <trkpt lat="44.00231" lon="4.04103">
        <ele>196</ele>
        <time>2011-02-27T15:26:44Z</time>
      </trkpt>
      <trkpt lat="44.00233" lon="4.04109">
        <ele>196</ele>
        <time>2011-02-27T15:26:45Z</time>
      </trkpt>
      <trkpt lat="44.00235" lon="4.04114">
        <ele>196</ele>
        <time>2011-02-27T15:26:46Z</time>
      </trkpt>
      <trkpt lat="44.00238" lon="4.04125">
        <ele>196</ele>
        <time>2011-02-27T15:26:48Z</time>
      </trkpt>
      <trkpt lat="44.0024" lon="4.04131">
        <ele>196</ele>
        <time>2011-02-27T15:26:49Z</time>
      </trkpt>
      <trkpt lat="44.00241" lon="4.04137">
        <ele>196</ele>
        <time>2011-02-27T15:26:50Z</time>
      </trkpt>
      <trkpt lat="44.00243" lon="4.04144">
        <ele>196</ele>
        <time>2011-02-27T15:26:51Z</time>
      </trkpt>
      <trkpt lat="44.00244" lon="4.0415">
        <ele>196</ele>
        <time>2011-02-27T15:26:52Z</time>
      </trkpt>
      <trkpt lat="44.00245" lon="4.04156">
        <ele>196</ele>
        <time>2011-02-27T15:26:53Z</time>
      </trkpt>
      <trkpt lat="44.00246" lon="4.04163">
        <ele>196</ele>
        <time>2011-02-27T15:26:54Z</time>
      </trkpt>
      <trkpt lat="44.00247" lon="4.0417">
        <ele>196</ele>
        <time>2011-02-27T15:26:55Z</time>
      </trkpt>
      <trkpt lat="44.00247" lon="4.04177">
        <ele>196</ele>
        <time>2011-02-27T15:26:56Z</time>
      </trkpt>
      <trkpt lat="44.00248" lon="4.04184">
        <ele>196</ele>
        <time>2011-02-27T15:26:57Z</time>
      </trkpt>
      <trkpt lat="44.00248" lon="4.04191">
        <ele>196</ele>
        <time>2011-02-27T15:26:58Z</time>
      </trkpt>
      <trkpt lat="44.00248" lon="4.04198">
        <ele>196</ele>
        <time>2011-02-27T15:26:59Z</time>
      </trkpt>
      <trkpt lat="44.00248" lon="4.04205">
        <ele>196</ele>
        <time>2011-02-27T15:27:00Z</time>
      </trkpt>
      <trkpt lat="44.00249" lon="4.04212">
        <ele>196</ele>
        <time>2011-02-27T15:27:01Z</time>
      </trkpt>
      <trkpt lat="44.00249" lon="4.04219">
        <ele>196</ele>
        <time>2011-02-27T15:27:02Z</time>
      </trkpt>
      <trkpt lat="44.0025" lon="4.04226">
        <ele>196</ele>
        <time>2011-02-27T15:27:03Z</time>
      </trkpt>
      <trkpt lat="44.00251" lon="4.04233">
        <ele>196</ele>
        <time>2011-02-27T15:27:04Z</time>
      </trkpt>
      <trkpt lat="44.00252" lon="4.0424">
        <ele>196</ele>
        <time>2011-02-27T15:27:05Z</time>
      </trkpt>
      <trkpt lat="44.00253" lon="4.04247">
        <ele>196</ele>
        <time>2011-02-27T15:27:06Z</time>
      </trkpt>
      <trkpt lat="44.00254" lon="4.04254">
        <ele>195</ele>
        <time>2011-02-27T15:27:07Z</time>
      </trkpt>
      <trkpt lat="44.00256" lon="4.04261">
        <ele>195</ele>
        <time>2011-02-27T15:27:08Z</time>
      </trkpt>
      <trkpt lat="44.00258" lon="4.04268">
        <ele>195</ele>
        <time>2011-02-27T15:27:09Z</time>
      </trkpt>
      <trkpt lat="44.00259" lon="4.04275">
        <ele>195</ele>
        <time>2011-02-27T15:27:10Z</time>
      </trkpt>
      <trkpt lat="44.00261" lon="4.04282">
        <ele>195</ele>
        <time>2011-02-27T15:27:11Z</time>
      </trkpt>
      <trkpt lat="44.00263" lon="4.04288">
        <ele>195</ele>
        <time>2011-02-27T15:27:12Z</time>
      </trkpt>
      <trkpt lat="44.00265" lon="4.04295">
        <ele>195</ele>
        <time>2011-02-27T15:27:13Z</time>
      </trkpt>
      <trkpt lat="44.00267" lon="4.04301">
        <ele>195</ele>
        <time>2011-02-27T15:27:14Z</time>
      </trkpt>
      <trkpt lat="44.00269" lon="4.04307">
        <ele>195</ele>
        <time>2011-02-27T15:27:15Z</time>
      </trkpt>
      <trkpt lat="44.00272" lon="4.04313">
        <ele>195</ele>
        <time>2011-02-27T15:27:16Z</time>
      </trkpt>
      <trkpt lat="44.00274" lon="4.04319">
        <ele>195</ele>
        <time>2011-02-27T15:27:17Z</time>
      </trkpt>
      <trkpt lat="44.00276" lon="4.04325">
        <ele>195</ele>
        <time>2011-02-27T15:27:18Z</time>
      </trkpt>
      <trkpt lat="44.00278" lon="4.04331">
        <ele>195</ele>
        <time>2011-02-27T15:27:19Z</time>
      </trkpt>
      <trkpt lat="44.00281" lon="4.04337">
        <ele>195</ele>
        <time>2011-02-27T15:27:20Z</time>
      </trkpt>
      <trkpt lat="44.00283" lon="4.04342">
        <ele>195</ele>
        <time>2011-02-27T15:27:21Z</time>
      </trkpt>
      <trkpt lat="44.00287" lon="4.04352">
        <ele>195</ele>
        <time>2011-02-27T15:27:23Z</time>
      </trkpt>
      <trkpt lat="44.00292" lon="4.04363">
        <ele>195</ele>
        <time>2011-02-27T15:27:25Z</time>
      </trkpt>
      <trkpt lat="44.00297" lon="4.04373">
        <ele>195</ele>
        <time>2011-02-27T15:27:27Z</time>
      </trkpt>
      <trkpt lat="44.00303" lon="4.04383">
        <ele>195</ele>
        <time>2011-02-27T15:27:29Z</time>
      </trkpt>
      <trkpt lat="44.00306" lon="4.04387">
        <ele>195</ele>
        <time>2011-02-27T15:27:30Z</time>
      </trkpt>
      <trkpt lat="44.00312" lon="4.04396">
        <ele>195</ele>
        <time>2011-02-27T15:27:32Z</time>
      </trkpt>
      <trkpt lat="44.00319" lon="4.04404">
        <ele>195</ele>
        <time>2011-02-27T15:27:34Z</time>
      </trkpt>
      <trkpt lat="44.00322" lon="4.04408">
        <ele>195</ele>
        <time>2011-02-27T15:27:35Z</time>
      </trkpt>
      <trkpt lat="44.00326" lon="4.04412">
        <ele>195</ele>
        <time>2011-02-27T15:27:36Z</time>
      </trkpt>
      <trkpt lat="44.0033" lon="4.04416">
        <ele>195</ele>
        <time>2011-02-27T15:27:37Z</time>
      </trkpt>
      <trkpt lat="44.00334" lon="4.0442">
        <ele>195</ele>
        <time>2011-02-27T15:27:38Z</time>
      </trkpt>
      <trkpt lat="44.00337" lon="4.04425">
        <ele>194</ele>
        <time>2011-02-27T15:27:39Z</time>
      </trkpt>
      <trkpt lat="44.00341" lon="4.04429">
        <ele>194</ele>
        <time>2011-02-27T15:27:40Z</time>
      </trkpt>
      <trkpt lat="44.00345" lon="4.04434">
        <ele>194</ele>
        <time>2011-02-27T15:27:41Z</time>
      </trkpt>
      <trkpt lat="44.00349" lon="4.04438">
        <ele>194</ele>
        <time>2011-02-27T15:27:42Z</time>
      </trkpt>
      <trkpt lat="44.00352" lon="4.04442">
        <ele>194</ele>
        <time>2011-02-27T15:27:43Z</time>
      </trkpt>
      <trkpt lat="44.00356" lon="4.04446">
        <ele>194</ele>
        <time>2011-02-27T15:27:44Z</time>
      </trkpt>
      <trkpt lat="44.0036" lon="4.04451">
        <ele>193</ele>
        <time>2011-02-27T15:27:45Z</time>
      </trkpt>
      <trkpt lat="44.00364" lon="4.04454">
        <ele>193</ele>
        <time>2011-02-27T15:27:46Z</time>
      </trkpt>
      <trkpt lat="44.00368" lon="4.04458">
        <ele>192</ele>
        <time>2011-02-27T15:27:47Z</time>
      </trkpt>
      <trkpt lat="44.00371" lon="4.04461">
        <ele>192</ele>
        <time>2011-02-27T15:27:48Z</time>
      </trkpt>
      <trkpt lat="44.00376" lon="4.04465">
        <ele>192</ele>
        <time>2011-02-27T15:27:49Z</time>
      </trkpt>
      <trkpt lat="44.0038" lon="4.04468">
        <ele>192</ele>
        <time>2011-02-27T15:27:50Z</time>
      </trkpt>
      <trkpt lat="44.00384" lon="4.04472">
        <ele>192</ele>
        <time>2011-02-27T15:27:51Z</time>
      </trkpt>
      <trkpt lat="44.0039" lon="4.04476">
        <ele>192</ele>
        <time>2011-02-27T15:27:52Z</time>
      </trkpt>
      <trkpt lat="44.00395" lon="4.04479">
        <ele>192</ele>
        <time>2011-02-27T15:27:53Z</time>
      </trkpt>
      <trkpt lat="44.00401" lon="4.04481">
        <ele>192</ele>
        <time>2011-02-27T15:27:54Z</time>
      </trkpt>
      <trkpt lat="44.00406" lon="4.04483">
        <ele>192</ele>
        <time>2011-02-27T15:27:55Z</time>
      </trkpt>
      <trkpt lat="44.00412" lon="4.04484">
        <ele>192</ele>
        <time>2011-02-27T15:27:56Z</time>
      </trkpt>
      <trkpt lat="44.00418" lon="4.04485">
        <ele>191</ele>
        <time>2011-02-27T15:27:57Z</time>
      </trkpt>
      <trkpt lat="44.00423" lon="4.04485">
        <ele>191</ele>
        <time>2011-02-27T15:27:58Z</time>
      </trkpt>
      <trkpt lat="44.00429" lon="4.04485">
        <ele>191</ele>
        <time>2011-02-27T15:27:59Z</time>
      </trkpt>
      <trkpt lat="44.00434" lon="4.04485">
        <ele>191</ele>
        <time>2011-02-27T15:28:00Z</time>
      </trkpt>
      <trkpt lat="44.0044" lon="4.04485">
        <ele>191</ele>
        <time>2011-02-27T15:28:01Z</time>
      </trkpt>
      <trkpt lat="44.00445" lon="4.04484">
        <ele>190</ele>
        <time>2011-02-27T15:28:02Z</time>
      </trkpt>
      <trkpt lat="44.00451" lon="4.04484">
        <ele>190</ele>
        <time>2011-02-27T15:28:03Z</time>
      </trkpt>
      <trkpt lat="44.00456" lon="4.04483">
        <ele>190</ele>
        <time>2011-02-27T15:28:04Z</time>
      </trkpt>
      <trkpt lat="44.00462" lon="4.04483">
        <ele>190</ele>
        <time>2011-02-27T15:28:05Z</time>
      </trkpt>
      <trkpt lat="44.00467" lon="4.04482">
        <ele>190</ele>
        <time>2011-02-27T15:28:06Z</time>
      </trkpt>
      <trkpt lat="44.00472" lon="4.04482">
        <ele>190</ele>
        <time>2011-02-27T15:28:07Z</time>
      </trkpt>
      <trkpt lat="44.00478" lon="4.04482">
        <ele>190</ele>
        <time>2011-02-27T15:28:08Z</time>
      </trkpt>
      <trkpt lat="44.00483" lon="4.04482">
        <ele>190</ele>
        <time>2011-02-27T15:28:09Z</time>
      </trkpt>
      <trkpt lat="44.00488" lon="4.04481">
        <ele>190</ele>
        <time>2011-02-27T15:28:10Z</time>
      </trkpt>
      <trkpt lat="44.00493" lon="4.04481">
        <ele>190</ele>
        <time>2011-02-27T15:28:11Z</time>
      </trkpt>
      <trkpt lat="44.00499" lon="4.04481">
        <ele>190</ele>
        <time>2011-02-27T15:28:12Z</time>
      </trkpt>
      <trkpt lat="44.00504" lon="4.04481">
        <ele>189</ele>
        <time>2011-02-27T15:28:13Z</time>
      </trkpt>
      <trkpt lat="44.00509" lon="4.04481">
        <ele>189</ele>
        <time>2011-02-27T15:28:14Z</time>
      </trkpt>
      <trkpt lat="44.00514" lon="4.04482">
        <ele>189</ele>
        <time>2011-02-27T15:28:15Z</time>
      </trkpt>
      <trkpt lat="44.00519" lon="4.04482">
        <ele>189</ele>
        <time>2011-02-27T15:28:16Z</time>
      </trkpt>
      <trkpt lat="44.00525" lon="4.04482">
        <ele>189</ele>
        <time>2011-02-27T15:28:17Z</time>
      </trkpt>
      <trkpt lat="44.0053" lon="4.04483">
        <ele>189</ele>
        <time>2011-02-27T15:28:18Z</time>
      </trkpt>
      <trkpt lat="44.00535" lon="4.04485">
        <ele>189</ele>
        <time>2011-02-27T15:28:19Z</time>
      </trkpt>
      <trkpt lat="44.0054" lon="4.04486">
        <ele>189</ele>
        <time>2011-02-27T15:28:20Z</time>
      </trkpt>
      <trkpt lat="44.00544" lon="4.04489">
        <ele>189</ele>
        <time>2011-02-27T15:28:21Z</time>
      </trkpt>
      <trkpt lat="44.00548" lon="4.04493">
        <ele>188</ele>
        <time>2011-02-27T15:28:22Z</time>
      </trkpt>
      <trkpt lat="44.00551" lon="4.04498">
        <ele>188</ele>
        <time>2011-02-27T15:28:23Z</time>
      </trkpt>
      <trkpt lat="44.00554" lon="4.04503">
        <ele>188</ele>
        <time>2011-02-27T15:28:24Z</time>
      </trkpt>
      <trkpt lat="44.00558" lon="4.04514">
        <ele>188</ele>
        <time>2011-02-27T15:28:26Z</time>
      </trkpt>
      <trkpt lat="44.00563" lon="4.04523">
        <ele>188</ele>
        <time>2011-02-27T15:28:28Z</time>
      </trkpt>
      <trkpt lat="44.0057" lon="4.04529">
        <ele>188</ele>
        <time>2011-02-27T15:28:30Z</time>
      </trkpt>
      <trkpt lat="44.00578" lon="4.04532">
        <ele>187</ele>
        <time>2011-02-27T15:28:32Z</time>
      </trkpt>
      <trkpt lat="44.00587" lon="4.04533">
        <ele>187</ele>
        <time>2011-02-27T15:28:34Z</time>
      </trkpt>
      <trkpt lat="44.00592" lon="4.04533">
        <ele>187</ele>
        <time>2011-02-27T15:28:35Z</time>
      </trkpt>
      <trkpt lat="44.00596" lon="4.04533">
        <ele>188</ele>
        <time>2011-02-27T15:28:36Z</time>
      </trkpt>
      <trkpt lat="44.00601" lon="4.04533">
        <ele>188</ele>
        <time>2011-02-27T15:28:37Z</time>
      </trkpt>
      <trkpt lat="44.00606" lon="4.04534">
        <ele>188</ele>
        <time>2011-02-27T15:28:38Z</time>
      </trkpt>
      <trkpt lat="44.0061" lon="4.04534">
        <ele>188</ele>
        <time>2011-02-27T15:28:39Z</time>
      </trkpt>
      <trkpt lat="44.00615" lon="4.04534">
        <ele>188</ele>
        <time>2011-02-27T15:28:40Z</time>
      </trkpt>
      <trkpt lat="44.0062" lon="4.04534">
        <ele>188</ele>
        <time>2011-02-27T15:28:41Z</time>
      </trkpt>
      <trkpt lat="44.00625" lon="4.04535">
        <ele>188</ele>
        <time>2011-02-27T15:28:42Z</time>
      </trkpt>
      <trkpt lat="44.0063" lon="4.04535">
        <ele>188</ele>
        <time>2011-02-27T15:28:43Z</time>
      </trkpt>
      <trkpt lat="44.00634" lon="4.04536">
        <ele>188</ele>
        <time>2011-02-27T15:28:44Z</time>
      </trkpt>
      <trkpt lat="44.00639" lon="4.04538">
        <ele>188</ele>
        <time>2011-02-27T15:28:45Z</time>
      </trkpt>
      <trkpt lat="44.00644" lon="4.04539">
        <ele>188</ele>
        <time>2011-02-27T15:28:46Z</time>
      </trkpt>
      <trkpt lat="44.00649" lon="4.04541">
        <ele>188</ele>
        <time>2011-02-27T15:28:47Z</time>
      </trkpt>
      <trkpt lat="44.00654" lon="4.04542">
        <ele>188</ele>
        <time>2011-02-27T15:28:48Z</time>
      </trkpt>
      <trkpt lat="44.00659" lon="4.04544">
        <ele>188</ele>
        <time>2011-02-27T15:28:49Z</time>
      </trkpt>
      <trkpt lat="44.00663" lon="4.04547">
        <ele>188</ele>
        <time>2011-02-27T15:28:50Z</time>
      </trkpt>
      <trkpt lat="44.00668" lon="4.04549">
        <ele>188</ele>
        <time>2011-02-27T15:28:51Z</time>
      </trkpt>
      <trkpt lat="44.00673" lon="4.04552">
        <ele>188</ele>
        <time>2011-02-27T15:28:52Z</time>
      </trkpt>
      <trkpt lat="44.00677" lon="4.04554">
        <ele>188</ele>
        <time>2011-02-27T15:28:53Z</time>
      </trkpt>
      <trkpt lat="44.00682" lon="4.04556">
        <ele>188</ele>
        <time>2011-02-27T15:28:54Z</time>
      </trkpt>
      <trkpt lat="44.00687" lon="4.04559">
        <ele>188</ele>
        <time>2011-02-27T15:28:55Z</time>
      </trkpt>
      <trkpt lat="44.00692" lon="4.04561">
        <ele>188</ele>
        <time>2011-02-27T15:28:56Z</time>
      </trkpt>
      <trkpt lat="44.00696" lon="4.04563">
        <ele>188</ele>
        <time>2011-02-27T15:28:57Z</time>
      </trkpt>
      <trkpt lat="44.00701" lon="4.04565">
        <ele>188</ele>
        <time>2011-02-27T15:28:58Z</time>
      </trkpt>
      <trkpt lat="44.00706" lon="4.04566">
        <ele>188</ele>
        <time>2011-02-27T15:28:59Z</time>
      </trkpt>
      <trkpt lat="44.00711" lon="4.04568">
        <ele>189</ele>
        <time>2011-02-27T15:29:00Z</time>
      </trkpt>
      <trkpt lat="44.00716" lon="4.04569">
        <ele>189</ele>
        <time>2011-02-27T15:29:01Z</time>
      </trkpt>
      <trkpt lat="44.00721" lon="4.04571">
        <ele>189</ele>
        <time>2011-02-27T15:29:02Z</time>
      </trkpt>
      <trkpt lat="44.00726" lon="4.04572">
        <ele>189</ele>
        <time>2011-02-27T15:29:03Z</time>
      </trkpt>
      <trkpt lat="44.00731" lon="4.04573">
        <ele>189</ele>
        <time>2011-02-27T15:29:04Z</time>
      </trkpt>
      <trkpt lat="44.00736" lon="4.04574">
        <ele>189</ele>
        <time>2011-02-27T15:29:05Z</time>
      </trkpt>
      <trkpt lat="44.00741" lon="4.04575">
        <ele>190</ele>
        <time>2011-02-27T15:29:06Z</time>
      </trkpt>
      <trkpt lat="44.00746" lon="4.04576">
        <ele>190</ele>
        <time>2011-02-27T15:29:07Z</time>
      </trkpt>
      <trkpt lat="44.0075" lon="4.04577">
        <ele>190</ele>
        <time>2011-02-27T15:29:08Z</time>
      </trkpt>
      <trkpt lat="44.00755" lon="4.04578">
        <ele>190</ele>
        <time>2011-02-27T15:29:09Z</time>
      </trkpt>
      <trkpt lat="44.0076" lon="4.04579">
        <ele>190</ele>
        <time>2011-02-27T15:29:10Z</time>
      </trkpt>
      <trkpt lat="44.00764" lon="4.0458">
        <ele>190</ele>
        <time>2011-02-27T15:29:11Z</time>
      </trkpt>
      <trkpt lat="44.00773" lon="4.04583">
        <ele>190</ele>
        <time>2011-02-27T15:29:13Z</time>
      </trkpt>
      <trkpt lat="44.00781" lon="4.04585">
        <ele>190</ele>
        <time>2011-02-27T15:29:15Z</time>
      </trkpt>
      <trkpt lat="44.00786" lon="4.04587">
        <ele>190</ele>
        <time>2011-02-27T15:29:16Z</time>
      </trkpt>
      <trkpt lat="44.0079" lon="4.04588">
        <ele>190</ele>
        <time>2011-02-27T15:29:17Z</time>
      </trkpt>
      <trkpt lat="44.00795" lon="4.0459">
        <ele>190</ele>
        <time>2011-02-27T15:29:18Z</time>
      </trkpt>
      <trkpt lat="44.00799" lon="4.04593">
        <ele>191</ele>
        <time>2011-02-27T15:29:19Z</time>
      </trkpt>
      <trkpt lat="44.00804" lon="4.04595">
        <ele>191</ele>
        <time>2011-02-27T15:29:20Z</time>
      </trkpt>
      <trkpt lat="44.00808" lon="4.04598">
        <ele>191</ele>
        <time>2011-02-27T15:29:21Z</time>
      </trkpt>
      <trkpt lat="44.00812" lon="4.04601">
        <ele>190</ele>
        <time>2011-02-27T15:29:22Z</time>
      </trkpt>
      <trkpt lat="44.00816" lon="4.04604">
        <ele>190</ele>
        <time>2011-02-27T15:29:23Z</time>
      </trkpt>
      <trkpt lat="44.00821" lon="4.04607">
        <ele>190</ele>
        <time>2011-02-27T15:29:24Z</time>
      </trkpt>
      <trkpt lat="44.00825" lon="4.0461">
        <ele>190</ele>
        <time>2011-02-27T15:29:25Z</time>
      </trkpt>
      <trkpt lat="44.00829" lon="4.04613">
        <ele>190</ele>
        <time>2011-02-27T15:29:26Z</time>
      </trkpt>
      <trkpt lat="44.00834" lon="4.04617">
        <ele>190</ele>
        <time>2011-02-27T15:29:27Z</time>
      </trkpt>
      <trkpt lat="44.00838" lon="4.0462">
        <ele>190</ele>
        <time>2011-02-27T15:29:28Z</time>
      </trkpt>
      <trkpt lat="44.00842" lon="4.04623">
        <ele>190</ele>
        <time>2011-02-27T15:29:29Z</time>
      </trkpt>
      <trkpt lat="44.00847" lon="4.04626">
        <ele>190</ele>
        <time>2011-02-27T15:29:30Z</time>
      </trkpt>
      <trkpt lat="44.00851" lon="4.04629">
        <ele>190</ele>
        <time>2011-02-27T15:29:31Z</time>
      </trkpt>
      <trkpt lat="44.00855" lon="4.04632">
        <ele>190</ele>
        <time>2011-02-27T15:29:32Z</time>
      </trkpt>
      <trkpt lat="44.00859" lon="4.04635">
        <ele>190</ele>
        <time>2011-02-27T15:29:33Z</time>
      </trkpt>
      <trkpt lat="44.00863" lon="4.04638">
        <ele>191</ele>
        <time>2011-02-27T15:29:34Z</time>
      </trkpt>
      <trkpt lat="44.00868" lon="4.04641">
        <ele>191</ele>
        <time>2011-02-27T15:29:35Z</time>
      </trkpt>
      <trkpt lat="44.00872" lon="4.04644">
        <ele>190</ele>
        <time>2011-02-27T15:29:36Z</time>
      </trkpt>
      <trkpt lat="44.00876" lon="4.04647">
        <ele>190</ele>
        <time>2011-02-27T15:29:37Z</time>
      </trkpt>
      <trkpt lat="44.0088" lon="4.0465">
        <ele>190</ele>
        <time>2011-02-27T15:29:38Z</time>
      </trkpt>
      <trkpt lat="44.00884" lon="4.04653">
        <ele>190</ele>
        <time>2011-02-27T15:29:39Z</time>
      </trkpt>
      <trkpt lat="44.00888" lon="4.04655">
        <ele>191</ele>
        <time>2011-02-27T15:29:40Z</time>
      </trkpt>
      <trkpt lat="44.00892" lon="4.04658">
        <ele>190</ele>
        <time>2011-02-27T15:29:41Z</time>
      </trkpt>
      <trkpt lat="44.00896" lon="4.0466">
        <ele>190</ele>
        <time>2011-02-27T15:29:42Z</time>
      </trkpt>
      <trkpt lat="44.009" lon="4.04663">
        <ele>190</ele>
        <time>2011-02-27T15:29:43Z</time>
      </trkpt>
      <trkpt lat="44.00904" lon="4.04666">
        <ele>190</ele>
        <time>2011-02-27T15:29:44Z</time>
      </trkpt>
      <trkpt lat="44.00909" lon="4.04668">
        <ele>190</ele>
        <time>2011-02-27T15:29:45Z</time>
      </trkpt>
      <trkpt lat="44.00913" lon="4.04671">
        <ele>190</ele>
        <time>2011-02-27T15:29:46Z</time>
      </trkpt>
      <trkpt lat="44.00917" lon="4.04673">
        <ele>190</ele>
        <time>2011-02-27T15:29:47Z</time>
      </trkpt>
      <trkpt lat="44.00922" lon="4.04676">
        <ele>190</ele>
        <time>2011-02-27T15:29:48Z</time>
      </trkpt>
      <trkpt lat="44.00926" lon="4.04678">
        <ele>190</ele>
        <time>2011-02-27T15:29:49Z</time>
      </trkpt>
      <trkpt lat="44.0093" lon="4.04681">
        <ele>190</ele>
        <time>2011-02-27T15:29:50Z</time>
      </trkpt>
      <trkpt lat="44.00934" lon="4.04683">
        <ele>190</ele>
        <time>2011-02-27T15:29:51Z</time>
      </trkpt>
      <trkpt lat="44.00939" lon="4.04686">
        <ele>190</ele>
        <time>2011-02-27T15:29:52Z</time>
      </trkpt>
      <trkpt lat="44.00943" lon="4.04688">
        <ele>190</ele>
        <time>2011-02-27T15:29:53Z</time>
      </trkpt>
      <trkpt lat="44.00947" lon="4.04691">
        <ele>190</ele>
        <time>2011-02-27T15:29:54Z</time>
      </trkpt>
      <trkpt lat="44.00951" lon="4.04694">
        <ele>190</ele>
        <time>2011-02-27T15:29:55Z</time>
      </trkpt>
      <trkpt lat="44.00955" lon="4.04697">
        <ele>191</ele>
        <time>2011-02-27T15:29:56Z</time>
      </trkpt>
      <trkpt lat="44.0096" lon="4.04699">
        <ele>191</ele>
        <time>2011-02-27T15:29:57Z</time>
      </trkpt>
      <trkpt lat="44.00964" lon="4.04702">
        <ele>191</ele>
        <time>2011-02-27T15:29:58Z</time>
      </trkpt>
      <trkpt lat="44.00968" lon="4.04705">
        <ele>191</ele>
        <time>2011-02-27T15:29:59Z</time>
      </trkpt>
      <trkpt lat="44.00972" lon="4.04708">
        <ele>191</ele>
        <time>2011-02-27T15:30:00Z</time>
      </trkpt>
      <trkpt lat="44.00976" lon="4.0471">
        <ele>191</ele>
        <time>2011-02-27T15:30:01Z</time>
      </trkpt>
      <trkpt lat="44.00981" lon="4.04713">
        <ele>191</ele>
        <time>2011-02-27T15:30:02Z</time>
      </trkpt>
      <trkpt lat="44.00985" lon="4.04716">
        <ele>191</ele>
        <time>2011-02-27T15:30:03Z</time>
      </trkpt>
      <trkpt lat="44.00989" lon="4.04719">
        <ele>191</ele>
        <time>2011-02-27T15:30:04Z</time>
      </trkpt>
      <trkpt lat="44.00993" lon="4.04722">
        <ele>191</ele>
        <time>2011-02-27T15:30:05Z</time>
      </trkpt>
      <trkpt lat="44.00997" lon="4.04725">
        <ele>191</ele>
        <time>2011-02-27T15:30:06Z</time>
      </trkpt>
      <trkpt lat="44.01006" lon="4.04731">
        <ele>191</ele>
        <time>2011-02-27T15:30:08Z</time>
      </trkpt>
      <trkpt lat="44.0101" lon="4.04734">
        <ele>192</ele>
        <time>2011-02-27T15:30:09Z</time>
      </trkpt>
      <trkpt lat="44.01014" lon="4.04737">
        <ele>191</ele>
        <time>2011-02-27T15:30:10Z</time>
      </trkpt>
      <trkpt lat="44.01018" lon="4.04739">
        <ele>191</ele>
        <time>2011-02-27T15:30:11Z</time>
      </trkpt>
      <trkpt lat="44.01023" lon="4.04742">
        <ele>191</ele>
        <time>2011-02-27T15:30:12Z</time>
      </trkpt>
      <trkpt lat="44.01028" lon="4.04745">
        <ele>191</ele>
        <time>2011-02-27T15:30:13Z</time>
      </trkpt>
      <trkpt lat="44.01032" lon="4.04748">
        <ele>191</ele>
        <time>2011-02-27T15:30:14Z</time>
      </trkpt>
      <trkpt lat="44.01037" lon="4.04751">
        <ele>191</ele>
        <time>2011-02-27T15:30:15Z</time>
      </trkpt>
      <trkpt lat="44.01042" lon="4.04754">
        <ele>191</ele>
        <time>2011-02-27T15:30:16Z</time>
      </trkpt>
      <trkpt lat="44.01047" lon="4.04756">
        <ele>191</ele>
        <time>2011-02-27T15:30:17Z</time>
      </trkpt>
      <trkpt lat="44.01051" lon="4.04759">
        <ele>191</ele>
        <time>2011-02-27T15:30:18Z</time>
      </trkpt>
      <trkpt lat="44.01056" lon="4.04762">
        <ele>191</ele>
        <time>2011-02-27T15:30:19Z</time>
      </trkpt>
      <trkpt lat="44.01061" lon="4.04765">
        <ele>191</ele>
        <time>2011-02-27T15:30:20Z</time>
      </trkpt>
      <trkpt lat="44.01065" lon="4.04768">
        <ele>191</ele>
        <time>2011-02-27T15:30:21Z</time>
      </trkpt>
      <trkpt lat="44.0107" lon="4.04771">
        <ele>191</ele>
        <time>2011-02-27T15:30:22Z</time>
      </trkpt>
      <trkpt lat="44.01075" lon="4.04774">
        <ele>190</ele>
        <time>2011-02-27T15:30:23Z</time>
      </trkpt>
      <trkpt lat="44.01079" lon="4.04777">
        <ele>190</ele>
        <time>2011-02-27T15:30:24Z</time>
      </trkpt>
      <trkpt lat="44.01084" lon="4.04781">
        <ele>190</ele>
        <time>2011-02-27T15:30:25Z</time>
      </trkpt>
      <trkpt lat="44.01088" lon="4.04784">
        <ele>190</ele>
        <time>2011-02-27T15:30:26Z</time>
      </trkpt>
      <trkpt lat="44.01092" lon="4.04788">
        <ele>189</ele>
        <time>2011-02-27T15:30:27Z</time>
      </trkpt>
      <trkpt lat="44.01096" lon="4.04792">
        <ele>189</ele>
        <time>2011-02-27T15:30:28Z</time>
      </trkpt>
      <trkpt lat="44.011" lon="4.04796">
        <ele>189</ele>
        <time>2011-02-27T15:30:29Z</time>
      </trkpt>
      <trkpt lat="44.01104" lon="4.048">
        <ele>189</ele>
        <time>2011-02-27T15:30:30Z</time>
      </trkpt>
      <trkpt lat="44.01107" lon="4.04805">
        <ele>189</ele>
        <time>2011-02-27T15:30:31Z</time>
      </trkpt>
      <trkpt lat="44.01111" lon="4.0481">
        <ele>190</ele>
        <time>2011-02-27T15:30:32Z</time>
      </trkpt>
      <trkpt lat="44.01114" lon="4.04814">
        <ele>190</ele>
        <time>2011-02-27T15:30:33Z</time>
      </trkpt>
      <trkpt lat="44.01118" lon="4.04819">
        <ele>190</ele>
        <time>2011-02-27T15:30:34Z</time>
      </trkpt>
      <trkpt lat="44.01121" lon="4.04823">
        <ele>190</ele>
        <time>2011-02-27T15:30:35Z</time>
      </trkpt>
      <trkpt lat="44.01128" lon="4.04831">
        <ele>191</ele>
        <time>2011-02-27T15:30:37Z</time>
      </trkpt>
      <trkpt lat="44.01135" lon="4.04838">
        <ele>191</ele>
        <time>2011-02-27T15:30:39Z</time>
      </trkpt>
      <trkpt lat="44.01141" lon="4.04846">
        <ele>191</ele>
        <time>2011-02-27T15:30:41Z</time>
      </trkpt>
      <trkpt lat="44.01145" lon="4.04851">
        <ele>191</ele>
        <time>2011-02-27T15:30:42Z</time>
      </trkpt>
      <trkpt lat="44.01148" lon="4.04855">
        <ele>191</ele>
        <time>2011-02-27T15:30:43Z</time>
      </trkpt>
      <trkpt lat="44.01151" lon="4.0486">
        <ele>191</ele>
        <time>2011-02-27T15:30:44Z</time>
      </trkpt>
      <trkpt lat="44.01154" lon="4.04865">
        <ele>191</ele>
        <time>2011-02-27T15:30:45Z</time>
      </trkpt>
      <trkpt lat="44.01157" lon="4.04871">
        <ele>191</ele>
        <time>2011-02-27T15:30:46Z</time>
      </trkpt>
      <trkpt lat="44.0116" lon="4.04876">
        <ele>192</ele>
        <time>2011-02-27T15:30:47Z</time>
      </trkpt>
      <trkpt lat="44.01162" lon="4.04882">
        <ele>192</ele>
        <time>2011-02-27T15:30:48Z</time>
      </trkpt>
      <trkpt lat="44.01165" lon="4.04888">
        <ele>192</ele>
        <time>2011-02-27T15:30:49Z</time>
      </trkpt>
      <trkpt lat="44.01167" lon="4.04893">
        <ele>192</ele>
        <time>2011-02-27T15:30:50Z</time>
      </trkpt>
      <trkpt lat="44.0117" lon="4.04899">
        <ele>192</ele>
        <time>2011-02-27T15:30:51Z</time>
      </trkpt>
      <trkpt lat="44.01173" lon="4.04904">
        <ele>192</ele>
        <time>2011-02-27T15:30:52Z</time>
      </trkpt>
      <trkpt lat="44.01175" lon="4.0491">
        <ele>192</ele>
        <time>2011-02-27T15:30:53Z</time>
      </trkpt>
      <trkpt lat="44.01178" lon="4.04916">
        <ele>192</ele>
        <time>2011-02-27T15:30:54Z</time>
      </trkpt>
      <trkpt lat="44.0118" lon="4.04921">
        <ele>192</ele>
        <time>2011-02-27T15:30:55Z</time>
      </trkpt>
      <trkpt lat="44.01182" lon="4.04927">
        <ele>192</ele>
        <time>2011-02-27T15:30:56Z</time>
      </trkpt>
      <trkpt lat="44.01188" lon="4.04936">
        <ele>192</ele>
        <time>2011-02-27T15:30:58Z</time>
      </trkpt>
      <trkpt lat="44.01195" lon="4.04943">
        <ele>192</ele>
        <time>2011-02-27T15:31:00Z</time>
      </trkpt>
      <trkpt lat="44.01202" lon="4.0495">
        <ele>193</ele>
        <time>2011-02-27T15:31:02Z</time>
      </trkpt>
      <trkpt lat="44.0121" lon="4.04955">
        <ele>193</ele>
        <time>2011-02-27T15:31:04Z</time>
      </trkpt>
      <trkpt lat="44.01218" lon="4.04959">
        <ele>193</ele>
        <time>2011-02-27T15:31:06Z</time>
      </trkpt>
      <trkpt lat="44.01226" lon="4.04963">
        <ele>193</ele>
        <time>2011-02-27T15:31:08Z</time>
      </trkpt>
      <trkpt lat="44.01234" lon="4.04965">
        <ele>193</ele>
        <time>2011-02-27T15:31:10Z</time>
      </trkpt>
      <trkpt lat="44.01242" lon="4.04967">
        <ele>194</ele>
        <time>2011-02-27T15:31:12Z</time>
      </trkpt>
      <trkpt lat="44.0125" lon="4.04969">
        <ele>194</ele>
        <time>2011-02-27T15:31:14Z</time>
      </trkpt>
      <trkpt lat="44.01258" lon="4.04971">
        <ele>195</ele>
        <time>2011-02-27T15:31:16Z</time>
      </trkpt>
      <trkpt lat="44.01266" lon="4.04973">
        <ele>196</ele>
        <time>2011-02-27T15:31:18Z</time>
      </trkpt>
      <trkpt lat="44.01273" lon="4.04975">
        <ele>196</ele>
        <time>2011-02-27T15:31:20Z</time>
      </trkpt>
      <trkpt lat="44.01278" lon="4.04977">
        <ele>197</ele>
        <time>2011-02-27T15:31:22Z</time>
      </trkpt>
      <trkpt lat="44.01282" lon="4.04984">
        <ele>197</ele>
        <time>2011-02-27T15:31:25Z</time>
      </trkpt>
      <trkpt lat="44.01281" lon="4.04993">
        <ele>197</ele>
        <time>2011-02-27T15:31:27Z</time>
      </trkpt>
      <trkpt lat="44.01279" lon="4.05004">
        <ele>197</ele>
        <time>2011-02-27T15:31:29Z</time>
      </trkpt>
      <trkpt lat="44.01277" lon="4.05011">
        <ele>197</ele>
        <time>2011-02-27T15:31:30Z</time>
      </trkpt>
      <trkpt lat="44.01276" lon="4.05017">
        <ele>197</ele>
        <time>2011-02-27T15:31:31Z</time>
      </trkpt>
      <trkpt lat="44.01274" lon="4.05023">
        <ele>196</ele>
        <time>2011-02-27T15:31:32Z</time>
      </trkpt>
      <trkpt lat="44.01273" lon="4.05029">
        <ele>196</ele>
        <time>2011-02-27T15:31:33Z</time>
      </trkpt>
      <trkpt lat="44.0127" lon="4.05041">
        <ele>195</ele>
        <time>2011-02-27T15:31:35Z</time>
      </trkpt>
      <trkpt lat="44.0127" lon="4.05047">
        <ele>195</ele>
        <time>2011-02-27T15:31:36Z</time>
      </trkpt>
      <trkpt lat="44.01271" lon="4.05054">
        <ele>195</ele>
        <time>2011-02-27T15:31:37Z</time>
      </trkpt>
      <trkpt lat="44.01272" lon="4.05061">
        <ele>195</ele>
        <time>2011-02-27T15:31:38Z</time>
      </trkpt>
      <trkpt lat="44.01274" lon="4.05067">
        <ele>194</ele>
        <time>2011-02-27T15:31:39Z</time>
      </trkpt>
      <trkpt lat="44.01275" lon="4.05074">
        <ele>194</ele>
        <time>2011-02-27T15:31:40Z</time>
      </trkpt>
      <trkpt lat="44.01276" lon="4.05081">
        <ele>193</ele>
        <time>2011-02-27T15:31:41Z</time>
      </trkpt>
      <trkpt lat="44.01277" lon="4.05087">
        <ele>193</ele>
        <time>2011-02-27T15:31:42Z</time>
      </trkpt>
      <trkpt lat="44.01278" lon="4.05093">
        <ele>193</ele>
        <time>2011-02-27T15:31:43Z</time>
      </trkpt>
      <trkpt lat="44.0128" lon="4.05103">
        <ele>192</ele>
        <time>2011-02-27T15:31:45Z</time>
      </trkpt>
      <trkpt lat="44.01283" lon="4.0511">
        <ele>192</ele>
        <time>2011-02-27T15:31:47Z</time>
      </trkpt>
      <trkpt lat="44.01288" lon="4.05116">
        <ele>192</ele>
        <time>2011-02-27T15:31:49Z</time>
      </trkpt>
      <trkpt lat="44.01294" lon="4.05122">
        <ele>191</ele>
        <time>2011-02-27T15:31:51Z</time>
      </trkpt>
      <trkpt lat="44.01299" lon="4.05127">
        <ele>191</ele>
        <time>2011-02-27T15:31:53Z</time>
      </trkpt>
      <trkpt lat="44.01304" lon="4.05133">
        <ele>191</ele>
        <time>2011-02-27T15:31:55Z</time>
      </trkpt>
      <trkpt lat="44.01307" lon="4.05138">
        <ele>191</ele>
        <time>2011-02-27T15:31:57Z</time>
      </trkpt>
      <trkpt lat="44.01312" lon="4.05143">
        <ele>191</ele>
        <time>2011-02-27T15:31:59Z</time>
      </trkpt>
      <trkpt lat="44.01319" lon="4.05146">
        <ele>191</ele>
        <time>2011-02-27T15:32:01Z</time>
      </trkpt>
      <trkpt lat="44.01327" lon="4.05148">
        <ele>190</ele>
        <time>2011-02-27T15:32:03Z</time>
      </trkpt>
      <trkpt lat="44.01332" lon="4.05149">
        <ele>190</ele>
        <time>2011-02-27T15:32:04Z</time>
      </trkpt>
      <trkpt lat="44.01336" lon="4.0515">
        <ele>190</ele>
        <time>2011-02-27T15:32:05Z</time>
      </trkpt>
      <trkpt lat="44.01341" lon="4.05151">
        <ele>189</ele>
        <time>2011-02-27T15:32:06Z</time>
      </trkpt>
      <trkpt lat="44.01346" lon="4.05152">
        <ele>189</ele>
        <time>2011-02-27T15:32:07Z</time>
      </trkpt>
      <trkpt lat="44.01351" lon="4.05153">
        <ele>189</ele>
        <time>2011-02-27T15:32:08Z</time>
      </trkpt>
      <trkpt lat="44.01356" lon="4.05153">
        <ele>190</ele>
        <time>2011-02-27T15:32:09Z</time>
      </trkpt>
      <trkpt lat="44.01361" lon="4.05153">
        <ele>190</ele>
        <time>2011-02-27T15:32:10Z</time>
      </trkpt>
      <trkpt lat="44.01367" lon="4.05153">
        <ele>190</ele>
        <time>2011-02-27T15:32:11Z</time>
      </trkpt>
      <trkpt lat="44.01373" lon="4.05153">
        <ele>190</ele>
        <time>2011-02-27T15:32:12Z</time>
      </trkpt>
      <trkpt lat="44.01379" lon="4.05153">
        <ele>191</ele>
        <time>2011-02-27T15:32:13Z</time>
      </trkpt>
      <trkpt lat="44.01385" lon="4.05153">
        <ele>191</ele>
        <time>2011-02-27T15:32:14Z</time>
      </trkpt>
      <trkpt lat="44.0139" lon="4.05154">
        <ele>191</ele>
        <time>2011-02-27T15:32:15Z</time>
      </trkpt>
      <trkpt lat="44.01396" lon="4.05155">
        <ele>191</ele>
        <time>2011-02-27T15:32:16Z</time>
      </trkpt>
      <trkpt lat="44.01402" lon="4.05155">
        <ele>191</ele>
        <time>2011-02-27T15:32:17Z</time>
      </trkpt>
      <trkpt lat="44.01408" lon="4.05158">
        <ele>191</ele>
        <time>2011-02-27T15:32:18Z</time>
      </trkpt>
      <trkpt lat="44.01412" lon="4.05162">
        <ele>191</ele>
        <time>2011-02-27T15:32:19Z</time>
      </trkpt>
      <trkpt lat="44.01416" lon="4.05167">
        <ele>191</ele>
        <time>2011-02-27T15:32:20Z</time>
      </trkpt>
      <trkpt lat="44.0142" lon="4.05176">
        <ele>191</ele>
        <time>2011-02-27T15:32:22Z</time>
      </trkpt>
      <trkpt lat="44.01424" lon="4.05187">
        <ele>193</ele>
        <time>2011-02-27T15:32:24Z</time>
      </trkpt>
      <trkpt lat="44.01425" lon="4.05193">
        <ele>193</ele>
        <time>2011-02-27T15:32:25Z</time>
      </trkpt>
      <trkpt lat="44.01426" lon="4.05199">
        <ele>194</ele>
        <time>2011-02-27T15:32:26Z</time>
      </trkpt>
      <trkpt lat="44.01428" lon="4.05209">
        <ele>194</ele>
        <time>2011-02-27T15:32:28Z</time>
      </trkpt>
      <trkpt lat="44.01429" lon="4.05219">
        <ele>194</ele>
        <time>2011-02-27T15:32:30Z</time>
      </trkpt>
      <trkpt lat="44.01429" lon="4.05225">
        <ele>194</ele>
        <time>2011-02-27T15:32:31Z</time>
      </trkpt>
      <trkpt lat="44.01429" lon="4.05234">
        <ele>194</ele>
        <time>2011-02-27T15:32:32Z</time>
      </trkpt>
      <trkpt lat="44.01429" lon="4.05243">
        <ele>194</ele>
        <time>2011-02-27T15:32:33Z</time>
      </trkpt>
      <trkpt lat="44.01429" lon="4.05252">
        <ele>194</ele>
        <time>2011-02-27T15:32:34Z</time>
      </trkpt>
      <trkpt lat="44.01429" lon="4.05262">
        <ele>194</ele>
        <time>2011-02-27T15:32:35Z</time>
      </trkpt>
      <trkpt lat="44.01428" lon="4.05271">
        <ele>193</ele>
        <time>2011-02-27T15:32:36Z</time>
      </trkpt>
      <trkpt lat="44.01428" lon="4.0528">
        <ele>193</ele>
        <time>2011-02-27T15:32:37Z</time>
      </trkpt>
      <trkpt lat="44.01427" lon="4.05289">
        <ele>192</ele>
        <time>2011-02-27T15:32:38Z</time>
      </trkpt>
      <trkpt lat="44.01427" lon="4.05298">
        <ele>191</ele>
        <time>2011-02-27T15:32:39Z</time>
      </trkpt>
      <trkpt lat="44.01426" lon="4.05307">
        <ele>190</ele>
        <time>2011-02-27T15:32:40Z</time>
      </trkpt>
      <trkpt lat="44.01425" lon="4.05317">
        <ele>190</ele>
        <time>2011-02-27T15:32:41Z</time>
      </trkpt>
      <trkpt lat="44.01425" lon="4.05326">
        <ele>189</ele>
        <time>2011-02-27T15:32:42Z</time>
      </trkpt>
      <trkpt lat="44.01424" lon="4.05335">
        <ele>188</ele>
        <time>2011-02-27T15:32:43Z</time>
      </trkpt>
      <trkpt lat="44.01424" lon="4.05344">
        <ele>188</ele>
        <time>2011-02-27T15:32:44Z</time>
      </trkpt>
      <trkpt lat="44.01424" lon="4.05353">
        <ele>187</ele>
        <time>2011-02-27T15:32:45Z</time>
      </trkpt>
      <trkpt lat="44.01424" lon="4.05362">
        <ele>187</ele>
        <time>2011-02-27T15:32:46Z</time>
      </trkpt>
      <trkpt lat="44.01424" lon="4.0537">
        <ele>187</ele>
        <time>2011-02-27T15:32:47Z</time>
      </trkpt>
      <trkpt lat="44.01424" lon="4.05379">
        <ele>186</ele>
        <time>2011-02-27T15:32:48Z</time>
      </trkpt>
      <trkpt lat="44.01424" lon="4.05387">
        <ele>186</ele>
        <time>2011-02-27T15:32:49Z</time>
      </trkpt>
      <trkpt lat="44.01424" lon="4.05395">
        <ele>185</ele>
        <time>2011-02-27T15:32:50Z</time>
      </trkpt>
      <trkpt lat="44.01424" lon="4.05403">
        <ele>184</ele>
        <time>2011-02-27T15:32:51Z</time>
      </trkpt>
      <trkpt lat="44.01425" lon="4.05411">
        <ele>183</ele>
        <time>2011-02-27T15:32:52Z</time>
      </trkpt>
      <trkpt lat="44.01426" lon="4.05419">
        <ele>182</ele>
        <time>2011-02-27T15:32:53Z</time>
      </trkpt>
      <trkpt lat="44.01428" lon="4.05426">
        <ele>182</ele>
        <time>2011-02-27T15:32:54Z</time>
      </trkpt>
      <trkpt lat="44.0143" lon="4.05433">
        <ele>182</ele>
        <time>2011-02-27T15:32:55Z</time>
      </trkpt>
      <trkpt lat="44.01433" lon="4.0544">
        <ele>182</ele>
        <time>2011-02-27T15:32:56Z</time>
      </trkpt>
      <trkpt lat="44.01435" lon="4.05447">
        <ele>181</ele>
        <time>2011-02-27T15:32:57Z</time>
      </trkpt>
      <trkpt lat="44.01438" lon="4.05454">
        <ele>181</ele>
        <time>2011-02-27T15:32:58Z</time>
      </trkpt>
      <trkpt lat="44.0144" lon="4.05461">
        <ele>181</ele>
        <time>2011-02-27T15:32:59Z</time>
      </trkpt>
      <trkpt lat="44.01442" lon="4.05468">
        <ele>181</ele>
        <time>2011-02-27T15:33:00Z</time>
      </trkpt>
      <trkpt lat="44.01444" lon="4.05475">
        <ele>181</ele>
        <time>2011-02-27T15:33:01Z</time>
      </trkpt>
      <trkpt lat="44.01447" lon="4.05482">
        <ele>180</ele>
        <time>2011-02-27T15:33:02Z</time>
      </trkpt>
      <trkpt lat="44.01449" lon="4.05489">
        <ele>180</ele>
        <time>2011-02-27T15:33:03Z</time>
      </trkpt>
      <trkpt lat="44.01452" lon="4.05495">
        <ele>180</ele>
        <time>2011-02-27T15:33:04Z</time>
      </trkpt>
      <trkpt lat="44.01454" lon="4.05502">
        <ele>180</ele>
        <time>2011-02-27T15:33:05Z</time>
      </trkpt>
      <trkpt lat="44.01456" lon="4.05509">
        <ele>180</ele>
        <time>2011-02-27T15:33:06Z</time>
      </trkpt>
      <trkpt lat="44.01458" lon="4.05515">
        <ele>180</ele>
        <time>2011-02-27T15:33:07Z</time>
      </trkpt>
      <trkpt lat="44.0146" lon="4.05522">
        <ele>180</ele>
        <time>2011-02-27T15:33:08Z</time>
      </trkpt>
      <trkpt lat="44.01462" lon="4.05529">
        <ele>180</ele>
        <time>2011-02-27T15:33:09Z</time>
      </trkpt>
      <trkpt lat="44.01465" lon="4.05537">
        <ele>180</ele>
        <time>2011-02-27T15:33:10Z</time>
      </trkpt>
      <trkpt lat="44.01467" lon="4.05545">
        <ele>181</ele>
        <time>2011-02-27T15:33:11Z</time>
      </trkpt>
      <trkpt lat="44.0147" lon="4.05553">
        <ele>181</ele>
        <time>2011-02-27T15:33:12Z</time>
      </trkpt>
      <trkpt lat="44.01473" lon="4.05561">
        <ele>181</ele>
        <time>2011-02-27T15:33:13Z</time>
      </trkpt>
      <trkpt lat="44.01476" lon="4.05569">
        <ele>181</ele>
        <time>2011-02-27T15:33:14Z</time>
      </trkpt>
      <trkpt lat="44.0148" lon="4.05576">
        <ele>181</ele>
        <time>2011-02-27T15:33:15Z</time>
      </trkpt>
      <trkpt lat="44.01483" lon="4.05583">
        <ele>180</ele>
        <time>2011-02-27T15:33:16Z</time>
      </trkpt>
      <trkpt lat="44.01487" lon="4.05589">
        <ele>181</ele>
        <time>2011-02-27T15:33:17Z</time>
      </trkpt>
      <trkpt lat="44.01491" lon="4.05596">
        <ele>180</ele>
        <time>2011-02-27T15:33:18Z</time>
      </trkpt>
      <trkpt lat="44.01496" lon="4.05602">
        <ele>180</ele>
        <time>2011-02-27T15:33:19Z</time>
      </trkpt>
      <trkpt lat="44.015" lon="4.05609">
        <ele>181</ele>
        <time>2011-02-27T15:33:20Z</time>
      </trkpt>
      <trkpt lat="44.01504" lon="4.05615">
        <ele>181</ele>
        <time>2011-02-27T15:33:21Z</time>
      </trkpt>
      <trkpt lat="44.01508" lon="4.05622">
        <ele>181</ele>
        <time>2011-02-27T15:33:22Z</time>
      </trkpt>
      <trkpt lat="44.01512" lon="4.05628">
        <ele>181</ele>
        <time>2011-02-27T15:33:23Z</time>
      </trkpt>
      <trkpt lat="44.01516" lon="4.05635">
        <ele>181</ele>
        <time>2011-02-27T15:33:24Z</time>
      </trkpt>
      <trkpt lat="44.0152" lon="4.05641">
        <ele>181</ele>
        <time>2011-02-27T15:33:25Z</time>
      </trkpt>
      <trkpt lat="44.01524" lon="4.05647">
        <ele>180</ele>
        <time>2011-02-27T15:33:26Z</time>
      </trkpt>
      <trkpt lat="44.01528" lon="4.05653">
        <ele>180</ele>
        <time>2011-02-27T15:33:27Z</time>
      </trkpt>
      <trkpt lat="44.01532" lon="4.05658">
        <ele>181</ele>
        <time>2011-02-27T15:33:28Z</time>
      </trkpt>
      <trkpt lat="44.01536" lon="4.05664">
        <ele>180</ele>
        <time>2011-02-27T15:33:29Z</time>
      </trkpt>
      <trkpt lat="44.01539" lon="4.05669">
        <ele>180</ele>
        <time>2011-02-27T15:33:30Z</time>
      </trkpt>
      <trkpt lat="44.01543" lon="4.05674">
        <ele>180</ele>
        <time>2011-02-27T15:33:31Z</time>
      </trkpt>
      <trkpt lat="44.01546" lon="4.0568">
        <ele>180</ele>
        <time>2011-02-27T15:33:32Z</time>
      </trkpt>
      <trkpt lat="44.01549" lon="4.05686">
        <ele>180</ele>
        <time>2011-02-27T15:33:33Z</time>
      </trkpt>
      <trkpt lat="44.01552" lon="4.05693">
        <ele>180</ele>
        <time>2011-02-27T15:33:34Z</time>
      </trkpt>
      <trkpt lat="44.01554" lon="4.057">
        <ele>180</ele>
        <time>2011-02-27T15:33:35Z</time>
      </trkpt>
      <trkpt lat="44.01556" lon="4.05707">
        <ele>180</ele>
        <time>2011-02-27T15:33:36Z</time>
      </trkpt>
      <trkpt lat="44.01558" lon="4.05713">
        <ele>181</ele>
        <time>2011-02-27T15:33:37Z</time>
      </trkpt>
      <trkpt lat="44.0156" lon="4.0572">
        <ele>181</ele>
        <time>2011-02-27T15:33:38Z</time>
      </trkpt>
      <trkpt lat="44.01563" lon="4.05726">
        <ele>181</ele>
        <time>2011-02-27T15:33:39Z</time>
      </trkpt>
      <trkpt lat="44.01565" lon="4.05732">
        <ele>181</ele>
        <time>2011-02-27T15:33:40Z</time>
      </trkpt>
      <trkpt lat="44.01568" lon="4.05739">
        <ele>181</ele>
        <time>2011-02-27T15:33:41Z</time>
      </trkpt>
      <trkpt lat="44.0157" lon="4.05745">
        <ele>181</ele>
        <time>2011-02-27T15:33:42Z</time>
      </trkpt>
      <trkpt lat="44.01572" lon="4.05752">
        <ele>181</ele>
        <time>2011-02-27T15:33:43Z</time>
      </trkpt>
      <trkpt lat="44.01575" lon="4.05758">
        <ele>181</ele>
        <time>2011-02-27T15:33:44Z</time>
      </trkpt>
      <trkpt lat="44.01577" lon="4.05765">
        <ele>181</ele>
        <time>2011-02-27T15:33:45Z</time>
      </trkpt>
      <trkpt lat="44.01579" lon="4.05772">
        <ele>181</ele>
        <time>2011-02-27T15:33:46Z</time>
      </trkpt>
      <trkpt lat="44.01581" lon="4.05778">
        <ele>182</ele>
        <time>2011-02-27T15:33:47Z</time>
      </trkpt>
      <trkpt lat="44.01583" lon="4.05785">
        <ele>182</ele>
        <time>2011-02-27T15:33:48Z</time>
      </trkpt>
      <trkpt lat="44.01585" lon="4.05792">
        <ele>182</ele>
        <time>2011-02-27T15:33:49Z</time>
      </trkpt>
      <trkpt lat="44.01587" lon="4.05799">
        <ele>182</ele>
        <time>2011-02-27T15:33:50Z</time>
      </trkpt>
      <trkpt lat="44.0159" lon="4.05805">
        <ele>182</ele>
        <time>2011-02-27T15:33:51Z</time>
      </trkpt>
      <trkpt lat="44.01592" lon="4.05812">
        <ele>182</ele>
        <time>2011-02-27T15:33:52Z</time>
      </trkpt>
      <trkpt lat="44.01594" lon="4.05819">
        <ele>182</ele>
        <time>2011-02-27T15:33:53Z</time>
      </trkpt>
      <trkpt lat="44.01596" lon="4.05825">
        <ele>181</ele>
        <time>2011-02-27T15:33:54Z</time>
      </trkpt>
      <trkpt lat="44.01598" lon="4.05832">
        <ele>181</ele>
        <time>2011-02-27T15:33:55Z</time>
      </trkpt>
      <trkpt lat="44.01601" lon="4.05838">
        <ele>181</ele>
        <time>2011-02-27T15:33:56Z</time>
      </trkpt>
      <trkpt lat="44.01603" lon="4.05844">
        <ele>181</ele>
        <time>2011-02-27T15:33:57Z</time>
      </trkpt>
      <trkpt lat="44.01605" lon="4.0585">
        <ele>182</ele>
        <time>2011-02-27T15:33:58Z</time>
      </trkpt>
      <trkpt lat="44.01607" lon="4.05856">
        <ele>181</ele>
        <time>2011-02-27T15:33:59Z</time>
      </trkpt>
      <trkpt lat="44.01608" lon="4.05863">
        <ele>182</ele>
        <time>2011-02-27T15:34:00Z</time>
      </trkpt>
      <trkpt lat="44.0161" lon="4.05869">
        <ele>182</ele>
        <time>2011-02-27T15:34:01Z</time>
      </trkpt>
      <trkpt lat="44.01611" lon="4.05875">
        <ele>182</ele>
        <time>2011-02-27T15:34:02Z</time>
      </trkpt>
      <trkpt lat="44.01612" lon="4.05881">
        <ele>182</ele>
        <time>2011-02-27T15:34:03Z</time>
      </trkpt>
      <trkpt lat="44.01613" lon="4.05888">
        <ele>182</ele>
        <time>2011-02-27T15:34:04Z</time>
      </trkpt>
      <trkpt lat="44.01613" lon="4.05895">
        <ele>182</ele>
        <time>2011-02-27T15:34:05Z</time>
      </trkpt>
      <trkpt lat="44.01613" lon="4.05902">
        <ele>182</ele>
        <time>2011-02-27T15:34:06Z</time>
      </trkpt>
      <trkpt lat="44.01613" lon="4.05908">
        <ele>182</ele>
        <time>2011-02-27T15:34:07Z</time>
      </trkpt>
      <trkpt lat="44.01613" lon="4.05915">
        <ele>183</ele>
        <time>2011-02-27T15:34:08Z</time>
      </trkpt>
      <trkpt lat="44.01613" lon="4.05922">
        <ele>183</ele>
        <time>2011-02-27T15:34:09Z</time>
      </trkpt>
      <trkpt lat="44.01614" lon="4.05929">
        <ele>183</ele>
        <time>2011-02-27T15:34:10Z</time>
      </trkpt>
      <trkpt lat="44.01614" lon="4.05936">
        <ele>183</ele>
        <time>2011-02-27T15:34:11Z</time>
      </trkpt>
      <trkpt lat="44.01614" lon="4.05943">
        <ele>183</ele>
        <time>2011-02-27T15:34:12Z</time>
      </trkpt>
      <trkpt lat="44.01614" lon="4.0595">
        <ele>183</ele>
        <time>2011-02-27T15:34:13Z</time>
      </trkpt>
      <trkpt lat="44.01615" lon="4.05958">
        <ele>183</ele>
        <time>2011-02-27T15:34:14Z</time>
      </trkpt>
      <trkpt lat="44.01615" lon="4.05965">
        <ele>183</ele>
        <time>2011-02-27T15:34:15Z</time>
      </trkpt>
      <trkpt lat="44.01615" lon="4.05972">
        <ele>183</ele>
        <time>2011-02-27T15:34:16Z</time>
      </trkpt>
      <trkpt lat="44.01615" lon="4.05979">
        <ele>183</ele>
        <time>2011-02-27T15:34:17Z</time>
      </trkpt>
      <trkpt lat="44.01615" lon="4.05987">
        <ele>184</ele>
        <time>2011-02-27T15:34:18Z</time>
      </trkpt>
      <trkpt lat="44.01615" lon="4.05994">
        <ele>184</ele>
        <time>2011-02-27T15:34:19Z</time>
      </trkpt>
      <trkpt lat="44.01615" lon="4.06001">
        <ele>183</ele>
        <time>2011-02-27T15:34:20Z</time>
      </trkpt>
      <trkpt lat="44.01615" lon="4.06008">
        <ele>183</ele>
        <time>2011-02-27T15:34:21Z</time>
      </trkpt>
      <trkpt lat="44.01615" lon="4.06015">
        <ele>183</ele>
        <time>2011-02-27T15:34:22Z</time>
      </trkpt>
      <trkpt lat="44.01615" lon="4.06022">
        <ele>183</ele>
        <time>2011-02-27T15:34:23Z</time>
      </trkpt>
      <trkpt lat="44.01615" lon="4.0603">
        <ele>183</ele>
        <time>2011-02-27T15:34:24Z</time>
      </trkpt>
      <trkpt lat="44.01614" lon="4.06037">
        <ele>182</ele>
        <time>2011-02-27T15:34:25Z</time>
      </trkpt>
      <trkpt lat="44.01614" lon="4.06044">
        <ele>182</ele>
        <time>2011-02-27T15:34:26Z</time>
      </trkpt>
      <trkpt lat="44.01613" lon="4.06051">
        <ele>182</ele>
        <time>2011-02-27T15:34:27Z</time>
      </trkpt>
      <trkpt lat="44.01613" lon="4.06058">
        <ele>181</ele>
        <time>2011-02-27T15:34:28Z</time>
      </trkpt>
      <trkpt lat="44.01612" lon="4.06065">
        <ele>181</ele>
        <time>2011-02-27T15:34:29Z</time>
      </trkpt>
      <trkpt lat="44.01612" lon="4.06072">
        <ele>181</ele>
        <time>2011-02-27T15:34:30Z</time>
      </trkpt>
      <trkpt lat="44.01612" lon="4.06078">
        <ele>181</ele>
        <time>2011-02-27T15:34:31Z</time>
      </trkpt>
      <trkpt lat="44.01611" lon="4.06085">
        <ele>181</ele>
        <time>2011-02-27T15:34:32Z</time>
      </trkpt>
      <trkpt lat="44.01611" lon="4.06092">
        <ele>180</ele>
        <time>2011-02-27T15:34:33Z</time>
      </trkpt>
      <trkpt lat="44.01611" lon="4.06098">
        <ele>180</ele>
        <time>2011-02-27T15:34:34Z</time>
      </trkpt>
      <trkpt lat="44.01613" lon="4.06109">
        <ele>179</ele>
        <time>2011-02-27T15:34:36Z</time>
      </trkpt>
      <trkpt lat="44.01615" lon="4.06119">
        <ele>179</ele>
        <time>2011-02-27T15:34:38Z</time>
      </trkpt>
      <trkpt lat="44.01618" lon="4.06129">
        <ele>179</ele>
        <time>2011-02-27T15:34:40Z</time>
      </trkpt>
      <trkpt lat="44.01622" lon="4.06139">
        <ele>179</ele>
        <time>2011-02-27T15:34:42Z</time>
      </trkpt>
      <trkpt lat="44.01625" lon="4.06148">
        <ele>178</ele>
        <time>2011-02-27T15:34:44Z</time>
      </trkpt>
      <trkpt lat="44.01629" lon="4.06158">
        <ele>179</ele>
        <time>2011-02-27T15:34:46Z</time>
      </trkpt>
      <trkpt lat="44.01633" lon="4.06167">
        <ele>178</ele>
        <time>2011-02-27T15:34:48Z</time>
      </trkpt>
      <trkpt lat="44.01634" lon="4.06172">
        <ele>179</ele>
        <time>2011-02-27T15:34:49Z</time>
      </trkpt>
      <trkpt lat="44.01639" lon="4.06181">
        <ele>179</ele>
        <time>2011-02-27T15:34:51Z</time>
      </trkpt>
      <trkpt lat="44.01643" lon="4.06191">
        <ele>180</ele>
        <time>2011-02-27T15:34:53Z</time>
      </trkpt>
      <trkpt lat="44.01648" lon="4.062">
        <ele>181</ele>
        <time>2011-02-27T15:34:55Z</time>
      </trkpt>
      <trkpt lat="44.01653" lon="4.0621">
        <ele>182</ele>
        <time>2011-02-27T15:34:57Z</time>
      </trkpt>
      <trkpt lat="44.01656" lon="4.06215">
        <ele>182</ele>
        <time>2011-02-27T15:34:58Z</time>
      </trkpt>
      <trkpt lat="44.01659" lon="4.0622">
        <ele>183</ele>
        <time>2011-02-27T15:34:59Z</time>
      </trkpt>
      <trkpt lat="44.01661" lon="4.06226">
        <ele>183</ele>
        <time>2011-02-27T15:35:00Z</time>
      </trkpt>
      <trkpt lat="44.01664" lon="4.06231">
        <ele>183</ele>
        <time>2011-02-27T15:35:01Z</time>
      </trkpt>
      <trkpt lat="44.01667" lon="4.06236">
        <ele>184</ele>
        <time>2011-02-27T15:35:02Z</time>
      </trkpt>
      <trkpt lat="44.01673" lon="4.06244">
        <ele>184</ele>
        <time>2011-02-27T15:35:04Z</time>
      </trkpt>
      <trkpt lat="44.01678" lon="4.06253">
        <ele>185</ele>
        <time>2011-02-27T15:35:06Z</time>
      </trkpt>
      <trkpt lat="44.01683" lon="4.06263">
        <ele>187</ele>
        <time>2011-02-27T15:35:08Z</time>
      </trkpt>
      <trkpt lat="44.01687" lon="4.06274">
        <ele>187</ele>
        <time>2011-02-27T15:35:10Z</time>
      </trkpt>
      <trkpt lat="44.01689" lon="4.0628">
        <ele>188</ele>
        <time>2011-02-27T15:35:11Z</time>
      </trkpt>
      <trkpt lat="44.01692" lon="4.06286">
        <ele>188</ele>
        <time>2011-02-27T15:35:12Z</time>
      </trkpt>
      <trkpt lat="44.01695" lon="4.06293">
        <ele>188</ele>
        <time>2011-02-27T15:35:13Z</time>
      </trkpt>
      <trkpt lat="44.01698" lon="4.06299">
        <ele>188</ele>
        <time>2011-02-27T15:35:14Z</time>
      </trkpt>
      <trkpt lat="44.017" lon="4.06305">
        <ele>188</ele>
        <time>2011-02-27T15:35:15Z</time>
      </trkpt>
      <trkpt lat="44.01704" lon="4.06311">
        <ele>188</ele>
        <time>2011-02-27T15:35:16Z</time>
      </trkpt>
      <trkpt lat="44.01707" lon="4.06317">
        <ele>188</ele>
        <time>2011-02-27T15:35:17Z</time>
      </trkpt>
      <trkpt lat="44.0171" lon="4.06322">
        <ele>188</ele>
        <time>2011-02-27T15:35:18Z</time>
      </trkpt>
      <trkpt lat="44.01713" lon="4.06328">
        <ele>187</ele>
        <time>2011-02-27T15:35:19Z</time>
      </trkpt>
      <trkpt lat="44.01716" lon="4.06333">
        <ele>187</ele>
        <time>2011-02-27T15:35:20Z</time>
      </trkpt>
      <trkpt lat="44.01719" lon="4.06338">
        <ele>187</ele>
        <time>2011-02-27T15:35:21Z</time>
      </trkpt>
      <trkpt lat="44.01722" lon="4.06343">
        <ele>187</ele>
        <time>2011-02-27T15:35:22Z</time>
      </trkpt>
      <trkpt lat="44.01726" lon="4.0635">
        <ele>186</ele>
        <time>2011-02-27T15:35:24Z</time>
      </trkpt>
      <trkpt lat="44.01731" lon="4.06355">
        <ele>186</ele>
        <time>2011-02-27T15:35:26Z</time>
      </trkpt>
      <trkpt lat="44.01733" lon="4.06356">
        <ele>186</ele>
        <time>2011-02-27T15:35:27Z</time>
      </trkpt>
      <trkpt lat="44.01739" lon="4.0636">
        <ele>187</ele>
        <time>2011-02-27T15:35:29Z</time>
      </trkpt>
      <trkpt lat="44.01747" lon="4.06364">
        <ele>187</ele>
        <time>2011-02-27T15:35:31Z</time>
      </trkpt>
      <trkpt lat="44.01751" lon="4.06367">
        <ele>187</ele>
        <time>2011-02-27T15:35:32Z</time>
      </trkpt>
      <trkpt lat="44.01755" lon="4.06369">
        <ele>187</ele>
        <time>2011-02-27T15:35:33Z</time>
      </trkpt>
      <trkpt lat="44.01763" lon="4.06374">
        <ele>187</ele>
        <time>2011-02-27T15:35:35Z</time>
      </trkpt>
      <trkpt lat="44.01767" lon="4.06377">
        <ele>187</ele>
        <time>2011-02-27T15:35:36Z</time>
      </trkpt>
      <trkpt lat="44.01771" lon="4.06379">
        <ele>188</ele>
        <time>2011-02-27T15:35:37Z</time>
      </trkpt>
      <trkpt lat="44.01776" lon="4.06382">
        <ele>188</ele>
        <time>2011-02-27T15:35:38Z</time>
      </trkpt>
      <trkpt lat="44.0178" lon="4.06385">
        <ele>188</ele>
        <time>2011-02-27T15:35:39Z</time>
      </trkpt>
      <trkpt lat="44.01784" lon="4.06387">
        <ele>188</ele>
        <time>2011-02-27T15:35:40Z</time>
      </trkpt>
      <trkpt lat="44.01792" lon="4.06392">
        <ele>188</ele>
        <time>2011-02-27T15:35:42Z</time>
      </trkpt>
      <trkpt lat="44.018" lon="4.06396">
        <ele>189</ele>
        <time>2011-02-27T15:35:44Z</time>
      </trkpt>
      <trkpt lat="44.01808" lon="4.064">
        <ele>190</ele>
        <time>2011-02-27T15:35:46Z</time>
      </trkpt>
      <trkpt lat="44.01816" lon="4.06405">
        <ele>192</ele>
        <time>2011-02-27T15:35:48Z</time>
      </trkpt>
      <trkpt lat="44.0182" lon="4.06408">
        <ele>192</ele>
        <time>2011-02-27T15:35:49Z</time>
      </trkpt>
      <trkpt lat="44.01825" lon="4.06412">
        <ele>192</ele>
        <time>2011-02-27T15:35:50Z</time>
      </trkpt>
      <trkpt lat="44.01829" lon="4.06416">
        <ele>193</ele>
        <time>2011-02-27T15:35:51Z</time>
      </trkpt>
      <trkpt lat="44.01834" lon="4.0642">
        <ele>193</ele>
        <time>2011-02-27T15:35:52Z</time>
      </trkpt>
      <trkpt lat="44.01838" lon="4.06424">
        <ele>193</ele>
        <time>2011-02-27T15:35:53Z</time>
      </trkpt>
      <trkpt lat="44.01842" lon="4.06429">
        <ele>194</ele>
        <time>2011-02-27T15:35:54Z</time>
      </trkpt>
      <trkpt lat="44.01847" lon="4.06433">
        <ele>194</ele>
        <time>2011-02-27T15:35:55Z</time>
      </trkpt>
      <trkpt lat="44.01851" lon="4.06437">
        <ele>195</ele>
        <time>2011-02-27T15:35:56Z</time>
      </trkpt>
      <trkpt lat="44.01856" lon="4.06442">
        <ele>195</ele>
        <time>2011-02-27T15:35:57Z</time>
      </trkpt>
      <trkpt lat="44.0186" lon="4.06446">
        <ele>195</ele>
        <time>2011-02-27T15:35:58Z</time>
      </trkpt>
      <trkpt lat="44.01865" lon="4.06449">
        <ele>195</ele>
        <time>2011-02-27T15:35:59Z</time>
      </trkpt>
      <trkpt lat="44.01869" lon="4.06453">
        <ele>196</ele>
        <time>2011-02-27T15:36:00Z</time>
      </trkpt>
      <trkpt lat="44.01873" lon="4.06457">
        <ele>196</ele>
        <time>2011-02-27T15:36:01Z</time>
      </trkpt>
      <trkpt lat="44.01877" lon="4.06461">
        <ele>196</ele>
        <time>2011-02-27T15:36:02Z</time>
      </trkpt>
      <trkpt lat="44.01885" lon="4.06467">
        <ele>197</ele>
        <time>2011-02-27T15:36:04Z</time>
      </trkpt>
      <trkpt lat="44.01892" lon="4.06473">
        <ele>198</ele>
        <time>2011-02-27T15:36:06Z</time>
      </trkpt>
      <trkpt lat="44.01896" lon="4.06477">
        <ele>199</ele>
        <time>2011-02-27T15:36:07Z</time>
      </trkpt>
      <trkpt lat="44.019" lon="4.06481">
        <ele>200</ele>
        <time>2011-02-27T15:36:08Z</time>
      </trkpt>
      <trkpt lat="44.01903" lon="4.06486">
        <ele>201</ele>
        <time>2011-02-27T15:36:09Z</time>
      </trkpt>
      <trkpt lat="44.01907" lon="4.0649">
        <ele>201</ele>
        <time>2011-02-27T15:36:10Z</time>
      </trkpt>
      <trkpt lat="44.0191" lon="4.06494">
        <ele>202</ele>
        <time>2011-02-27T15:36:11Z</time>
      </trkpt>
      <trkpt lat="44.01914" lon="4.065">
        <ele>203</ele>
        <time>2011-02-27T15:36:12Z</time>
      </trkpt>
      <trkpt lat="44.01917" lon="4.06506">
        <ele>203</ele>
        <time>2011-02-27T15:36:13Z</time>
      </trkpt>
      <trkpt lat="44.01921" lon="4.06512">
        <ele>204</ele>
        <time>2011-02-27T15:36:14Z</time>
      </trkpt>
      <trkpt lat="44.01924" lon="4.06518">
        <ele>204</ele>
        <time>2011-02-27T15:36:15Z</time>
      </trkpt>
      <trkpt lat="44.01927" lon="4.06525">
        <ele>205</ele>
        <time>2011-02-27T15:36:16Z</time>
      </trkpt>
      <trkpt lat="44.01931" lon="4.06531">
        <ele>206</ele>
        <time>2011-02-27T15:36:17Z</time>
      </trkpt>
      <trkpt lat="44.01934" lon="4.06537">
        <ele>207</ele>
        <time>2011-02-27T15:36:18Z</time>
      </trkpt>
      <trkpt lat="44.01937" lon="4.06543">
        <ele>207</ele>
        <time>2011-02-27T15:36:19Z</time>
      </trkpt>
      <trkpt lat="44.0194" lon="4.06549">
        <ele>208</ele>
        <time>2011-02-27T15:36:20Z</time>
      </trkpt>
      <trkpt lat="44.01943" lon="4.06555">
        <ele>208</ele>
        <time>2011-02-27T15:36:21Z</time>
      </trkpt>
      <trkpt lat="44.01946" lon="4.0656">
        <ele>209</ele>
        <time>2011-02-27T15:36:22Z</time>
      </trkpt>
      <trkpt lat="44.01949" lon="4.06566">
        <ele>210</ele>
        <time>2011-02-27T15:36:23Z</time>
      </trkpt>
      <trkpt lat="44.01952" lon="4.06572">
        <ele>210</ele>
        <time>2011-02-27T15:36:24Z</time>
      </trkpt>
      <trkpt lat="44.01955" lon="4.06578">
        <ele>210</ele>
        <time>2011-02-27T15:36:25Z</time>
      </trkpt>
      <trkpt lat="44.01958" lon="4.06584">
        <ele>210</ele>
        <time>2011-02-27T15:36:26Z</time>
      </trkpt>
      <trkpt lat="44.0196" lon="4.0659">
        <ele>210</ele>
        <time>2011-02-27T15:36:27Z</time>
      </trkpt>
      <trkpt lat="44.01963" lon="4.06597">
        <ele>209</ele>
        <time>2011-02-27T15:36:28Z</time>
      </trkpt>
      <trkpt lat="44.01966" lon="4.06604">
        <ele>209</ele>
        <time>2011-02-27T15:36:29Z</time>
      </trkpt>
      <trkpt lat="44.0197" lon="4.06612">
        <ele>208</ele>
        <time>2011-02-27T15:36:30Z</time>
      </trkpt>
      <trkpt lat="44.01973" lon="4.06621">
        <ele>207</ele>
        <time>2011-02-27T15:36:31Z</time>
      </trkpt>
      <trkpt lat="44.01976" lon="4.0663">
        <ele>206</ele>
        <time>2011-02-27T15:36:32Z</time>
      </trkpt>
      <trkpt lat="44.01979" lon="4.0664">
        <ele>205</ele>
        <time>2011-02-27T15:36:33Z</time>
      </trkpt>
      <trkpt lat="44.01982" lon="4.06649">
        <ele>204</ele>
        <time>2011-02-27T15:36:34Z</time>
      </trkpt>
      <trkpt lat="44.01985" lon="4.06658">
        <ele>203</ele>
        <time>2011-02-27T15:36:35Z</time>
      </trkpt>
      <trkpt lat="44.01987" lon="4.06667">
        <ele>202</ele>
        <time>2011-02-27T15:36:36Z</time>
      </trkpt>
      <trkpt lat="44.0199" lon="4.06675">
        <ele>201</ele>
        <time>2011-02-27T15:36:37Z</time>
      </trkpt>
      <trkpt lat="44.01992" lon="4.06683">
        <ele>200</ele>
        <time>2011-02-27T15:36:38Z</time>
      </trkpt>
      <trkpt lat="44.01995" lon="4.06692">
        <ele>199</ele>
        <time>2011-02-27T15:36:39Z</time>
      </trkpt>
      <trkpt lat="44.01997" lon="4.067">
        <ele>198</ele>
        <time>2011-02-27T15:36:40Z</time>
      </trkpt>
      <trkpt lat="44.01999" lon="4.06707">
        <ele>197</ele>
        <time>2011-02-27T15:36:41Z</time>
      </trkpt>
      <trkpt lat="44.02001" lon="4.06715">
        <ele>196</ele>
        <time>2011-02-27T15:36:42Z</time>
      </trkpt>
      <trkpt lat="44.02002" lon="4.06723">
        <ele>196</ele>
        <time>2011-02-27T15:36:43Z</time>
      </trkpt>
      <trkpt lat="44.02004" lon="4.0673">
        <ele>195</ele>
        <time>2011-02-27T15:36:44Z</time>
      </trkpt>
      <trkpt lat="44.02005" lon="4.06738">
        <ele>194</ele>
        <time>2011-02-27T15:36:45Z</time>
      </trkpt>
      <trkpt lat="44.02006" lon="4.06745">
        <ele>194</ele>
        <time>2011-02-27T15:36:46Z</time>
      </trkpt>
      <trkpt lat="44.02007" lon="4.06753">
        <ele>193</ele>
        <time>2011-02-27T15:36:47Z</time>
      </trkpt>
      <trkpt lat="44.02008" lon="4.0676">
        <ele>192</ele>
        <time>2011-02-27T15:36:48Z</time>
      </trkpt>
      <trkpt lat="44.02009" lon="4.06767">
        <ele>192</ele>
        <time>2011-02-27T15:36:49Z</time>
      </trkpt>
      <trkpt lat="44.02009" lon="4.06774">
        <ele>191</ele>
        <time>2011-02-27T15:36:50Z</time>
      </trkpt>
      <trkpt lat="44.0201" lon="4.06781">
        <ele>190</ele>
        <time>2011-02-27T15:36:51Z</time>
      </trkpt>
      <trkpt lat="44.0201" lon="4.06787">
        <ele>190</ele>
        <time>2011-02-27T15:36:52Z</time>
      </trkpt>
      <trkpt lat="44.02011" lon="4.06794">
        <ele>190</ele>
        <time>2011-02-27T15:36:53Z</time>
      </trkpt>
      <trkpt lat="44.02012" lon="4.06805">
        <ele>188</ele>
        <time>2011-02-27T15:36:55Z</time>
      </trkpt>
      <trkpt lat="44.02013" lon="4.06816">
        <ele>187</ele>
        <time>2011-02-27T15:36:57Z</time>
      </trkpt>
      <trkpt lat="44.02013" lon="4.06827">
        <ele>186</ele>
        <time>2011-02-27T15:36:59Z</time>
      </trkpt>
      <trkpt lat="44.02014" lon="4.06838">
        <ele>185</ele>
        <time>2011-02-27T15:37:01Z</time>
      </trkpt>
      <trkpt lat="44.02015" lon="4.0685">
        <ele>184</ele>
        <time>2011-02-27T15:37:03Z</time>
      </trkpt>
      <trkpt lat="44.02015" lon="4.06856">
        <ele>184</ele>
        <time>2011-02-27T15:37:04Z</time>
      </trkpt>
      <trkpt lat="44.02015" lon="4.06863">
        <ele>183</ele>
        <time>2011-02-27T15:37:05Z</time>
      </trkpt>
      <trkpt lat="44.02015" lon="4.06869">
        <ele>183</ele>
        <time>2011-02-27T15:37:06Z</time>
      </trkpt>
      <trkpt lat="44.02015" lon="4.06876">
        <ele>182</ele>
        <time>2011-02-27T15:37:07Z</time>
      </trkpt>
      <trkpt lat="44.02015" lon="4.06883">
        <ele>182</ele>
        <time>2011-02-27T15:37:08Z</time>
      </trkpt>
      <trkpt lat="44.02015" lon="4.0689">
        <ele>181</ele>
        <time>2011-02-27T15:37:09Z</time>
      </trkpt>
      <trkpt lat="44.02015" lon="4.06898">
        <ele>180</ele>
        <time>2011-02-27T15:37:10Z</time>
      </trkpt>
      <trkpt lat="44.02015" lon="4.06906">
        <ele>180</ele>
        <time>2011-02-27T15:37:11Z</time>
      </trkpt>
      <trkpt lat="44.02014" lon="4.06914">
        <ele>179</ele>
        <time>2011-02-27T15:37:12Z</time>
      </trkpt>
      <trkpt lat="44.02014" lon="4.06923">
        <ele>178</ele>
        <time>2011-02-27T15:37:13Z</time>
      </trkpt>
      <trkpt lat="44.02012" lon="4.06931">
        <ele>178</ele>
        <time>2011-02-27T15:37:14Z</time>
      </trkpt>
      <trkpt lat="44.02011" lon="4.06938">
        <ele>177</ele>
        <time>2011-02-27T15:37:15Z</time>
      </trkpt>
      <trkpt lat="44.02009" lon="4.06945">
        <ele>176</ele>
        <time>2011-02-27T15:37:16Z</time>
      </trkpt>
      <trkpt lat="44.02007" lon="4.06952">
        <ele>176</ele>
        <time>2011-02-27T15:37:17Z</time>
      </trkpt>
      <trkpt lat="44.02005" lon="4.0696">
        <ele>175</ele>
        <time>2011-02-27T15:37:18Z</time>
      </trkpt>
      <trkpt lat="44.02002" lon="4.06967">
        <ele>174</ele>
        <time>2011-02-27T15:37:19Z</time>
      </trkpt>
      <trkpt lat="44.02" lon="4.06975">
        <ele>174</ele>
        <time>2011-02-27T15:37:20Z</time>
      </trkpt>
      <trkpt lat="44.01998" lon="4.06982">
        <ele>173</ele>
        <time>2011-02-27T15:37:21Z</time>
      </trkpt>
      <trkpt lat="44.01996" lon="4.0699">
        <ele>173</ele>
        <time>2011-02-27T15:37:22Z</time>
      </trkpt>
      <trkpt lat="44.01993" lon="4.06997">
        <ele>172</ele>
        <time>2011-02-27T15:37:23Z</time>
      </trkpt>
      <trkpt lat="44.01991" lon="4.07004">
        <ele>172</ele>
        <time>2011-02-27T15:37:24Z</time>
      </trkpt>
      <trkpt lat="44.01989" lon="4.07011">
        <ele>171</ele>
        <time>2011-02-27T15:37:25Z</time>
      </trkpt>
      <trkpt lat="44.01988" lon="4.07019">
        <ele>171</ele>
        <time>2011-02-27T15:37:26Z</time>
      </trkpt>
      <trkpt lat="44.01986" lon="4.07027">
        <ele>170</ele>
        <time>2011-02-27T15:37:27Z</time>
      </trkpt>
      <trkpt lat="44.01984" lon="4.07035">
        <ele>169</ele>
        <time>2011-02-27T15:37:28Z</time>
      </trkpt>
      <trkpt lat="44.01983" lon="4.07043">
        <ele>169</ele>
        <time>2011-02-27T15:37:29Z</time>
      </trkpt>
      <trkpt lat="44.01981" lon="4.07052">
        <ele>168</ele>
        <time>2011-02-27T15:37:30Z</time>
      </trkpt>
      <trkpt lat="44.01979" lon="4.0706">
        <ele>168</ele>
        <time>2011-02-27T15:37:31Z</time>
      </trkpt>
      <trkpt lat="44.01978" lon="4.07069">
        <ele>167</ele>
        <time>2011-02-27T15:37:32Z</time>
      </trkpt>
      <trkpt lat="44.01976" lon="4.07077">
        <ele>167</ele>
        <time>2011-02-27T15:37:33Z</time>
      </trkpt>
      <trkpt lat="44.01974" lon="4.07085">
        <ele>168</ele>
        <time>2011-02-27T15:37:34Z</time>
      </trkpt>
      <trkpt lat="44.01971" lon="4.07093">
        <ele>168</ele>
        <time>2011-02-27T15:37:35Z</time>
      </trkpt>
      <trkpt lat="44.01968" lon="4.07101">
        <ele>168</ele>
        <time>2011-02-27T15:37:36Z</time>
      </trkpt>
      <trkpt lat="44.01966" lon="4.07108">
        <ele>168</ele>
        <time>2011-02-27T15:37:37Z</time>
      </trkpt>
      <trkpt lat="44.01963" lon="4.07116">
        <ele>168</ele>
        <time>2011-02-27T15:37:38Z</time>
      </trkpt>
      <trkpt lat="44.0196" lon="4.07123">
        <ele>168</ele>
        <time>2011-02-27T15:37:39Z</time>
      </trkpt>
      <trkpt lat="44.01957" lon="4.0713">
        <ele>168</ele>
        <time>2011-02-27T15:37:40Z</time>
      </trkpt>
      <trkpt lat="44.01955" lon="4.07137">
        <ele>168</ele>
        <time>2011-02-27T15:37:41Z</time>
      </trkpt>
      <trkpt lat="44.01953" lon="4.07144">
        <ele>168</ele>
        <time>2011-02-27T15:37:42Z</time>
      </trkpt>
      <trkpt lat="44.01951" lon="4.07151">
        <ele>168</ele>
        <time>2011-02-27T15:37:43Z</time>
      </trkpt>
      <trkpt lat="44.01949" lon="4.07157">
        <ele>168</ele>
        <time>2011-02-27T15:37:44Z</time>
      </trkpt>
      <trkpt lat="44.01946" lon="4.07163">
        <ele>167</ele>
        <time>2011-02-27T15:37:45Z</time>
      </trkpt>
      <trkpt lat="44.01944" lon="4.07169">
        <ele>167</ele>
        <time>2011-02-27T15:37:46Z</time>
      </trkpt>
      <trkpt lat="44.01941" lon="4.07175">
        <ele>167</ele>
        <time>2011-02-27T15:37:47Z</time>
      </trkpt>
      <trkpt lat="44.01939" lon="4.07181">
        <ele>167</ele>
        <time>2011-02-27T15:37:48Z</time>
      </trkpt>
      <trkpt lat="44.01936" lon="4.07187">
        <ele>166</ele>
        <time>2011-02-27T15:37:49Z</time>
      </trkpt>
      <trkpt lat="44.01933" lon="4.07193">
        <ele>166</ele>
        <time>2011-02-27T15:37:50Z</time>
      </trkpt>
      <trkpt lat="44.01931" lon="4.07199">
        <ele>166</ele>
        <time>2011-02-27T15:37:51Z</time>
      </trkpt>
      <trkpt lat="44.01928" lon="4.07205">
        <ele>166</ele>
        <time>2011-02-27T15:37:52Z</time>
      </trkpt>
      <trkpt lat="44.01925" lon="4.0721">
        <ele>165</ele>
        <time>2011-02-27T15:37:53Z</time>
      </trkpt>
      <trkpt lat="44.01922" lon="4.07216">
        <ele>165</ele>
        <time>2011-02-27T15:37:54Z</time>
      </trkpt>
      <trkpt lat="44.01918" lon="4.07222">
        <ele>166</ele>
        <time>2011-02-27T15:37:55Z</time>
      </trkpt>
      <trkpt lat="44.01915" lon="4.07229">
        <ele>166</ele>
        <time>2011-02-27T15:37:56Z</time>
      </trkpt>
      <trkpt lat="44.01912" lon="4.07235">
        <ele>166</ele>
        <time>2011-02-27T15:37:57Z</time>
      </trkpt>
      <trkpt lat="44.01908" lon="4.07241">
        <ele>166</ele>
        <time>2011-02-27T15:37:58Z</time>
      </trkpt>
      <trkpt lat="44.01905" lon="4.07246">
        <ele>166</ele>
        <time>2011-02-27T15:37:59Z</time>
      </trkpt>
      <trkpt lat="44.01901" lon="4.07252">
        <ele>166</ele>
        <time>2011-02-27T15:38:00Z</time>
      </trkpt>
      <trkpt lat="44.01897" lon="4.07258">
        <ele>166</ele>
        <time>2011-02-27T15:38:01Z</time>
      </trkpt>
      <trkpt lat="44.01894" lon="4.07263">
        <ele>166</ele>
        <time>2011-02-27T15:38:02Z</time>
      </trkpt>
      <trkpt lat="44.0189" lon="4.07268">
        <ele>166</ele>
        <time>2011-02-27T15:38:03Z</time>
      </trkpt>
      <trkpt lat="44.01886" lon="4.07274">
        <ele>166</ele>
        <time>2011-02-27T15:38:04Z</time>
      </trkpt>
      <trkpt lat="44.01882" lon="4.07279">
        <ele>166</ele>
        <time>2011-02-27T15:38:05Z</time>
      </trkpt>
      <trkpt lat="44.01879" lon="4.07285">
        <ele>166</ele>
        <time>2011-02-27T15:38:06Z</time>
      </trkpt>
      <trkpt lat="44.01875" lon="4.0729">
        <ele>166</ele>
        <time>2011-02-27T15:38:07Z</time>
      </trkpt>
      <trkpt lat="44.01872" lon="4.07296">
        <ele>166</ele>
        <time>2011-02-27T15:38:08Z</time>
      </trkpt>
      <trkpt lat="44.01869" lon="4.07301">
        <ele>167</ele>
        <time>2011-02-27T15:38:09Z</time>
      </trkpt>
      <trkpt lat="44.01866" lon="4.07307">
        <ele>167</ele>
        <time>2011-02-27T15:38:10Z</time>
      </trkpt>
      <trkpt lat="44.01864" lon="4.07314">
        <ele>167</ele>
        <time>2011-02-27T15:38:11Z</time>
      </trkpt>
      <trkpt lat="44.01861" lon="4.0732">
        <ele>168</ele>
        <time>2011-02-27T15:38:12Z</time>
      </trkpt>
      <trkpt lat="44.01859" lon="4.07328">
        <ele>168</ele>
        <time>2011-02-27T15:38:13Z</time>
      </trkpt>
      <trkpt lat="44.01856" lon="4.07335">
        <ele>168</ele>
        <time>2011-02-27T15:38:14Z</time>
      </trkpt>
      <trkpt lat="44.01854" lon="4.07342">
        <ele>169</ele>
        <time>2011-02-27T15:38:15Z</time>
      </trkpt>
      <trkpt lat="44.01852" lon="4.07349">
        <ele>169</ele>
        <time>2011-02-27T15:38:16Z</time>
      </trkpt>
      <trkpt lat="44.0185" lon="4.07357">
        <ele>169</ele>
        <time>2011-02-27T15:38:17Z</time>
      </trkpt>
      <trkpt lat="44.01848" lon="4.07364">
        <ele>169</ele>
        <time>2011-02-27T15:38:18Z</time>
      </trkpt>
      <trkpt lat="44.01846" lon="4.07371">
        <ele>169</ele>
        <time>2011-02-27T15:38:19Z</time>
      </trkpt>
      <trkpt lat="44.01844" lon="4.07379">
        <ele>169</ele>
        <time>2011-02-27T15:38:20Z</time>
      </trkpt>
      <trkpt lat="44.01842" lon="4.07386">
        <ele>169</ele>
        <time>2011-02-27T15:38:21Z</time>
      </trkpt>
      <trkpt lat="44.0184" lon="4.07393">
        <ele>169</ele>
        <time>2011-02-27T15:38:22Z</time>
      </trkpt>
      <trkpt lat="44.01838" lon="4.07399">
        <ele>169</ele>
        <time>2011-02-27T15:38:23Z</time>
      </trkpt>
      <trkpt lat="44.01836" lon="4.07407">
        <ele>169</ele>
        <time>2011-02-27T15:38:24Z</time>
      </trkpt>
      <trkpt lat="44.01835" lon="4.07414">
        <ele>169</ele>
        <time>2011-02-27T15:38:25Z</time>
      </trkpt>
      <trkpt lat="44.01833" lon="4.07421">
        <ele>169</ele>
        <time>2011-02-27T15:38:26Z</time>
      </trkpt>
      <trkpt lat="44.01831" lon="4.07428">
        <ele>169</ele>
        <time>2011-02-27T15:38:27Z</time>
      </trkpt>
      <trkpt lat="44.01829" lon="4.07435">
        <ele>169</ele>
        <time>2011-02-27T15:38:28Z</time>
      </trkpt>
      <trkpt lat="44.01827" lon="4.07443">
        <ele>169</ele>
        <time>2011-02-27T15:38:29Z</time>
      </trkpt>
      <trkpt lat="44.01825" lon="4.0745">
        <ele>169</ele>
        <time>2011-02-27T15:38:30Z</time>
      </trkpt>
      <trkpt lat="44.01823" lon="4.07457">
        <ele>169</ele>
        <time>2011-02-27T15:38:31Z</time>
      </trkpt>
      <trkpt lat="44.01822" lon="4.07464">
        <ele>170</ele>
        <time>2011-02-27T15:38:32Z</time>
      </trkpt>
      <trkpt lat="44.0182" lon="4.07472">
        <ele>170</ele>
        <time>2011-02-27T15:38:33Z</time>
      </trkpt>
      <trkpt lat="44.01818" lon="4.07479">
        <ele>170</ele>
        <time>2011-02-27T15:38:34Z</time>
      </trkpt>
      <trkpt lat="44.01817" lon="4.07486">
        <ele>170</ele>
        <time>2011-02-27T15:38:35Z</time>
      </trkpt>
      <trkpt lat="44.01815" lon="4.07493">
        <ele>170</ele>
        <time>2011-02-27T15:38:36Z</time>
      </trkpt>
      <trkpt lat="44.01813" lon="4.075">
        <ele>170</ele>
        <time>2011-02-27T15:38:37Z</time>
      </trkpt>
      <trkpt lat="44.01811" lon="4.07507">
        <ele>170</ele>
        <time>2011-02-27T15:38:38Z</time>
      </trkpt>
      <trkpt lat="44.01809" lon="4.07515">
        <ele>170</ele>
        <time>2011-02-27T15:38:39Z</time>
      </trkpt>
      <trkpt lat="44.01808" lon="4.07522">
        <ele>171</ele>
        <time>2011-02-27T15:38:40Z</time>
      </trkpt>
      <trkpt lat="44.01806" lon="4.07529">
        <ele>171</ele>
        <time>2011-02-27T15:38:41Z</time>
      </trkpt>
      <trkpt lat="44.01804" lon="4.07535">
        <ele>171</ele>
        <time>2011-02-27T15:38:42Z</time>
      </trkpt>
      <trkpt lat="44.01802" lon="4.07541">
        <ele>172</ele>
        <time>2011-02-27T15:38:43Z</time>
      </trkpt>
      <trkpt lat="44.01799" lon="4.07547">
        <ele>172</ele>
        <time>2011-02-27T15:38:44Z</time>
      </trkpt>
      <trkpt lat="44.01797" lon="4.07553">
        <ele>172</ele>
        <time>2011-02-27T15:38:45Z</time>
      </trkpt>
      <trkpt lat="44.01795" lon="4.07559">
        <ele>172</ele>
        <time>2011-02-27T15:38:46Z</time>
      </trkpt>
      <trkpt lat="44.01793" lon="4.07564">
        <ele>172</ele>
        <time>2011-02-27T15:38:47Z</time>
      </trkpt>
      <trkpt lat="44.01792" lon="4.0757">
        <ele>172</ele>
        <time>2011-02-27T15:38:48Z</time>
      </trkpt>
      <trkpt lat="44.0179" lon="4.07576">
        <ele>172</ele>
        <time>2011-02-27T15:38:49Z</time>
      </trkpt>
      <trkpt lat="44.01789" lon="4.07582">
        <ele>173</ele>
        <time>2011-02-27T15:38:50Z</time>
      </trkpt>
      <trkpt lat="44.01787" lon="4.07588">
        <ele>173</ele>
        <time>2011-02-27T15:38:51Z</time>
      </trkpt>
      <trkpt lat="44.01784" lon="4.076">
        <ele>173</ele>
        <time>2011-02-27T15:38:53Z</time>
      </trkpt>
      <trkpt lat="44.01781" lon="4.07611">
        <ele>173</ele>
        <time>2011-02-27T15:38:55Z</time>
      </trkpt>
      <trkpt lat="44.01778" lon="4.07623">
        <ele>173</ele>
        <time>2011-02-27T15:38:57Z</time>
      </trkpt>
      <trkpt lat="44.01775" lon="4.07635">
        <ele>173</ele>
        <time>2011-02-27T15:38:59Z</time>
      </trkpt>
      <trkpt lat="44.01774" lon="4.07641">
        <ele>174</ele>
        <time>2011-02-27T15:39:00Z</time>
      </trkpt>
      <trkpt lat="44.01773" lon="4.07648">
        <ele>174</ele>
        <time>2011-02-27T15:39:01Z</time>
      </trkpt>
      <trkpt lat="44.0177" lon="4.07654">
        <ele>174</ele>
        <time>2011-02-27T15:39:02Z</time>
      </trkpt>
      <trkpt lat="44.01768" lon="4.07659">
        <ele>174</ele>
        <time>2011-02-27T15:39:03Z</time>
      </trkpt>
      <trkpt lat="44.01765" lon="4.07665">
        <ele>175</ele>
        <time>2011-02-27T15:39:04Z</time>
      </trkpt>
      <trkpt lat="44.01762" lon="4.07672">
        <ele>175</ele>
        <time>2011-02-27T15:39:05Z</time>
      </trkpt>
      <trkpt lat="44.0176" lon="4.07678">
        <ele>176</ele>
        <time>2011-02-27T15:39:06Z</time>
      </trkpt>
      <trkpt lat="44.01759" lon="4.07684">
        <ele>176</ele>
        <time>2011-02-27T15:39:07Z</time>
      </trkpt>
      <trkpt lat="44.01757" lon="4.07691">
        <ele>176</ele>
        <time>2011-02-27T15:39:08Z</time>
      </trkpt>
      <trkpt lat="44.01755" lon="4.07697">
        <ele>176</ele>
        <time>2011-02-27T15:39:09Z</time>
      </trkpt>
      <trkpt lat="44.01753" lon="4.07704">
        <ele>176</ele>
        <time>2011-02-27T15:39:10Z</time>
      </trkpt>
      <trkpt lat="44.01751" lon="4.0771">
        <ele>177</ele>
        <time>2011-02-27T15:39:11Z</time>
      </trkpt>
      <trkpt lat="44.01749" lon="4.07716">
        <ele>177</ele>
        <time>2011-02-27T15:39:12Z</time>
      </trkpt>
      <trkpt lat="44.01746" lon="4.07723">
        <ele>178</ele>
        <time>2011-02-27T15:39:13Z</time>
      </trkpt>
      <trkpt lat="44.01743" lon="4.07729">
        <ele>178</ele>
        <time>2011-02-27T15:39:14Z</time>
      </trkpt>
      <trkpt lat="44.0174" lon="4.07735">
        <ele>179</ele>
        <time>2011-02-27T15:39:15Z</time>
      </trkpt>
      <trkpt lat="44.01737" lon="4.07741">
        <ele>179</ele>
        <time>2011-02-27T15:39:16Z</time>
      </trkpt>
      <trkpt lat="44.01733" lon="4.07746">
        <ele>180</ele>
        <time>2011-02-27T15:39:17Z</time>
      </trkpt>
      <trkpt lat="44.01729" lon="4.07752">
        <ele>180</ele>
        <time>2011-02-27T15:39:18Z</time>
      </trkpt>
      <trkpt lat="44.01724" lon="4.07758">
        <ele>180</ele>
        <time>2011-02-27T15:39:19Z</time>
      </trkpt>
      <trkpt lat="44.0172" lon="4.07763">
        <ele>180</ele>
        <time>2011-02-27T15:39:20Z</time>
      </trkpt>
      <trkpt lat="44.01716" lon="4.07769">
        <ele>180</ele>
        <time>2011-02-27T15:39:21Z</time>
      </trkpt>
      <trkpt lat="44.01712" lon="4.07775">
        <ele>180</ele>
        <time>2011-02-27T15:39:22Z</time>
      </trkpt>
      <trkpt lat="44.01707" lon="4.0778">
        <ele>179</ele>
        <time>2011-02-27T15:39:23Z</time>
      </trkpt>
      <trkpt lat="44.01703" lon="4.07785">
        <ele>179</ele>
        <time>2011-02-27T15:39:24Z</time>
      </trkpt>
      <trkpt lat="44.01698" lon="4.0779">
        <ele>179</ele>
        <time>2011-02-27T15:39:25Z</time>
      </trkpt>
      <trkpt lat="44.01694" lon="4.07795">
        <ele>179</ele>
        <time>2011-02-27T15:39:26Z</time>
      </trkpt>
      <trkpt lat="44.0169" lon="4.078">
        <ele>179</ele>
        <time>2011-02-27T15:39:27Z</time>
      </trkpt>
      <trkpt lat="44.01686" lon="4.07805">
        <ele>179</ele>
        <time>2011-02-27T15:39:28Z</time>
      </trkpt>
      <trkpt lat="44.01682" lon="4.0781">
        <ele>179</ele>
        <time>2011-02-27T15:39:29Z</time>
      </trkpt>
      <trkpt lat="44.01678" lon="4.07815">
        <ele>179</ele>
        <time>2011-02-27T15:39:30Z</time>
      </trkpt>
      <trkpt lat="44.01673" lon="4.07819">
        <ele>179</ele>
        <time>2011-02-27T15:39:31Z</time>
      </trkpt>
      <trkpt lat="44.01668" lon="4.07824">
        <ele>179</ele>
        <time>2011-02-27T15:39:32Z</time>
      </trkpt>
      <trkpt lat="44.01663" lon="4.07828">
        <ele>179</ele>
        <time>2011-02-27T15:39:33Z</time>
      </trkpt>
      <trkpt lat="44.01658" lon="4.07833">
        <ele>179</ele>
        <time>2011-02-27T15:39:34Z</time>
      </trkpt>
      <trkpt lat="44.01654" lon="4.07838">
        <ele>178</ele>
        <time>2011-02-27T15:39:35Z</time>
      </trkpt>
      <trkpt lat="44.01649" lon="4.07842">
        <ele>178</ele>
        <time>2011-02-27T15:39:36Z</time>
      </trkpt>
      <trkpt lat="44.01644" lon="4.07847">
        <ele>178</ele>
        <time>2011-02-27T15:39:37Z</time>
      </trkpt>
      <trkpt lat="44.01639" lon="4.07851">
        <ele>178</ele>
        <time>2011-02-27T15:39:38Z</time>
      </trkpt>
      <trkpt lat="44.01634" lon="4.07855">
        <ele>177</ele>
        <time>2011-02-27T15:39:39Z</time>
      </trkpt>
      <trkpt lat="44.0163" lon="4.07857">
        <ele>177</ele>
        <time>2011-02-27T15:39:40Z</time>
      </trkpt>
      <trkpt lat="44.01622" lon="4.07857">
        <ele>176</ele>
        <time>2011-02-27T15:39:42Z</time>
      </trkpt>
      <trkpt lat="44.01616" lon="4.07854">
        <ele>176</ele>
        <time>2011-02-27T15:39:44Z</time>
      </trkpt>
      <trkpt lat="44.01613" lon="4.07852">
        <ele>176</ele>
        <time>2011-02-27T15:39:45Z</time>
      </trkpt>
      <trkpt lat="44.01608" lon="4.07848">
        <ele>176</ele>
        <time>2011-02-27T15:39:47Z</time>
      </trkpt>
      <trkpt lat="44.01603" lon="4.07843">
        <ele>175</ele>
        <time>2011-02-27T15:39:49Z</time>
      </trkpt>
      <trkpt lat="44.01598" lon="4.07839">
        <ele>175</ele>
        <time>2011-02-27T15:39:51Z</time>
      </trkpt>
      <trkpt lat="44.01594" lon="4.07834">
        <ele>175</ele>
        <time>2011-02-27T15:39:53Z</time>
      </trkpt>
      <trkpt lat="44.01589" lon="4.0783">
        <ele>175</ele>
        <time>2011-02-27T15:39:55Z</time>
      </trkpt>
      <trkpt lat="44.01585" lon="4.07825">
        <ele>175</ele>
        <time>2011-02-27T15:39:57Z</time>
      </trkpt>
      <trkpt lat="44.01581" lon="4.07821">
        <ele>175</ele>
        <time>2011-02-27T15:39:59Z</time>
      </trkpt>
      <trkpt lat="44.01577" lon="4.07817">
        <ele>175</ele>
        <time>2011-02-27T15:40:01Z</time>
      </trkpt>
      <trkpt lat="44.01573" lon="4.07812">
        <ele>176</ele>
        <time>2011-02-27T15:40:03Z</time>
      </trkpt>
      <trkpt lat="44.0157" lon="4.07808">
        <ele>176</ele>
        <time>2011-02-27T15:40:05Z</time>
      </trkpt>
      <trkpt lat="44.01567" lon="4.07803">
        <ele>177</ele>
        <time>2011-02-27T15:40:07Z</time>
      </trkpt>
      <trkpt lat="44.01565" lon="4.07796">
        <ele>178</ele>
        <time>2011-02-27T15:40:09Z</time>
      </trkpt>
      <trkpt lat="44.01567" lon="4.07789">
        <ele>177</ele>
        <time>2011-02-27T15:40:11Z</time>
      </trkpt>
      <trkpt lat="44.01569" lon="4.07781">
        <ele>176</ele>
        <time>2011-02-27T15:40:13Z</time>
      </trkpt>
      <trkpt lat="44.01571" lon="4.07778">
        <ele>176</ele>
        <time>2011-02-27T15:40:14Z</time>
      </trkpt>
      <trkpt lat="44.01575" lon="4.07773">
        <ele>175</ele>
        <time>2011-02-27T15:40:16Z</time>
      </trkpt>
      <trkpt lat="44.01578" lon="4.07768">
        <ele>174</ele>
        <time>2011-02-27T15:40:18Z</time>
      </trkpt>
      <trkpt lat="44.01581" lon="4.07763">
        <ele>173</ele>
        <time>2011-02-27T15:40:21Z</time>
      </trkpt>
      <trkpt lat="44.01585" lon="4.07756">
        <ele>172</ele>
        <time>2011-02-27T15:40:25Z</time>
      </trkpt>
      <trkpt lat="44.01588" lon="4.0775">
        <ele>172</ele>
        <time>2011-02-27T15:40:28Z</time>
      </trkpt>
      <trkpt lat="44.01592" lon="4.07744">
        <ele>173</ele>
        <time>2011-02-27T15:40:31Z</time>
      </trkpt>
      <trkpt lat="44.01594" lon="4.0774">
        <ele>173</ele>
        <time>2011-02-27T15:40:33Z</time>
      </trkpt>
      <trkpt lat="44.01596" lon="4.07732">
        <ele>175</ele>
        <time>2011-02-27T15:40:37Z</time>
      </trkpt>
      <trkpt lat="44.01593" lon="4.07726">
        <ele>177</ele>
        <time>2011-02-27T15:40:40Z</time>
      </trkpt>
      <trkpt lat="44.01589" lon="4.07721">
        <ele>179</ele>
        <time>2011-02-27T15:40:43Z</time>
      </trkpt>
      <trkpt lat="44.01584" lon="4.07715">
        <ele>181</ele>
        <time>2011-02-27T15:40:46Z</time>
      </trkpt>
      <trkpt lat="44.01579" lon="4.07709">
        <ele>182</ele>
        <time>2011-02-27T15:40:49Z</time>
      </trkpt>
      <trkpt lat="44.01576" lon="4.07702">
        <ele>184</ele>
        <time>2011-02-27T15:40:52Z</time>
      </trkpt>
      <trkpt lat="44.01575" lon="4.07695">
        <ele>185</ele>
        <time>2011-02-27T15:40:55Z</time>
      </trkpt>
      <trkpt lat="44.01577" lon="4.07687">
        <ele>186</ele>
        <time>2011-02-27T15:40:58Z</time>
      </trkpt>
      <trkpt lat="44.01577" lon="4.0768">
        <ele>186</ele>
        <time>2011-02-27T15:41:01Z</time>
      </trkpt>
      <trkpt lat="44.01577" lon="4.07677">
        <ele>186</ele>
        <time>2011-02-27T15:41:02Z</time>
      </trkpt>
      <trkpt lat="44.01578" lon="4.07669">
        <ele>187</ele>
        <time>2011-02-27T15:41:06Z</time>
      </trkpt>
      <trkpt lat="44.01578" lon="4.07661">
        <ele>187</ele>
        <time>2011-02-27T15:41:10Z</time>
      </trkpt>
      <trkpt lat="44.01575" lon="4.07655">
        <ele>188</ele>
        <time>2011-02-27T15:41:14Z</time>
      </trkpt>
      <trkpt lat="44.01572" lon="4.0765">
        <ele>190</ele>
        <time>2011-02-27T15:41:18Z</time>
      </trkpt>
      <trkpt lat="44.01569" lon="4.07644">
        <ele>192</ele>
        <time>2011-02-27T15:41:21Z</time>
      </trkpt>
      <trkpt lat="44.01568" lon="4.07642">
        <ele>193</ele>
        <time>2011-02-27T15:41:22Z</time>
      </trkpt>
      <trkpt lat="44.01565" lon="4.07636">
        <ele>195</ele>
        <time>2011-02-27T15:41:25Z</time>
      </trkpt>
      <trkpt lat="44.01565" lon="4.07628">
        <ele>196</ele>
        <time>2011-02-27T15:41:28Z</time>
      </trkpt>
      <trkpt lat="44.01565" lon="4.0762">
        <ele>198</ele>
        <time>2011-02-27T15:41:31Z</time>
      </trkpt>
      <trkpt lat="44.01564" lon="4.0761">
        <ele>200</ele>
        <time>2011-02-27T15:41:34Z</time>
      </trkpt>
      <trkpt lat="44.01563" lon="4.07603">
        <ele>201</ele>
        <time>2011-02-27T15:41:36Z</time>
      </trkpt>
      <trkpt lat="44.01561" lon="4.07596">
        <ele>202</ele>
        <time>2011-02-27T15:41:38Z</time>
      </trkpt>
      <trkpt lat="44.01559" lon="4.0759">
        <ele>202</ele>
        <time>2011-02-27T15:41:40Z</time>
      </trkpt>
      <trkpt lat="44.01555" lon="4.07584">
        <ele>202</ele>
        <time>2011-02-27T15:41:43Z</time>
      </trkpt>
      <trkpt lat="44.01554" lon="4.07577">
        <ele>196</ele>
        <time>2011-02-27T15:42:22Z</time>
      </trkpt>
    </trkseg>
  </trk>
</gpx>